<?xml version="1.0" encoding="UTF-8" standalone="no" ?>
<gpx xmlns="http://www.topografix.com/GPX/1/1" xmlns:xsi="http://www.w3.org/2001/XMLSchema-instance" xsi:schemaLocation="http://www.topografix.com/GPX/1/1 http://www.topografix.com/GPX/1/1/gpx.xsd" version="1.1" creator="VisuGPX - https://www.visugpx.com">
  <metadata>
    <name>VTT - Venelles Roques Hautes</name>
    <desc><![CDATA[Sortie sans difficulté]]></desc>
  </metadata>
  <trk>
    <name><![CDATA[VTT - Venelles Roques Hautes]]></name>
    <trkseg>
      <trkpt lat="43.60043" lon="5.48703">
        <ele>364.20001220703</ele>
        <time>2013-02-19T08:41:41.000Z</time>
      </trkpt>
      <trkpt lat="43.60043" lon="5.48705">
        <ele>364.20001220703</ele>
        <time>2013-02-19T08:41:45.000Z</time>
      </trkpt>
      <trkpt lat="43.60043" lon="5.48706">
        <ele>364.20001220703</ele>
        <time>2013-02-19T08:41:46.000Z</time>
      </trkpt>
      <trkpt lat="43.60051" lon="5.4871">
        <ele>364.20001220703</ele>
        <time>2013-02-19T08:41:52.000Z</time>
      </trkpt>
      <trkpt lat="43.60053" lon="5.48713">
        <ele>364.20001220703</ele>
        <time>2013-02-19T08:41:53.000Z</time>
      </trkpt>
      <trkpt lat="43.60056" lon="5.48717">
        <ele>364</ele>
        <time>2013-02-19T08:41:54.000Z</time>
      </trkpt>
      <trkpt lat="43.60063" lon="5.48732">
        <ele>364</ele>
        <time>2013-02-19T08:41:57.000Z</time>
      </trkpt>
      <trkpt lat="43.60064" lon="5.48739">
        <ele>364</ele>
        <time>2013-02-19T08:41:58.000Z</time>
      </trkpt>
      <trkpt lat="43.60065" lon="5.48746">
        <ele>364.20001220703</ele>
        <time>2013-02-19T08:41:59.000Z</time>
      </trkpt>
      <trkpt lat="43.60065" lon="5.48777">
        <ele>364.79998779297</ele>
        <time>2013-02-19T08:42:03.000Z</time>
      </trkpt>
      <trkpt lat="43.60064" lon="5.48784">
        <ele>365</ele>
        <time>2013-02-19T08:42:04.000Z</time>
      </trkpt>
      <trkpt lat="43.60062" lon="5.48791">
        <ele>365.20001220703</ele>
        <time>2013-02-19T08:42:05.000Z</time>
      </trkpt>
      <trkpt lat="43.6006" lon="5.48798">
        <ele>365.39999389648</ele>
        <time>2013-02-19T08:42:06.000Z</time>
      </trkpt>
      <trkpt lat="43.60057" lon="5.48804">
        <ele>365.60000610352</ele>
        <time>2013-02-19T08:42:07.000Z</time>
      </trkpt>
      <trkpt lat="43.60054" lon="5.48809">
        <ele>365.60000610352</ele>
        <time>2013-02-19T08:42:08.000Z</time>
      </trkpt>
      <trkpt lat="43.60047" lon="5.48821">
        <ele>366</ele>
        <time>2013-02-19T08:42:11.000Z</time>
      </trkpt>
      <trkpt lat="43.6004" lon="5.4884">
        <ele>366.39999389648</ele>
        <time>2013-02-19T08:42:17.000Z</time>
      </trkpt>
      <trkpt lat="43.60032" lon="5.48861">
        <ele>366.60000610352</ele>
        <time>2013-02-19T08:42:24.000Z</time>
      </trkpt>
      <trkpt lat="43.60024" lon="5.48882">
        <ele>367.20001220703</ele>
        <time>2013-02-19T08:42:31.000Z</time>
      </trkpt>
      <trkpt lat="43.60016" lon="5.48907">
        <ele>367.79998779297</ele>
        <time>2013-02-19T08:42:39.000Z</time>
      </trkpt>
      <trkpt lat="43.60016" lon="5.48911">
        <ele>367.79998779297</ele>
        <time>2013-02-19T08:42:40.000Z</time>
      </trkpt>
      <trkpt lat="43.60004" lon="5.48945">
        <ele>368.79998779297</ele>
        <time>2013-02-19T08:42:50.000Z</time>
      </trkpt>
      <trkpt lat="43.5999" lon="5.48987">
        <ele>369.79998779297</ele>
        <time>2013-02-19T08:43:02.000Z</time>
      </trkpt>
      <trkpt lat="43.59978" lon="5.49024">
        <ele>370.39999389648</ele>
        <time>2013-02-19T08:43:14.000Z</time>
      </trkpt>
      <trkpt lat="43.59958" lon="5.49055">
        <ele>371.39999389648</ele>
        <time>2013-02-19T08:43:26.000Z</time>
      </trkpt>
      <trkpt lat="43.59918" lon="5.49064">
        <ele>373.20001220703</ele>
        <time>2013-02-19T08:43:39.000Z</time>
      </trkpt>
      <trkpt lat="43.59879" lon="5.49054">
        <ele>372.60000610352</ele>
        <time>2013-02-19T08:43:52.000Z</time>
      </trkpt>
      <trkpt lat="43.59842" lon="5.49029">
        <ele>371.60000610352</ele>
        <time>2013-02-19T08:44:05.000Z</time>
      </trkpt>
      <trkpt lat="43.5981" lon="5.49023">
        <ele>371.39999389648</ele>
        <time>2013-02-19T08:44:17.000Z</time>
      </trkpt>
      <trkpt lat="43.59806" lon="5.49024">
        <ele>371.39999389648</ele>
        <time>2013-02-19T08:44:24.000Z</time>
      </trkpt>
      <trkpt lat="43.59799" lon="5.49024">
        <ele>371.39999389648</ele>
        <time>2013-02-19T08:44:41.000Z</time>
      </trkpt>
      <trkpt lat="43.59797" lon="5.49025">
        <ele>371.60000610352</ele>
        <time>2013-02-19T08:44:48.000Z</time>
      </trkpt>
      <trkpt lat="43.59795" lon="5.49023">
        <ele>371.39999389648</ele>
        <time>2013-02-19T08:44:53.000Z</time>
      </trkpt>
      <trkpt lat="43.59794" lon="5.49022">
        <ele>371.39999389648</ele>
        <time>2013-02-19T08:44:54.000Z</time>
      </trkpt>
      <trkpt lat="43.59793" lon="5.49019">
        <ele>371.39999389648</ele>
        <time>2013-02-19T08:44:55.000Z</time>
      </trkpt>
      <trkpt lat="43.5979" lon="5.49016">
        <ele>371.20001220703</ele>
        <time>2013-02-19T08:44:56.000Z</time>
      </trkpt>
      <trkpt lat="43.59788" lon="5.49013">
        <ele>371.20001220703</ele>
        <time>2013-02-19T08:44:57.000Z</time>
      </trkpt>
      <trkpt lat="43.59774" lon="5.48999">
        <ele>370.79998779297</ele>
        <time>2013-02-19T08:45:01.000Z</time>
      </trkpt>
      <trkpt lat="43.59771" lon="5.48994">
        <ele>370.79998779297</ele>
        <time>2013-02-19T08:45:02.000Z</time>
      </trkpt>
      <trkpt lat="43.59747" lon="5.48967">
        <ele>370.39999389648</ele>
        <time>2013-02-19T08:45:10.000Z</time>
      </trkpt>
      <trkpt lat="43.59747" lon="5.48965">
        <ele>370.39999389648</ele>
        <time>2013-02-19T08:45:24.000Z</time>
      </trkpt>
      <trkpt lat="43.59745" lon="5.48961">
        <ele>370.39999389648</ele>
        <time>2013-02-19T08:45:34.000Z</time>
      </trkpt>
      <trkpt lat="43.59744" lon="5.48959">
        <ele>370.20001220703</ele>
        <time>2013-02-19T08:45:35.000Z</time>
      </trkpt>
      <trkpt lat="43.59744" lon="5.48957">
        <ele>370.20001220703</ele>
        <time>2013-02-19T08:45:36.000Z</time>
      </trkpt>
      <trkpt lat="43.59743" lon="5.48955">
        <ele>370.20001220703</ele>
        <time>2013-02-19T08:45:37.000Z</time>
      </trkpt>
      <trkpt lat="43.59742" lon="5.48953">
        <ele>370.20001220703</ele>
        <time>2013-02-19T08:45:38.000Z</time>
      </trkpt>
      <trkpt lat="43.59741" lon="5.48952">
        <ele>370.20001220703</ele>
        <time>2013-02-19T08:45:39.000Z</time>
      </trkpt>
      <trkpt lat="43.59733" lon="5.48942">
        <ele>369.79998779297</ele>
        <time>2013-02-19T08:45:44.000Z</time>
      </trkpt>
      <trkpt lat="43.59731" lon="5.48942">
        <ele>369.79998779297</ele>
        <time>2013-02-19T08:45:45.000Z</time>
      </trkpt>
      <trkpt lat="43.59728" lon="5.48945">
        <ele>369.79998779297</ele>
        <time>2013-02-19T08:45:46.000Z</time>
      </trkpt>
      <trkpt lat="43.59724" lon="5.48947">
        <ele>369.60000610352</ele>
        <time>2013-02-19T08:45:47.000Z</time>
      </trkpt>
      <trkpt lat="43.59719" lon="5.48947">
        <ele>369.60000610352</ele>
        <time>2013-02-19T08:45:48.000Z</time>
      </trkpt>
      <trkpt lat="43.59715" lon="5.48945">
        <ele>369.39999389648</ele>
        <time>2013-02-19T08:45:49.000Z</time>
      </trkpt>
      <trkpt lat="43.59713" lon="5.48943">
        <ele>369.39999389648</ele>
        <time>2013-02-19T08:45:50.000Z</time>
      </trkpt>
      <trkpt lat="43.5971" lon="5.48942">
        <ele>369.20001220703</ele>
        <time>2013-02-19T08:45:51.000Z</time>
      </trkpt>
      <trkpt lat="43.59708" lon="5.48944">
        <ele>369.20001220703</ele>
        <time>2013-02-19T08:45:52.000Z</time>
      </trkpt>
      <trkpt lat="43.59706" lon="5.48947">
        <ele>369.20001220703</ele>
        <time>2013-02-19T08:45:53.000Z</time>
      </trkpt>
      <trkpt lat="43.59679" lon="5.48972">
        <ele>368.79998779297</ele>
        <time>2013-02-19T08:46:06.000Z</time>
      </trkpt>
      <trkpt lat="43.59675" lon="5.48977">
        <ele>368.79998779297</ele>
        <time>2013-02-19T08:46:10.000Z</time>
      </trkpt>
      <trkpt lat="43.59674" lon="5.48979">
        <ele>368.79998779297</ele>
        <time>2013-02-19T08:46:11.000Z</time>
      </trkpt>
      <trkpt lat="43.59673" lon="5.4898">
        <ele>368.79998779297</ele>
        <time>2013-02-19T08:46:12.000Z</time>
      </trkpt>
      <trkpt lat="43.59654" lon="5.48988">
        <ele>369</ele>
        <time>2013-02-19T08:46:19.000Z</time>
      </trkpt>
      <trkpt lat="43.59649" lon="5.4899">
        <ele>369</ele>
        <time>2013-02-19T08:46:20.000Z</time>
      </trkpt>
      <trkpt lat="43.59644" lon="5.48993">
        <ele>369.20001220703</ele>
        <time>2013-02-19T08:46:21.000Z</time>
      </trkpt>
      <trkpt lat="43.59639" lon="5.48996">
        <ele>369.39999389648</ele>
        <time>2013-02-19T08:46:22.000Z</time>
      </trkpt>
      <trkpt lat="43.59636" lon="5.48999">
        <ele>369.60000610352</ele>
        <time>2013-02-19T08:46:23.000Z</time>
      </trkpt>
      <trkpt lat="43.59633" lon="5.49003">
        <ele>370</ele>
        <time>2013-02-19T08:46:24.000Z</time>
      </trkpt>
      <trkpt lat="43.5963" lon="5.49006">
        <ele>370.39999389648</ele>
        <time>2013-02-19T08:46:25.000Z</time>
      </trkpt>
      <trkpt lat="43.59627" lon="5.4901">
        <ele>370.79998779297</ele>
        <time>2013-02-19T08:46:26.000Z</time>
      </trkpt>
      <trkpt lat="43.59626" lon="5.49014">
        <ele>371.20001220703</ele>
        <time>2013-02-19T08:46:27.000Z</time>
      </trkpt>
      <trkpt lat="43.59611" lon="5.4905">
        <ele>375</ele>
        <time>2013-02-19T08:46:37.000Z</time>
      </trkpt>
      <trkpt lat="43.59607" lon="5.49057">
        <ele>375.79998779297</ele>
        <time>2013-02-19T08:46:40.000Z</time>
      </trkpt>
      <trkpt lat="43.59605" lon="5.49057">
        <ele>375.79998779297</ele>
        <time>2013-02-19T08:46:41.000Z</time>
      </trkpt>
      <trkpt lat="43.59599" lon="5.49056">
        <ele>375.60000610352</ele>
        <time>2013-02-19T08:46:43.000Z</time>
      </trkpt>
      <trkpt lat="43.59597" lon="5.49059">
        <ele>375.79998779297</ele>
        <time>2013-02-19T08:46:44.000Z</time>
      </trkpt>
      <trkpt lat="43.59584" lon="5.49092">
        <ele>378.60000610352</ele>
        <time>2013-02-19T08:46:53.000Z</time>
      </trkpt>
      <trkpt lat="43.59569" lon="5.49124">
        <ele>381.60000610352</ele>
        <time>2013-02-19T08:47:02.000Z</time>
      </trkpt>
      <trkpt lat="43.59545" lon="5.49169">
        <ele>385.39999389648</ele>
        <time>2013-02-19T08:47:14.000Z</time>
      </trkpt>
      <trkpt lat="43.59531" lon="5.49189">
        <ele>386.39999389648</ele>
        <time>2013-02-19T08:47:22.000Z</time>
      </trkpt>
      <trkpt lat="43.59515" lon="5.49202">
        <ele>386.60000610352</ele>
        <time>2013-02-19T08:47:30.000Z</time>
      </trkpt>
      <trkpt lat="43.59486" lon="5.49223">
        <ele>385.60000610352</ele>
        <time>2013-02-19T08:47:40.000Z</time>
      </trkpt>
      <trkpt lat="43.59482" lon="5.49227">
        <ele>385.39999389648</ele>
        <time>2013-02-19T08:47:41.000Z</time>
      </trkpt>
      <trkpt lat="43.59466" lon="5.49251">
        <ele>384.39999389648</ele>
        <time>2013-02-19T08:47:46.000Z</time>
      </trkpt>
      <trkpt lat="43.59464" lon="5.49257">
        <ele>384.39999389648</ele>
        <time>2013-02-19T08:47:47.000Z</time>
      </trkpt>
      <trkpt lat="43.59448" lon="5.49303">
        <ele>383.79998779297</ele>
        <time>2013-02-19T08:47:55.000Z</time>
      </trkpt>
      <trkpt lat="43.59433" lon="5.49358">
        <ele>384.20001220703</ele>
        <time>2013-02-19T08:48:06.000Z</time>
      </trkpt>
      <trkpt lat="43.5942" lon="5.49406">
        <ele>385.60000610352</ele>
        <time>2013-02-19T08:48:17.000Z</time>
      </trkpt>
      <trkpt lat="43.59406" lon="5.49455">
        <ele>386.39999389648</ele>
        <time>2013-02-19T08:48:28.000Z</time>
      </trkpt>
      <trkpt lat="43.59391" lon="5.49498">
        <ele>386.39999389648</ele>
        <time>2013-02-19T08:48:37.000Z</time>
      </trkpt>
      <trkpt lat="43.59359" lon="5.49548">
        <ele>384</ele>
        <time>2013-02-19T08:48:47.000Z</time>
      </trkpt>
      <trkpt lat="43.59315" lon="5.496">
        <ele>380.20001220703</ele>
        <time>2013-02-19T08:48:56.000Z</time>
      </trkpt>
      <trkpt lat="43.59304" lon="5.49614">
        <ele>379</ele>
        <time>2013-02-19T08:48:58.000Z</time>
      </trkpt>
      <trkpt lat="43.593" lon="5.49623">
        <ele>378.60000610352</ele>
        <time>2013-02-19T08:48:59.000Z</time>
      </trkpt>
      <trkpt lat="43.59285" lon="5.49651">
        <ele>377</ele>
        <time>2013-02-19T08:49:02.000Z</time>
      </trkpt>
      <trkpt lat="43.59279" lon="5.49663">
        <ele>376.39999389648</ele>
        <time>2013-02-19T08:49:03.000Z</time>
      </trkpt>
      <trkpt lat="43.59275" lon="5.49675">
        <ele>375.60000610352</ele>
        <time>2013-02-19T08:49:04.000Z</time>
      </trkpt>
      <trkpt lat="43.59273" lon="5.49687">
        <ele>375</ele>
        <time>2013-02-19T08:49:05.000Z</time>
      </trkpt>
      <trkpt lat="43.59273" lon="5.49699">
        <ele>374.60000610352</ele>
        <time>2013-02-19T08:49:06.000Z</time>
      </trkpt>
      <trkpt lat="43.59274" lon="5.49711">
        <ele>374.39999389648</ele>
        <time>2013-02-19T08:49:07.000Z</time>
      </trkpt>
      <trkpt lat="43.59275" lon="5.49724">
        <ele>374</ele>
        <time>2013-02-19T08:49:08.000Z</time>
      </trkpt>
      <trkpt lat="43.59274" lon="5.49738">
        <ele>373.60000610352</ele>
        <time>2013-02-19T08:49:09.000Z</time>
      </trkpt>
      <trkpt lat="43.59271" lon="5.49751">
        <ele>372.60000610352</ele>
        <time>2013-02-19T08:49:10.000Z</time>
      </trkpt>
      <trkpt lat="43.59258" lon="5.49791">
        <ele>370</ele>
        <time>2013-02-19T08:49:13.000Z</time>
      </trkpt>
      <trkpt lat="43.59256" lon="5.49804">
        <ele>369.39999389648</ele>
        <time>2013-02-19T08:49:14.000Z</time>
      </trkpt>
      <trkpt lat="43.59256" lon="5.49817">
        <ele>369.20001220703</ele>
        <time>2013-02-19T08:49:15.000Z</time>
      </trkpt>
      <trkpt lat="43.59257" lon="5.49829">
        <ele>369</ele>
        <time>2013-02-19T08:49:16.000Z</time>
      </trkpt>
      <trkpt lat="43.59259" lon="5.4984">
        <ele>369.20001220703</ele>
        <time>2013-02-19T08:49:17.000Z</time>
      </trkpt>
      <trkpt lat="43.59262" lon="5.4985">
        <ele>369.39999389648</ele>
        <time>2013-02-19T08:49:18.000Z</time>
      </trkpt>
      <trkpt lat="43.59267" lon="5.49869">
        <ele>369.79998779297</ele>
        <time>2013-02-19T08:49:20.000Z</time>
      </trkpt>
      <trkpt lat="43.59268" lon="5.49938">
        <ele>369.79998779297</ele>
        <time>2013-02-19T08:49:28.000Z</time>
      </trkpt>
      <trkpt lat="43.59265" lon="5.50021">
        <ele>370.39999389648</ele>
        <time>2013-02-19T08:49:39.000Z</time>
      </trkpt>
      <trkpt lat="43.59263" lon="5.50026">
        <ele>370.20001220703</ele>
        <time>2013-02-19T08:49:40.000Z</time>
      </trkpt>
      <trkpt lat="43.59259" lon="5.50028">
        <ele>369.60000610352</ele>
        <time>2013-02-19T08:49:41.000Z</time>
      </trkpt>
      <trkpt lat="43.59254" lon="5.50027">
        <ele>369</ele>
        <time>2013-02-19T08:49:42.000Z</time>
      </trkpt>
      <trkpt lat="43.59248" lon="5.50026">
        <ele>368.39999389648</ele>
        <time>2013-02-19T08:49:43.000Z</time>
      </trkpt>
      <trkpt lat="43.59241" lon="5.50026">
        <ele>368</ele>
        <time>2013-02-19T08:49:44.000Z</time>
      </trkpt>
      <trkpt lat="43.59196" lon="5.50024">
        <ele>364.79998779297</ele>
        <time>2013-02-19T08:49:50.000Z</time>
      </trkpt>
      <trkpt lat="43.5918" lon="5.50024">
        <ele>363.79998779297</ele>
        <time>2013-02-19T08:49:52.000Z</time>
      </trkpt>
      <trkpt lat="43.59172" lon="5.50024">
        <ele>363.20001220703</ele>
        <time>2013-02-19T08:49:53.000Z</time>
      </trkpt>
      <trkpt lat="43.59102" lon="5.50023">
        <ele>362.79998779297</ele>
        <time>2013-02-19T08:50:03.000Z</time>
      </trkpt>
      <trkpt lat="43.59091" lon="5.50021">
        <ele>362.60000610352</ele>
        <time>2013-02-19T08:50:05.000Z</time>
      </trkpt>
      <trkpt lat="43.59085" lon="5.50019">
        <ele>362.39999389648</ele>
        <time>2013-02-19T08:50:06.000Z</time>
      </trkpt>
      <trkpt lat="43.5908" lon="5.50015">
        <ele>362.20001220703</ele>
        <time>2013-02-19T08:50:07.000Z</time>
      </trkpt>
      <trkpt lat="43.59075" lon="5.50012">
        <ele>362</ele>
        <time>2013-02-19T08:50:08.000Z</time>
      </trkpt>
      <trkpt lat="43.5907" lon="5.50009">
        <ele>362</ele>
        <time>2013-02-19T08:50:09.000Z</time>
      </trkpt>
      <trkpt lat="43.59064" lon="5.50007">
        <ele>362</ele>
        <time>2013-02-19T08:50:10.000Z</time>
      </trkpt>
      <trkpt lat="43.59034" lon="5.49991">
        <ele>361.20001220703</ele>
        <time>2013-02-19T08:50:15.000Z</time>
      </trkpt>
      <trkpt lat="43.59013" lon="5.49974">
        <ele>360</ele>
        <time>2013-02-19T08:50:19.000Z</time>
      </trkpt>
      <trkpt lat="43.59008" lon="5.49972">
        <ele>359.79998779297</ele>
        <time>2013-02-19T08:50:20.000Z</time>
      </trkpt>
      <trkpt lat="43.59002" lon="5.49971">
        <ele>359.79998779297</ele>
        <time>2013-02-19T08:50:21.000Z</time>
      </trkpt>
      <trkpt lat="43.58935" lon="5.49978">
        <ele>357.20001220703</ele>
        <time>2013-02-19T08:50:31.000Z</time>
      </trkpt>
      <trkpt lat="43.58928" lon="5.49978">
        <ele>356.79998779297</ele>
        <time>2013-02-19T08:50:32.000Z</time>
      </trkpt>
      <trkpt lat="43.5892" lon="5.49977">
        <ele>356.39999389648</ele>
        <time>2013-02-19T08:50:33.000Z</time>
      </trkpt>
      <trkpt lat="43.58912" lon="5.49975">
        <ele>356</ele>
        <time>2013-02-19T08:50:34.000Z</time>
      </trkpt>
      <trkpt lat="43.58905" lon="5.49972">
        <ele>355.60000610352</ele>
        <time>2013-02-19T08:50:35.000Z</time>
      </trkpt>
      <trkpt lat="43.58897" lon="5.49967">
        <ele>355.20001220703</ele>
        <time>2013-02-19T08:50:36.000Z</time>
      </trkpt>
      <trkpt lat="43.5889" lon="5.49962">
        <ele>354.79998779297</ele>
        <time>2013-02-19T08:50:37.000Z</time>
      </trkpt>
      <trkpt lat="43.58876" lon="5.4995">
        <ele>353.60000610352</ele>
        <time>2013-02-19T08:50:39.000Z</time>
      </trkpt>
      <trkpt lat="43.58833" lon="5.49905">
        <ele>350</ele>
        <time>2013-02-19T08:50:45.000Z</time>
      </trkpt>
      <trkpt lat="43.58821" lon="5.49891">
        <ele>348.39999389648</ele>
        <time>2013-02-19T08:50:47.000Z</time>
      </trkpt>
      <trkpt lat="43.5881" lon="5.49877">
        <ele>346.79998779297</ele>
        <time>2013-02-19T08:50:49.000Z</time>
      </trkpt>
      <trkpt lat="43.58803" lon="5.49872">
        <ele>346.20001220703</ele>
        <time>2013-02-19T08:50:50.000Z</time>
      </trkpt>
      <trkpt lat="43.58796" lon="5.49871">
        <ele>346</ele>
        <time>2013-02-19T08:50:51.000Z</time>
      </trkpt>
      <trkpt lat="43.58788" lon="5.49872">
        <ele>345.79998779297</ele>
        <time>2013-02-19T08:50:52.000Z</time>
      </trkpt>
      <trkpt lat="43.58781" lon="5.49875">
        <ele>345.79998779297</ele>
        <time>2013-02-19T08:50:53.000Z</time>
      </trkpt>
      <trkpt lat="43.58774" lon="5.49879">
        <ele>345.79998779297</ele>
        <time>2013-02-19T08:50:54.000Z</time>
      </trkpt>
      <trkpt lat="43.58703" lon="5.49918">
        <ele>344</ele>
        <time>2013-02-19T08:51:06.000Z</time>
      </trkpt>
      <trkpt lat="43.58632" lon="5.49951">
        <ele>339.79998779297</ele>
        <time>2013-02-19T08:51:16.000Z</time>
      </trkpt>
      <trkpt lat="43.58618" lon="5.49956">
        <ele>338.79998779297</ele>
        <time>2013-02-19T08:51:18.000Z</time>
      </trkpt>
      <trkpt lat="43.58603" lon="5.4996">
        <ele>337.60000610352</ele>
        <time>2013-02-19T08:51:21.000Z</time>
      </trkpt>
      <trkpt lat="43.586" lon="5.49964">
        <ele>337.39999389648</ele>
        <time>2013-02-19T08:51:22.000Z</time>
      </trkpt>
      <trkpt lat="43.58599" lon="5.49972">
        <ele>337.60000610352</ele>
        <time>2013-02-19T08:51:23.000Z</time>
      </trkpt>
      <trkpt lat="43.58599" lon="5.4998">
        <ele>337.79998779297</ele>
        <time>2013-02-19T08:51:24.000Z</time>
      </trkpt>
      <trkpt lat="43.58599" lon="5.49989">
        <ele>338</ele>
        <time>2013-02-19T08:51:25.000Z</time>
      </trkpt>
      <trkpt lat="43.58597" lon="5.49996">
        <ele>338</ele>
        <time>2013-02-19T08:51:26.000Z</time>
      </trkpt>
      <trkpt lat="43.58593" lon="5.50001">
        <ele>337.79998779297</ele>
        <time>2013-02-19T08:51:27.000Z</time>
      </trkpt>
      <trkpt lat="43.58587" lon="5.50003">
        <ele>337.39999389648</ele>
        <time>2013-02-19T08:51:28.000Z</time>
      </trkpt>
      <trkpt lat="43.58581" lon="5.50004">
        <ele>337</ele>
        <time>2013-02-19T08:51:29.000Z</time>
      </trkpt>
      <trkpt lat="43.58575" lon="5.50005">
        <ele>337.20001220703</ele>
        <time>2013-02-19T08:51:30.000Z</time>
      </trkpt>
      <trkpt lat="43.58569" lon="5.50007">
        <ele>337.39999389648</ele>
        <time>2013-02-19T08:51:31.000Z</time>
      </trkpt>
      <trkpt lat="43.58564" lon="5.50011">
        <ele>337.60000610352</ele>
        <time>2013-02-19T08:51:32.000Z</time>
      </trkpt>
      <trkpt lat="43.58554" lon="5.50016">
        <ele>338</ele>
        <time>2013-02-19T08:51:34.000Z</time>
      </trkpt>
      <trkpt lat="43.58549" lon="5.50018">
        <ele>338.20001220703</ele>
        <time>2013-02-19T08:51:35.000Z</time>
      </trkpt>
      <trkpt lat="43.58544" lon="5.5002">
        <ele>338.39999389648</ele>
        <time>2013-02-19T08:51:36.000Z</time>
      </trkpt>
      <trkpt lat="43.5854" lon="5.50023">
        <ele>338.60000610352</ele>
        <time>2013-02-19T08:51:37.000Z</time>
      </trkpt>
      <trkpt lat="43.58537" lon="5.50027">
        <ele>339</ele>
        <time>2013-02-19T08:51:38.000Z</time>
      </trkpt>
      <trkpt lat="43.58534" lon="5.50031">
        <ele>339.39999389648</ele>
        <time>2013-02-19T08:51:39.000Z</time>
      </trkpt>
      <trkpt lat="43.58533" lon="5.50036">
        <ele>339.60000610352</ele>
        <time>2013-02-19T08:51:40.000Z</time>
      </trkpt>
      <trkpt lat="43.58532" lon="5.50041">
        <ele>340</ele>
        <time>2013-02-19T08:51:41.000Z</time>
      </trkpt>
      <trkpt lat="43.58531" lon="5.50046">
        <ele>340.39999389648</ele>
        <time>2013-02-19T08:51:42.000Z</time>
      </trkpt>
      <trkpt lat="43.5853" lon="5.50051">
        <ele>340.79998779297</ele>
        <time>2013-02-19T08:51:43.000Z</time>
      </trkpt>
      <trkpt lat="43.58529" lon="5.50056">
        <ele>341.20001220703</ele>
        <time>2013-02-19T08:51:44.000Z</time>
      </trkpt>
      <trkpt lat="43.58523" lon="5.50099">
        <ele>343.39999389648</ele>
        <time>2013-02-19T08:51:53.000Z</time>
      </trkpt>
      <trkpt lat="43.58508" lon="5.50139">
        <ele>345</ele>
        <time>2013-02-19T08:52:03.000Z</time>
      </trkpt>
      <trkpt lat="43.58483" lon="5.50185">
        <ele>344.79998779297</ele>
        <time>2013-02-19T08:52:14.000Z</time>
      </trkpt>
      <trkpt lat="43.5847" lon="5.50205">
        <ele>344</ele>
        <time>2013-02-19T08:52:19.000Z</time>
      </trkpt>
      <trkpt lat="43.58467" lon="5.50208">
        <ele>343.79998779297</ele>
        <time>2013-02-19T08:52:20.000Z</time>
      </trkpt>
      <trkpt lat="43.58463" lon="5.50211">
        <ele>343.79998779297</ele>
        <time>2013-02-19T08:52:21.000Z</time>
      </trkpt>
      <trkpt lat="43.5846" lon="5.50214">
        <ele>343.60000610352</ele>
        <time>2013-02-19T08:52:22.000Z</time>
      </trkpt>
      <trkpt lat="43.58456" lon="5.50216">
        <ele>343.60000610352</ele>
        <time>2013-02-19T08:52:23.000Z</time>
      </trkpt>
      <trkpt lat="43.58452" lon="5.50217">
        <ele>343.60000610352</ele>
        <time>2013-02-19T08:52:24.000Z</time>
      </trkpt>
      <trkpt lat="43.58448" lon="5.50218">
        <ele>343.60000610352</ele>
        <time>2013-02-19T08:52:25.000Z</time>
      </trkpt>
      <trkpt lat="43.58444" lon="5.50219">
        <ele>343.60000610352</ele>
        <time>2013-02-19T08:52:26.000Z</time>
      </trkpt>
      <trkpt lat="43.58426" lon="5.50225">
        <ele>343.60000610352</ele>
        <time>2013-02-19T08:52:31.000Z</time>
      </trkpt>
      <trkpt lat="43.58382" lon="5.50251">
        <ele>342.79998779297</ele>
        <time>2013-02-19T08:52:41.000Z</time>
      </trkpt>
      <trkpt lat="43.58377" lon="5.50251">
        <ele>342.79998779297</ele>
        <time>2013-02-19T08:52:42.000Z</time>
      </trkpt>
      <trkpt lat="43.5834" lon="5.50248">
        <ele>343</ele>
        <time>2013-02-19T08:52:49.000Z</time>
      </trkpt>
      <trkpt lat="43.58336" lon="5.50246">
        <ele>343</ele>
        <time>2013-02-19T08:52:50.000Z</time>
      </trkpt>
      <trkpt lat="43.58333" lon="5.50241">
        <ele>343</ele>
        <time>2013-02-19T08:52:51.000Z</time>
      </trkpt>
      <trkpt lat="43.5833" lon="5.50235">
        <ele>343.20001220703</ele>
        <time>2013-02-19T08:52:52.000Z</time>
      </trkpt>
      <trkpt lat="43.58328" lon="5.50229">
        <ele>343.39999389648</ele>
        <time>2013-02-19T08:52:53.000Z</time>
      </trkpt>
      <trkpt lat="43.58323" lon="5.50217">
        <ele>344</ele>
        <time>2013-02-19T08:52:55.000Z</time>
      </trkpt>
      <trkpt lat="43.58321" lon="5.50211">
        <ele>344.20001220703</ele>
        <time>2013-02-19T08:52:56.000Z</time>
      </trkpt>
      <trkpt lat="43.583" lon="5.50149">
        <ele>345.39999389648</ele>
        <time>2013-02-19T08:53:07.000Z</time>
      </trkpt>
      <trkpt lat="43.58278" lon="5.50097">
        <ele>345.20001220703</ele>
        <time>2013-02-19T08:53:17.000Z</time>
      </trkpt>
      <trkpt lat="43.58275" lon="5.50092">
        <ele>345.39999389648</ele>
        <time>2013-02-19T08:53:18.000Z</time>
      </trkpt>
      <trkpt lat="43.58229" lon="5.50028">
        <ele>343</ele>
        <time>2013-02-19T08:53:31.000Z</time>
      </trkpt>
      <trkpt lat="43.58225" lon="5.50024">
        <ele>342.79998779297</ele>
        <time>2013-02-19T08:53:32.000Z</time>
      </trkpt>
      <trkpt lat="43.58174" lon="5.49969">
        <ele>342.20001220703</ele>
        <time>2013-02-19T08:53:45.000Z</time>
      </trkpt>
      <trkpt lat="43.58125" lon="5.49932">
        <ele>345.39999389648</ele>
        <time>2013-02-19T08:53:56.000Z</time>
      </trkpt>
      <trkpt lat="43.58074" lon="5.49895">
        <ele>347.39999389648</ele>
        <time>2013-02-19T08:54:08.000Z</time>
      </trkpt>
      <trkpt lat="43.58014" lon="5.4985">
        <ele>347.20001220703</ele>
        <time>2013-02-19T08:54:22.000Z</time>
      </trkpt>
      <trkpt lat="43.58008" lon="5.49842">
        <ele>347</ele>
        <time>2013-02-19T08:54:24.000Z</time>
      </trkpt>
      <trkpt lat="43.57991" lon="5.49818">
        <ele>347</ele>
        <time>2013-02-19T08:54:30.000Z</time>
      </trkpt>
      <trkpt lat="43.57988" lon="5.49814">
        <ele>347</ele>
        <time>2013-02-19T08:54:31.000Z</time>
      </trkpt>
      <trkpt lat="43.57981" lon="5.49805">
        <ele>347.20001220703</ele>
        <time>2013-02-19T08:54:33.000Z</time>
      </trkpt>
      <trkpt lat="43.5795" lon="5.49764">
        <ele>348</ele>
        <time>2013-02-19T08:54:44.000Z</time>
      </trkpt>
      <trkpt lat="43.57944" lon="5.49761">
        <ele>348.20001220703</ele>
        <time>2013-02-19T08:54:46.000Z</time>
      </trkpt>
      <trkpt lat="43.57942" lon="5.49762">
        <ele>348.20001220703</ele>
        <time>2013-02-19T08:54:47.000Z</time>
      </trkpt>
      <trkpt lat="43.57939" lon="5.49765">
        <ele>348.20001220703</ele>
        <time>2013-02-19T08:54:48.000Z</time>
      </trkpt>
      <trkpt lat="43.57938" lon="5.4977">
        <ele>348.20001220703</ele>
        <time>2013-02-19T08:54:49.000Z</time>
      </trkpt>
      <trkpt lat="43.57936" lon="5.49774">
        <ele>348.20001220703</ele>
        <time>2013-02-19T08:54:50.000Z</time>
      </trkpt>
      <trkpt lat="43.57934" lon="5.49778">
        <ele>348.20001220703</ele>
        <time>2013-02-19T08:54:51.000Z</time>
      </trkpt>
      <trkpt lat="43.57922" lon="5.498">
        <ele>348.20001220703</ele>
        <time>2013-02-19T08:54:56.000Z</time>
      </trkpt>
      <trkpt lat="43.57888" lon="5.49839">
        <ele>348.60000610352</ele>
        <time>2013-02-19T08:55:06.000Z</time>
      </trkpt>
      <trkpt lat="43.57885" lon="5.49844">
        <ele>348.60000610352</ele>
        <time>2013-02-19T08:55:07.000Z</time>
      </trkpt>
      <trkpt lat="43.57878" lon="5.49852">
        <ele>348.79998779297</ele>
        <time>2013-02-19T08:55:09.000Z</time>
      </trkpt>
      <trkpt lat="43.57872" lon="5.49862">
        <ele>349</ele>
        <time>2013-02-19T08:55:11.000Z</time>
      </trkpt>
      <trkpt lat="43.57863" lon="5.49877">
        <ele>349.39999389648</ele>
        <time>2013-02-19T08:55:14.000Z</time>
      </trkpt>
      <trkpt lat="43.57852" lon="5.49906">
        <ele>350</ele>
        <time>2013-02-19T08:55:19.000Z</time>
      </trkpt>
      <trkpt lat="43.57847" lon="5.49931">
        <ele>350.39999389648</ele>
        <time>2013-02-19T08:55:23.000Z</time>
      </trkpt>
      <trkpt lat="43.57848" lon="5.49984">
        <ele>351.20001220703</ele>
        <time>2013-02-19T08:55:31.000Z</time>
      </trkpt>
      <trkpt lat="43.57847" lon="5.4999">
        <ele>351.39999389648</ele>
        <time>2013-02-19T08:55:32.000Z</time>
      </trkpt>
      <trkpt lat="43.57845" lon="5.49996">
        <ele>351.60000610352</ele>
        <time>2013-02-19T08:55:33.000Z</time>
      </trkpt>
      <trkpt lat="43.57842" lon="5.50002">
        <ele>351.79998779297</ele>
        <time>2013-02-19T08:55:34.000Z</time>
      </trkpt>
      <trkpt lat="43.57839" lon="5.50007">
        <ele>352</ele>
        <time>2013-02-19T08:55:35.000Z</time>
      </trkpt>
      <trkpt lat="43.57836" lon="5.50012">
        <ele>352.20001220703</ele>
        <time>2013-02-19T08:55:36.000Z</time>
      </trkpt>
      <trkpt lat="43.57831" lon="5.50015">
        <ele>352.39999389648</ele>
        <time>2013-02-19T08:55:37.000Z</time>
      </trkpt>
      <trkpt lat="43.57827" lon="5.50018">
        <ele>352.39999389648</ele>
        <time>2013-02-19T08:55:38.000Z</time>
      </trkpt>
      <trkpt lat="43.57803" lon="5.50038">
        <ele>352.79998779297</ele>
        <time>2013-02-19T08:55:44.000Z</time>
      </trkpt>
      <trkpt lat="43.578" lon="5.50042">
        <ele>352.79998779297</ele>
        <time>2013-02-19T08:55:45.000Z</time>
      </trkpt>
      <trkpt lat="43.57796" lon="5.50046">
        <ele>352.79998779297</ele>
        <time>2013-02-19T08:55:46.000Z</time>
      </trkpt>
      <trkpt lat="43.57761" lon="5.50079">
        <ele>353</ele>
        <time>2013-02-19T08:55:56.000Z</time>
      </trkpt>
      <trkpt lat="43.57758" lon="5.50084">
        <ele>353</ele>
        <time>2013-02-19T08:55:57.000Z</time>
      </trkpt>
      <trkpt lat="43.57747" lon="5.50096">
        <ele>353</ele>
        <time>2013-02-19T08:56:00.000Z</time>
      </trkpt>
      <trkpt lat="43.57743" lon="5.50099">
        <ele>353</ele>
        <time>2013-02-19T08:56:01.000Z</time>
      </trkpt>
      <trkpt lat="43.57739" lon="5.50103">
        <ele>353.20001220703</ele>
        <time>2013-02-19T08:56:02.000Z</time>
      </trkpt>
      <trkpt lat="43.57719" lon="5.5012">
        <ele>353.20001220703</ele>
        <time>2013-02-19T08:56:07.000Z</time>
      </trkpt>
      <trkpt lat="43.57715" lon="5.50123">
        <ele>353.20001220703</ele>
        <time>2013-02-19T08:56:08.000Z</time>
      </trkpt>
      <trkpt lat="43.57669" lon="5.50166">
        <ele>353</ele>
        <time>2013-02-19T08:56:20.000Z</time>
      </trkpt>
      <trkpt lat="43.57629" lon="5.50211">
        <ele>355.39999389648</ele>
        <time>2013-02-19T08:56:32.000Z</time>
      </trkpt>
      <trkpt lat="43.57597" lon="5.50243">
        <ele>357.20001220703</ele>
        <time>2013-02-19T08:56:41.000Z</time>
      </trkpt>
      <trkpt lat="43.57577" lon="5.50262">
        <ele>358.39999389648</ele>
        <time>2013-02-19T08:56:47.000Z</time>
      </trkpt>
      <trkpt lat="43.57573" lon="5.50265">
        <ele>358.39999389648</ele>
        <time>2013-02-19T08:56:48.000Z</time>
      </trkpt>
      <trkpt lat="43.57542" lon="5.50294">
        <ele>360</ele>
        <time>2013-02-19T08:56:58.000Z</time>
      </trkpt>
      <trkpt lat="43.57529" lon="5.50315">
        <ele>360.79998779297</ele>
        <time>2013-02-19T08:57:03.000Z</time>
      </trkpt>
      <trkpt lat="43.57504" lon="5.50382">
        <ele>363.60000610352</ele>
        <time>2013-02-19T08:57:17.000Z</time>
      </trkpt>
      <trkpt lat="43.57488" lon="5.50415">
        <ele>364.79998779297</ele>
        <time>2013-02-19T08:57:26.000Z</time>
      </trkpt>
      <trkpt lat="43.57469" lon="5.50408">
        <ele>364.39999389648</ele>
        <time>2013-02-19T08:57:33.000Z</time>
      </trkpt>
      <trkpt lat="43.57438" lon="5.50376">
        <ele>362.79998779297</ele>
        <time>2013-02-19T08:57:43.000Z</time>
      </trkpt>
      <trkpt lat="43.57434" lon="5.50374">
        <ele>362.60000610352</ele>
        <time>2013-02-19T08:57:44.000Z</time>
      </trkpt>
      <trkpt lat="43.57401" lon="5.50362">
        <ele>362.79998779297</ele>
        <time>2013-02-19T08:57:52.000Z</time>
      </trkpt>
      <trkpt lat="43.57393" lon="5.50357">
        <ele>363</ele>
        <time>2013-02-19T08:57:54.000Z</time>
      </trkpt>
      <trkpt lat="43.57378" lon="5.50344">
        <ele>363.39999389648</ele>
        <time>2013-02-19T08:57:58.000Z</time>
      </trkpt>
      <trkpt lat="43.57375" lon="5.50341">
        <ele>363.39999389648</ele>
        <time>2013-02-19T08:57:59.000Z</time>
      </trkpt>
      <trkpt lat="43.57337" lon="5.50297">
        <ele>364.39999389648</ele>
        <time>2013-02-19T08:58:11.000Z</time>
      </trkpt>
      <trkpt lat="43.57306" lon="5.50257">
        <ele>366.20001220703</ele>
        <time>2013-02-19T08:58:22.000Z</time>
      </trkpt>
      <trkpt lat="43.57276" lon="5.50215">
        <ele>368</ele>
        <time>2013-02-19T08:58:33.000Z</time>
      </trkpt>
      <trkpt lat="43.57273" lon="5.50212">
        <ele>368.20001220703</ele>
        <time>2013-02-19T08:58:34.000Z</time>
      </trkpt>
      <trkpt lat="43.5727" lon="5.50209">
        <ele>368.39999389648</ele>
        <time>2013-02-19T08:58:35.000Z</time>
      </trkpt>
      <trkpt lat="43.57242" lon="5.50177">
        <ele>368.39999389648</ele>
        <time>2013-02-19T08:58:45.000Z</time>
      </trkpt>
      <trkpt lat="43.57204" lon="5.5013">
        <ele>367.20001220703</ele>
        <time>2013-02-19T08:58:57.000Z</time>
      </trkpt>
      <trkpt lat="43.57172" lon="5.50096">
        <ele>367.60000610352</ele>
        <time>2013-02-19T08:59:07.000Z</time>
      </trkpt>
      <trkpt lat="43.57143" lon="5.50053">
        <ele>372.60000610352</ele>
        <time>2013-02-19T08:59:18.000Z</time>
      </trkpt>
      <trkpt lat="43.57126" lon="5.50017">
        <ele>375.60000610352</ele>
        <time>2013-02-19T08:59:27.000Z</time>
      </trkpt>
      <trkpt lat="43.57123" lon="5.50015">
        <ele>375.60000610352</ele>
        <time>2013-02-19T08:59:30.000Z</time>
      </trkpt>
      <trkpt lat="43.57122" lon="5.50016">
        <ele>375.60000610352</ele>
        <time>2013-02-19T08:59:31.000Z</time>
      </trkpt>
      <trkpt lat="43.57121" lon="5.50017">
        <ele>375.39999389648</ele>
        <time>2013-02-19T08:59:32.000Z</time>
      </trkpt>
      <trkpt lat="43.57119" lon="5.50019">
        <ele>375.39999389648</ele>
        <time>2013-02-19T08:59:33.000Z</time>
      </trkpt>
      <trkpt lat="43.57118" lon="5.50021">
        <ele>375.20001220703</ele>
        <time>2013-02-19T08:59:34.000Z</time>
      </trkpt>
      <trkpt lat="43.57094" lon="5.50043">
        <ele>375</ele>
        <time>2013-02-19T08:59:47.000Z</time>
      </trkpt>
      <trkpt lat="43.57069" lon="5.50056">
        <ele>377.20001220703</ele>
        <time>2013-02-19T08:59:59.000Z</time>
      </trkpt>
      <trkpt lat="43.57053" lon="5.50047">
        <ele>379</ele>
        <time>2013-02-19T09:00:07.000Z</time>
      </trkpt>
      <trkpt lat="43.57034" lon="5.50052">
        <ele>381.20001220703</ele>
        <time>2013-02-19T09:00:14.000Z</time>
      </trkpt>
      <trkpt lat="43.57024" lon="5.50065">
        <ele>382</ele>
        <time>2013-02-19T09:00:19.000Z</time>
      </trkpt>
      <trkpt lat="43.5702" lon="5.50075">
        <ele>382.20001220703</ele>
        <time>2013-02-19T09:00:22.000Z</time>
      </trkpt>
      <trkpt lat="43.57006" lon="5.50089">
        <ele>383</ele>
        <time>2013-02-19T09:00:30.000Z</time>
      </trkpt>
      <trkpt lat="43.57005" lon="5.50089">
        <ele>383</ele>
        <time>2013-02-19T09:00:31.000Z</time>
      </trkpt>
      <trkpt lat="43.57001" lon="5.50088">
        <ele>383.60000610352</ele>
        <time>2013-02-19T09:00:41.000Z</time>
      </trkpt>
      <trkpt lat="43.57" lon="5.50088">
        <ele>383.60000610352</ele>
        <time>2013-02-19T09:00:52.000Z</time>
      </trkpt>
      <trkpt lat="43.57" lon="5.50086">
        <ele>383.79998779297</ele>
        <time>2013-02-19T09:00:53.000Z</time>
      </trkpt>
      <trkpt lat="43.57" lon="5.50084">
        <ele>383.79998779297</ele>
        <time>2013-02-19T09:00:54.000Z</time>
      </trkpt>
      <trkpt lat="43.57003" lon="5.5006">
        <ele>384.39999389648</ele>
        <time>2013-02-19T09:01:04.000Z</time>
      </trkpt>
      <trkpt lat="43.57002" lon="5.50039">
        <ele>385.20001220703</ele>
        <time>2013-02-19T09:01:12.000Z</time>
      </trkpt>
      <trkpt lat="43.57003" lon="5.50032">
        <ele>385.39999389648</ele>
        <time>2013-02-19T09:01:15.000Z</time>
      </trkpt>
      <trkpt lat="43.56987" lon="5.50008">
        <ele>387.79998779297</ele>
        <time>2013-02-19T09:01:24.000Z</time>
      </trkpt>
      <trkpt lat="43.56959" lon="5.50001">
        <ele>390.79998779297</ele>
        <time>2013-02-19T09:01:35.000Z</time>
      </trkpt>
      <trkpt lat="43.56949" lon="5.5">
        <ele>391.79998779297</ele>
        <time>2013-02-19T09:01:39.000Z</time>
      </trkpt>
      <trkpt lat="43.56947" lon="5.50001">
        <ele>392</ele>
        <time>2013-02-19T09:01:40.000Z</time>
      </trkpt>
      <trkpt lat="43.56924" lon="5.49996">
        <ele>394.20001220703</ele>
        <time>2013-02-19T09:01:49.000Z</time>
      </trkpt>
      <trkpt lat="43.56917" lon="5.49986">
        <ele>394.79998779297</ele>
        <time>2013-02-19T09:01:54.000Z</time>
      </trkpt>
      <trkpt lat="43.56906" lon="5.49968">
        <ele>395</ele>
        <time>2013-02-19T09:02:02.000Z</time>
      </trkpt>
      <trkpt lat="43.56879" lon="5.49951">
        <ele>396.39999389648</ele>
        <time>2013-02-19T09:02:12.000Z</time>
      </trkpt>
      <trkpt lat="43.56848" lon="5.49936">
        <ele>398.60000610352</ele>
        <time>2013-02-19T09:02:23.000Z</time>
      </trkpt>
      <trkpt lat="43.56824" lon="5.49914">
        <ele>400</ele>
        <time>2013-02-19T09:02:35.000Z</time>
      </trkpt>
      <trkpt lat="43.56824" lon="5.49911">
        <ele>400.20001220703</ele>
        <time>2013-02-19T09:02:37.000Z</time>
      </trkpt>
      <trkpt lat="43.56824" lon="5.4991">
        <ele>400.20001220703</ele>
        <time>2013-02-19T09:02:38.000Z</time>
      </trkpt>
      <trkpt lat="43.56824" lon="5.49908">
        <ele>400.39999389648</ele>
        <time>2013-02-19T09:02:39.000Z</time>
      </trkpt>
      <trkpt lat="43.56828" lon="5.49901">
        <ele>400.79998779297</ele>
        <time>2013-02-19T09:02:43.000Z</time>
      </trkpt>
      <trkpt lat="43.56829" lon="5.49898">
        <ele>400.79998779297</ele>
        <time>2013-02-19T09:02:45.000Z</time>
      </trkpt>
      <trkpt lat="43.56826" lon="5.49891">
        <ele>401.20001220703</ele>
        <time>2013-02-19T09:02:55.000Z</time>
      </trkpt>
      <trkpt lat="43.56824" lon="5.49892">
        <ele>401.20001220703</ele>
        <time>2013-02-19T09:02:59.000Z</time>
      </trkpt>
      <trkpt lat="43.56815" lon="5.49888">
        <ele>401.60000610352</ele>
        <time>2013-02-19T09:03:11.000Z</time>
      </trkpt>
      <trkpt lat="43.56813" lon="5.49889">
        <ele>401.60000610352</ele>
        <time>2013-02-19T09:03:13.000Z</time>
      </trkpt>
      <trkpt lat="43.56806" lon="5.49897">
        <ele>401.20001220703</ele>
        <time>2013-02-19T09:03:24.000Z</time>
      </trkpt>
      <trkpt lat="43.56805" lon="5.499">
        <ele>401</ele>
        <time>2013-02-19T09:03:27.000Z</time>
      </trkpt>
      <trkpt lat="43.56802" lon="5.49898">
        <ele>401.20001220703</ele>
        <time>2013-02-19T09:03:31.000Z</time>
      </trkpt>
      <trkpt lat="43.56793" lon="5.49893">
        <ele>401.79998779297</ele>
        <time>2013-02-19T09:03:39.000Z</time>
      </trkpt>
      <trkpt lat="43.56785" lon="5.49879">
        <ele>403</ele>
        <time>2013-02-19T09:03:43.000Z</time>
      </trkpt>
      <trkpt lat="43.56773" lon="5.49855">
        <ele>405.60000610352</ele>
        <time>2013-02-19T09:03:52.000Z</time>
      </trkpt>
      <trkpt lat="43.56766" lon="5.4983">
        <ele>408.20001220703</ele>
        <time>2013-02-19T09:04:01.000Z</time>
      </trkpt>
      <trkpt lat="43.56756" lon="5.49803">
        <ele>410.79998779297</ele>
        <time>2013-02-19T09:04:11.000Z</time>
      </trkpt>
      <trkpt lat="43.56752" lon="5.49796">
        <ele>411.79998779297</ele>
        <time>2013-02-19T09:04:14.000Z</time>
      </trkpt>
      <trkpt lat="43.56736" lon="5.49767">
        <ele>414.20001220703</ele>
        <time>2013-02-19T09:04:25.000Z</time>
      </trkpt>
      <trkpt lat="43.56726" lon="5.49748">
        <ele>415.60000610352</ele>
        <time>2013-02-19T09:04:33.000Z</time>
      </trkpt>
      <trkpt lat="43.56725" lon="5.49743">
        <ele>415.60000610352</ele>
        <time>2013-02-19T09:04:35.000Z</time>
      </trkpt>
      <trkpt lat="43.56726" lon="5.49708">
        <ele>416.20001220703</ele>
        <time>2013-02-19T09:04:46.000Z</time>
      </trkpt>
      <trkpt lat="43.56725" lon="5.49681">
        <ele>416.60000610352</ele>
        <time>2013-02-19T09:04:55.000Z</time>
      </trkpt>
      <trkpt lat="43.56703" lon="5.49656">
        <ele>418.20001220703</ele>
        <time>2013-02-19T09:05:05.000Z</time>
      </trkpt>
      <trkpt lat="43.56671" lon="5.49636">
        <ele>420.60000610352</ele>
        <time>2013-02-19T09:05:17.000Z</time>
      </trkpt>
      <trkpt lat="43.56644" lon="5.49622">
        <ele>421.20001220703</ele>
        <time>2013-02-19T09:05:27.000Z</time>
      </trkpt>
      <trkpt lat="43.56602" lon="5.49604">
        <ele>422.39999389648</ele>
        <time>2013-02-19T09:05:39.000Z</time>
      </trkpt>
      <trkpt lat="43.56593" lon="5.49601">
        <ele>422.79998779297</ele>
        <time>2013-02-19T09:05:41.000Z</time>
      </trkpt>
      <trkpt lat="43.56589" lon="5.49598">
        <ele>423</ele>
        <time>2013-02-19T09:05:42.000Z</time>
      </trkpt>
      <trkpt lat="43.56539" lon="5.49579">
        <ele>426</ele>
        <time>2013-02-19T09:05:53.000Z</time>
      </trkpt>
      <trkpt lat="43.56535" lon="5.49578">
        <ele>426.20001220703</ele>
        <time>2013-02-19T09:05:54.000Z</time>
      </trkpt>
      <trkpt lat="43.56502" lon="5.49561">
        <ele>429</ele>
        <time>2013-02-19T09:06:04.000Z</time>
      </trkpt>
      <trkpt lat="43.56469" lon="5.49564">
        <ele>430</ele>
        <time>2013-02-19T09:06:14.000Z</time>
      </trkpt>
      <trkpt lat="43.56418" lon="5.49582">
        <ele>430</ele>
        <time>2013-02-19T09:06:26.000Z</time>
      </trkpt>
      <trkpt lat="43.56406" lon="5.49586">
        <ele>430</ele>
        <time>2013-02-19T09:06:28.000Z</time>
      </trkpt>
      <trkpt lat="43.56357" lon="5.49606">
        <ele>429.79998779297</ele>
        <time>2013-02-19T09:06:38.000Z</time>
      </trkpt>
      <trkpt lat="43.56343" lon="5.49609">
        <ele>430.20001220703</ele>
        <time>2013-02-19T09:06:41.000Z</time>
      </trkpt>
      <trkpt lat="43.56306" lon="5.49613">
        <ele>427.79998779297</ele>
        <time>2013-02-19T09:06:49.000Z</time>
      </trkpt>
      <trkpt lat="43.56302" lon="5.49614">
        <ele>427.39999389648</ele>
        <time>2013-02-19T09:06:50.000Z</time>
      </trkpt>
      <trkpt lat="43.56298" lon="5.49615">
        <ele>427</ele>
        <time>2013-02-19T09:06:51.000Z</time>
      </trkpt>
      <trkpt lat="43.56295" lon="5.49617">
        <ele>426.79998779297</ele>
        <time>2013-02-19T09:06:52.000Z</time>
      </trkpt>
      <trkpt lat="43.56292" lon="5.49621">
        <ele>426.60000610352</ele>
        <time>2013-02-19T09:06:53.000Z</time>
      </trkpt>
      <trkpt lat="43.56289" lon="5.49625">
        <ele>426.39999389648</ele>
        <time>2013-02-19T09:06:54.000Z</time>
      </trkpt>
      <trkpt lat="43.56287" lon="5.49629">
        <ele>426.39999389648</ele>
        <time>2013-02-19T09:06:55.000Z</time>
      </trkpt>
      <trkpt lat="43.56285" lon="5.49634">
        <ele>426.60000610352</ele>
        <time>2013-02-19T09:06:56.000Z</time>
      </trkpt>
      <trkpt lat="43.56284" lon="5.49639">
        <ele>426.60000610352</ele>
        <time>2013-02-19T09:06:57.000Z</time>
      </trkpt>
      <trkpt lat="43.56283" lon="5.49644">
        <ele>426.79998779297</ele>
        <time>2013-02-19T09:06:58.000Z</time>
      </trkpt>
      <trkpt lat="43.56281" lon="5.49655">
        <ele>427.20001220703</ele>
        <time>2013-02-19T09:07:00.000Z</time>
      </trkpt>
      <trkpt lat="43.5628" lon="5.4966">
        <ele>427.60000610352</ele>
        <time>2013-02-19T09:07:01.000Z</time>
      </trkpt>
      <trkpt lat="43.56278" lon="5.49665">
        <ele>427.79998779297</ele>
        <time>2013-02-19T09:07:02.000Z</time>
      </trkpt>
      <trkpt lat="43.56274" lon="5.49687">
        <ele>428.39999389648</ele>
        <time>2013-02-19T09:07:06.000Z</time>
      </trkpt>
      <trkpt lat="43.5627" lon="5.49702">
        <ele>428.79998779297</ele>
        <time>2013-02-19T09:07:09.000Z</time>
      </trkpt>
      <trkpt lat="43.56244" lon="5.4976">
        <ele>429.20001220703</ele>
        <time>2013-02-19T09:07:22.000Z</time>
      </trkpt>
      <trkpt lat="43.56234" lon="5.49784">
        <ele>428.39999389648</ele>
        <time>2013-02-19T09:07:27.000Z</time>
      </trkpt>
      <trkpt lat="43.56232" lon="5.4979">
        <ele>428.39999389648</ele>
        <time>2013-02-19T09:07:28.000Z</time>
      </trkpt>
      <trkpt lat="43.5623" lon="5.49796">
        <ele>428.39999389648</ele>
        <time>2013-02-19T09:07:29.000Z</time>
      </trkpt>
      <trkpt lat="43.56225" lon="5.49807">
        <ele>428.39999389648</ele>
        <time>2013-02-19T09:07:31.000Z</time>
      </trkpt>
      <trkpt lat="43.56179" lon="5.49854">
        <ele>428.20001220703</ele>
        <time>2013-02-19T09:07:41.000Z</time>
      </trkpt>
      <trkpt lat="43.56173" lon="5.49857">
        <ele>428.20001220703</ele>
        <time>2013-02-19T09:07:42.000Z</time>
      </trkpt>
      <trkpt lat="43.56168" lon="5.4986">
        <ele>428.20001220703</ele>
        <time>2013-02-19T09:07:43.000Z</time>
      </trkpt>
      <trkpt lat="43.56163" lon="5.49862">
        <ele>428.20001220703</ele>
        <time>2013-02-19T09:07:44.000Z</time>
      </trkpt>
      <trkpt lat="43.56138" lon="5.49879">
        <ele>428.60000610352</ele>
        <time>2013-02-19T09:07:49.000Z</time>
      </trkpt>
      <trkpt lat="43.56126" lon="5.49892">
        <ele>429</ele>
        <time>2013-02-19T09:07:52.000Z</time>
      </trkpt>
      <trkpt lat="43.56123" lon="5.49897">
        <ele>429</ele>
        <time>2013-02-19T09:07:53.000Z</time>
      </trkpt>
      <trkpt lat="43.5612" lon="5.49902">
        <ele>429.20001220703</ele>
        <time>2013-02-19T09:07:54.000Z</time>
      </trkpt>
      <trkpt lat="43.56116" lon="5.49907">
        <ele>429.39999389648</ele>
        <time>2013-02-19T09:07:55.000Z</time>
      </trkpt>
      <trkpt lat="43.56112" lon="5.49911">
        <ele>429.39999389648</ele>
        <time>2013-02-19T09:07:56.000Z</time>
      </trkpt>
      <trkpt lat="43.56099" lon="5.49924">
        <ele>429.60000610352</ele>
        <time>2013-02-19T09:07:59.000Z</time>
      </trkpt>
      <trkpt lat="43.56089" lon="5.4993">
        <ele>429.79998779297</ele>
        <time>2013-02-19T09:08:01.000Z</time>
      </trkpt>
      <trkpt lat="43.56083" lon="5.49932">
        <ele>429.79998779297</ele>
        <time>2013-02-19T09:08:02.000Z</time>
      </trkpt>
      <trkpt lat="43.56074" lon="5.49934">
        <ele>430</ele>
        <time>2013-02-19T09:08:04.000Z</time>
      </trkpt>
      <trkpt lat="43.56065" lon="5.49935">
        <ele>430.20001220703</ele>
        <time>2013-02-19T09:08:06.000Z</time>
      </trkpt>
      <trkpt lat="43.56047" lon="5.49935">
        <ele>430.39999389648</ele>
        <time>2013-02-19T09:08:10.000Z</time>
      </trkpt>
      <trkpt lat="43.56042" lon="5.49935">
        <ele>430.60000610352</ele>
        <time>2013-02-19T09:08:11.000Z</time>
      </trkpt>
      <trkpt lat="43.56017" lon="5.49939">
        <ele>431</ele>
        <time>2013-02-19T09:08:17.000Z</time>
      </trkpt>
      <trkpt lat="43.56013" lon="5.49941">
        <ele>431</ele>
        <time>2013-02-19T09:08:18.000Z</time>
      </trkpt>
      <trkpt lat="43.56009" lon="5.49942">
        <ele>431</ele>
        <time>2013-02-19T09:08:19.000Z</time>
      </trkpt>
      <trkpt lat="43.56" lon="5.49944">
        <ele>431.20001220703</ele>
        <time>2013-02-19T09:08:21.000Z</time>
      </trkpt>
      <trkpt lat="43.55996" lon="5.49943">
        <ele>431.20001220703</ele>
        <time>2013-02-19T09:08:22.000Z</time>
      </trkpt>
      <trkpt lat="43.55991" lon="5.49943">
        <ele>431.20001220703</ele>
        <time>2013-02-19T09:08:23.000Z</time>
      </trkpt>
      <trkpt lat="43.55977" lon="5.49944">
        <ele>431.20001220703</ele>
        <time>2013-02-19T09:08:26.000Z</time>
      </trkpt>
      <trkpt lat="43.55959" lon="5.49941">
        <ele>431</ele>
        <time>2013-02-19T09:08:30.000Z</time>
      </trkpt>
      <trkpt lat="43.55953" lon="5.4994">
        <ele>431</ele>
        <time>2013-02-19T09:08:31.000Z</time>
      </trkpt>
      <trkpt lat="43.55938" lon="5.49938">
        <ele>430.79998779297</ele>
        <time>2013-02-19T09:08:34.000Z</time>
      </trkpt>
      <trkpt lat="43.55912" lon="5.49932">
        <ele>430.39999389648</ele>
        <time>2013-02-19T09:08:39.000Z</time>
      </trkpt>
      <trkpt lat="43.55907" lon="5.49929">
        <ele>430.20001220703</ele>
        <time>2013-02-19T09:08:40.000Z</time>
      </trkpt>
      <trkpt lat="43.55902" lon="5.49925">
        <ele>429.79998779297</ele>
        <time>2013-02-19T09:08:41.000Z</time>
      </trkpt>
      <trkpt lat="43.55893" lon="5.49916">
        <ele>429.39999389648</ele>
        <time>2013-02-19T09:08:43.000Z</time>
      </trkpt>
      <trkpt lat="43.55888" lon="5.49914">
        <ele>429</ele>
        <time>2013-02-19T09:08:44.000Z</time>
      </trkpt>
      <trkpt lat="43.55882" lon="5.49914">
        <ele>429</ele>
        <time>2013-02-19T09:08:45.000Z</time>
      </trkpt>
      <trkpt lat="43.55846" lon="5.49917">
        <ele>428.20001220703</ele>
        <time>2013-02-19T09:08:52.000Z</time>
      </trkpt>
      <trkpt lat="43.55812" lon="5.49925">
        <ele>427</ele>
        <time>2013-02-19T09:08:58.000Z</time>
      </trkpt>
      <trkpt lat="43.55807" lon="5.49929">
        <ele>426.79998779297</ele>
        <time>2013-02-19T09:08:59.000Z</time>
      </trkpt>
      <trkpt lat="43.55803" lon="5.49933">
        <ele>426.79998779297</ele>
        <time>2013-02-19T09:09:00.000Z</time>
      </trkpt>
      <trkpt lat="43.55799" lon="5.49937">
        <ele>426.79998779297</ele>
        <time>2013-02-19T09:09:01.000Z</time>
      </trkpt>
      <trkpt lat="43.55795" lon="5.4994">
        <ele>426.60000610352</ele>
        <time>2013-02-19T09:09:02.000Z</time>
      </trkpt>
      <trkpt lat="43.55791" lon="5.49943">
        <ele>426.39999389648</ele>
        <time>2013-02-19T09:09:03.000Z</time>
      </trkpt>
      <trkpt lat="43.55787" lon="5.49946">
        <ele>426.20001220703</ele>
        <time>2013-02-19T09:09:04.000Z</time>
      </trkpt>
      <trkpt lat="43.55783" lon="5.49948">
        <ele>426</ele>
        <time>2013-02-19T09:09:05.000Z</time>
      </trkpt>
      <trkpt lat="43.55778" lon="5.49949">
        <ele>425.79998779297</ele>
        <time>2013-02-19T09:09:06.000Z</time>
      </trkpt>
      <trkpt lat="43.55774" lon="5.4995">
        <ele>425.39999389648</ele>
        <time>2013-02-19T09:09:07.000Z</time>
      </trkpt>
      <trkpt lat="43.55768" lon="5.4995">
        <ele>425</ele>
        <time>2013-02-19T09:09:08.000Z</time>
      </trkpt>
      <trkpt lat="43.55763" lon="5.49951">
        <ele>424.60000610352</ele>
        <time>2013-02-19T09:09:09.000Z</time>
      </trkpt>
      <trkpt lat="43.55758" lon="5.49952">
        <ele>424.39999389648</ele>
        <time>2013-02-19T09:09:10.000Z</time>
      </trkpt>
      <trkpt lat="43.55754" lon="5.49955">
        <ele>424</ele>
        <time>2013-02-19T09:09:11.000Z</time>
      </trkpt>
      <trkpt lat="43.5575" lon="5.49959">
        <ele>424</ele>
        <time>2013-02-19T09:09:12.000Z</time>
      </trkpt>
      <trkpt lat="43.55747" lon="5.49965">
        <ele>424</ele>
        <time>2013-02-19T09:09:13.000Z</time>
      </trkpt>
      <trkpt lat="43.55745" lon="5.49971">
        <ele>424.20001220703</ele>
        <time>2013-02-19T09:09:14.000Z</time>
      </trkpt>
      <trkpt lat="43.55743" lon="5.49976">
        <ele>424.39999389648</ele>
        <time>2013-02-19T09:09:15.000Z</time>
      </trkpt>
      <trkpt lat="43.55741" lon="5.49982">
        <ele>424.60000610352</ele>
        <time>2013-02-19T09:09:16.000Z</time>
      </trkpt>
      <trkpt lat="43.55728" lon="5.50024">
        <ele>425</ele>
        <time>2013-02-19T09:09:23.000Z</time>
      </trkpt>
      <trkpt lat="43.55726" lon="5.50029">
        <ele>424.79998779297</ele>
        <time>2013-02-19T09:09:24.000Z</time>
      </trkpt>
      <trkpt lat="43.55723" lon="5.50034">
        <ele>424.79998779297</ele>
        <time>2013-02-19T09:09:25.000Z</time>
      </trkpt>
      <trkpt lat="43.55713" lon="5.50048">
        <ele>424.60000610352</ele>
        <time>2013-02-19T09:09:28.000Z</time>
      </trkpt>
      <trkpt lat="43.5571" lon="5.50052">
        <ele>424.39999389648</ele>
        <time>2013-02-19T09:09:29.000Z</time>
      </trkpt>
      <trkpt lat="43.55706" lon="5.50055">
        <ele>424.20001220703</ele>
        <time>2013-02-19T09:09:30.000Z</time>
      </trkpt>
      <trkpt lat="43.55699" lon="5.50062">
        <ele>424</ele>
        <time>2013-02-19T09:09:32.000Z</time>
      </trkpt>
      <trkpt lat="43.55695" lon="5.50065">
        <ele>424</ele>
        <time>2013-02-19T09:09:33.000Z</time>
      </trkpt>
      <trkpt lat="43.55692" lon="5.50069">
        <ele>423.79998779297</ele>
        <time>2013-02-19T09:09:34.000Z</time>
      </trkpt>
      <trkpt lat="43.55689" lon="5.50074">
        <ele>423.79998779297</ele>
        <time>2013-02-19T09:09:35.000Z</time>
      </trkpt>
      <trkpt lat="43.55686" lon="5.5008">
        <ele>423.79998779297</ele>
        <time>2013-02-19T09:09:36.000Z</time>
      </trkpt>
      <trkpt lat="43.55684" lon="5.50086">
        <ele>423.79998779297</ele>
        <time>2013-02-19T09:09:37.000Z</time>
      </trkpt>
      <trkpt lat="43.55659" lon="5.50155">
        <ele>423.60000610352</ele>
        <time>2013-02-19T09:09:48.000Z</time>
      </trkpt>
      <trkpt lat="43.55647" lon="5.50188">
        <ele>424</ele>
        <time>2013-02-19T09:09:54.000Z</time>
      </trkpt>
      <trkpt lat="43.55637" lon="5.5022">
        <ele>424.39999389648</ele>
        <time>2013-02-19T09:10:00.000Z</time>
      </trkpt>
      <trkpt lat="43.55635" lon="5.50231">
        <ele>424.60000610352</ele>
        <time>2013-02-19T09:10:02.000Z</time>
      </trkpt>
      <trkpt lat="43.55637" lon="5.50259">
        <ele>425</ele>
        <time>2013-02-19T09:10:07.000Z</time>
      </trkpt>
      <trkpt lat="43.55638" lon="5.50265">
        <ele>425</ele>
        <time>2013-02-19T09:10:08.000Z</time>
      </trkpt>
      <trkpt lat="43.55644" lon="5.50314">
        <ele>425.39999389648</ele>
        <time>2013-02-19T09:10:17.000Z</time>
      </trkpt>
      <trkpt lat="43.55643" lon="5.50319">
        <ele>425.39999389648</ele>
        <time>2013-02-19T09:10:18.000Z</time>
      </trkpt>
      <trkpt lat="43.55641" lon="5.50325">
        <ele>425.60000610352</ele>
        <time>2013-02-19T09:10:19.000Z</time>
      </trkpt>
      <trkpt lat="43.55639" lon="5.5033">
        <ele>425.60000610352</ele>
        <time>2013-02-19T09:10:20.000Z</time>
      </trkpt>
      <trkpt lat="43.55637" lon="5.50335">
        <ele>425.60000610352</ele>
        <time>2013-02-19T09:10:21.000Z</time>
      </trkpt>
      <trkpt lat="43.55634" lon="5.5034">
        <ele>425.60000610352</ele>
        <time>2013-02-19T09:10:22.000Z</time>
      </trkpt>
      <trkpt lat="43.55613" lon="5.50383">
        <ele>425.79998779297</ele>
        <time>2013-02-19T09:10:31.000Z</time>
      </trkpt>
      <trkpt lat="43.55611" lon="5.50388">
        <ele>425.79998779297</ele>
        <time>2013-02-19T09:10:32.000Z</time>
      </trkpt>
      <trkpt lat="43.55608" lon="5.50392">
        <ele>426</ele>
        <time>2013-02-19T09:10:33.000Z</time>
      </trkpt>
      <trkpt lat="43.55573" lon="5.50459">
        <ele>426.20001220703</ele>
        <time>2013-02-19T09:10:47.000Z</time>
      </trkpt>
      <trkpt lat="43.55568" lon="5.50469">
        <ele>426.39999389648</ele>
        <time>2013-02-19T09:10:49.000Z</time>
      </trkpt>
      <trkpt lat="43.5556" lon="5.50482">
        <ele>426.39999389648</ele>
        <time>2013-02-19T09:10:52.000Z</time>
      </trkpt>
      <trkpt lat="43.55556" lon="5.50486">
        <ele>426.39999389648</ele>
        <time>2013-02-19T09:10:53.000Z</time>
      </trkpt>
      <trkpt lat="43.55552" lon="5.50489">
        <ele>426.39999389648</ele>
        <time>2013-02-19T09:10:54.000Z</time>
      </trkpt>
      <trkpt lat="43.55548" lon="5.50492">
        <ele>426.39999389648</ele>
        <time>2013-02-19T09:10:55.000Z</time>
      </trkpt>
      <trkpt lat="43.55543" lon="5.50493">
        <ele>426.39999389648</ele>
        <time>2013-02-19T09:10:56.000Z</time>
      </trkpt>
      <trkpt lat="43.55539" lon="5.50495">
        <ele>426.39999389648</ele>
        <time>2013-02-19T09:10:57.000Z</time>
      </trkpt>
      <trkpt lat="43.55534" lon="5.50495">
        <ele>426.20001220703</ele>
        <time>2013-02-19T09:10:58.000Z</time>
      </trkpt>
      <trkpt lat="43.55529" lon="5.50495">
        <ele>426.20001220703</ele>
        <time>2013-02-19T09:10:59.000Z</time>
      </trkpt>
      <trkpt lat="43.55507" lon="5.50494">
        <ele>426</ele>
        <time>2013-02-19T09:11:03.000Z</time>
      </trkpt>
      <trkpt lat="43.55501" lon="5.50495">
        <ele>425.79998779297</ele>
        <time>2013-02-19T09:11:04.000Z</time>
      </trkpt>
      <trkpt lat="43.55496" lon="5.50498">
        <ele>425.79998779297</ele>
        <time>2013-02-19T09:11:05.000Z</time>
      </trkpt>
      <trkpt lat="43.55476" lon="5.50517">
        <ele>425.39999389648</ele>
        <time>2013-02-19T09:11:09.000Z</time>
      </trkpt>
      <trkpt lat="43.55471" lon="5.50521">
        <ele>425.39999389648</ele>
        <time>2013-02-19T09:11:10.000Z</time>
      </trkpt>
      <trkpt lat="43.55467" lon="5.50526">
        <ele>425.39999389648</ele>
        <time>2013-02-19T09:11:11.000Z</time>
      </trkpt>
      <trkpt lat="43.55454" lon="5.50548">
        <ele>425.39999389648</ele>
        <time>2013-02-19T09:11:15.000Z</time>
      </trkpt>
      <trkpt lat="43.5545" lon="5.50552">
        <ele>425.39999389648</ele>
        <time>2013-02-19T09:11:16.000Z</time>
      </trkpt>
      <trkpt lat="43.55446" lon="5.50557">
        <ele>425.39999389648</ele>
        <time>2013-02-19T09:11:17.000Z</time>
      </trkpt>
      <trkpt lat="43.55427" lon="5.50587">
        <ele>425.39999389648</ele>
        <time>2013-02-19T09:11:23.000Z</time>
      </trkpt>
      <trkpt lat="43.55419" lon="5.50597">
        <ele>425.39999389648</ele>
        <time>2013-02-19T09:11:25.000Z</time>
      </trkpt>
      <trkpt lat="43.55416" lon="5.50603">
        <ele>425.60000610352</ele>
        <time>2013-02-19T09:11:26.000Z</time>
      </trkpt>
      <trkpt lat="43.55413" lon="5.50609">
        <ele>425.79998779297</ele>
        <time>2013-02-19T09:11:27.000Z</time>
      </trkpt>
      <trkpt lat="43.55411" lon="5.50615">
        <ele>426</ele>
        <time>2013-02-19T09:11:28.000Z</time>
      </trkpt>
      <trkpt lat="43.55409" lon="5.50621">
        <ele>426.20001220703</ele>
        <time>2013-02-19T09:11:29.000Z</time>
      </trkpt>
      <trkpt lat="43.55408" lon="5.50627">
        <ele>426.60000610352</ele>
        <time>2013-02-19T09:11:30.000Z</time>
      </trkpt>
      <trkpt lat="43.55407" lon="5.50633">
        <ele>426.79998779297</ele>
        <time>2013-02-19T09:11:31.000Z</time>
      </trkpt>
      <trkpt lat="43.55398" lon="5.50694">
        <ele>428</ele>
        <time>2013-02-19T09:11:41.000Z</time>
      </trkpt>
      <trkpt lat="43.55372" lon="5.50759">
        <ele>429</ele>
        <time>2013-02-19T09:11:54.000Z</time>
      </trkpt>
      <trkpt lat="43.55352" lon="5.50809">
        <ele>429.60000610352</ele>
        <time>2013-02-19T09:12:05.000Z</time>
      </trkpt>
      <trkpt lat="43.55341" lon="5.50861">
        <ele>430</ele>
        <time>2013-02-19T09:12:16.000Z</time>
      </trkpt>
      <trkpt lat="43.55333" lon="5.5093">
        <ele>430.79998779297</ele>
        <time>2013-02-19T09:12:30.000Z</time>
      </trkpt>
      <trkpt lat="43.55341" lon="5.50981">
        <ele>433.79998779297</ele>
        <time>2013-02-19T09:12:40.000Z</time>
      </trkpt>
      <trkpt lat="43.55349" lon="5.51041">
        <ele>435.39999389648</ele>
        <time>2013-02-19T09:12:52.000Z</time>
      </trkpt>
      <trkpt lat="43.55348" lon="5.51101">
        <ele>436</ele>
        <time>2013-02-19T09:13:03.000Z</time>
      </trkpt>
      <trkpt lat="43.55348" lon="5.51132">
        <ele>436.39999389648</ele>
        <time>2013-02-19T09:13:08.000Z</time>
      </trkpt>
      <trkpt lat="43.55348" lon="5.51138">
        <ele>436.39999389648</ele>
        <time>2013-02-19T09:13:09.000Z</time>
      </trkpt>
      <trkpt lat="43.55353" lon="5.51212">
        <ele>437.20001220703</ele>
        <time>2013-02-19T09:13:21.000Z</time>
      </trkpt>
      <trkpt lat="43.55352" lon="5.51231">
        <ele>437.39999389648</ele>
        <time>2013-02-19T09:13:24.000Z</time>
      </trkpt>
      <trkpt lat="43.55351" lon="5.51238">
        <ele>437.60000610352</ele>
        <time>2013-02-19T09:13:25.000Z</time>
      </trkpt>
      <trkpt lat="43.55351" lon="5.51252">
        <ele>437.60000610352</ele>
        <time>2013-02-19T09:13:27.000Z</time>
      </trkpt>
      <trkpt lat="43.55353" lon="5.51271">
        <ele>437.60000610352</ele>
        <time>2013-02-19T09:13:30.000Z</time>
      </trkpt>
      <trkpt lat="43.55356" lon="5.51284">
        <ele>437.60000610352</ele>
        <time>2013-02-19T09:13:32.000Z</time>
      </trkpt>
      <trkpt lat="43.55358" lon="5.5129">
        <ele>437.39999389648</ele>
        <time>2013-02-19T09:13:33.000Z</time>
      </trkpt>
      <trkpt lat="43.5536" lon="5.51295">
        <ele>437.39999389648</ele>
        <time>2013-02-19T09:13:34.000Z</time>
      </trkpt>
      <trkpt lat="43.55362" lon="5.51302">
        <ele>437.39999389648</ele>
        <time>2013-02-19T09:13:35.000Z</time>
      </trkpt>
      <trkpt lat="43.55364" lon="5.51309">
        <ele>437.20001220703</ele>
        <time>2013-02-19T09:13:36.000Z</time>
      </trkpt>
      <trkpt lat="43.55366" lon="5.51316">
        <ele>437.20001220703</ele>
        <time>2013-02-19T09:13:37.000Z</time>
      </trkpt>
      <trkpt lat="43.55367" lon="5.51323">
        <ele>437.20001220703</ele>
        <time>2013-02-19T09:13:38.000Z</time>
      </trkpt>
      <trkpt lat="43.55367" lon="5.5133">
        <ele>437.20001220703</ele>
        <time>2013-02-19T09:13:39.000Z</time>
      </trkpt>
      <trkpt lat="43.55367" lon="5.51374">
        <ele>437.20001220703</ele>
        <time>2013-02-19T09:13:45.000Z</time>
      </trkpt>
      <trkpt lat="43.55368" lon="5.51381">
        <ele>437.39999389648</ele>
        <time>2013-02-19T09:13:46.000Z</time>
      </trkpt>
      <trkpt lat="43.55369" lon="5.51388">
        <ele>437.39999389648</ele>
        <time>2013-02-19T09:13:47.000Z</time>
      </trkpt>
      <trkpt lat="43.55371" lon="5.51402">
        <ele>437.39999389648</ele>
        <time>2013-02-19T09:13:49.000Z</time>
      </trkpt>
      <trkpt lat="43.55374" lon="5.51432">
        <ele>437.79998779297</ele>
        <time>2013-02-19T09:13:53.000Z</time>
      </trkpt>
      <trkpt lat="43.55377" lon="5.5144">
        <ele>438</ele>
        <time>2013-02-19T09:13:54.000Z</time>
      </trkpt>
      <trkpt lat="43.5538" lon="5.51447">
        <ele>438</ele>
        <time>2013-02-19T09:13:55.000Z</time>
      </trkpt>
      <trkpt lat="43.55382" lon="5.51454">
        <ele>438.20001220703</ele>
        <time>2013-02-19T09:13:56.000Z</time>
      </trkpt>
      <trkpt lat="43.55384" lon="5.51461">
        <ele>438.39999389648</ele>
        <time>2013-02-19T09:13:57.000Z</time>
      </trkpt>
      <trkpt lat="43.55401" lon="5.5151">
        <ele>439.39999389648</ele>
        <time>2013-02-19T09:14:04.000Z</time>
      </trkpt>
      <trkpt lat="43.55405" lon="5.51524">
        <ele>439.79998779297</ele>
        <time>2013-02-19T09:14:06.000Z</time>
      </trkpt>
      <trkpt lat="43.55406" lon="5.51531">
        <ele>440</ele>
        <time>2013-02-19T09:14:07.000Z</time>
      </trkpt>
      <trkpt lat="43.55405" lon="5.51537">
        <ele>440.20001220703</ele>
        <time>2013-02-19T09:14:08.000Z</time>
      </trkpt>
      <trkpt lat="43.55403" lon="5.51544">
        <ele>440.39999389648</ele>
        <time>2013-02-19T09:14:09.000Z</time>
      </trkpt>
      <trkpt lat="43.55401" lon="5.51549">
        <ele>440.60000610352</ele>
        <time>2013-02-19T09:14:10.000Z</time>
      </trkpt>
      <trkpt lat="43.55399" lon="5.51555">
        <ele>440.79998779297</ele>
        <time>2013-02-19T09:14:11.000Z</time>
      </trkpt>
      <trkpt lat="43.55396" lon="5.5156">
        <ele>441</ele>
        <time>2013-02-19T09:14:12.000Z</time>
      </trkpt>
      <trkpt lat="43.55391" lon="5.51579">
        <ele>441.39999389648</ele>
        <time>2013-02-19T09:14:15.000Z</time>
      </trkpt>
      <trkpt lat="43.55386" lon="5.51598">
        <ele>441.39999389648</ele>
        <time>2013-02-19T09:14:18.000Z</time>
      </trkpt>
      <trkpt lat="43.55385" lon="5.51604">
        <ele>441.39999389648</ele>
        <time>2013-02-19T09:14:19.000Z</time>
      </trkpt>
      <trkpt lat="43.55383" lon="5.5161">
        <ele>441.39999389648</ele>
        <time>2013-02-19T09:14:20.000Z</time>
      </trkpt>
      <trkpt lat="43.55381" lon="5.51615">
        <ele>441.39999389648</ele>
        <time>2013-02-19T09:14:21.000Z</time>
      </trkpt>
      <trkpt lat="43.55378" lon="5.51621">
        <ele>441.20001220703</ele>
        <time>2013-02-19T09:14:22.000Z</time>
      </trkpt>
      <trkpt lat="43.55345" lon="5.51689">
        <ele>440.60000610352</ele>
        <time>2013-02-19T09:14:35.000Z</time>
      </trkpt>
      <trkpt lat="43.55336" lon="5.51703">
        <ele>440.79998779297</ele>
        <time>2013-02-19T09:14:38.000Z</time>
      </trkpt>
      <trkpt lat="43.55326" lon="5.51715">
        <ele>439.60000610352</ele>
        <time>2013-02-19T09:14:41.000Z</time>
      </trkpt>
      <trkpt lat="43.55322" lon="5.5172">
        <ele>439</ele>
        <time>2013-02-19T09:14:42.000Z</time>
      </trkpt>
      <trkpt lat="43.55319" lon="5.51725">
        <ele>438.60000610352</ele>
        <time>2013-02-19T09:14:43.000Z</time>
      </trkpt>
      <trkpt lat="43.55317" lon="5.51731">
        <ele>438.20001220703</ele>
        <time>2013-02-19T09:14:44.000Z</time>
      </trkpt>
      <trkpt lat="43.55316" lon="5.51738">
        <ele>438.20001220703</ele>
        <time>2013-02-19T09:14:45.000Z</time>
      </trkpt>
      <trkpt lat="43.55316" lon="5.51745">
        <ele>438.20001220703</ele>
        <time>2013-02-19T09:14:46.000Z</time>
      </trkpt>
      <trkpt lat="43.55315" lon="5.51753">
        <ele>438.39999389648</ele>
        <time>2013-02-19T09:14:47.000Z</time>
      </trkpt>
      <trkpt lat="43.55316" lon="5.51759">
        <ele>438.60000610352</ele>
        <time>2013-02-19T09:14:48.000Z</time>
      </trkpt>
      <trkpt lat="43.55316" lon="5.51765">
        <ele>438.79998779297</ele>
        <time>2013-02-19T09:14:49.000Z</time>
      </trkpt>
      <trkpt lat="43.55318" lon="5.51771">
        <ele>439.20001220703</ele>
        <time>2013-02-19T09:14:50.000Z</time>
      </trkpt>
      <trkpt lat="43.55327" lon="5.518">
        <ele>441.39999389648</ele>
        <time>2013-02-19T09:14:55.000Z</time>
      </trkpt>
      <trkpt lat="43.5533" lon="5.51812">
        <ele>442</ele>
        <time>2013-02-19T09:14:57.000Z</time>
      </trkpt>
      <trkpt lat="43.55331" lon="5.51818">
        <ele>442.20001220703</ele>
        <time>2013-02-19T09:14:58.000Z</time>
      </trkpt>
      <trkpt lat="43.5533" lon="5.51848">
        <ele>442.39999389648</ele>
        <time>2013-02-19T09:15:03.000Z</time>
      </trkpt>
      <trkpt lat="43.5533" lon="5.51854">
        <ele>442.60000610352</ele>
        <time>2013-02-19T09:15:04.000Z</time>
      </trkpt>
      <trkpt lat="43.55331" lon="5.51859">
        <ele>442.60000610352</ele>
        <time>2013-02-19T09:15:05.000Z</time>
      </trkpt>
      <trkpt lat="43.55332" lon="5.51866">
        <ele>442.79998779297</ele>
        <time>2013-02-19T09:15:06.000Z</time>
      </trkpt>
      <trkpt lat="43.55334" lon="5.51872">
        <ele>443</ele>
        <time>2013-02-19T09:15:07.000Z</time>
      </trkpt>
      <trkpt lat="43.55359" lon="5.51954">
        <ele>443</ele>
        <time>2013-02-19T09:15:20.000Z</time>
      </trkpt>
      <trkpt lat="43.55388" lon="5.52015">
        <ele>443</ele>
        <time>2013-02-19T09:15:30.000Z</time>
      </trkpt>
      <trkpt lat="43.55416" lon="5.52066">
        <ele>444</ele>
        <time>2013-02-19T09:15:40.000Z</time>
      </trkpt>
      <trkpt lat="43.5542" lon="5.5207">
        <ele>444.20001220703</ele>
        <time>2013-02-19T09:15:41.000Z</time>
      </trkpt>
      <trkpt lat="43.55423" lon="5.52074">
        <ele>444.39999389648</ele>
        <time>2013-02-19T09:15:42.000Z</time>
      </trkpt>
      <trkpt lat="43.55426" lon="5.52076">
        <ele>444.60000610352</ele>
        <time>2013-02-19T09:15:43.000Z</time>
      </trkpt>
      <trkpt lat="43.5543" lon="5.52078">
        <ele>444.79998779297</ele>
        <time>2013-02-19T09:15:44.000Z</time>
      </trkpt>
      <trkpt lat="43.55434" lon="5.52079">
        <ele>445</ele>
        <time>2013-02-19T09:15:45.000Z</time>
      </trkpt>
      <trkpt lat="43.55438" lon="5.52081">
        <ele>445.20001220703</ele>
        <time>2013-02-19T09:15:46.000Z</time>
      </trkpt>
      <trkpt lat="43.55443" lon="5.52082">
        <ele>445.39999389648</ele>
        <time>2013-02-19T09:15:47.000Z</time>
      </trkpt>
      <trkpt lat="43.55446" lon="5.52085">
        <ele>445.60000610352</ele>
        <time>2013-02-19T09:15:48.000Z</time>
      </trkpt>
      <trkpt lat="43.5545" lon="5.52088">
        <ele>446</ele>
        <time>2013-02-19T09:15:49.000Z</time>
      </trkpt>
      <trkpt lat="43.55452" lon="5.52091">
        <ele>446.20001220703</ele>
        <time>2013-02-19T09:15:50.000Z</time>
      </trkpt>
      <trkpt lat="43.55455" lon="5.52096">
        <ele>446.39999389648</ele>
        <time>2013-02-19T09:15:51.000Z</time>
      </trkpt>
      <trkpt lat="43.55457" lon="5.521">
        <ele>446.60000610352</ele>
        <time>2013-02-19T09:15:52.000Z</time>
      </trkpt>
      <trkpt lat="43.55459" lon="5.52105">
        <ele>446.79998779297</ele>
        <time>2013-02-19T09:15:53.000Z</time>
      </trkpt>
      <trkpt lat="43.55461" lon="5.5211">
        <ele>446.79998779297</ele>
        <time>2013-02-19T09:15:54.000Z</time>
      </trkpt>
      <trkpt lat="43.55462" lon="5.52116">
        <ele>447</ele>
        <time>2013-02-19T09:15:55.000Z</time>
      </trkpt>
      <trkpt lat="43.55479" lon="5.52153">
        <ele>448.39999389648</ele>
        <time>2013-02-19T09:16:03.000Z</time>
      </trkpt>
      <trkpt lat="43.55482" lon="5.52158">
        <ele>448.60000610352</ele>
        <time>2013-02-19T09:16:04.000Z</time>
      </trkpt>
      <trkpt lat="43.55496" lon="5.52208">
        <ele>450.60000610352</ele>
        <time>2013-02-19T09:16:14.000Z</time>
      </trkpt>
      <trkpt lat="43.55517" lon="5.52254">
        <ele>453.20001220703</ele>
        <time>2013-02-19T09:16:26.000Z</time>
      </trkpt>
      <trkpt lat="43.55526" lon="5.52288">
        <ele>455.20001220703</ele>
        <time>2013-02-19T09:16:35.000Z</time>
      </trkpt>
      <trkpt lat="43.55532" lon="5.52339">
        <ele>457.79998779297</ele>
        <time>2013-02-19T09:16:47.000Z</time>
      </trkpt>
      <trkpt lat="43.55546" lon="5.5237">
        <ele>459.20001220703</ele>
        <time>2013-02-19T09:16:56.000Z</time>
      </trkpt>
      <trkpt lat="43.55563" lon="5.52409">
        <ele>461.39999389648</ele>
        <time>2013-02-19T09:17:06.000Z</time>
      </trkpt>
      <trkpt lat="43.55578" lon="5.52453">
        <ele>463.39999389648</ele>
        <time>2013-02-19T09:17:18.000Z</time>
      </trkpt>
      <trkpt lat="43.55584" lon="5.52505">
        <ele>465</ele>
        <time>2013-02-19T09:17:27.000Z</time>
      </trkpt>
      <trkpt lat="43.55585" lon="5.52511">
        <ele>465</ele>
        <time>2013-02-19T09:17:28.000Z</time>
      </trkpt>
      <trkpt lat="43.55587" lon="5.52516">
        <ele>465</ele>
        <time>2013-02-19T09:17:29.000Z</time>
      </trkpt>
      <trkpt lat="43.55589" lon="5.52522">
        <ele>465</ele>
        <time>2013-02-19T09:17:30.000Z</time>
      </trkpt>
      <trkpt lat="43.55591" lon="5.52527">
        <ele>465</ele>
        <time>2013-02-19T09:17:31.000Z</time>
      </trkpt>
      <trkpt lat="43.55594" lon="5.52532">
        <ele>465</ele>
        <time>2013-02-19T09:17:32.000Z</time>
      </trkpt>
      <trkpt lat="43.55597" lon="5.52536">
        <ele>465</ele>
        <time>2013-02-19T09:17:33.000Z</time>
      </trkpt>
      <trkpt lat="43.55599" lon="5.5254">
        <ele>465</ele>
        <time>2013-02-19T09:17:34.000Z</time>
      </trkpt>
      <trkpt lat="43.55608" lon="5.52551">
        <ele>465.20001220703</ele>
        <time>2013-02-19T09:17:37.000Z</time>
      </trkpt>
      <trkpt lat="43.55611" lon="5.52556">
        <ele>465.20001220703</ele>
        <time>2013-02-19T09:17:38.000Z</time>
      </trkpt>
      <trkpt lat="43.55613" lon="5.5256">
        <ele>465.20001220703</ele>
        <time>2013-02-19T09:17:39.000Z</time>
      </trkpt>
      <trkpt lat="43.55616" lon="5.52565">
        <ele>465.20001220703</ele>
        <time>2013-02-19T09:17:40.000Z</time>
      </trkpt>
      <trkpt lat="43.55618" lon="5.5257">
        <ele>465.39999389648</ele>
        <time>2013-02-19T09:17:41.000Z</time>
      </trkpt>
      <trkpt lat="43.5562" lon="5.52575">
        <ele>465.39999389648</ele>
        <time>2013-02-19T09:17:42.000Z</time>
      </trkpt>
      <trkpt lat="43.55622" lon="5.5258">
        <ele>465.39999389648</ele>
        <time>2013-02-19T09:17:43.000Z</time>
      </trkpt>
      <trkpt lat="43.55623" lon="5.52585">
        <ele>465.39999389648</ele>
        <time>2013-02-19T09:17:44.000Z</time>
      </trkpt>
      <trkpt lat="43.55638" lon="5.52654">
        <ele>462.79998779297</ele>
        <time>2013-02-19T09:17:55.000Z</time>
      </trkpt>
      <trkpt lat="43.55639" lon="5.52661">
        <ele>462.39999389648</ele>
        <time>2013-02-19T09:17:56.000Z</time>
      </trkpt>
      <trkpt lat="43.55643" lon="5.5269">
        <ele>461.60000610352</ele>
        <time>2013-02-19T09:18:00.000Z</time>
      </trkpt>
      <trkpt lat="43.55666" lon="5.52779">
        <ele>460.20001220703</ele>
        <time>2013-02-19T09:18:11.000Z</time>
      </trkpt>
      <trkpt lat="43.55673" lon="5.52838">
        <ele>460.79998779297</ele>
        <time>2013-02-19T09:18:18.000Z</time>
      </trkpt>
      <trkpt lat="43.55675" lon="5.52846">
        <ele>460.79998779297</ele>
        <time>2013-02-19T09:18:19.000Z</time>
      </trkpt>
      <trkpt lat="43.5568" lon="5.52863">
        <ele>460.60000610352</ele>
        <time>2013-02-19T09:18:21.000Z</time>
      </trkpt>
      <trkpt lat="43.55681" lon="5.52872">
        <ele>460.60000610352</ele>
        <time>2013-02-19T09:18:22.000Z</time>
      </trkpt>
      <trkpt lat="43.55683" lon="5.52881">
        <ele>460.60000610352</ele>
        <time>2013-02-19T09:18:23.000Z</time>
      </trkpt>
      <trkpt lat="43.55685" lon="5.52889">
        <ele>460.60000610352</ele>
        <time>2013-02-19T09:18:24.000Z</time>
      </trkpt>
      <trkpt lat="43.55688" lon="5.52898">
        <ele>460.39999389648</ele>
        <time>2013-02-19T09:18:25.000Z</time>
      </trkpt>
      <trkpt lat="43.55692" lon="5.52906">
        <ele>460.39999389648</ele>
        <time>2013-02-19T09:18:26.000Z</time>
      </trkpt>
      <trkpt lat="43.55694" lon="5.52915">
        <ele>460.20001220703</ele>
        <time>2013-02-19T09:18:27.000Z</time>
      </trkpt>
      <trkpt lat="43.55705" lon="5.52968">
        <ele>459.79998779297</ele>
        <time>2013-02-19T09:18:33.000Z</time>
      </trkpt>
      <trkpt lat="43.55713" lon="5.53052">
        <ele>460</ele>
        <time>2013-02-19T09:18:44.000Z</time>
      </trkpt>
      <trkpt lat="43.55725" lon="5.53127">
        <ele>458.20001220703</ele>
        <time>2013-02-19T09:18:53.000Z</time>
      </trkpt>
      <trkpt lat="43.55728" lon="5.53134">
        <ele>457.79998779297</ele>
        <time>2013-02-19T09:18:54.000Z</time>
      </trkpt>
      <trkpt lat="43.55735" lon="5.53157">
        <ele>456.79998779297</ele>
        <time>2013-02-19T09:18:57.000Z</time>
      </trkpt>
      <trkpt lat="43.55737" lon="5.53165">
        <ele>456.60000610352</ele>
        <time>2013-02-19T09:18:58.000Z</time>
      </trkpt>
      <trkpt lat="43.55739" lon="5.5318">
        <ele>456.20001220703</ele>
        <time>2013-02-19T09:19:00.000Z</time>
      </trkpt>
      <trkpt lat="43.55743" lon="5.53259">
        <ele>455.39999389648</ele>
        <time>2013-02-19T09:19:11.000Z</time>
      </trkpt>
      <trkpt lat="43.5576" lon="5.5333">
        <ele>458</ele>
        <time>2013-02-19T09:19:22.000Z</time>
      </trkpt>
      <trkpt lat="43.55768" lon="5.53347">
        <ele>458.60000610352</ele>
        <time>2013-02-19T09:19:25.000Z</time>
      </trkpt>
      <trkpt lat="43.55772" lon="5.5336">
        <ele>459</ele>
        <time>2013-02-19T09:19:27.000Z</time>
      </trkpt>
      <trkpt lat="43.55773" lon="5.53366">
        <ele>459.20001220703</ele>
        <time>2013-02-19T09:19:28.000Z</time>
      </trkpt>
      <trkpt lat="43.55783" lon="5.53427">
        <ele>461</ele>
        <time>2013-02-19T09:19:39.000Z</time>
      </trkpt>
      <trkpt lat="43.55803" lon="5.53483">
        <ele>461.39999389648</ele>
        <time>2013-02-19T09:19:51.000Z</time>
      </trkpt>
      <trkpt lat="43.55826" lon="5.53541">
        <ele>461.39999389648</ele>
        <time>2013-02-19T09:20:03.000Z</time>
      </trkpt>
      <trkpt lat="43.55828" lon="5.53551">
        <ele>461.39999389648</ele>
        <time>2013-02-19T09:20:05.000Z</time>
      </trkpt>
      <trkpt lat="43.5583" lon="5.53616">
        <ele>463</ele>
        <time>2013-02-19T09:20:17.000Z</time>
      </trkpt>
      <trkpt lat="43.55842" lon="5.53681">
        <ele>466.39999389648</ele>
        <time>2013-02-19T09:20:30.000Z</time>
      </trkpt>
      <trkpt lat="43.5586" lon="5.53746">
        <ele>469.39999389648</ele>
        <time>2013-02-19T09:20:44.000Z</time>
      </trkpt>
      <trkpt lat="43.5587" lon="5.53803">
        <ele>471.60000610352</ele>
        <time>2013-02-19T09:20:57.000Z</time>
      </trkpt>
      <trkpt lat="43.55879" lon="5.53867">
        <ele>473.60000610352</ele>
        <time>2013-02-19T09:21:11.000Z</time>
      </trkpt>
      <trkpt lat="43.5589" lon="5.53916">
        <ele>474.60000610352</ele>
        <time>2013-02-19T09:21:23.000Z</time>
      </trkpt>
      <trkpt lat="43.55888" lon="5.53919">
        <ele>474.39999389648</ele>
        <time>2013-02-19T09:21:24.000Z</time>
      </trkpt>
      <trkpt lat="43.55885" lon="5.5392">
        <ele>474.39999389648</ele>
        <time>2013-02-19T09:21:25.000Z</time>
      </trkpt>
      <trkpt lat="43.55881" lon="5.5392">
        <ele>474.39999389648</ele>
        <time>2013-02-19T09:21:26.000Z</time>
      </trkpt>
      <trkpt lat="43.55873" lon="5.53918">
        <ele>474.39999389648</ele>
        <time>2013-02-19T09:21:28.000Z</time>
      </trkpt>
      <trkpt lat="43.5587" lon="5.53914">
        <ele>474.20001220703</ele>
        <time>2013-02-19T09:21:29.000Z</time>
      </trkpt>
      <trkpt lat="43.55861" lon="5.53902">
        <ele>473.79998779297</ele>
        <time>2013-02-19T09:21:32.000Z</time>
      </trkpt>
      <trkpt lat="43.5585" lon="5.53883">
        <ele>473.20001220703</ele>
        <time>2013-02-19T09:21:36.000Z</time>
      </trkpt>
      <trkpt lat="43.55847" lon="5.53879">
        <ele>473</ele>
        <time>2013-02-19T09:21:37.000Z</time>
      </trkpt>
      <trkpt lat="43.55844" lon="5.53875">
        <ele>472.79998779297</ele>
        <time>2013-02-19T09:21:38.000Z</time>
      </trkpt>
      <trkpt lat="43.55841" lon="5.5387">
        <ele>472.39999389648</ele>
        <time>2013-02-19T09:21:39.000Z</time>
      </trkpt>
      <trkpt lat="43.55838" lon="5.53866">
        <ele>472.20001220703</ele>
        <time>2013-02-19T09:21:40.000Z</time>
      </trkpt>
      <trkpt lat="43.55805" lon="5.53812">
        <ele>469.20001220703</ele>
        <time>2013-02-19T09:21:49.000Z</time>
      </trkpt>
      <trkpt lat="43.55802" lon="5.53804">
        <ele>469</ele>
        <time>2013-02-19T09:21:50.000Z</time>
      </trkpt>
      <trkpt lat="43.55799" lon="5.53795">
        <ele>469</ele>
        <time>2013-02-19T09:21:51.000Z</time>
      </trkpt>
      <trkpt lat="43.55798" lon="5.53786">
        <ele>468.79998779297</ele>
        <time>2013-02-19T09:21:52.000Z</time>
      </trkpt>
      <trkpt lat="43.55797" lon="5.53776">
        <ele>468.60000610352</ele>
        <time>2013-02-19T09:21:53.000Z</time>
      </trkpt>
      <trkpt lat="43.55788" lon="5.53727">
        <ele>467.60000610352</ele>
        <time>2013-02-19T09:21:58.000Z</time>
      </trkpt>
      <trkpt lat="43.55762" lon="5.5363">
        <ele>464.39999389648</ele>
        <time>2013-02-19T09:22:08.000Z</time>
      </trkpt>
      <trkpt lat="43.55745" lon="5.53573">
        <ele>462.39999389648</ele>
        <time>2013-02-19T09:22:14.000Z</time>
      </trkpt>
      <trkpt lat="43.55734" lon="5.53548">
        <ele>461.20001220703</ele>
        <time>2013-02-19T09:22:17.000Z</time>
      </trkpt>
      <trkpt lat="43.55731" lon="5.5354">
        <ele>460.79998779297</ele>
        <time>2013-02-19T09:22:18.000Z</time>
      </trkpt>
      <trkpt lat="43.55709" lon="5.535">
        <ele>459</ele>
        <time>2013-02-19T09:22:23.000Z</time>
      </trkpt>
      <trkpt lat="43.55704" lon="5.53493">
        <ele>458.79998779297</ele>
        <time>2013-02-19T09:22:24.000Z</time>
      </trkpt>
      <trkpt lat="43.55698" lon="5.53487">
        <ele>458.79998779297</ele>
        <time>2013-02-19T09:22:25.000Z</time>
      </trkpt>
      <trkpt lat="43.55692" lon="5.53481">
        <ele>458.60000610352</ele>
        <time>2013-02-19T09:22:26.000Z</time>
      </trkpt>
      <trkpt lat="43.55685" lon="5.53477">
        <ele>458.39999389648</ele>
        <time>2013-02-19T09:22:27.000Z</time>
      </trkpt>
      <trkpt lat="43.55677" lon="5.53474">
        <ele>458.20001220703</ele>
        <time>2013-02-19T09:22:28.000Z</time>
      </trkpt>
      <trkpt lat="43.55644" lon="5.53465">
        <ele>457.39999389648</ele>
        <time>2013-02-19T09:22:32.000Z</time>
      </trkpt>
      <trkpt lat="43.55635" lon="5.53465">
        <ele>457.20001220703</ele>
        <time>2013-02-19T09:22:33.000Z</time>
      </trkpt>
      <trkpt lat="43.55626" lon="5.53466">
        <ele>457</ele>
        <time>2013-02-19T09:22:34.000Z</time>
      </trkpt>
      <trkpt lat="43.55618" lon="5.53468">
        <ele>456.60000610352</ele>
        <time>2013-02-19T09:22:35.000Z</time>
      </trkpt>
      <trkpt lat="43.55609" lon="5.53471">
        <ele>456.39999389648</ele>
        <time>2013-02-19T09:22:36.000Z</time>
      </trkpt>
      <trkpt lat="43.556" lon="5.53475">
        <ele>456</ele>
        <time>2013-02-19T09:22:37.000Z</time>
      </trkpt>
      <trkpt lat="43.55582" lon="5.53479">
        <ele>455.20001220703</ele>
        <time>2013-02-19T09:22:39.000Z</time>
      </trkpt>
      <trkpt lat="43.55573" lon="5.53479">
        <ele>454</ele>
        <time>2013-02-19T09:22:40.000Z</time>
      </trkpt>
      <trkpt lat="43.55564" lon="5.53476">
        <ele>453</ele>
        <time>2013-02-19T09:22:41.000Z</time>
      </trkpt>
      <trkpt lat="43.55555" lon="5.53473">
        <ele>452</ele>
        <time>2013-02-19T09:22:42.000Z</time>
      </trkpt>
      <trkpt lat="43.55548" lon="5.53468">
        <ele>451.20001220703</ele>
        <time>2013-02-19T09:22:43.000Z</time>
      </trkpt>
      <trkpt lat="43.55543" lon="5.53461">
        <ele>450.60000610352</ele>
        <time>2013-02-19T09:22:44.000Z</time>
      </trkpt>
      <trkpt lat="43.55538" lon="5.53451">
        <ele>450.39999389648</ele>
        <time>2013-02-19T09:22:45.000Z</time>
      </trkpt>
      <trkpt lat="43.55535" lon="5.53441">
        <ele>450.39999389648</ele>
        <time>2013-02-19T09:22:46.000Z</time>
      </trkpt>
      <trkpt lat="43.55532" lon="5.53431">
        <ele>450.39999389648</ele>
        <time>2013-02-19T09:22:47.000Z</time>
      </trkpt>
      <trkpt lat="43.55527" lon="5.53411">
        <ele>450.20001220703</ele>
        <time>2013-02-19T09:22:49.000Z</time>
      </trkpt>
      <trkpt lat="43.55523" lon="5.53391">
        <ele>450</ele>
        <time>2013-02-19T09:22:51.000Z</time>
      </trkpt>
      <trkpt lat="43.55523" lon="5.53381">
        <ele>450.20001220703</ele>
        <time>2013-02-19T09:22:52.000Z</time>
      </trkpt>
      <trkpt lat="43.55522" lon="5.53361">
        <ele>450.39999389648</ele>
        <time>2013-02-19T09:22:54.000Z</time>
      </trkpt>
      <trkpt lat="43.5552" lon="5.53351">
        <ele>450.39999389648</ele>
        <time>2013-02-19T09:22:55.000Z</time>
      </trkpt>
      <trkpt lat="43.55517" lon="5.53343">
        <ele>450.20001220703</ele>
        <time>2013-02-19T09:22:56.000Z</time>
      </trkpt>
      <trkpt lat="43.55512" lon="5.53337">
        <ele>449.79998779297</ele>
        <time>2013-02-19T09:22:57.000Z</time>
      </trkpt>
      <trkpt lat="43.55507" lon="5.53333">
        <ele>449.60000610352</ele>
        <time>2013-02-19T09:22:58.000Z</time>
      </trkpt>
      <trkpt lat="43.55503" lon="5.5333">
        <ele>449.39999389648</ele>
        <time>2013-02-19T09:22:59.000Z</time>
      </trkpt>
      <trkpt lat="43.55498" lon="5.53325">
        <ele>449.39999389648</ele>
        <time>2013-02-19T09:23:00.000Z</time>
      </trkpt>
      <trkpt lat="43.55495" lon="5.53321">
        <ele>449.60000610352</ele>
        <time>2013-02-19T09:23:01.000Z</time>
      </trkpt>
      <trkpt lat="43.55492" lon="5.53316">
        <ele>449.60000610352</ele>
        <time>2013-02-19T09:23:02.000Z</time>
      </trkpt>
      <trkpt lat="43.55491" lon="5.5331">
        <ele>450</ele>
        <time>2013-02-19T09:23:03.000Z</time>
      </trkpt>
      <trkpt lat="43.5549" lon="5.53305">
        <ele>450.39999389648</ele>
        <time>2013-02-19T09:23:04.000Z</time>
      </trkpt>
      <trkpt lat="43.55486" lon="5.53275">
        <ele>452</ele>
        <time>2013-02-19T09:23:11.000Z</time>
      </trkpt>
      <trkpt lat="43.55486" lon="5.53268">
        <ele>452.60000610352</ele>
        <time>2013-02-19T09:23:13.000Z</time>
      </trkpt>
      <trkpt lat="43.55488" lon="5.53261">
        <ele>453.39999389648</ele>
        <time>2013-02-19T09:23:15.000Z</time>
      </trkpt>
      <trkpt lat="43.55481" lon="5.53221">
        <ele>453.60000610352</ele>
        <time>2013-02-19T09:23:23.000Z</time>
      </trkpt>
      <trkpt lat="43.5548" lon="5.53214">
        <ele>453.39999389648</ele>
        <time>2013-02-19T09:23:24.000Z</time>
      </trkpt>
      <trkpt lat="43.55479" lon="5.53199">
        <ele>453.39999389648</ele>
        <time>2013-02-19T09:23:26.000Z</time>
      </trkpt>
      <trkpt lat="43.55479" lon="5.53128">
        <ele>453.39999389648</ele>
        <time>2013-02-19T09:23:35.000Z</time>
      </trkpt>
      <trkpt lat="43.55479" lon="5.53103">
        <ele>453.20001220703</ele>
        <time>2013-02-19T09:23:39.000Z</time>
      </trkpt>
      <trkpt lat="43.5548" lon="5.53081">
        <ele>453.20001220703</ele>
        <time>2013-02-19T09:23:42.000Z</time>
      </trkpt>
      <trkpt lat="43.55477" lon="5.53053">
        <ele>453.60000610352</ele>
        <time>2013-02-19T09:23:46.000Z</time>
      </trkpt>
      <trkpt lat="43.55475" lon="5.53041">
        <ele>453.79998779297</ele>
        <time>2013-02-19T09:23:48.000Z</time>
      </trkpt>
      <trkpt lat="43.55472" lon="5.53014">
        <ele>454.20001220703</ele>
        <time>2013-02-19T09:23:52.000Z</time>
      </trkpt>
      <trkpt lat="43.55465" lon="5.52974">
        <ele>454</ele>
        <time>2013-02-19T09:23:58.000Z</time>
      </trkpt>
      <trkpt lat="43.55464" lon="5.52957">
        <ele>453.79998779297</ele>
        <time>2013-02-19T09:24:01.000Z</time>
      </trkpt>
      <trkpt lat="43.5545" lon="5.52931">
        <ele>451.79998779297</ele>
        <time>2013-02-19T09:24:06.000Z</time>
      </trkpt>
      <trkpt lat="43.55441" lon="5.5291">
        <ele>450.39999389648</ele>
        <time>2013-02-19T09:24:09.000Z</time>
      </trkpt>
      <trkpt lat="43.55435" lon="5.52872">
        <ele>448</ele>
        <time>2013-02-19T09:24:13.000Z</time>
      </trkpt>
      <trkpt lat="43.55436" lon="5.52852">
        <ele>447.20001220703</ele>
        <time>2013-02-19T09:24:15.000Z</time>
      </trkpt>
      <trkpt lat="43.55431" lon="5.52822">
        <ele>445.60000610352</ele>
        <time>2013-02-19T09:24:18.000Z</time>
      </trkpt>
      <trkpt lat="43.55424" lon="5.52803">
        <ele>444.20001220703</ele>
        <time>2013-02-19T09:24:20.000Z</time>
      </trkpt>
      <trkpt lat="43.55412" lon="5.52767">
        <ele>442</ele>
        <time>2013-02-19T09:24:24.000Z</time>
      </trkpt>
      <trkpt lat="43.55403" lon="5.52747">
        <ele>440.60000610352</ele>
        <time>2013-02-19T09:24:27.000Z</time>
      </trkpt>
      <trkpt lat="43.55403" lon="5.52739">
        <ele>440.39999389648</ele>
        <time>2013-02-19T09:24:28.000Z</time>
      </trkpt>
      <trkpt lat="43.55404" lon="5.52731">
        <ele>440.39999389648</ele>
        <time>2013-02-19T09:24:29.000Z</time>
      </trkpt>
      <trkpt lat="43.55403" lon="5.52722">
        <ele>440.20001220703</ele>
        <time>2013-02-19T09:24:30.000Z</time>
      </trkpt>
      <trkpt lat="43.55403" lon="5.52713">
        <ele>440.20001220703</ele>
        <time>2013-02-19T09:24:31.000Z</time>
      </trkpt>
      <trkpt lat="43.55402" lon="5.52695">
        <ele>439.79998779297</ele>
        <time>2013-02-19T09:24:33.000Z</time>
      </trkpt>
      <trkpt lat="43.554" lon="5.52677">
        <ele>439.39999389648</ele>
        <time>2013-02-19T09:24:35.000Z</time>
      </trkpt>
      <trkpt lat="43.55398" lon="5.52668">
        <ele>439.20001220703</ele>
        <time>2013-02-19T09:24:36.000Z</time>
      </trkpt>
      <trkpt lat="43.55396" lon="5.52659">
        <ele>439.20001220703</ele>
        <time>2013-02-19T09:24:37.000Z</time>
      </trkpt>
      <trkpt lat="43.55387" lon="5.52619">
        <ele>439.39999389648</ele>
        <time>2013-02-19T09:24:41.000Z</time>
      </trkpt>
      <trkpt lat="43.55385" lon="5.52607">
        <ele>439.39999389648</ele>
        <time>2013-02-19T09:24:42.000Z</time>
      </trkpt>
      <trkpt lat="43.55381" lon="5.52584">
        <ele>439.60000610352</ele>
        <time>2013-02-19T09:24:44.000Z</time>
      </trkpt>
      <trkpt lat="43.5538" lon="5.5256">
        <ele>439.39999389648</ele>
        <time>2013-02-19T09:24:46.000Z</time>
      </trkpt>
      <trkpt lat="43.5538" lon="5.52549">
        <ele>439.39999389648</ele>
        <time>2013-02-19T09:24:47.000Z</time>
      </trkpt>
      <trkpt lat="43.55381" lon="5.52516">
        <ele>439.20001220703</ele>
        <time>2013-02-19T09:24:50.000Z</time>
      </trkpt>
      <trkpt lat="43.55377" lon="5.52491">
        <ele>438.60000610352</ele>
        <time>2013-02-19T09:24:53.000Z</time>
      </trkpt>
      <trkpt lat="43.55374" lon="5.52486">
        <ele>438</ele>
        <time>2013-02-19T09:24:54.000Z</time>
      </trkpt>
      <trkpt lat="43.55361" lon="5.52466">
        <ele>436</ele>
        <time>2013-02-19T09:24:57.000Z</time>
      </trkpt>
      <trkpt lat="43.55339" lon="5.52438">
        <ele>432.20001220703</ele>
        <time>2013-02-19T09:25:01.000Z</time>
      </trkpt>
      <trkpt lat="43.55333" lon="5.52431">
        <ele>431.20001220703</ele>
        <time>2013-02-19T09:25:02.000Z</time>
      </trkpt>
      <trkpt lat="43.55327" lon="5.52424">
        <ele>430.60000610352</ele>
        <time>2013-02-19T09:25:03.000Z</time>
      </trkpt>
      <trkpt lat="43.55323" lon="5.52416">
        <ele>430.20001220703</ele>
        <time>2013-02-19T09:25:04.000Z</time>
      </trkpt>
      <trkpt lat="43.55319" lon="5.52408">
        <ele>430</ele>
        <time>2013-02-19T09:25:05.000Z</time>
      </trkpt>
      <trkpt lat="43.55315" lon="5.52401">
        <ele>429.79998779297</ele>
        <time>2013-02-19T09:25:06.000Z</time>
      </trkpt>
      <trkpt lat="43.55311" lon="5.52394">
        <ele>429.60000610352</ele>
        <time>2013-02-19T09:25:07.000Z</time>
      </trkpt>
      <trkpt lat="43.55305" lon="5.52388">
        <ele>429.20001220703</ele>
        <time>2013-02-19T09:25:08.000Z</time>
      </trkpt>
      <trkpt lat="43.553" lon="5.52383">
        <ele>428.79998779297</ele>
        <time>2013-02-19T09:25:09.000Z</time>
      </trkpt>
      <trkpt lat="43.55283" lon="5.52368">
        <ele>427.39999389648</ele>
        <time>2013-02-19T09:25:12.000Z</time>
      </trkpt>
      <trkpt lat="43.55279" lon="5.52361">
        <ele>427</ele>
        <time>2013-02-19T09:25:13.000Z</time>
      </trkpt>
      <trkpt lat="43.55276" lon="5.52353">
        <ele>426.60000610352</ele>
        <time>2013-02-19T09:25:14.000Z</time>
      </trkpt>
      <trkpt lat="43.55273" lon="5.52345">
        <ele>426.39999389648</ele>
        <time>2013-02-19T09:25:15.000Z</time>
      </trkpt>
      <trkpt lat="43.55269" lon="5.52336">
        <ele>426</ele>
        <time>2013-02-19T09:25:16.000Z</time>
      </trkpt>
      <trkpt lat="43.55265" lon="5.52329">
        <ele>425.39999389648</ele>
        <time>2013-02-19T09:25:17.000Z</time>
      </trkpt>
      <trkpt lat="43.5526" lon="5.52322">
        <ele>424.79998779297</ele>
        <time>2013-02-19T09:25:18.000Z</time>
      </trkpt>
      <trkpt lat="43.55255" lon="5.52315">
        <ele>424.20001220703</ele>
        <time>2013-02-19T09:25:19.000Z</time>
      </trkpt>
      <trkpt lat="43.5525" lon="5.52308">
        <ele>423.60000610352</ele>
        <time>2013-02-19T09:25:20.000Z</time>
      </trkpt>
      <trkpt lat="43.5522" lon="5.52277">
        <ele>421</ele>
        <time>2013-02-19T09:25:25.000Z</time>
      </trkpt>
      <trkpt lat="43.55215" lon="5.5227">
        <ele>420.60000610352</ele>
        <time>2013-02-19T09:25:26.000Z</time>
      </trkpt>
      <trkpt lat="43.55209" lon="5.52262">
        <ele>420</ele>
        <time>2013-02-19T09:25:27.000Z</time>
      </trkpt>
      <trkpt lat="43.55202" lon="5.52256">
        <ele>419.60000610352</ele>
        <time>2013-02-19T09:25:28.000Z</time>
      </trkpt>
      <trkpt lat="43.55197" lon="5.52249">
        <ele>419</ele>
        <time>2013-02-19T09:25:29.000Z</time>
      </trkpt>
      <trkpt lat="43.55192" lon="5.52242">
        <ele>418.79998779297</ele>
        <time>2013-02-19T09:25:30.000Z</time>
      </trkpt>
      <trkpt lat="43.55188" lon="5.52234">
        <ele>418.79998779297</ele>
        <time>2013-02-19T09:25:31.000Z</time>
      </trkpt>
      <trkpt lat="43.55184" lon="5.52225">
        <ele>418.60000610352</ele>
        <time>2013-02-19T09:25:32.000Z</time>
      </trkpt>
      <trkpt lat="43.5518" lon="5.52216">
        <ele>418.60000610352</ele>
        <time>2013-02-19T09:25:33.000Z</time>
      </trkpt>
      <trkpt lat="43.55177" lon="5.52208">
        <ele>418.60000610352</ele>
        <time>2013-02-19T09:25:34.000Z</time>
      </trkpt>
      <trkpt lat="43.55138" lon="5.52141">
        <ele>418.39999389648</ele>
        <time>2013-02-19T09:25:44.000Z</time>
      </trkpt>
      <trkpt lat="43.55131" lon="5.52136">
        <ele>418.20001220703</ele>
        <time>2013-02-19T09:25:46.000Z</time>
      </trkpt>
      <trkpt lat="43.55128" lon="5.52136">
        <ele>418</ele>
        <time>2013-02-19T09:25:47.000Z</time>
      </trkpt>
      <trkpt lat="43.55124" lon="5.52136">
        <ele>417.79998779297</ele>
        <time>2013-02-19T09:25:48.000Z</time>
      </trkpt>
      <trkpt lat="43.55121" lon="5.52135">
        <ele>417.60000610352</ele>
        <time>2013-02-19T09:25:49.000Z</time>
      </trkpt>
      <trkpt lat="43.55118" lon="5.52132">
        <ele>417.60000610352</ele>
        <time>2013-02-19T09:25:50.000Z</time>
      </trkpt>
      <trkpt lat="43.55114" lon="5.52129">
        <ele>417.39999389648</ele>
        <time>2013-02-19T09:25:51.000Z</time>
      </trkpt>
      <trkpt lat="43.5511" lon="5.52125">
        <ele>417.39999389648</ele>
        <time>2013-02-19T09:25:52.000Z</time>
      </trkpt>
      <trkpt lat="43.55105" lon="5.52124">
        <ele>417</ele>
        <time>2013-02-19T09:25:53.000Z</time>
      </trkpt>
      <trkpt lat="43.551" lon="5.52123">
        <ele>416.79998779297</ele>
        <time>2013-02-19T09:25:54.000Z</time>
      </trkpt>
      <trkpt lat="43.55095" lon="5.52123">
        <ele>416.60000610352</ele>
        <time>2013-02-19T09:25:55.000Z</time>
      </trkpt>
      <trkpt lat="43.55089" lon="5.52125">
        <ele>416.20001220703</ele>
        <time>2013-02-19T09:25:56.000Z</time>
      </trkpt>
      <trkpt lat="43.55084" lon="5.52127">
        <ele>415.79998779297</ele>
        <time>2013-02-19T09:25:57.000Z</time>
      </trkpt>
      <trkpt lat="43.55073" lon="5.52131">
        <ele>414.60000610352</ele>
        <time>2013-02-19T09:25:59.000Z</time>
      </trkpt>
      <trkpt lat="43.55061" lon="5.52132">
        <ele>413.39999389648</ele>
        <time>2013-02-19T09:26:01.000Z</time>
      </trkpt>
      <trkpt lat="43.55056" lon="5.52133">
        <ele>412.79998779297</ele>
        <time>2013-02-19T09:26:02.000Z</time>
      </trkpt>
      <trkpt lat="43.55053" lon="5.52133">
        <ele>412.39999389648</ele>
        <time>2013-02-19T09:26:03.000Z</time>
      </trkpt>
      <trkpt lat="43.5505" lon="5.52133">
        <ele>412.20001220703</ele>
        <time>2013-02-19T09:26:04.000Z</time>
      </trkpt>
      <trkpt lat="43.55048" lon="5.52131">
        <ele>412</ele>
        <time>2013-02-19T09:26:05.000Z</time>
      </trkpt>
      <trkpt lat="43.55047" lon="5.52128">
        <ele>411.79998779297</ele>
        <time>2013-02-19T09:26:06.000Z</time>
      </trkpt>
      <trkpt lat="43.55047" lon="5.52126">
        <ele>411.79998779297</ele>
        <time>2013-02-19T09:26:07.000Z</time>
      </trkpt>
      <trkpt lat="43.55046" lon="5.52124">
        <ele>411.60000610352</ele>
        <time>2013-02-19T09:26:08.000Z</time>
      </trkpt>
      <trkpt lat="43.55046" lon="5.52122">
        <ele>411.60000610352</ele>
        <time>2013-02-19T09:26:09.000Z</time>
      </trkpt>
      <trkpt lat="43.55046" lon="5.52113">
        <ele>411.60000610352</ele>
        <time>2013-02-19T09:26:17.000Z</time>
      </trkpt>
      <trkpt lat="43.55046" lon="5.52114">
        <ele>411.60000610352</ele>
        <time>2013-02-19T09:26:31.000Z</time>
      </trkpt>
      <trkpt lat="43.55047" lon="5.52113">
        <ele>411.79998779297</ele>
        <time>2013-02-19T09:26:48.000Z</time>
      </trkpt>
      <trkpt lat="43.55048" lon="5.52113">
        <ele>412</ele>
        <time>2013-02-19T09:27:15.000Z</time>
      </trkpt>
      <trkpt lat="43.55047" lon="5.52109">
        <ele>411.79998779297</ele>
        <time>2013-02-19T09:27:19.000Z</time>
      </trkpt>
      <trkpt lat="43.55046" lon="5.52108">
        <ele>411.60000610352</ele>
        <time>2013-02-19T09:27:20.000Z</time>
      </trkpt>
      <trkpt lat="43.55043" lon="5.52103">
        <ele>411.20001220703</ele>
        <time>2013-02-19T09:27:23.000Z</time>
      </trkpt>
      <trkpt lat="43.55042" lon="5.521">
        <ele>411</ele>
        <time>2013-02-19T09:27:24.000Z</time>
      </trkpt>
      <trkpt lat="43.55041" lon="5.52097">
        <ele>410.79998779297</ele>
        <time>2013-02-19T09:27:25.000Z</time>
      </trkpt>
      <trkpt lat="43.5504" lon="5.52093">
        <ele>410.79998779297</ele>
        <time>2013-02-19T09:27:26.000Z</time>
      </trkpt>
      <trkpt lat="43.55039" lon="5.52089">
        <ele>410.60000610352</ele>
        <time>2013-02-19T09:27:27.000Z</time>
      </trkpt>
      <trkpt lat="43.55039" lon="5.52084">
        <ele>410.39999389648</ele>
        <time>2013-02-19T09:27:28.000Z</time>
      </trkpt>
      <trkpt lat="43.55038" lon="5.52079">
        <ele>410.39999389648</ele>
        <time>2013-02-19T09:27:29.000Z</time>
      </trkpt>
      <trkpt lat="43.55038" lon="5.52074">
        <ele>410.39999389648</ele>
        <time>2013-02-19T09:27:30.000Z</time>
      </trkpt>
      <trkpt lat="43.55038" lon="5.52069">
        <ele>410.39999389648</ele>
        <time>2013-02-19T09:27:31.000Z</time>
      </trkpt>
      <trkpt lat="43.55037" lon="5.52064">
        <ele>410.39999389648</ele>
        <time>2013-02-19T09:27:32.000Z</time>
      </trkpt>
      <trkpt lat="43.55039" lon="5.5202">
        <ele>411</ele>
        <time>2013-02-19T09:27:40.000Z</time>
      </trkpt>
      <trkpt lat="43.5504" lon="5.52014">
        <ele>411</ele>
        <time>2013-02-19T09:27:41.000Z</time>
      </trkpt>
      <trkpt lat="43.55041" lon="5.52007">
        <ele>411.20001220703</ele>
        <time>2013-02-19T09:27:42.000Z</time>
      </trkpt>
      <trkpt lat="43.55041" lon="5.52001">
        <ele>411.20001220703</ele>
        <time>2013-02-19T09:27:43.000Z</time>
      </trkpt>
      <trkpt lat="43.5504" lon="5.51994">
        <ele>411.39999389648</ele>
        <time>2013-02-19T09:27:44.000Z</time>
      </trkpt>
      <trkpt lat="43.55039" lon="5.51988">
        <ele>411.60000610352</ele>
        <time>2013-02-19T09:27:45.000Z</time>
      </trkpt>
      <trkpt lat="43.55038" lon="5.51982">
        <ele>411.60000610352</ele>
        <time>2013-02-19T09:27:46.000Z</time>
      </trkpt>
      <trkpt lat="43.55035" lon="5.51977">
        <ele>411.39999389648</ele>
        <time>2013-02-19T09:27:47.000Z</time>
      </trkpt>
      <trkpt lat="43.55033" lon="5.51972">
        <ele>411.39999389648</ele>
        <time>2013-02-19T09:27:48.000Z</time>
      </trkpt>
      <trkpt lat="43.5503" lon="5.51968">
        <ele>411.20001220703</ele>
        <time>2013-02-19T09:27:49.000Z</time>
      </trkpt>
      <trkpt lat="43.55028" lon="5.51965">
        <ele>411</ele>
        <time>2013-02-19T09:27:50.000Z</time>
      </trkpt>
      <trkpt lat="43.55026" lon="5.51962">
        <ele>410.79998779297</ele>
        <time>2013-02-19T09:27:51.000Z</time>
      </trkpt>
      <trkpt lat="43.55023" lon="5.51961">
        <ele>410.60000610352</ele>
        <time>2013-02-19T09:27:52.000Z</time>
      </trkpt>
      <trkpt lat="43.5502" lon="5.5196">
        <ele>410.20001220703</ele>
        <time>2013-02-19T09:27:53.000Z</time>
      </trkpt>
      <trkpt lat="43.55016" lon="5.51961">
        <ele>409.79998779297</ele>
        <time>2013-02-19T09:27:54.000Z</time>
      </trkpt>
      <trkpt lat="43.55012" lon="5.51961">
        <ele>409.20001220703</ele>
        <time>2013-02-19T09:27:55.000Z</time>
      </trkpt>
      <trkpt lat="43.55009" lon="5.5196">
        <ele>408.79998779297</ele>
        <time>2013-02-19T09:27:56.000Z</time>
      </trkpt>
      <trkpt lat="43.55006" lon="5.51956">
        <ele>408.79998779297</ele>
        <time>2013-02-19T09:27:57.000Z</time>
      </trkpt>
      <trkpt lat="43.55005" lon="5.51952">
        <ele>408.79998779297</ele>
        <time>2013-02-19T09:27:58.000Z</time>
      </trkpt>
      <trkpt lat="43.55004" lon="5.51946">
        <ele>409</ele>
        <time>2013-02-19T09:27:59.000Z</time>
      </trkpt>
      <trkpt lat="43.55004" lon="5.5194">
        <ele>409.20001220703</ele>
        <time>2013-02-19T09:28:00.000Z</time>
      </trkpt>
      <trkpt lat="43.55005" lon="5.51933">
        <ele>409.60000610352</ele>
        <time>2013-02-19T09:28:01.000Z</time>
      </trkpt>
      <trkpt lat="43.55005" lon="5.51925">
        <ele>410</ele>
        <time>2013-02-19T09:28:02.000Z</time>
      </trkpt>
      <trkpt lat="43.55005" lon="5.51918">
        <ele>410.39999389648</ele>
        <time>2013-02-19T09:28:03.000Z</time>
      </trkpt>
      <trkpt lat="43.55004" lon="5.51911">
        <ele>410.20001220703</ele>
        <time>2013-02-19T09:28:04.000Z</time>
      </trkpt>
      <trkpt lat="43.55004" lon="5.51904">
        <ele>410.20001220703</ele>
        <time>2013-02-19T09:28:05.000Z</time>
      </trkpt>
      <trkpt lat="43.54991" lon="5.5185">
        <ele>407.60000610352</ele>
        <time>2013-02-19T09:28:13.000Z</time>
      </trkpt>
      <trkpt lat="43.54987" lon="5.51835">
        <ele>406.79998779297</ele>
        <time>2013-02-19T09:28:16.000Z</time>
      </trkpt>
      <trkpt lat="43.54984" lon="5.5183">
        <ele>406.20001220703</ele>
        <time>2013-02-19T09:28:17.000Z</time>
      </trkpt>
      <trkpt lat="43.5497" lon="5.51812">
        <ele>403.79998779297</ele>
        <time>2013-02-19T09:28:21.000Z</time>
      </trkpt>
      <trkpt lat="43.54967" lon="5.51806">
        <ele>403.39999389648</ele>
        <time>2013-02-19T09:28:22.000Z</time>
      </trkpt>
      <trkpt lat="43.5496" lon="5.51787">
        <ele>402.20001220703</ele>
        <time>2013-02-19T09:28:25.000Z</time>
      </trkpt>
      <trkpt lat="43.54956" lon="5.51773">
        <ele>401.39999389648</ele>
        <time>2013-02-19T09:28:27.000Z</time>
      </trkpt>
      <trkpt lat="43.54953" lon="5.51758">
        <ele>401.20001220703</ele>
        <time>2013-02-19T09:28:29.000Z</time>
      </trkpt>
      <trkpt lat="43.54951" lon="5.51752">
        <ele>400.79998779297</ele>
        <time>2013-02-19T09:28:30.000Z</time>
      </trkpt>
      <trkpt lat="43.5495" lon="5.51745">
        <ele>400.39999389648</ele>
        <time>2013-02-19T09:28:31.000Z</time>
      </trkpt>
      <trkpt lat="43.54949" lon="5.51737">
        <ele>400.20001220703</ele>
        <time>2013-02-19T09:28:32.000Z</time>
      </trkpt>
      <trkpt lat="43.54949" lon="5.51729">
        <ele>400</ele>
        <time>2013-02-19T09:28:33.000Z</time>
      </trkpt>
      <trkpt lat="43.54951" lon="5.51721">
        <ele>399.79998779297</ele>
        <time>2013-02-19T09:28:34.000Z</time>
      </trkpt>
      <trkpt lat="43.54953" lon="5.51713">
        <ele>399.79998779297</ele>
        <time>2013-02-19T09:28:35.000Z</time>
      </trkpt>
      <trkpt lat="43.54955" lon="5.51707">
        <ele>400</ele>
        <time>2013-02-19T09:28:36.000Z</time>
      </trkpt>
      <trkpt lat="43.54958" lon="5.51702">
        <ele>400.20001220703</ele>
        <time>2013-02-19T09:28:37.000Z</time>
      </trkpt>
      <trkpt lat="43.54961" lon="5.517">
        <ele>400.39999389648</ele>
        <time>2013-02-19T09:28:38.000Z</time>
      </trkpt>
      <trkpt lat="43.54963" lon="5.51698">
        <ele>400.60000610352</ele>
        <time>2013-02-19T09:28:39.000Z</time>
      </trkpt>
      <trkpt lat="43.54968" lon="5.51697">
        <ele>401.20001220703</ele>
        <time>2013-02-19T09:28:41.000Z</time>
      </trkpt>
      <trkpt lat="43.54972" lon="5.51698">
        <ele>401.79998779297</ele>
        <time>2013-02-19T09:28:42.000Z</time>
      </trkpt>
      <trkpt lat="43.54975" lon="5.51698">
        <ele>402.20001220703</ele>
        <time>2013-02-19T09:28:43.000Z</time>
      </trkpt>
      <trkpt lat="43.54979" lon="5.51697">
        <ele>402.60000610352</ele>
        <time>2013-02-19T09:28:44.000Z</time>
      </trkpt>
      <trkpt lat="43.54984" lon="5.51696">
        <ele>403.20001220703</ele>
        <time>2013-02-19T09:28:45.000Z</time>
      </trkpt>
      <trkpt lat="43.54988" lon="5.51695">
        <ele>403.79998779297</ele>
        <time>2013-02-19T09:28:46.000Z</time>
      </trkpt>
      <trkpt lat="43.54993" lon="5.51695">
        <ele>404.39999389648</ele>
        <time>2013-02-19T09:28:47.000Z</time>
      </trkpt>
      <trkpt lat="43.55003" lon="5.51695">
        <ele>405.39999389648</ele>
        <time>2013-02-19T09:28:49.000Z</time>
      </trkpt>
      <trkpt lat="43.55007" lon="5.51692">
        <ele>405.60000610352</ele>
        <time>2013-02-19T09:28:50.000Z</time>
      </trkpt>
      <trkpt lat="43.5501" lon="5.51687">
        <ele>405.60000610352</ele>
        <time>2013-02-19T09:28:51.000Z</time>
      </trkpt>
      <trkpt lat="43.55011" lon="5.5168">
        <ele>405.39999389648</ele>
        <time>2013-02-19T09:28:52.000Z</time>
      </trkpt>
      <trkpt lat="43.55013" lon="5.51672">
        <ele>405.20001220703</ele>
        <time>2013-02-19T09:28:53.000Z</time>
      </trkpt>
      <trkpt lat="43.55016" lon="5.51663">
        <ele>405</ele>
        <time>2013-02-19T09:28:54.000Z</time>
      </trkpt>
      <trkpt lat="43.5502" lon="5.51655">
        <ele>404.60000610352</ele>
        <time>2013-02-19T09:28:55.000Z</time>
      </trkpt>
      <trkpt lat="43.55024" lon="5.51646">
        <ele>404.20001220703</ele>
        <time>2013-02-19T09:28:56.000Z</time>
      </trkpt>
      <trkpt lat="43.55025" lon="5.51636">
        <ele>403.60000610352</ele>
        <time>2013-02-19T09:28:57.000Z</time>
      </trkpt>
      <trkpt lat="43.55026" lon="5.51627">
        <ele>402.79998779297</ele>
        <time>2013-02-19T09:28:58.000Z</time>
      </trkpt>
      <trkpt lat="43.55025" lon="5.51619">
        <ele>402.20001220703</ele>
        <time>2013-02-19T09:28:59.000Z</time>
      </trkpt>
      <trkpt lat="43.55026" lon="5.51605">
        <ele>401.20001220703</ele>
        <time>2013-02-19T09:29:01.000Z</time>
      </trkpt>
      <trkpt lat="43.55029" lon="5.51598">
        <ele>400.79998779297</ele>
        <time>2013-02-19T09:29:02.000Z</time>
      </trkpt>
      <trkpt lat="43.55032" lon="5.51592">
        <ele>400.60000610352</ele>
        <time>2013-02-19T09:29:03.000Z</time>
      </trkpt>
      <trkpt lat="43.55035" lon="5.51586">
        <ele>400.60000610352</ele>
        <time>2013-02-19T09:29:04.000Z</time>
      </trkpt>
      <trkpt lat="43.55039" lon="5.51582">
        <ele>400.60000610352</ele>
        <time>2013-02-19T09:29:05.000Z</time>
      </trkpt>
      <trkpt lat="43.55042" lon="5.51577">
        <ele>400.60000610352</ele>
        <time>2013-02-19T09:29:06.000Z</time>
      </trkpt>
      <trkpt lat="43.5505" lon="5.51563">
        <ele>400.39999389648</ele>
        <time>2013-02-19T09:29:09.000Z</time>
      </trkpt>
      <trkpt lat="43.55051" lon="5.51557">
        <ele>400</ele>
        <time>2013-02-19T09:29:10.000Z</time>
      </trkpt>
      <trkpt lat="43.55051" lon="5.51552">
        <ele>399.60000610352</ele>
        <time>2013-02-19T09:29:11.000Z</time>
      </trkpt>
      <trkpt lat="43.5505" lon="5.51546">
        <ele>399</ele>
        <time>2013-02-19T09:29:12.000Z</time>
      </trkpt>
      <trkpt lat="43.55048" lon="5.51539">
        <ele>398.60000610352</ele>
        <time>2013-02-19T09:29:13.000Z</time>
      </trkpt>
      <trkpt lat="43.55036" lon="5.51501">
        <ele>396</ele>
        <time>2013-02-19T09:29:19.000Z</time>
      </trkpt>
      <trkpt lat="43.55034" lon="5.51495">
        <ele>396.20001220703</ele>
        <time>2013-02-19T09:29:20.000Z</time>
      </trkpt>
      <trkpt lat="43.55031" lon="5.51489">
        <ele>396.39999389648</ele>
        <time>2013-02-19T09:29:21.000Z</time>
      </trkpt>
      <trkpt lat="43.55028" lon="5.51484">
        <ele>396.60000610352</ele>
        <time>2013-02-19T09:29:22.000Z</time>
      </trkpt>
      <trkpt lat="43.55025" lon="5.51481">
        <ele>396.79998779297</ele>
        <time>2013-02-19T09:29:23.000Z</time>
      </trkpt>
      <trkpt lat="43.5502" lon="5.5148">
        <ele>396.79998779297</ele>
        <time>2013-02-19T09:29:24.000Z</time>
      </trkpt>
      <trkpt lat="43.55016" lon="5.51482">
        <ele>396.79998779297</ele>
        <time>2013-02-19T09:29:25.000Z</time>
      </trkpt>
      <trkpt lat="43.5501" lon="5.51483">
        <ele>396.79998779297</ele>
        <time>2013-02-19T09:29:26.000Z</time>
      </trkpt>
      <trkpt lat="43.55005" lon="5.51485">
        <ele>396.60000610352</ele>
        <time>2013-02-19T09:29:27.000Z</time>
      </trkpt>
      <trkpt lat="43.54943" lon="5.51497">
        <ele>395.39999389648</ele>
        <time>2013-02-19T09:29:37.000Z</time>
      </trkpt>
      <trkpt lat="43.54886" lon="5.51491">
        <ele>394.79998779297</ele>
        <time>2013-02-19T09:29:47.000Z</time>
      </trkpt>
      <trkpt lat="43.54871" lon="5.51483">
        <ele>394.79998779297</ele>
        <time>2013-02-19T09:29:50.000Z</time>
      </trkpt>
      <trkpt lat="43.54866" lon="5.51479">
        <ele>395</ele>
        <time>2013-02-19T09:29:51.000Z</time>
      </trkpt>
      <trkpt lat="43.54861" lon="5.51473">
        <ele>395.20001220703</ele>
        <time>2013-02-19T09:29:52.000Z</time>
      </trkpt>
      <trkpt lat="43.54858" lon="5.51467">
        <ele>395.39999389648</ele>
        <time>2013-02-19T09:29:53.000Z</time>
      </trkpt>
      <trkpt lat="43.54855" lon="5.5146">
        <ele>395.79998779297</ele>
        <time>2013-02-19T09:29:54.000Z</time>
      </trkpt>
      <trkpt lat="43.54855" lon="5.51451">
        <ele>396.39999389648</ele>
        <time>2013-02-19T09:29:55.000Z</time>
      </trkpt>
      <trkpt lat="43.54854" lon="5.51444">
        <ele>396.79998779297</ele>
        <time>2013-02-19T09:29:56.000Z</time>
      </trkpt>
      <trkpt lat="43.54854" lon="5.51427">
        <ele>397.79998779297</ele>
        <time>2013-02-19T09:29:58.000Z</time>
      </trkpt>
      <trkpt lat="43.54862" lon="5.51351">
        <ele>402</ele>
        <time>2013-02-19T09:30:08.000Z</time>
      </trkpt>
      <trkpt lat="43.54862" lon="5.51344">
        <ele>402.39999389648</ele>
        <time>2013-02-19T09:30:09.000Z</time>
      </trkpt>
      <trkpt lat="43.5486" lon="5.51337">
        <ele>402.60000610352</ele>
        <time>2013-02-19T09:30:10.000Z</time>
      </trkpt>
      <trkpt lat="43.54856" lon="5.51332">
        <ele>402.79998779297</ele>
        <time>2013-02-19T09:30:11.000Z</time>
      </trkpt>
      <trkpt lat="43.54852" lon="5.51329">
        <ele>402.60000610352</ele>
        <time>2013-02-19T09:30:12.000Z</time>
      </trkpt>
      <trkpt lat="43.54848" lon="5.51326">
        <ele>402.20001220703</ele>
        <time>2013-02-19T09:30:13.000Z</time>
      </trkpt>
      <trkpt lat="43.54844" lon="5.51321">
        <ele>402</ele>
        <time>2013-02-19T09:30:14.000Z</time>
      </trkpt>
      <trkpt lat="43.54841" lon="5.51315">
        <ele>401.60000610352</ele>
        <time>2013-02-19T09:30:15.000Z</time>
      </trkpt>
      <trkpt lat="43.54841" lon="5.51308">
        <ele>401.39999389648</ele>
        <time>2013-02-19T09:30:16.000Z</time>
      </trkpt>
      <trkpt lat="43.54841" lon="5.51301">
        <ele>401.20001220703</ele>
        <time>2013-02-19T09:30:17.000Z</time>
      </trkpt>
      <trkpt lat="43.54841" lon="5.51294">
        <ele>401</ele>
        <time>2013-02-19T09:30:18.000Z</time>
      </trkpt>
      <trkpt lat="43.54841" lon="5.51288">
        <ele>400.79998779297</ele>
        <time>2013-02-19T09:30:19.000Z</time>
      </trkpt>
      <trkpt lat="43.5484" lon="5.51282">
        <ele>400.60000610352</ele>
        <time>2013-02-19T09:30:20.000Z</time>
      </trkpt>
      <trkpt lat="43.54831" lon="5.51249">
        <ele>398.79998779297</ele>
        <time>2013-02-19T09:30:27.000Z</time>
      </trkpt>
      <trkpt lat="43.54823" lon="5.5123">
        <ele>398</ele>
        <time>2013-02-19T09:30:30.000Z</time>
      </trkpt>
      <trkpt lat="43.5482" lon="5.51225">
        <ele>397.79998779297</ele>
        <time>2013-02-19T09:30:31.000Z</time>
      </trkpt>
      <trkpt lat="43.54815" lon="5.51211">
        <ele>397.39999389648</ele>
        <time>2013-02-19T09:30:38.000Z</time>
      </trkpt>
      <trkpt lat="43.54814" lon="5.51211">
        <ele>397.39999389648</ele>
        <time>2013-02-19T09:30:49.000Z</time>
      </trkpt>
      <trkpt lat="43.54814" lon="5.51212">
        <ele>397.39999389648</ele>
        <time>2013-02-19T09:31:02.000Z</time>
      </trkpt>
      <trkpt lat="43.54813" lon="5.5121">
        <ele>397.39999389648</ele>
        <time>2013-02-19T09:31:11.000Z</time>
      </trkpt>
      <trkpt lat="43.54814" lon="5.5121">
        <ele>397.39999389648</ele>
        <time>2013-02-19T09:31:38.000Z</time>
      </trkpt>
      <trkpt lat="43.54815" lon="5.51209">
        <ele>397.39999389648</ele>
        <time>2013-02-19T09:32:07.000Z</time>
      </trkpt>
      <trkpt lat="43.54813" lon="5.51208">
        <ele>397.20001220703</ele>
        <time>2013-02-19T09:32:40.000Z</time>
      </trkpt>
      <trkpt lat="43.5481" lon="5.51209">
        <ele>397.20001220703</ele>
        <time>2013-02-19T09:33:05.000Z</time>
      </trkpt>
      <trkpt lat="43.54811" lon="5.51209">
        <ele>397.20001220703</ele>
        <time>2013-02-19T09:33:36.000Z</time>
      </trkpt>
      <trkpt lat="43.54812" lon="5.51207">
        <ele>397.20001220703</ele>
        <time>2013-02-19T09:33:52.000Z</time>
      </trkpt>
      <trkpt lat="43.54813" lon="5.51209">
        <ele>397.39999389648</ele>
        <time>2013-02-19T09:34:09.000Z</time>
      </trkpt>
      <trkpt lat="43.54814" lon="5.51211">
        <ele>397.39999389648</ele>
        <time>2013-02-19T09:34:26.000Z</time>
      </trkpt>
      <trkpt lat="43.54811" lon="5.512">
        <ele>397.20001220703</ele>
        <time>2013-02-19T09:34:38.000Z</time>
      </trkpt>
      <trkpt lat="43.54806" lon="5.51191">
        <ele>396.79998779297</ele>
        <time>2013-02-19T09:34:42.000Z</time>
      </trkpt>
      <trkpt lat="43.54802" lon="5.51189">
        <ele>396.60000610352</ele>
        <time>2013-02-19T09:34:43.000Z</time>
      </trkpt>
      <trkpt lat="43.54799" lon="5.51189">
        <ele>396.39999389648</ele>
        <time>2013-02-19T09:34:44.000Z</time>
      </trkpt>
      <trkpt lat="43.54794" lon="5.51189">
        <ele>396.20001220703</ele>
        <time>2013-02-19T09:34:45.000Z</time>
      </trkpt>
      <trkpt lat="43.5479" lon="5.5119">
        <ele>396</ele>
        <time>2013-02-19T09:34:46.000Z</time>
      </trkpt>
      <trkpt lat="43.5478" lon="5.51194">
        <ele>395.39999389648</ele>
        <time>2013-02-19T09:34:48.000Z</time>
      </trkpt>
      <trkpt lat="43.54775" lon="5.51197">
        <ele>395.20001220703</ele>
        <time>2013-02-19T09:34:49.000Z</time>
      </trkpt>
      <trkpt lat="43.5477" lon="5.512">
        <ele>395</ele>
        <time>2013-02-19T09:34:50.000Z</time>
      </trkpt>
      <trkpt lat="43.54764" lon="5.51203">
        <ele>394.60000610352</ele>
        <time>2013-02-19T09:34:51.000Z</time>
      </trkpt>
      <trkpt lat="43.54757" lon="5.51204">
        <ele>394.20001220703</ele>
        <time>2013-02-19T09:34:52.000Z</time>
      </trkpt>
      <trkpt lat="43.5475" lon="5.51206">
        <ele>394</ele>
        <time>2013-02-19T09:34:53.000Z</time>
      </trkpt>
      <trkpt lat="43.54736" lon="5.51205">
        <ele>393</ele>
        <time>2013-02-19T09:34:55.000Z</time>
      </trkpt>
      <trkpt lat="43.54694" lon="5.51207">
        <ele>390.60000610352</ele>
        <time>2013-02-19T09:35:01.000Z</time>
      </trkpt>
      <trkpt lat="43.54628" lon="5.51232">
        <ele>386.79998779297</ele>
        <time>2013-02-19T09:35:10.000Z</time>
      </trkpt>
      <trkpt lat="43.54566" lon="5.51255">
        <ele>382.60000610352</ele>
        <time>2013-02-19T09:35:19.000Z</time>
      </trkpt>
      <trkpt lat="43.54561" lon="5.5126">
        <ele>382</ele>
        <time>2013-02-19T09:35:20.000Z</time>
      </trkpt>
      <trkpt lat="43.54557" lon="5.51267">
        <ele>381.39999389648</ele>
        <time>2013-02-19T09:35:21.000Z</time>
      </trkpt>
      <trkpt lat="43.54555" lon="5.51276">
        <ele>381</ele>
        <time>2013-02-19T09:35:22.000Z</time>
      </trkpt>
      <trkpt lat="43.54554" lon="5.51286">
        <ele>380.60000610352</ele>
        <time>2013-02-19T09:35:23.000Z</time>
      </trkpt>
      <trkpt lat="43.54553" lon="5.51295">
        <ele>380.39999389648</ele>
        <time>2013-02-19T09:35:24.000Z</time>
      </trkpt>
      <trkpt lat="43.54551" lon="5.51345">
        <ele>379</ele>
        <time>2013-02-19T09:35:29.000Z</time>
      </trkpt>
      <trkpt lat="43.54549" lon="5.51387">
        <ele>377</ele>
        <time>2013-02-19T09:35:34.000Z</time>
      </trkpt>
      <trkpt lat="43.54545" lon="5.51392">
        <ele>376.60000610352</ele>
        <time>2013-02-19T09:35:35.000Z</time>
      </trkpt>
      <trkpt lat="43.54541" lon="5.51394">
        <ele>376.20001220703</ele>
        <time>2013-02-19T09:35:36.000Z</time>
      </trkpt>
      <trkpt lat="43.54538" lon="5.51396">
        <ele>375.79998779297</ele>
        <time>2013-02-19T09:35:37.000Z</time>
      </trkpt>
      <trkpt lat="43.54534" lon="5.51396">
        <ele>375.60000610352</ele>
        <time>2013-02-19T09:35:38.000Z</time>
      </trkpt>
      <trkpt lat="43.5453" lon="5.51393">
        <ele>375.39999389648</ele>
        <time>2013-02-19T09:35:39.000Z</time>
      </trkpt>
      <trkpt lat="43.54527" lon="5.51389">
        <ele>375.20001220703</ele>
        <time>2013-02-19T09:35:40.000Z</time>
      </trkpt>
      <trkpt lat="43.54524" lon="5.51384">
        <ele>375.20001220703</ele>
        <time>2013-02-19T09:35:41.000Z</time>
      </trkpt>
      <trkpt lat="43.54522" lon="5.51378">
        <ele>375.20001220703</ele>
        <time>2013-02-19T09:35:42.000Z</time>
      </trkpt>
      <trkpt lat="43.5449" lon="5.51316">
        <ele>374</ele>
        <time>2013-02-19T09:35:50.000Z</time>
      </trkpt>
      <trkpt lat="43.5446" lon="5.51258">
        <ele>373</ele>
        <time>2013-02-19T09:35:56.000Z</time>
      </trkpt>
      <trkpt lat="43.54433" lon="5.51208">
        <ele>372.79998779297</ele>
        <time>2013-02-19T09:36:01.000Z</time>
      </trkpt>
      <trkpt lat="43.54403" lon="5.51155">
        <ele>373.39999389648</ele>
        <time>2013-02-19T09:36:07.000Z</time>
      </trkpt>
      <trkpt lat="43.54398" lon="5.51151">
        <ele>373</ele>
        <time>2013-02-19T09:36:08.000Z</time>
      </trkpt>
      <trkpt lat="43.54392" lon="5.51151">
        <ele>372.60000610352</ele>
        <time>2013-02-19T09:36:09.000Z</time>
      </trkpt>
      <trkpt lat="43.54388" lon="5.51154">
        <ele>372.20001220703</ele>
        <time>2013-02-19T09:36:10.000Z</time>
      </trkpt>
      <trkpt lat="43.54384" lon="5.51159">
        <ele>372</ele>
        <time>2013-02-19T09:36:11.000Z</time>
      </trkpt>
      <trkpt lat="43.54381" lon="5.51165">
        <ele>371.79998779297</ele>
        <time>2013-02-19T09:36:12.000Z</time>
      </trkpt>
      <trkpt lat="43.54378" lon="5.5117">
        <ele>371.60000610352</ele>
        <time>2013-02-19T09:36:13.000Z</time>
      </trkpt>
      <trkpt lat="43.54374" lon="5.51175">
        <ele>371.39999389648</ele>
        <time>2013-02-19T09:36:14.000Z</time>
      </trkpt>
      <trkpt lat="43.5437" lon="5.51178">
        <ele>371.39999389648</ele>
        <time>2013-02-19T09:36:15.000Z</time>
      </trkpt>
      <trkpt lat="43.54366" lon="5.5118">
        <ele>371.20001220703</ele>
        <time>2013-02-19T09:36:16.000Z</time>
      </trkpt>
      <trkpt lat="43.54361" lon="5.5118">
        <ele>371</ele>
        <time>2013-02-19T09:36:17.000Z</time>
      </trkpt>
      <trkpt lat="43.54357" lon="5.5118">
        <ele>370.79998779297</ele>
        <time>2013-02-19T09:36:18.000Z</time>
      </trkpt>
      <trkpt lat="43.54352" lon="5.51178">
        <ele>370.39999389648</ele>
        <time>2013-02-19T09:36:19.000Z</time>
      </trkpt>
      <trkpt lat="43.54348" lon="5.51176">
        <ele>370.20001220703</ele>
        <time>2013-02-19T09:36:20.000Z</time>
      </trkpt>
      <trkpt lat="43.54333" lon="5.51168">
        <ele>369</ele>
        <time>2013-02-19T09:36:23.000Z</time>
      </trkpt>
      <trkpt lat="43.54327" lon="5.51167">
        <ele>369.39999389648</ele>
        <time>2013-02-19T09:36:24.000Z</time>
      </trkpt>
      <trkpt lat="43.54322" lon="5.51166">
        <ele>369.60000610352</ele>
        <time>2013-02-19T09:36:25.000Z</time>
      </trkpt>
      <trkpt lat="43.54306" lon="5.51162">
        <ele>370.39999389648</ele>
        <time>2013-02-19T09:36:28.000Z</time>
      </trkpt>
      <trkpt lat="43.54277" lon="5.51156">
        <ele>372</ele>
        <time>2013-02-19T09:36:36.000Z</time>
      </trkpt>
      <trkpt lat="43.54274" lon="5.51153">
        <ele>372</ele>
        <time>2013-02-19T09:36:37.000Z</time>
      </trkpt>
      <trkpt lat="43.54273" lon="5.51149">
        <ele>371.79998779297</ele>
        <time>2013-02-19T09:36:38.000Z</time>
      </trkpt>
      <trkpt lat="43.54272" lon="5.51144">
        <ele>371.79998779297</ele>
        <time>2013-02-19T09:36:39.000Z</time>
      </trkpt>
      <trkpt lat="43.54271" lon="5.51139">
        <ele>371.60000610352</ele>
        <time>2013-02-19T09:36:40.000Z</time>
      </trkpt>
      <trkpt lat="43.54268" lon="5.51117">
        <ele>371</ele>
        <time>2013-02-19T09:36:44.000Z</time>
      </trkpt>
      <trkpt lat="43.54266" lon="5.51112">
        <ele>371</ele>
        <time>2013-02-19T09:36:45.000Z</time>
      </trkpt>
      <trkpt lat="43.54248" lon="5.51088">
        <ele>371.20001220703</ele>
        <time>2013-02-19T09:36:54.000Z</time>
      </trkpt>
      <trkpt lat="43.54244" lon="5.51083">
        <ele>371</ele>
        <time>2013-02-19T09:36:56.000Z</time>
      </trkpt>
      <trkpt lat="43.54243" lon="5.5108">
        <ele>370.79998779297</ele>
        <time>2013-02-19T09:36:57.000Z</time>
      </trkpt>
      <trkpt lat="43.54241" lon="5.51076">
        <ele>370.60000610352</ele>
        <time>2013-02-19T09:36:58.000Z</time>
      </trkpt>
      <trkpt lat="43.54238" lon="5.51072">
        <ele>370.39999389648</ele>
        <time>2013-02-19T09:36:59.000Z</time>
      </trkpt>
      <trkpt lat="43.54235" lon="5.51068">
        <ele>370.20001220703</ele>
        <time>2013-02-19T09:37:00.000Z</time>
      </trkpt>
      <trkpt lat="43.54194" lon="5.51008">
        <ele>368.79998779297</ele>
        <time>2013-02-19T09:37:11.000Z</time>
      </trkpt>
      <trkpt lat="43.54187" lon="5.50996">
        <ele>369</ele>
        <time>2013-02-19T09:37:13.000Z</time>
      </trkpt>
      <trkpt lat="43.54183" lon="5.50989">
        <ele>369.20001220703</ele>
        <time>2013-02-19T09:37:14.000Z</time>
      </trkpt>
      <trkpt lat="43.54165" lon="5.50939">
        <ele>371.20001220703</ele>
        <time>2013-02-19T09:37:22.000Z</time>
      </trkpt>
      <trkpt lat="43.54162" lon="5.50934">
        <ele>371.20001220703</ele>
        <time>2013-02-19T09:37:23.000Z</time>
      </trkpt>
      <trkpt lat="43.54154" lon="5.50922">
        <ele>370.79998779297</ele>
        <time>2013-02-19T09:37:26.000Z</time>
      </trkpt>
      <trkpt lat="43.5415" lon="5.50918">
        <ele>370.60000610352</ele>
        <time>2013-02-19T09:37:27.000Z</time>
      </trkpt>
      <trkpt lat="43.54146" lon="5.50916">
        <ele>370.39999389648</ele>
        <time>2013-02-19T09:37:28.000Z</time>
      </trkpt>
      <trkpt lat="43.54142" lon="5.50914">
        <ele>370.20001220703</ele>
        <time>2013-02-19T09:37:29.000Z</time>
      </trkpt>
      <trkpt lat="43.54137" lon="5.50912">
        <ele>369.79998779297</ele>
        <time>2013-02-19T09:37:30.000Z</time>
      </trkpt>
      <trkpt lat="43.54133" lon="5.5091">
        <ele>369.39999389648</ele>
        <time>2013-02-19T09:37:31.000Z</time>
      </trkpt>
      <trkpt lat="43.54129" lon="5.50907">
        <ele>369.20001220703</ele>
        <time>2013-02-19T09:37:32.000Z</time>
      </trkpt>
      <trkpt lat="43.54122" lon="5.509">
        <ele>368.79998779297</ele>
        <time>2013-02-19T09:37:34.000Z</time>
      </trkpt>
      <trkpt lat="43.54118" lon="5.50896">
        <ele>368.60000610352</ele>
        <time>2013-02-19T09:37:35.000Z</time>
      </trkpt>
      <trkpt lat="43.54116" lon="5.5089">
        <ele>368.60000610352</ele>
        <time>2013-02-19T09:37:36.000Z</time>
      </trkpt>
      <trkpt lat="43.54114" lon="5.50884">
        <ele>368.39999389648</ele>
        <time>2013-02-19T09:37:37.000Z</time>
      </trkpt>
      <trkpt lat="43.54113" lon="5.50877">
        <ele>368.39999389648</ele>
        <time>2013-02-19T09:37:38.000Z</time>
      </trkpt>
      <trkpt lat="43.54111" lon="5.50871">
        <ele>368.39999389648</ele>
        <time>2013-02-19T09:37:39.000Z</time>
      </trkpt>
      <trkpt lat="43.5411" lon="5.50864">
        <ele>368.39999389648</ele>
        <time>2013-02-19T09:37:40.000Z</time>
      </trkpt>
      <trkpt lat="43.54108" lon="5.50858">
        <ele>368.39999389648</ele>
        <time>2013-02-19T09:37:41.000Z</time>
      </trkpt>
      <trkpt lat="43.54106" lon="5.50852">
        <ele>368.39999389648</ele>
        <time>2013-02-19T09:37:42.000Z</time>
      </trkpt>
      <trkpt lat="43.54103" lon="5.50847">
        <ele>368.39999389648</ele>
        <time>2013-02-19T09:37:43.000Z</time>
      </trkpt>
      <trkpt lat="43.54099" lon="5.50843">
        <ele>368.39999389648</ele>
        <time>2013-02-19T09:37:44.000Z</time>
      </trkpt>
      <trkpt lat="43.54095" lon="5.50839">
        <ele>368.20001220703</ele>
        <time>2013-02-19T09:37:45.000Z</time>
      </trkpt>
      <trkpt lat="43.54091" lon="5.50835">
        <ele>368.20001220703</ele>
        <time>2013-02-19T09:37:46.000Z</time>
      </trkpt>
      <trkpt lat="43.54051" lon="5.50795">
        <ele>366.60000610352</ele>
        <time>2013-02-19T09:37:55.000Z</time>
      </trkpt>
      <trkpt lat="43.54024" lon="5.50775">
        <ele>365.79998779297</ele>
        <time>2013-02-19T09:38:01.000Z</time>
      </trkpt>
      <trkpt lat="43.54009" lon="5.50766">
        <ele>365.60000610352</ele>
        <time>2013-02-19T09:38:04.000Z</time>
      </trkpt>
      <trkpt lat="43.54004" lon="5.50764">
        <ele>365.60000610352</ele>
        <time>2013-02-19T09:38:05.000Z</time>
      </trkpt>
      <trkpt lat="43.53976" lon="5.5076">
        <ele>364.20001220703</ele>
        <time>2013-02-19T09:38:10.000Z</time>
      </trkpt>
      <trkpt lat="43.53971" lon="5.50762">
        <ele>363.79998779297</ele>
        <time>2013-02-19T09:38:11.000Z</time>
      </trkpt>
      <trkpt lat="43.53966" lon="5.50764">
        <ele>363.60000610352</ele>
        <time>2013-02-19T09:38:12.000Z</time>
      </trkpt>
      <trkpt lat="43.53955" lon="5.5077">
        <ele>362.79998779297</ele>
        <time>2013-02-19T09:38:14.000Z</time>
      </trkpt>
      <trkpt lat="43.5395" lon="5.50774">
        <ele>362.60000610352</ele>
        <time>2013-02-19T09:38:15.000Z</time>
      </trkpt>
      <trkpt lat="43.53903" lon="5.50836">
        <ele>359.39999389648</ele>
        <time>2013-02-19T09:38:25.000Z</time>
      </trkpt>
      <trkpt lat="43.53894" lon="5.50848">
        <ele>358</ele>
        <time>2013-02-19T09:38:27.000Z</time>
      </trkpt>
      <trkpt lat="43.53888" lon="5.50853">
        <ele>357.20001220703</ele>
        <time>2013-02-19T09:38:28.000Z</time>
      </trkpt>
      <trkpt lat="43.53882" lon="5.50857">
        <ele>356.60000610352</ele>
        <time>2013-02-19T09:38:29.000Z</time>
      </trkpt>
      <trkpt lat="43.53876" lon="5.50861">
        <ele>356</ele>
        <time>2013-02-19T09:38:30.000Z</time>
      </trkpt>
      <trkpt lat="43.5387" lon="5.50864">
        <ele>355.39999389648</ele>
        <time>2013-02-19T09:38:31.000Z</time>
      </trkpt>
      <trkpt lat="43.53836" lon="5.50875">
        <ele>352.60000610352</ele>
        <time>2013-02-19T09:38:36.000Z</time>
      </trkpt>
      <trkpt lat="43.53829" lon="5.50875">
        <ele>351.79998779297</ele>
        <time>2013-02-19T09:38:37.000Z</time>
      </trkpt>
      <trkpt lat="43.53822" lon="5.50874">
        <ele>351</ele>
        <time>2013-02-19T09:38:38.000Z</time>
      </trkpt>
      <trkpt lat="43.53815" lon="5.50872">
        <ele>350.20001220703</ele>
        <time>2013-02-19T09:38:39.000Z</time>
      </trkpt>
      <trkpt lat="43.53807" lon="5.50868">
        <ele>349.20001220703</ele>
        <time>2013-02-19T09:38:40.000Z</time>
      </trkpt>
      <trkpt lat="43.538" lon="5.50864">
        <ele>348.39999389648</ele>
        <time>2013-02-19T09:38:41.000Z</time>
      </trkpt>
      <trkpt lat="43.53792" lon="5.50859">
        <ele>347.39999389648</ele>
        <time>2013-02-19T09:38:42.000Z</time>
      </trkpt>
      <trkpt lat="43.53772" lon="5.50846">
        <ele>345.20001220703</ele>
        <time>2013-02-19T09:38:45.000Z</time>
      </trkpt>
      <trkpt lat="43.53765" lon="5.50844">
        <ele>344.39999389648</ele>
        <time>2013-02-19T09:38:46.000Z</time>
      </trkpt>
      <trkpt lat="43.53758" lon="5.50843">
        <ele>343.60000610352</ele>
        <time>2013-02-19T09:38:47.000Z</time>
      </trkpt>
      <trkpt lat="43.53751" lon="5.50843">
        <ele>342.79998779297</ele>
        <time>2013-02-19T09:38:48.000Z</time>
      </trkpt>
      <trkpt lat="43.53744" lon="5.50844">
        <ele>342.20001220703</ele>
        <time>2013-02-19T09:38:49.000Z</time>
      </trkpt>
      <trkpt lat="43.53737" lon="5.50844">
        <ele>341.79998779297</ele>
        <time>2013-02-19T09:38:50.000Z</time>
      </trkpt>
      <trkpt lat="43.53732" lon="5.50843">
        <ele>341.39999389648</ele>
        <time>2013-02-19T09:38:51.000Z</time>
      </trkpt>
      <trkpt lat="43.53717" lon="5.5084">
        <ele>340.20001220703</ele>
        <time>2013-02-19T09:38:54.000Z</time>
      </trkpt>
      <trkpt lat="43.53713" lon="5.50841">
        <ele>339.79998779297</ele>
        <time>2013-02-19T09:38:55.000Z</time>
      </trkpt>
      <trkpt lat="43.5371" lon="5.50843">
        <ele>339.60000610352</ele>
        <time>2013-02-19T09:38:56.000Z</time>
      </trkpt>
      <trkpt lat="43.53708" lon="5.50847">
        <ele>339.39999389648</ele>
        <time>2013-02-19T09:38:57.000Z</time>
      </trkpt>
      <trkpt lat="43.53707" lon="5.50851">
        <ele>339.39999389648</ele>
        <time>2013-02-19T09:38:58.000Z</time>
      </trkpt>
      <trkpt lat="43.53708" lon="5.50857">
        <ele>339.39999389648</ele>
        <time>2013-02-19T09:38:59.000Z</time>
      </trkpt>
      <trkpt lat="43.53709" lon="5.50862">
        <ele>339.39999389648</ele>
        <time>2013-02-19T09:39:00.000Z</time>
      </trkpt>
      <trkpt lat="43.53709" lon="5.50867">
        <ele>339.39999389648</ele>
        <time>2013-02-19T09:39:01.000Z</time>
      </trkpt>
      <trkpt lat="43.53709" lon="5.50873">
        <ele>339.39999389648</ele>
        <time>2013-02-19T09:39:02.000Z</time>
      </trkpt>
      <trkpt lat="43.53708" lon="5.50879">
        <ele>339.39999389648</ele>
        <time>2013-02-19T09:39:03.000Z</time>
      </trkpt>
      <trkpt lat="43.53705" lon="5.50925">
        <ele>339</ele>
        <time>2013-02-19T09:39:11.000Z</time>
      </trkpt>
      <trkpt lat="43.53703" lon="5.5093">
        <ele>338.79998779297</ele>
        <time>2013-02-19T09:39:12.000Z</time>
      </trkpt>
      <trkpt lat="43.53701" lon="5.50935">
        <ele>338.60000610352</ele>
        <time>2013-02-19T09:39:13.000Z</time>
      </trkpt>
      <trkpt lat="43.53699" lon="5.5094">
        <ele>338.39999389648</ele>
        <time>2013-02-19T09:39:14.000Z</time>
      </trkpt>
      <trkpt lat="43.53697" lon="5.50944">
        <ele>338</ele>
        <time>2013-02-19T09:39:15.000Z</time>
      </trkpt>
      <trkpt lat="43.53694" lon="5.50949">
        <ele>337.79998779297</ele>
        <time>2013-02-19T09:39:16.000Z</time>
      </trkpt>
      <trkpt lat="43.53692" lon="5.50954">
        <ele>337.60000610352</ele>
        <time>2013-02-19T09:39:17.000Z</time>
      </trkpt>
      <trkpt lat="43.53691" lon="5.50959">
        <ele>337.39999389648</ele>
        <time>2013-02-19T09:39:18.000Z</time>
      </trkpt>
      <trkpt lat="43.53692" lon="5.50964">
        <ele>337.20001220703</ele>
        <time>2013-02-19T09:39:19.000Z</time>
      </trkpt>
      <trkpt lat="43.53693" lon="5.5097">
        <ele>337.20001220703</ele>
        <time>2013-02-19T09:39:20.000Z</time>
      </trkpt>
      <trkpt lat="43.53695" lon="5.50974">
        <ele>337.20001220703</ele>
        <time>2013-02-19T09:39:21.000Z</time>
      </trkpt>
      <trkpt lat="43.53698" lon="5.50979">
        <ele>337.39999389648</ele>
        <time>2013-02-19T09:39:22.000Z</time>
      </trkpt>
      <trkpt lat="43.53701" lon="5.50983">
        <ele>337.60000610352</ele>
        <time>2013-02-19T09:39:23.000Z</time>
      </trkpt>
      <trkpt lat="43.53703" lon="5.50988">
        <ele>337.60000610352</ele>
        <time>2013-02-19T09:39:24.000Z</time>
      </trkpt>
      <trkpt lat="43.53704" lon="5.50994">
        <ele>337.60000610352</ele>
        <time>2013-02-19T09:39:25.000Z</time>
      </trkpt>
      <trkpt lat="43.53704" lon="5.50999">
        <ele>337.39999389648</ele>
        <time>2013-02-19T09:39:26.000Z</time>
      </trkpt>
      <trkpt lat="43.53705" lon="5.51005">
        <ele>337</ele>
        <time>2013-02-19T09:39:27.000Z</time>
      </trkpt>
      <trkpt lat="43.53706" lon="5.5101">
        <ele>336.60000610352</ele>
        <time>2013-02-19T09:39:28.000Z</time>
      </trkpt>
      <trkpt lat="43.53709" lon="5.51016">
        <ele>336.20001220703</ele>
        <time>2013-02-19T09:39:29.000Z</time>
      </trkpt>
      <trkpt lat="43.53712" lon="5.51021">
        <ele>336</ele>
        <time>2013-02-19T09:39:30.000Z</time>
      </trkpt>
      <trkpt lat="43.53714" lon="5.51026">
        <ele>335.60000610352</ele>
        <time>2013-02-19T09:39:31.000Z</time>
      </trkpt>
      <trkpt lat="43.53715" lon="5.5103">
        <ele>335.39999389648</ele>
        <time>2013-02-19T09:39:32.000Z</time>
      </trkpt>
      <trkpt lat="43.53715" lon="5.51034">
        <ele>335</ele>
        <time>2013-02-19T09:39:34.000Z</time>
      </trkpt>
      <trkpt lat="43.53715" lon="5.51037">
        <ele>334.60000610352</ele>
        <time>2013-02-19T09:39:35.000Z</time>
      </trkpt>
      <trkpt lat="43.53716" lon="5.5104">
        <ele>334.60000610352</ele>
        <time>2013-02-19T09:39:36.000Z</time>
      </trkpt>
      <trkpt lat="43.53724" lon="5.51048">
        <ele>335</ele>
        <time>2013-02-19T09:39:43.000Z</time>
      </trkpt>
      <trkpt lat="43.5372" lon="5.5105">
        <ele>334.20001220703</ele>
        <time>2013-02-19T09:39:47.000Z</time>
      </trkpt>
      <trkpt lat="43.53719" lon="5.51052">
        <ele>333.79998779297</ele>
        <time>2013-02-19T09:39:49.000Z</time>
      </trkpt>
      <trkpt lat="43.53719" lon="5.51058">
        <ele>333.39999389648</ele>
        <time>2013-02-19T09:39:52.000Z</time>
      </trkpt>
      <trkpt lat="43.53737" lon="5.5108">
        <ele>335</ele>
        <time>2013-02-19T09:40:03.000Z</time>
      </trkpt>
      <trkpt lat="43.53736" lon="5.51083">
        <ele>334.79998779297</ele>
        <time>2013-02-19T09:40:15.000Z</time>
      </trkpt>
      <trkpt lat="43.53735" lon="5.5108">
        <ele>334.79998779297</ele>
        <time>2013-02-19T09:40:26.000Z</time>
      </trkpt>
      <trkpt lat="43.53735" lon="5.51079">
        <ele>334.79998779297</ele>
        <time>2013-02-19T09:40:27.000Z</time>
      </trkpt>
      <trkpt lat="43.53721" lon="5.51064">
        <ele>333</ele>
        <time>2013-02-19T09:40:36.000Z</time>
      </trkpt>
      <trkpt lat="43.53713" lon="5.51072">
        <ele>330.60000610352</ele>
        <time>2013-02-19T09:40:43.000Z</time>
      </trkpt>
      <trkpt lat="43.53712" lon="5.51079">
        <ele>329.60000610352</ele>
        <time>2013-02-19T09:40:45.000Z</time>
      </trkpt>
      <trkpt lat="43.53707" lon="5.51091">
        <ele>327.60000610352</ele>
        <time>2013-02-19T09:40:49.000Z</time>
      </trkpt>
      <trkpt lat="43.53707" lon="5.51094">
        <ele>327.39999389648</ele>
        <time>2013-02-19T09:40:50.000Z</time>
      </trkpt>
      <trkpt lat="43.53708" lon="5.51097">
        <ele>327.39999389648</ele>
        <time>2013-02-19T09:40:51.000Z</time>
      </trkpt>
      <trkpt lat="43.53709" lon="5.51098">
        <ele>327.60000610352</ele>
        <time>2013-02-19T09:40:52.000Z</time>
      </trkpt>
      <trkpt lat="43.5371" lon="5.511">
        <ele>327.60000610352</ele>
        <time>2013-02-19T09:40:53.000Z</time>
      </trkpt>
      <trkpt lat="43.53711" lon="5.51103">
        <ele>327.79998779297</ele>
        <time>2013-02-19T09:40:54.000Z</time>
      </trkpt>
      <trkpt lat="43.53712" lon="5.51106">
        <ele>328</ele>
        <time>2013-02-19T09:40:55.000Z</time>
      </trkpt>
      <trkpt lat="43.53713" lon="5.51108">
        <ele>328.20001220703</ele>
        <time>2013-02-19T09:40:56.000Z</time>
      </trkpt>
      <trkpt lat="43.53715" lon="5.51111">
        <ele>328.39999389648</ele>
        <time>2013-02-19T09:40:57.000Z</time>
      </trkpt>
      <trkpt lat="43.53717" lon="5.51113">
        <ele>328.79998779297</ele>
        <time>2013-02-19T09:40:58.000Z</time>
      </trkpt>
      <trkpt lat="43.53719" lon="5.51116">
        <ele>329.20001220703</ele>
        <time>2013-02-19T09:40:59.000Z</time>
      </trkpt>
      <trkpt lat="43.53741" lon="5.51136">
        <ele>333.60000610352</ele>
        <time>2013-02-19T09:41:08.000Z</time>
      </trkpt>
      <trkpt lat="43.53746" lon="5.51145">
        <ele>334.60000610352</ele>
        <time>2013-02-19T09:41:11.000Z</time>
      </trkpt>
      <trkpt lat="43.53746" lon="5.5115">
        <ele>334.39999389648</ele>
        <time>2013-02-19T09:41:13.000Z</time>
      </trkpt>
      <trkpt lat="43.53745" lon="5.51152">
        <ele>334</ele>
        <time>2013-02-19T09:41:14.000Z</time>
      </trkpt>
      <trkpt lat="43.53744" lon="5.51155">
        <ele>333.60000610352</ele>
        <time>2013-02-19T09:41:15.000Z</time>
      </trkpt>
      <trkpt lat="43.53743" lon="5.51158">
        <ele>333.20001220703</ele>
        <time>2013-02-19T09:41:16.000Z</time>
      </trkpt>
      <trkpt lat="43.53742" lon="5.5116">
        <ele>333</ele>
        <time>2013-02-19T09:41:17.000Z</time>
      </trkpt>
      <trkpt lat="43.53741" lon="5.51161">
        <ele>332.79998779297</ele>
        <time>2013-02-19T09:41:25.000Z</time>
      </trkpt>
      <trkpt lat="43.53739" lon="5.51166">
        <ele>331.79998779297</ele>
        <time>2013-02-19T09:41:38.000Z</time>
      </trkpt>
      <trkpt lat="43.53735" lon="5.51172">
        <ele>331.20001220703</ele>
        <time>2013-02-19T09:41:41.000Z</time>
      </trkpt>
      <trkpt lat="43.53725" lon="5.51179">
        <ele>328.79998779297</ele>
        <time>2013-02-19T09:41:46.000Z</time>
      </trkpt>
      <trkpt lat="43.53705" lon="5.51188">
        <ele>324.20001220703</ele>
        <time>2013-02-19T09:41:53.000Z</time>
      </trkpt>
      <trkpt lat="43.53703" lon="5.51189">
        <ele>323.39999389648</ele>
        <time>2013-02-19T09:41:54.000Z</time>
      </trkpt>
      <trkpt lat="43.53679" lon="5.51226">
        <ele>320.20001220703</ele>
        <time>2013-02-19T09:42:04.000Z</time>
      </trkpt>
      <trkpt lat="43.53674" lon="5.51249">
        <ele>320.79998779297</ele>
        <time>2013-02-19T09:42:09.000Z</time>
      </trkpt>
      <trkpt lat="43.53673" lon="5.51255">
        <ele>320.60000610352</ele>
        <time>2013-02-19T09:42:10.000Z</time>
      </trkpt>
      <trkpt lat="43.5367" lon="5.51287">
        <ele>319.79998779297</ele>
        <time>2013-02-19T09:42:15.000Z</time>
      </trkpt>
      <trkpt lat="43.5367" lon="5.51294">
        <ele>319.79998779297</ele>
        <time>2013-02-19T09:42:16.000Z</time>
      </trkpt>
      <trkpt lat="43.53671" lon="5.51301">
        <ele>319.79998779297</ele>
        <time>2013-02-19T09:42:17.000Z</time>
      </trkpt>
      <trkpt lat="43.53671" lon="5.51308">
        <ele>320</ele>
        <time>2013-02-19T09:42:18.000Z</time>
      </trkpt>
      <trkpt lat="43.53673" lon="5.51314">
        <ele>320.39999389648</ele>
        <time>2013-02-19T09:42:19.000Z</time>
      </trkpt>
      <trkpt lat="43.53675" lon="5.5132">
        <ele>321</ele>
        <time>2013-02-19T09:42:20.000Z</time>
      </trkpt>
      <trkpt lat="43.53677" lon="5.51326">
        <ele>321.39999389648</ele>
        <time>2013-02-19T09:42:21.000Z</time>
      </trkpt>
      <trkpt lat="43.53678" lon="5.51332">
        <ele>321.79998779297</ele>
        <time>2013-02-19T09:42:22.000Z</time>
      </trkpt>
      <trkpt lat="43.53681" lon="5.51337">
        <ele>322.20001220703</ele>
        <time>2013-02-19T09:42:23.000Z</time>
      </trkpt>
      <trkpt lat="43.53683" lon="5.51342">
        <ele>322.60000610352</ele>
        <time>2013-02-19T09:42:24.000Z</time>
      </trkpt>
      <trkpt lat="43.53686" lon="5.51345">
        <ele>323.20001220703</ele>
        <time>2013-02-19T09:42:25.000Z</time>
      </trkpt>
      <trkpt lat="43.53688" lon="5.51347">
        <ele>323.60000610352</ele>
        <time>2013-02-19T09:42:26.000Z</time>
      </trkpt>
      <trkpt lat="43.53689" lon="5.51349">
        <ele>323.79998779297</ele>
        <time>2013-02-19T09:42:27.000Z</time>
      </trkpt>
      <trkpt lat="43.53691" lon="5.51352">
        <ele>324.20001220703</ele>
        <time>2013-02-19T09:42:36.000Z</time>
      </trkpt>
      <trkpt lat="43.53694" lon="5.51354">
        <ele>324.79998779297</ele>
        <time>2013-02-19T09:42:42.000Z</time>
      </trkpt>
      <trkpt lat="43.53695" lon="5.51354">
        <ele>325</ele>
        <time>2013-02-19T09:42:43.000Z</time>
      </trkpt>
      <trkpt lat="43.53696" lon="5.51355">
        <ele>325.39999389648</ele>
        <time>2013-02-19T09:42:44.000Z</time>
      </trkpt>
      <trkpt lat="43.53697" lon="5.51356">
        <ele>325.60000610352</ele>
        <time>2013-02-19T09:42:45.000Z</time>
      </trkpt>
      <trkpt lat="43.53699" lon="5.51357">
        <ele>326</ele>
        <time>2013-02-19T09:42:46.000Z</time>
      </trkpt>
      <trkpt lat="43.537" lon="5.51358">
        <ele>326.20001220703</ele>
        <time>2013-02-19T09:42:47.000Z</time>
      </trkpt>
      <trkpt lat="43.53702" lon="5.5136">
        <ele>326.79998779297</ele>
        <time>2013-02-19T09:42:48.000Z</time>
      </trkpt>
      <trkpt lat="43.53731" lon="5.51383">
        <ele>333.20001220703</ele>
        <time>2013-02-19T09:42:55.000Z</time>
      </trkpt>
      <trkpt lat="43.53734" lon="5.51389">
        <ele>333.79998779297</ele>
        <time>2013-02-19T09:42:56.000Z</time>
      </trkpt>
      <trkpt lat="43.53736" lon="5.51395">
        <ele>334</ele>
        <time>2013-02-19T09:42:57.000Z</time>
      </trkpt>
      <trkpt lat="43.53739" lon="5.51409">
        <ele>334.20001220703</ele>
        <time>2013-02-19T09:42:59.000Z</time>
      </trkpt>
      <trkpt lat="43.53737" lon="5.51414">
        <ele>333.60000610352</ele>
        <time>2013-02-19T09:43:00.000Z</time>
      </trkpt>
      <trkpt lat="43.53734" lon="5.51418">
        <ele>332.60000610352</ele>
        <time>2013-02-19T09:43:01.000Z</time>
      </trkpt>
      <trkpt lat="43.53724" lon="5.51422">
        <ele>330</ele>
        <time>2013-02-19T09:43:03.000Z</time>
      </trkpt>
      <trkpt lat="43.5372" lon="5.51425">
        <ele>328.79998779297</ele>
        <time>2013-02-19T09:43:04.000Z</time>
      </trkpt>
      <trkpt lat="43.53717" lon="5.5143">
        <ele>327.79998779297</ele>
        <time>2013-02-19T09:43:05.000Z</time>
      </trkpt>
      <trkpt lat="43.53714" lon="5.51436">
        <ele>327</ele>
        <time>2013-02-19T09:43:06.000Z</time>
      </trkpt>
      <trkpt lat="43.53712" lon="5.51443">
        <ele>326.20001220703</ele>
        <time>2013-02-19T09:43:07.000Z</time>
      </trkpt>
      <trkpt lat="43.5371" lon="5.5145">
        <ele>325.60000610352</ele>
        <time>2013-02-19T09:43:08.000Z</time>
      </trkpt>
      <trkpt lat="43.5371" lon="5.51457">
        <ele>325.39999389648</ele>
        <time>2013-02-19T09:43:09.000Z</time>
      </trkpt>
      <trkpt lat="43.53711" lon="5.51463">
        <ele>325.60000610352</ele>
        <time>2013-02-19T09:43:10.000Z</time>
      </trkpt>
      <trkpt lat="43.53713" lon="5.51468">
        <ele>326</ele>
        <time>2013-02-19T09:43:11.000Z</time>
      </trkpt>
      <trkpt lat="43.53715" lon="5.51474">
        <ele>326.60000610352</ele>
        <time>2013-02-19T09:43:12.000Z</time>
      </trkpt>
      <trkpt lat="43.53718" lon="5.5148">
        <ele>327.20001220703</ele>
        <time>2013-02-19T09:43:13.000Z</time>
      </trkpt>
      <trkpt lat="43.53721" lon="5.51486">
        <ele>328</ele>
        <time>2013-02-19T09:43:14.000Z</time>
      </trkpt>
      <trkpt lat="43.53727" lon="5.51496">
        <ele>329.60000610352</ele>
        <time>2013-02-19T09:43:16.000Z</time>
      </trkpt>
      <trkpt lat="43.53729" lon="5.51501">
        <ele>330</ele>
        <time>2013-02-19T09:43:17.000Z</time>
      </trkpt>
      <trkpt lat="43.53731" lon="5.51506">
        <ele>330</ele>
        <time>2013-02-19T09:43:18.000Z</time>
      </trkpt>
      <trkpt lat="43.53753" lon="5.51548">
        <ele>330.39999389648</ele>
        <time>2013-02-19T09:43:28.000Z</time>
      </trkpt>
      <trkpt lat="43.53777" lon="5.5158">
        <ele>331.39999389648</ele>
        <time>2013-02-19T09:43:36.000Z</time>
      </trkpt>
      <trkpt lat="43.53783" lon="5.51589">
        <ele>331.60000610352</ele>
        <time>2013-02-19T09:43:38.000Z</time>
      </trkpt>
      <trkpt lat="43.53785" lon="5.51595">
        <ele>331.39999389648</ele>
        <time>2013-02-19T09:43:39.000Z</time>
      </trkpt>
      <trkpt lat="43.53792" lon="5.51618">
        <ele>329.79998779297</ele>
        <time>2013-02-19T09:43:43.000Z</time>
      </trkpt>
      <trkpt lat="43.53794" lon="5.51623">
        <ele>329.60000610352</ele>
        <time>2013-02-19T09:43:44.000Z</time>
      </trkpt>
      <trkpt lat="43.53796" lon="5.51628">
        <ele>329.20001220703</ele>
        <time>2013-02-19T09:43:45.000Z</time>
      </trkpt>
      <trkpt lat="43.53796" lon="5.51633">
        <ele>328.79998779297</ele>
        <time>2013-02-19T09:43:46.000Z</time>
      </trkpt>
      <trkpt lat="43.53796" lon="5.51638">
        <ele>328</ele>
        <time>2013-02-19T09:43:47.000Z</time>
      </trkpt>
      <trkpt lat="43.53796" lon="5.51642">
        <ele>327.39999389648</ele>
        <time>2013-02-19T09:43:48.000Z</time>
      </trkpt>
      <trkpt lat="43.53796" lon="5.51647">
        <ele>326.79998779297</ele>
        <time>2013-02-19T09:43:49.000Z</time>
      </trkpt>
      <trkpt lat="43.53811" lon="5.51671">
        <ele>327.39999389648</ele>
        <time>2013-02-19T09:43:56.000Z</time>
      </trkpt>
      <trkpt lat="43.53815" lon="5.51672">
        <ele>328.20001220703</ele>
        <time>2013-02-19T09:43:57.000Z</time>
      </trkpt>
      <trkpt lat="43.53819" lon="5.51672">
        <ele>329.20001220703</ele>
        <time>2013-02-19T09:43:58.000Z</time>
      </trkpt>
      <trkpt lat="43.53823" lon="5.51673">
        <ele>330.20001220703</ele>
        <time>2013-02-19T09:43:59.000Z</time>
      </trkpt>
      <trkpt lat="43.53827" lon="5.51674">
        <ele>331</ele>
        <time>2013-02-19T09:44:00.000Z</time>
      </trkpt>
      <trkpt lat="43.53831" lon="5.51676">
        <ele>331.60000610352</ele>
        <time>2013-02-19T09:44:01.000Z</time>
      </trkpt>
      <trkpt lat="43.5386" lon="5.51692">
        <ele>332.20001220703</ele>
        <time>2013-02-19T09:44:07.000Z</time>
      </trkpt>
      <trkpt lat="43.53868" lon="5.51699">
        <ele>332</ele>
        <time>2013-02-19T09:44:09.000Z</time>
      </trkpt>
      <trkpt lat="43.53873" lon="5.51701">
        <ele>332.20001220703</ele>
        <time>2013-02-19T09:44:10.000Z</time>
      </trkpt>
      <trkpt lat="43.53878" lon="5.51704">
        <ele>332.39999389648</ele>
        <time>2013-02-19T09:44:11.000Z</time>
      </trkpt>
      <trkpt lat="43.53887" lon="5.51709">
        <ele>333</ele>
        <time>2013-02-19T09:44:13.000Z</time>
      </trkpt>
      <trkpt lat="43.53892" lon="5.5171">
        <ele>333.39999389648</ele>
        <time>2013-02-19T09:44:14.000Z</time>
      </trkpt>
      <trkpt lat="43.53897" lon="5.51712">
        <ele>334.20001220703</ele>
        <time>2013-02-19T09:44:15.000Z</time>
      </trkpt>
      <trkpt lat="43.53906" lon="5.51714">
        <ele>335.20001220703</ele>
        <time>2013-02-19T09:44:17.000Z</time>
      </trkpt>
      <trkpt lat="43.53915" lon="5.5172">
        <ele>335.79998779297</ele>
        <time>2013-02-19T09:44:19.000Z</time>
      </trkpt>
      <trkpt lat="43.5392" lon="5.51724">
        <ele>335.60000610352</ele>
        <time>2013-02-19T09:44:20.000Z</time>
      </trkpt>
      <trkpt lat="43.53923" lon="5.51729">
        <ele>335</ele>
        <time>2013-02-19T09:44:21.000Z</time>
      </trkpt>
      <trkpt lat="43.53927" lon="5.51734">
        <ele>334.60000610352</ele>
        <time>2013-02-19T09:44:22.000Z</time>
      </trkpt>
      <trkpt lat="43.5393" lon="5.51739">
        <ele>334.39999389648</ele>
        <time>2013-02-19T09:44:23.000Z</time>
      </trkpt>
      <trkpt lat="43.53932" lon="5.51744">
        <ele>333.60000610352</ele>
        <time>2013-02-19T09:44:24.000Z</time>
      </trkpt>
      <trkpt lat="43.53934" lon="5.51749">
        <ele>333</ele>
        <time>2013-02-19T09:44:25.000Z</time>
      </trkpt>
      <trkpt lat="43.53937" lon="5.51753">
        <ele>333</ele>
        <time>2013-02-19T09:44:26.000Z</time>
      </trkpt>
      <trkpt lat="43.53939" lon="5.51757">
        <ele>333.20001220703</ele>
        <time>2013-02-19T09:44:27.000Z</time>
      </trkpt>
      <trkpt lat="43.53942" lon="5.51762">
        <ele>333.20001220703</ele>
        <time>2013-02-19T09:44:28.000Z</time>
      </trkpt>
      <trkpt lat="43.53948" lon="5.51777">
        <ele>333</ele>
        <time>2013-02-19T09:44:31.000Z</time>
      </trkpt>
      <trkpt lat="43.53957" lon="5.5181">
        <ele>331.60000610352</ele>
        <time>2013-02-19T09:44:37.000Z</time>
      </trkpt>
      <trkpt lat="43.53958" lon="5.51816">
        <ele>331.20001220703</ele>
        <time>2013-02-19T09:44:38.000Z</time>
      </trkpt>
      <trkpt lat="43.53959" lon="5.5182">
        <ele>331</ele>
        <time>2013-02-19T09:44:39.000Z</time>
      </trkpt>
      <trkpt lat="43.53964" lon="5.5183">
        <ele>331</ele>
        <time>2013-02-19T09:44:47.000Z</time>
      </trkpt>
      <trkpt lat="43.53965" lon="5.51831">
        <ele>331</ele>
        <time>2013-02-19T09:44:48.000Z</time>
      </trkpt>
      <trkpt lat="43.53966" lon="5.51831">
        <ele>331.20001220703</ele>
        <time>2013-02-19T09:44:49.000Z</time>
      </trkpt>
      <trkpt lat="43.53967" lon="5.5183">
        <ele>331.39999389648</ele>
        <time>2013-02-19T09:44:50.000Z</time>
      </trkpt>
      <trkpt lat="43.53969" lon="5.51831">
        <ele>331.60000610352</ele>
        <time>2013-02-19T09:44:51.000Z</time>
      </trkpt>
      <trkpt lat="43.53971" lon="5.51832">
        <ele>331.79998779297</ele>
        <time>2013-02-19T09:44:52.000Z</time>
      </trkpt>
      <trkpt lat="43.53993" lon="5.51847">
        <ele>335</ele>
        <time>2013-02-19T09:45:00.000Z</time>
      </trkpt>
      <trkpt lat="43.54011" lon="5.51852">
        <ele>336.79998779297</ele>
        <time>2013-02-19T09:45:04.000Z</time>
      </trkpt>
      <trkpt lat="43.54021" lon="5.51852">
        <ele>337.60000610352</ele>
        <time>2013-02-19T09:45:06.000Z</time>
      </trkpt>
      <trkpt lat="43.54026" lon="5.51852">
        <ele>337.79998779297</ele>
        <time>2013-02-19T09:45:07.000Z</time>
      </trkpt>
      <trkpt lat="43.5403" lon="5.51853">
        <ele>338.20001220703</ele>
        <time>2013-02-19T09:45:08.000Z</time>
      </trkpt>
      <trkpt lat="43.54032" lon="5.51855">
        <ele>338.20001220703</ele>
        <time>2013-02-19T09:45:09.000Z</time>
      </trkpt>
      <trkpt lat="43.54034" lon="5.51857">
        <ele>338.39999389648</ele>
        <time>2013-02-19T09:45:10.000Z</time>
      </trkpt>
      <trkpt lat="43.54036" lon="5.51859">
        <ele>338.60000610352</ele>
        <time>2013-02-19T09:45:11.000Z</time>
      </trkpt>
      <trkpt lat="43.54038" lon="5.51862">
        <ele>338.79998779297</ele>
        <time>2013-02-19T09:45:12.000Z</time>
      </trkpt>
      <trkpt lat="43.54045" lon="5.51884">
        <ele>339.39999389648</ele>
        <time>2013-02-19T09:45:18.000Z</time>
      </trkpt>
      <trkpt lat="43.54045" lon="5.51887">
        <ele>339.39999389648</ele>
        <time>2013-02-19T09:45:19.000Z</time>
      </trkpt>
      <trkpt lat="43.54044" lon="5.51888">
        <ele>339.39999389648</ele>
        <time>2013-02-19T09:45:20.000Z</time>
      </trkpt>
      <trkpt lat="43.54042" lon="5.5189">
        <ele>339.20001220703</ele>
        <time>2013-02-19T09:45:27.000Z</time>
      </trkpt>
      <trkpt lat="43.54042" lon="5.51895">
        <ele>339.39999389648</ele>
        <time>2013-02-19T09:45:31.000Z</time>
      </trkpt>
      <trkpt lat="43.5404" lon="5.51899">
        <ele>339.20001220703</ele>
        <time>2013-02-19T09:45:34.000Z</time>
      </trkpt>
      <trkpt lat="43.5403" lon="5.51922">
        <ele>339</ele>
        <time>2013-02-19T09:45:42.000Z</time>
      </trkpt>
      <trkpt lat="43.54028" lon="5.51925">
        <ele>339</ele>
        <time>2013-02-19T09:45:43.000Z</time>
      </trkpt>
      <trkpt lat="43.54026" lon="5.51927">
        <ele>339.20001220703</ele>
        <time>2013-02-19T09:45:44.000Z</time>
      </trkpt>
      <trkpt lat="43.54009" lon="5.51944">
        <ele>339.60000610352</ele>
        <time>2013-02-19T09:45:53.000Z</time>
      </trkpt>
      <trkpt lat="43.53992" lon="5.51957">
        <ele>339.79998779297</ele>
        <time>2013-02-19T09:46:03.000Z</time>
      </trkpt>
      <trkpt lat="43.5399" lon="5.51958">
        <ele>339.79998779297</ele>
        <time>2013-02-19T09:46:04.000Z</time>
      </trkpt>
      <trkpt lat="43.53971" lon="5.51962">
        <ele>339.20001220703</ele>
        <time>2013-02-19T09:46:11.000Z</time>
      </trkpt>
      <trkpt lat="43.53963" lon="5.51967">
        <ele>339.20001220703</ele>
        <time>2013-02-19T09:46:13.000Z</time>
      </trkpt>
      <trkpt lat="43.53959" lon="5.5197">
        <ele>339.20001220703</ele>
        <time>2013-02-19T09:46:14.000Z</time>
      </trkpt>
      <trkpt lat="43.53954" lon="5.51974">
        <ele>339</ele>
        <time>2013-02-19T09:46:15.000Z</time>
      </trkpt>
      <trkpt lat="43.53949" lon="5.51978">
        <ele>339</ele>
        <time>2013-02-19T09:46:16.000Z</time>
      </trkpt>
      <trkpt lat="43.53944" lon="5.51983">
        <ele>339</ele>
        <time>2013-02-19T09:46:17.000Z</time>
      </trkpt>
      <trkpt lat="43.53939" lon="5.51986">
        <ele>339</ele>
        <time>2013-02-19T09:46:18.000Z</time>
      </trkpt>
      <trkpt lat="43.53935" lon="5.5199">
        <ele>338.79998779297</ele>
        <time>2013-02-19T09:46:19.000Z</time>
      </trkpt>
      <trkpt lat="43.5393" lon="5.51994">
        <ele>338.60000610352</ele>
        <time>2013-02-19T09:46:20.000Z</time>
      </trkpt>
      <trkpt lat="43.53927" lon="5.51999">
        <ele>338.79998779297</ele>
        <time>2013-02-19T09:46:21.000Z</time>
      </trkpt>
      <trkpt lat="43.53925" lon="5.52005">
        <ele>338.39999389648</ele>
        <time>2013-02-19T09:46:22.000Z</time>
      </trkpt>
      <trkpt lat="43.53924" lon="5.52012">
        <ele>338.20001220703</ele>
        <time>2013-02-19T09:46:23.000Z</time>
      </trkpt>
      <trkpt lat="43.53924" lon="5.52018">
        <ele>338</ele>
        <time>2013-02-19T09:46:24.000Z</time>
      </trkpt>
      <trkpt lat="43.53925" lon="5.52025">
        <ele>337.79998779297</ele>
        <time>2013-02-19T09:46:25.000Z</time>
      </trkpt>
      <trkpt lat="43.53928" lon="5.5203">
        <ele>338</ele>
        <time>2013-02-19T09:46:26.000Z</time>
      </trkpt>
      <trkpt lat="43.53931" lon="5.52034">
        <ele>338.20001220703</ele>
        <time>2013-02-19T09:46:27.000Z</time>
      </trkpt>
      <trkpt lat="43.53935" lon="5.52037">
        <ele>338.39999389648</ele>
        <time>2013-02-19T09:46:28.000Z</time>
      </trkpt>
      <trkpt lat="43.53938" lon="5.5204">
        <ele>338.79998779297</ele>
        <time>2013-02-19T09:46:29.000Z</time>
      </trkpt>
      <trkpt lat="43.5394" lon="5.52043">
        <ele>339</ele>
        <time>2013-02-19T09:46:30.000Z</time>
      </trkpt>
      <trkpt lat="43.53952" lon="5.52069">
        <ele>339.79998779297</ele>
        <time>2013-02-19T09:46:37.000Z</time>
      </trkpt>
      <trkpt lat="43.53955" lon="5.52073">
        <ele>340.20001220703</ele>
        <time>2013-02-19T09:46:38.000Z</time>
      </trkpt>
      <trkpt lat="43.53959" lon="5.52077">
        <ele>340.60000610352</ele>
        <time>2013-02-19T09:46:39.000Z</time>
      </trkpt>
      <trkpt lat="43.53963" lon="5.52081">
        <ele>341</ele>
        <time>2013-02-19T09:46:40.000Z</time>
      </trkpt>
      <trkpt lat="43.53968" lon="5.52084">
        <ele>341.60000610352</ele>
        <time>2013-02-19T09:46:41.000Z</time>
      </trkpt>
      <trkpt lat="43.53971" lon="5.52087">
        <ele>342.20001220703</ele>
        <time>2013-02-19T09:46:42.000Z</time>
      </trkpt>
      <trkpt lat="43.53973" lon="5.5209">
        <ele>342.60000610352</ele>
        <time>2013-02-19T09:46:43.000Z</time>
      </trkpt>
      <trkpt lat="43.53974" lon="5.52093">
        <ele>342.60000610352</ele>
        <time>2013-02-19T09:46:44.000Z</time>
      </trkpt>
      <trkpt lat="43.53974" lon="5.52096">
        <ele>342.79998779297</ele>
        <time>2013-02-19T09:46:45.000Z</time>
      </trkpt>
      <trkpt lat="43.53973" lon="5.52101">
        <ele>342.79998779297</ele>
        <time>2013-02-19T09:46:46.000Z</time>
      </trkpt>
      <trkpt lat="43.53972" lon="5.52107">
        <ele>342.79998779297</ele>
        <time>2013-02-19T09:46:47.000Z</time>
      </trkpt>
      <trkpt lat="43.5397" lon="5.52112">
        <ele>342.79998779297</ele>
        <time>2013-02-19T09:46:48.000Z</time>
      </trkpt>
      <trkpt lat="43.53967" lon="5.52116">
        <ele>342.60000610352</ele>
        <time>2013-02-19T09:46:49.000Z</time>
      </trkpt>
      <trkpt lat="43.53965" lon="5.52121">
        <ele>342.39999389648</ele>
        <time>2013-02-19T09:46:50.000Z</time>
      </trkpt>
      <trkpt lat="43.53962" lon="5.52126">
        <ele>342.39999389648</ele>
        <time>2013-02-19T09:46:51.000Z</time>
      </trkpt>
      <trkpt lat="43.5396" lon="5.52128">
        <ele>342.20001220703</ele>
        <time>2013-02-19T09:46:52.000Z</time>
      </trkpt>
      <trkpt lat="43.53957" lon="5.5213">
        <ele>342</ele>
        <time>2013-02-19T09:46:53.000Z</time>
      </trkpt>
      <trkpt lat="43.53953" lon="5.52132">
        <ele>341.60000610352</ele>
        <time>2013-02-19T09:46:54.000Z</time>
      </trkpt>
      <trkpt lat="43.53949" lon="5.52135">
        <ele>341.39999389648</ele>
        <time>2013-02-19T09:46:55.000Z</time>
      </trkpt>
      <trkpt lat="43.53945" lon="5.52139">
        <ele>341.20001220703</ele>
        <time>2013-02-19T09:46:56.000Z</time>
      </trkpt>
      <trkpt lat="43.53942" lon="5.52144">
        <ele>341</ele>
        <time>2013-02-19T09:46:57.000Z</time>
      </trkpt>
      <trkpt lat="43.53939" lon="5.52147">
        <ele>340.79998779297</ele>
        <time>2013-02-19T09:46:58.000Z</time>
      </trkpt>
      <trkpt lat="43.53936" lon="5.52149">
        <ele>340.60000610352</ele>
        <time>2013-02-19T09:46:59.000Z</time>
      </trkpt>
      <trkpt lat="43.53933" lon="5.5215">
        <ele>340.39999389648</ele>
        <time>2013-02-19T09:47:00.000Z</time>
      </trkpt>
      <trkpt lat="43.53919" lon="5.52158">
        <ele>339.60000610352</ele>
        <time>2013-02-19T09:47:04.000Z</time>
      </trkpt>
      <trkpt lat="43.5391" lon="5.52164">
        <ele>339.60000610352</ele>
        <time>2013-02-19T09:47:06.000Z</time>
      </trkpt>
      <trkpt lat="43.53884" lon="5.52177">
        <ele>340.20001220703</ele>
        <time>2013-02-19T09:47:11.000Z</time>
      </trkpt>
      <trkpt lat="43.53879" lon="5.52176">
        <ele>340</ele>
        <time>2013-02-19T09:47:12.000Z</time>
      </trkpt>
      <trkpt lat="43.53868" lon="5.52172">
        <ele>339.60000610352</ele>
        <time>2013-02-19T09:47:14.000Z</time>
      </trkpt>
      <trkpt lat="43.53853" lon="5.52162">
        <ele>338.60000610352</ele>
        <time>2013-02-19T09:47:17.000Z</time>
      </trkpt>
      <trkpt lat="43.53849" lon="5.52159">
        <ele>338</ele>
        <time>2013-02-19T09:47:18.000Z</time>
      </trkpt>
      <trkpt lat="43.53839" lon="5.52153">
        <ele>337</ele>
        <time>2013-02-19T09:47:20.000Z</time>
      </trkpt>
      <trkpt lat="43.53834" lon="5.5215">
        <ele>336.39999389648</ele>
        <time>2013-02-19T09:47:21.000Z</time>
      </trkpt>
      <trkpt lat="43.53829" lon="5.52148">
        <ele>335</ele>
        <time>2013-02-19T09:47:22.000Z</time>
      </trkpt>
      <trkpt lat="43.53825" lon="5.52147">
        <ele>333.79998779297</ele>
        <time>2013-02-19T09:47:23.000Z</time>
      </trkpt>
      <trkpt lat="43.53822" lon="5.52148">
        <ele>333.39999389648</ele>
        <time>2013-02-19T09:47:24.000Z</time>
      </trkpt>
      <trkpt lat="43.5382" lon="5.52149">
        <ele>333</ele>
        <time>2013-02-19T09:47:25.000Z</time>
      </trkpt>
      <trkpt lat="43.53818" lon="5.5215">
        <ele>332.79998779297</ele>
        <time>2013-02-19T09:47:26.000Z</time>
      </trkpt>
      <trkpt lat="43.53817" lon="5.5215">
        <ele>332.39999389648</ele>
        <time>2013-02-19T09:47:27.000Z</time>
      </trkpt>
      <trkpt lat="43.53806" lon="5.52152">
        <ele>330</ele>
        <time>2013-02-19T09:47:33.000Z</time>
      </trkpt>
      <trkpt lat="43.53804" lon="5.52155">
        <ele>329.79998779297</ele>
        <time>2013-02-19T09:47:34.000Z</time>
      </trkpt>
      <trkpt lat="43.53802" lon="5.52159">
        <ele>329.79998779297</ele>
        <time>2013-02-19T09:47:35.000Z</time>
      </trkpt>
      <trkpt lat="43.53801" lon="5.52162">
        <ele>329.79998779297</ele>
        <time>2013-02-19T09:47:36.000Z</time>
      </trkpt>
      <trkpt lat="43.53799" lon="5.52166">
        <ele>329.60000610352</ele>
        <time>2013-02-19T09:47:37.000Z</time>
      </trkpt>
      <trkpt lat="43.53798" lon="5.5219">
        <ele>328.39999389648</ele>
        <time>2013-02-19T09:47:43.000Z</time>
      </trkpt>
      <trkpt lat="43.538" lon="5.52195">
        <ele>328.79998779297</ele>
        <time>2013-02-19T09:47:44.000Z</time>
      </trkpt>
      <trkpt lat="43.53805" lon="5.52207">
        <ele>329.60000610352</ele>
        <time>2013-02-19T09:47:46.000Z</time>
      </trkpt>
      <trkpt lat="43.53809" lon="5.52221">
        <ele>330.39999389648</ele>
        <time>2013-02-19T09:47:48.000Z</time>
      </trkpt>
      <trkpt lat="43.53812" lon="5.52226">
        <ele>331</ele>
        <time>2013-02-19T09:47:49.000Z</time>
      </trkpt>
      <trkpt lat="43.53816" lon="5.5223">
        <ele>332</ele>
        <time>2013-02-19T09:47:50.000Z</time>
      </trkpt>
      <trkpt lat="43.53819" lon="5.5223">
        <ele>333</ele>
        <time>2013-02-19T09:47:51.000Z</time>
      </trkpt>
      <trkpt lat="43.53821" lon="5.52228">
        <ele>333.79998779297</ele>
        <time>2013-02-19T09:47:52.000Z</time>
      </trkpt>
      <trkpt lat="43.53823" lon="5.52228">
        <ele>334.39999389648</ele>
        <time>2013-02-19T09:47:53.000Z</time>
      </trkpt>
      <trkpt lat="43.53825" lon="5.5223">
        <ele>334.79998779297</ele>
        <time>2013-02-19T09:47:54.000Z</time>
      </trkpt>
      <trkpt lat="43.53826" lon="5.52233">
        <ele>335.20001220703</ele>
        <time>2013-02-19T09:47:55.000Z</time>
      </trkpt>
      <trkpt lat="43.53828" lon="5.52236">
        <ele>335.60000610352</ele>
        <time>2013-02-19T09:47:56.000Z</time>
      </trkpt>
      <trkpt lat="43.53831" lon="5.52238">
        <ele>336.39999389648</ele>
        <time>2013-02-19T09:47:57.000Z</time>
      </trkpt>
      <trkpt lat="43.53834" lon="5.52241">
        <ele>337.20001220703</ele>
        <time>2013-02-19T09:47:58.000Z</time>
      </trkpt>
      <trkpt lat="43.53838" lon="5.52243">
        <ele>337.79998779297</ele>
        <time>2013-02-19T09:47:59.000Z</time>
      </trkpt>
      <trkpt lat="43.53841" lon="5.52246">
        <ele>338.20001220703</ele>
        <time>2013-02-19T09:48:00.000Z</time>
      </trkpt>
      <trkpt lat="43.53844" lon="5.5225">
        <ele>338.60000610352</ele>
        <time>2013-02-19T09:48:01.000Z</time>
      </trkpt>
      <trkpt lat="43.53847" lon="5.52254">
        <ele>338.39999389648</ele>
        <time>2013-02-19T09:48:02.000Z</time>
      </trkpt>
      <trkpt lat="43.5385" lon="5.52259">
        <ele>338.39999389648</ele>
        <time>2013-02-19T09:48:03.000Z</time>
      </trkpt>
      <trkpt lat="43.53854" lon="5.52264">
        <ele>338.39999389648</ele>
        <time>2013-02-19T09:48:04.000Z</time>
      </trkpt>
      <trkpt lat="43.53868" lon="5.52286">
        <ele>338.60000610352</ele>
        <time>2013-02-19T09:48:08.000Z</time>
      </trkpt>
      <trkpt lat="43.53871" lon="5.52291">
        <ele>338.60000610352</ele>
        <time>2013-02-19T09:48:09.000Z</time>
      </trkpt>
      <trkpt lat="43.53873" lon="5.52298">
        <ele>338.60000610352</ele>
        <time>2013-02-19T09:48:10.000Z</time>
      </trkpt>
      <trkpt lat="43.53874" lon="5.52304">
        <ele>338.39999389648</ele>
        <time>2013-02-19T09:48:11.000Z</time>
      </trkpt>
      <trkpt lat="43.53876" lon="5.52311">
        <ele>338</ele>
        <time>2013-02-19T09:48:12.000Z</time>
      </trkpt>
      <trkpt lat="43.53877" lon="5.52319">
        <ele>337.79998779297</ele>
        <time>2013-02-19T09:48:13.000Z</time>
      </trkpt>
      <trkpt lat="43.53879" lon="5.52333">
        <ele>337.20001220703</ele>
        <time>2013-02-19T09:48:15.000Z</time>
      </trkpt>
      <trkpt lat="43.5388" lon="5.52339">
        <ele>337.39999389648</ele>
        <time>2013-02-19T09:48:16.000Z</time>
      </trkpt>
      <trkpt lat="43.53881" lon="5.52344">
        <ele>337.60000610352</ele>
        <time>2013-02-19T09:48:17.000Z</time>
      </trkpt>
      <trkpt lat="43.53882" lon="5.52349">
        <ele>338</ele>
        <time>2013-02-19T09:48:18.000Z</time>
      </trkpt>
      <trkpt lat="43.53884" lon="5.52352">
        <ele>338.79998779297</ele>
        <time>2013-02-19T09:48:19.000Z</time>
      </trkpt>
      <trkpt lat="43.53887" lon="5.52355">
        <ele>339.60000610352</ele>
        <time>2013-02-19T09:48:20.000Z</time>
      </trkpt>
      <trkpt lat="43.53888" lon="5.5236">
        <ele>339.79998779297</ele>
        <time>2013-02-19T09:48:21.000Z</time>
      </trkpt>
      <trkpt lat="43.53888" lon="5.52364">
        <ele>339.79998779297</ele>
        <time>2013-02-19T09:48:22.000Z</time>
      </trkpt>
      <trkpt lat="43.53888" lon="5.52367">
        <ele>339.79998779297</ele>
        <time>2013-02-19T09:48:23.000Z</time>
      </trkpt>
      <trkpt lat="43.53888" lon="5.52371">
        <ele>339.79998779297</ele>
        <time>2013-02-19T09:48:24.000Z</time>
      </trkpt>
      <trkpt lat="43.53888" lon="5.52374">
        <ele>339.79998779297</ele>
        <time>2013-02-19T09:48:25.000Z</time>
      </trkpt>
      <trkpt lat="43.53888" lon="5.52377">
        <ele>339.79998779297</ele>
        <time>2013-02-19T09:48:26.000Z</time>
      </trkpt>
      <trkpt lat="43.53889" lon="5.52381">
        <ele>340</ele>
        <time>2013-02-19T09:48:27.000Z</time>
      </trkpt>
      <trkpt lat="43.53889" lon="5.52386">
        <ele>339.79998779297</ele>
        <time>2013-02-19T09:48:28.000Z</time>
      </trkpt>
      <trkpt lat="43.53889" lon="5.52391">
        <ele>340</ele>
        <time>2013-02-19T09:48:29.000Z</time>
      </trkpt>
      <trkpt lat="43.53889" lon="5.52396">
        <ele>340</ele>
        <time>2013-02-19T09:48:30.000Z</time>
      </trkpt>
      <trkpt lat="43.53889" lon="5.52403">
        <ele>340.20001220703</ele>
        <time>2013-02-19T09:48:31.000Z</time>
      </trkpt>
      <trkpt lat="43.5389" lon="5.5241">
        <ele>340.39999389648</ele>
        <time>2013-02-19T09:48:32.000Z</time>
      </trkpt>
      <trkpt lat="43.53891" lon="5.52417">
        <ele>340.79998779297</ele>
        <time>2013-02-19T09:48:33.000Z</time>
      </trkpt>
      <trkpt lat="43.53895" lon="5.52431">
        <ele>340.20001220703</ele>
        <time>2013-02-19T09:48:35.000Z</time>
      </trkpt>
      <trkpt lat="43.53896" lon="5.52437">
        <ele>339.39999389648</ele>
        <time>2013-02-19T09:48:36.000Z</time>
      </trkpt>
      <trkpt lat="43.53896" lon="5.52442">
        <ele>338.79998779297</ele>
        <time>2013-02-19T09:48:37.000Z</time>
      </trkpt>
      <trkpt lat="43.53897" lon="5.52448">
        <ele>338.60000610352</ele>
        <time>2013-02-19T09:48:38.000Z</time>
      </trkpt>
      <trkpt lat="43.53899" lon="5.52453">
        <ele>338.60000610352</ele>
        <time>2013-02-19T09:48:39.000Z</time>
      </trkpt>
      <trkpt lat="43.53901" lon="5.52458">
        <ele>338.79998779297</ele>
        <time>2013-02-19T09:48:40.000Z</time>
      </trkpt>
      <trkpt lat="43.53904" lon="5.52463">
        <ele>339.20001220703</ele>
        <time>2013-02-19T09:48:41.000Z</time>
      </trkpt>
      <trkpt lat="43.53907" lon="5.52468">
        <ele>339.60000610352</ele>
        <time>2013-02-19T09:48:42.000Z</time>
      </trkpt>
      <trkpt lat="43.5391" lon="5.52473">
        <ele>340.39999389648</ele>
        <time>2013-02-19T09:48:43.000Z</time>
      </trkpt>
      <trkpt lat="43.53914" lon="5.52478">
        <ele>341.39999389648</ele>
        <time>2013-02-19T09:48:44.000Z</time>
      </trkpt>
      <trkpt lat="43.53918" lon="5.52482">
        <ele>342.39999389648</ele>
        <time>2013-02-19T09:48:45.000Z</time>
      </trkpt>
      <trkpt lat="43.53923" lon="5.52485">
        <ele>343</ele>
        <time>2013-02-19T09:48:46.000Z</time>
      </trkpt>
      <trkpt lat="43.53928" lon="5.52486">
        <ele>343.79998779297</ele>
        <time>2013-02-19T09:48:47.000Z</time>
      </trkpt>
      <trkpt lat="43.53933" lon="5.52486">
        <ele>344.79998779297</ele>
        <time>2013-02-19T09:48:48.000Z</time>
      </trkpt>
      <trkpt lat="43.53937" lon="5.52487">
        <ele>345.60000610352</ele>
        <time>2013-02-19T09:48:49.000Z</time>
      </trkpt>
      <trkpt lat="43.53941" lon="5.5249">
        <ele>346</ele>
        <time>2013-02-19T09:48:50.000Z</time>
      </trkpt>
      <trkpt lat="43.53944" lon="5.52495">
        <ele>346.20001220703</ele>
        <time>2013-02-19T09:48:51.000Z</time>
      </trkpt>
      <trkpt lat="43.5395" lon="5.52505">
        <ele>346.20001220703</ele>
        <time>2013-02-19T09:48:53.000Z</time>
      </trkpt>
      <trkpt lat="43.53951" lon="5.52511">
        <ele>345.39999389648</ele>
        <time>2013-02-19T09:48:54.000Z</time>
      </trkpt>
      <trkpt lat="43.53952" lon="5.52517">
        <ele>344.60000610352</ele>
        <time>2013-02-19T09:48:55.000Z</time>
      </trkpt>
      <trkpt lat="43.53952" lon="5.52531">
        <ele>342.39999389648</ele>
        <time>2013-02-19T09:48:57.000Z</time>
      </trkpt>
      <trkpt lat="43.53951" lon="5.52538">
        <ele>340.79998779297</ele>
        <time>2013-02-19T09:48:58.000Z</time>
      </trkpt>
      <trkpt lat="43.53949" lon="5.52545">
        <ele>339.20001220703</ele>
        <time>2013-02-19T09:48:59.000Z</time>
      </trkpt>
      <trkpt lat="43.53949" lon="5.52551">
        <ele>337.79998779297</ele>
        <time>2013-02-19T09:49:00.000Z</time>
      </trkpt>
      <trkpt lat="43.53948" lon="5.52557">
        <ele>336.79998779297</ele>
        <time>2013-02-19T09:49:01.000Z</time>
      </trkpt>
      <trkpt lat="43.53949" lon="5.52563">
        <ele>336</ele>
        <time>2013-02-19T09:49:02.000Z</time>
      </trkpt>
      <trkpt lat="43.53955" lon="5.52582">
        <ele>335</ele>
        <time>2013-02-19T09:49:05.000Z</time>
      </trkpt>
      <trkpt lat="43.53958" lon="5.52597">
        <ele>335</ele>
        <time>2013-02-19T09:49:07.000Z</time>
      </trkpt>
      <trkpt lat="43.5396" lon="5.52604">
        <ele>335.60000610352</ele>
        <time>2013-02-19T09:49:08.000Z</time>
      </trkpt>
      <trkpt lat="43.53966" lon="5.52617">
        <ele>337.20001220703</ele>
        <time>2013-02-19T09:49:10.000Z</time>
      </trkpt>
      <trkpt lat="43.53968" lon="5.52625">
        <ele>337.39999389648</ele>
        <time>2013-02-19T09:49:11.000Z</time>
      </trkpt>
      <trkpt lat="43.53968" lon="5.52633">
        <ele>336.60000610352</ele>
        <time>2013-02-19T09:49:12.000Z</time>
      </trkpt>
      <trkpt lat="43.53966" lon="5.52642">
        <ele>335.20001220703</ele>
        <time>2013-02-19T09:49:13.000Z</time>
      </trkpt>
      <trkpt lat="43.53965" lon="5.5265">
        <ele>334</ele>
        <time>2013-02-19T09:49:14.000Z</time>
      </trkpt>
      <trkpt lat="43.53966" lon="5.52658">
        <ele>333.60000610352</ele>
        <time>2013-02-19T09:49:15.000Z</time>
      </trkpt>
      <trkpt lat="43.53968" lon="5.52666">
        <ele>334</ele>
        <time>2013-02-19T09:49:16.000Z</time>
      </trkpt>
      <trkpt lat="43.5397" lon="5.52672">
        <ele>335.60000610352</ele>
        <time>2013-02-19T09:49:17.000Z</time>
      </trkpt>
      <trkpt lat="43.53973" lon="5.52679">
        <ele>337.20001220703</ele>
        <time>2013-02-19T09:49:18.000Z</time>
      </trkpt>
      <trkpt lat="43.53975" lon="5.52685">
        <ele>338.39999389648</ele>
        <time>2013-02-19T09:49:19.000Z</time>
      </trkpt>
      <trkpt lat="43.53977" lon="5.5269">
        <ele>339.79998779297</ele>
        <time>2013-02-19T09:49:20.000Z</time>
      </trkpt>
      <trkpt lat="43.53979" lon="5.52695">
        <ele>340.79998779297</ele>
        <time>2013-02-19T09:49:21.000Z</time>
      </trkpt>
      <trkpt lat="43.5398" lon="5.52699">
        <ele>341.39999389648</ele>
        <time>2013-02-19T09:49:22.000Z</time>
      </trkpt>
      <trkpt lat="43.53981" lon="5.52703">
        <ele>341.79998779297</ele>
        <time>2013-02-19T09:49:23.000Z</time>
      </trkpt>
      <trkpt lat="43.53981" lon="5.52705">
        <ele>342</ele>
        <time>2013-02-19T09:49:24.000Z</time>
      </trkpt>
      <trkpt lat="43.53982" lon="5.52707">
        <ele>342.39999389648</ele>
        <time>2013-02-19T09:49:25.000Z</time>
      </trkpt>
      <trkpt lat="43.53985" lon="5.52722">
        <ele>344.39999389648</ele>
        <time>2013-02-19T09:49:32.000Z</time>
      </trkpt>
      <trkpt lat="43.53986" lon="5.52738">
        <ele>345.20001220703</ele>
        <time>2013-02-19T09:49:35.000Z</time>
      </trkpt>
      <trkpt lat="43.53988" lon="5.52743">
        <ele>346</ele>
        <time>2013-02-19T09:49:36.000Z</time>
      </trkpt>
      <trkpt lat="43.53988" lon="5.52748">
        <ele>346.39999389648</ele>
        <time>2013-02-19T09:49:37.000Z</time>
      </trkpt>
      <trkpt lat="43.53987" lon="5.52752">
        <ele>346</ele>
        <time>2013-02-19T09:49:38.000Z</time>
      </trkpt>
      <trkpt lat="43.53986" lon="5.52757">
        <ele>345.79998779297</ele>
        <time>2013-02-19T09:49:39.000Z</time>
      </trkpt>
      <trkpt lat="43.53986" lon="5.52763">
        <ele>345.79998779297</ele>
        <time>2013-02-19T09:49:40.000Z</time>
      </trkpt>
      <trkpt lat="43.53986" lon="5.52775">
        <ele>345.60000610352</ele>
        <time>2013-02-19T09:49:42.000Z</time>
      </trkpt>
      <trkpt lat="43.53987" lon="5.52781">
        <ele>345.79998779297</ele>
        <time>2013-02-19T09:49:43.000Z</time>
      </trkpt>
      <trkpt lat="43.5399" lon="5.52808">
        <ele>346.39999389648</ele>
        <time>2013-02-19T09:49:47.000Z</time>
      </trkpt>
      <trkpt lat="43.53993" lon="5.52814">
        <ele>347</ele>
        <time>2013-02-19T09:49:48.000Z</time>
      </trkpt>
      <trkpt lat="43.53997" lon="5.52818">
        <ele>347.79998779297</ele>
        <time>2013-02-19T09:49:49.000Z</time>
      </trkpt>
      <trkpt lat="43.54002" lon="5.5282">
        <ele>348.39999389648</ele>
        <time>2013-02-19T09:49:50.000Z</time>
      </trkpt>
      <trkpt lat="43.54007" lon="5.52822">
        <ele>348.79998779297</ele>
        <time>2013-02-19T09:49:51.000Z</time>
      </trkpt>
      <trkpt lat="43.54011" lon="5.52825">
        <ele>349</ele>
        <time>2013-02-19T09:49:52.000Z</time>
      </trkpt>
      <trkpt lat="43.54016" lon="5.52828">
        <ele>349.20001220703</ele>
        <time>2013-02-19T09:49:53.000Z</time>
      </trkpt>
      <trkpt lat="43.5402" lon="5.52832">
        <ele>349.39999389648</ele>
        <time>2013-02-19T09:49:54.000Z</time>
      </trkpt>
      <trkpt lat="43.54033" lon="5.52847">
        <ele>349.60000610352</ele>
        <time>2013-02-19T09:49:57.000Z</time>
      </trkpt>
      <trkpt lat="43.54038" lon="5.52853">
        <ele>349.60000610352</ele>
        <time>2013-02-19T09:49:58.000Z</time>
      </trkpt>
      <trkpt lat="43.54046" lon="5.52865">
        <ele>349.79998779297</ele>
        <time>2013-02-19T09:50:00.000Z</time>
      </trkpt>
      <trkpt lat="43.54051" lon="5.52869">
        <ele>350</ele>
        <time>2013-02-19T09:50:01.000Z</time>
      </trkpt>
      <trkpt lat="43.54056" lon="5.52873">
        <ele>350.39999389648</ele>
        <time>2013-02-19T09:50:02.000Z</time>
      </trkpt>
      <trkpt lat="43.54061" lon="5.52877">
        <ele>350.60000610352</ele>
        <time>2013-02-19T09:50:03.000Z</time>
      </trkpt>
      <trkpt lat="43.54065" lon="5.52882">
        <ele>351</ele>
        <time>2013-02-19T09:50:04.000Z</time>
      </trkpt>
      <trkpt lat="43.54069" lon="5.52889">
        <ele>351</ele>
        <time>2013-02-19T09:50:05.000Z</time>
      </trkpt>
      <trkpt lat="43.54072" lon="5.52896">
        <ele>351.20001220703</ele>
        <time>2013-02-19T09:50:06.000Z</time>
      </trkpt>
      <trkpt lat="43.54074" lon="5.52903">
        <ele>351.20001220703</ele>
        <time>2013-02-19T09:50:07.000Z</time>
      </trkpt>
      <trkpt lat="43.54076" lon="5.5291">
        <ele>351.20001220703</ele>
        <time>2013-02-19T09:50:08.000Z</time>
      </trkpt>
      <trkpt lat="43.54079" lon="5.52916">
        <ele>351.39999389648</ele>
        <time>2013-02-19T09:50:09.000Z</time>
      </trkpt>
      <trkpt lat="43.54082" lon="5.52922">
        <ele>351.79998779297</ele>
        <time>2013-02-19T09:50:10.000Z</time>
      </trkpt>
      <trkpt lat="43.54086" lon="5.52929">
        <ele>352</ele>
        <time>2013-02-19T09:50:11.000Z</time>
      </trkpt>
      <trkpt lat="43.54089" lon="5.52935">
        <ele>352.20001220703</ele>
        <time>2013-02-19T09:50:12.000Z</time>
      </trkpt>
      <trkpt lat="43.54092" lon="5.5294">
        <ele>352.60000610352</ele>
        <time>2013-02-19T09:50:13.000Z</time>
      </trkpt>
      <trkpt lat="43.54096" lon="5.52945">
        <ele>352.79998779297</ele>
        <time>2013-02-19T09:50:14.000Z</time>
      </trkpt>
      <trkpt lat="43.54107" lon="5.5296">
        <ele>353.39999389648</ele>
        <time>2013-02-19T09:50:17.000Z</time>
      </trkpt>
      <trkpt lat="43.54111" lon="5.52964">
        <ele>353.79998779297</ele>
        <time>2013-02-19T09:50:18.000Z</time>
      </trkpt>
      <trkpt lat="43.54115" lon="5.52968">
        <ele>354</ele>
        <time>2013-02-19T09:50:19.000Z</time>
      </trkpt>
      <trkpt lat="43.54123" lon="5.52974">
        <ele>354.60000610352</ele>
        <time>2013-02-19T09:50:21.000Z</time>
      </trkpt>
      <trkpt lat="43.54127" lon="5.52978">
        <ele>354.79998779297</ele>
        <time>2013-02-19T09:50:22.000Z</time>
      </trkpt>
      <trkpt lat="43.5413" lon="5.52983">
        <ele>354.79998779297</ele>
        <time>2013-02-19T09:50:23.000Z</time>
      </trkpt>
      <trkpt lat="43.54133" lon="5.52987">
        <ele>354.79998779297</ele>
        <time>2013-02-19T09:50:24.000Z</time>
      </trkpt>
      <trkpt lat="43.54134" lon="5.52993">
        <ele>354.79998779297</ele>
        <time>2013-02-19T09:50:25.000Z</time>
      </trkpt>
      <trkpt lat="43.54134" lon="5.52999">
        <ele>354.60000610352</ele>
        <time>2013-02-19T09:50:26.000Z</time>
      </trkpt>
      <trkpt lat="43.54133" lon="5.53005">
        <ele>354.60000610352</ele>
        <time>2013-02-19T09:50:27.000Z</time>
      </trkpt>
      <trkpt lat="43.54131" lon="5.5301">
        <ele>354.39999389648</ele>
        <time>2013-02-19T09:50:28.000Z</time>
      </trkpt>
      <trkpt lat="43.54128" lon="5.53014">
        <ele>354.20001220703</ele>
        <time>2013-02-19T09:50:29.000Z</time>
      </trkpt>
      <trkpt lat="43.54126" lon="5.53018">
        <ele>354</ele>
        <time>2013-02-19T09:50:30.000Z</time>
      </trkpt>
      <trkpt lat="43.54118" lon="5.53043">
        <ele>353.79998779297</ele>
        <time>2013-02-19T09:50:37.000Z</time>
      </trkpt>
      <trkpt lat="43.54111" lon="5.53061">
        <ele>353.60000610352</ele>
        <time>2013-02-19T09:50:46.000Z</time>
      </trkpt>
      <trkpt lat="43.54109" lon="5.53063">
        <ele>353.60000610352</ele>
        <time>2013-02-19T09:50:47.000Z</time>
      </trkpt>
      <trkpt lat="43.54109" lon="5.53065">
        <ele>353.60000610352</ele>
        <time>2013-02-19T09:50:48.000Z</time>
      </trkpt>
      <trkpt lat="43.54108" lon="5.53068">
        <ele>353.60000610352</ele>
        <time>2013-02-19T09:50:49.000Z</time>
      </trkpt>
      <trkpt lat="43.54107" lon="5.5307">
        <ele>353.60000610352</ele>
        <time>2013-02-19T09:50:50.000Z</time>
      </trkpt>
      <trkpt lat="43.54106" lon="5.53072">
        <ele>353.60000610352</ele>
        <time>2013-02-19T09:50:51.000Z</time>
      </trkpt>
      <trkpt lat="43.54105" lon="5.53074">
        <ele>353.60000610352</ele>
        <time>2013-02-19T09:50:52.000Z</time>
      </trkpt>
      <trkpt lat="43.54103" lon="5.53076">
        <ele>353.60000610352</ele>
        <time>2013-02-19T09:50:53.000Z</time>
      </trkpt>
      <trkpt lat="43.54103" lon="5.53078">
        <ele>353.60000610352</ele>
        <time>2013-02-19T09:50:54.000Z</time>
      </trkpt>
      <trkpt lat="43.54103" lon="5.53081">
        <ele>353.60000610352</ele>
        <time>2013-02-19T09:50:55.000Z</time>
      </trkpt>
      <trkpt lat="43.54103" lon="5.53083">
        <ele>353.60000610352</ele>
        <time>2013-02-19T09:50:56.000Z</time>
      </trkpt>
      <trkpt lat="43.54102" lon="5.53085">
        <ele>353.60000610352</ele>
        <time>2013-02-19T09:50:57.000Z</time>
      </trkpt>
      <trkpt lat="43.54101" lon="5.53087">
        <ele>353.39999389648</ele>
        <time>2013-02-19T09:50:58.000Z</time>
      </trkpt>
      <trkpt lat="43.541" lon="5.5309">
        <ele>353.39999389648</ele>
        <time>2013-02-19T09:50:59.000Z</time>
      </trkpt>
      <trkpt lat="43.54099" lon="5.53093">
        <ele>353.39999389648</ele>
        <time>2013-02-19T09:51:00.000Z</time>
      </trkpt>
      <trkpt lat="43.54099" lon="5.53095">
        <ele>353.20001220703</ele>
        <time>2013-02-19T09:51:01.000Z</time>
      </trkpt>
      <trkpt lat="43.54098" lon="5.53098">
        <ele>353.20001220703</ele>
        <time>2013-02-19T09:51:02.000Z</time>
      </trkpt>
      <trkpt lat="43.54097" lon="5.53101">
        <ele>353</ele>
        <time>2013-02-19T09:51:03.000Z</time>
      </trkpt>
      <trkpt lat="43.54097" lon="5.53104">
        <ele>353</ele>
        <time>2013-02-19T09:51:04.000Z</time>
      </trkpt>
      <trkpt lat="43.54096" lon="5.53107">
        <ele>352.79998779297</ele>
        <time>2013-02-19T09:51:05.000Z</time>
      </trkpt>
      <trkpt lat="43.54097" lon="5.5311">
        <ele>352.79998779297</ele>
        <time>2013-02-19T09:51:06.000Z</time>
      </trkpt>
      <trkpt lat="43.54103" lon="5.53143">
        <ele>352.79998779297</ele>
        <time>2013-02-19T09:51:17.000Z</time>
      </trkpt>
      <trkpt lat="43.54107" lon="5.53169">
        <ele>352.39999389648</ele>
        <time>2013-02-19T09:51:26.000Z</time>
      </trkpt>
      <trkpt lat="43.54105" lon="5.53176">
        <ele>350.60000610352</ele>
        <time>2013-02-19T09:51:28.000Z</time>
      </trkpt>
      <trkpt lat="43.54105" lon="5.5318">
        <ele>349.79998779297</ele>
        <time>2013-02-19T09:51:29.000Z</time>
      </trkpt>
      <trkpt lat="43.54107" lon="5.53184">
        <ele>349.20001220703</ele>
        <time>2013-02-19T09:51:30.000Z</time>
      </trkpt>
      <trkpt lat="43.54128" lon="5.53222">
        <ele>346.79998779297</ele>
        <time>2013-02-19T09:51:42.000Z</time>
      </trkpt>
      <trkpt lat="43.54153" lon="5.53256">
        <ele>351.20001220703</ele>
        <time>2013-02-19T09:51:54.000Z</time>
      </trkpt>
      <trkpt lat="43.54166" lon="5.53286">
        <ele>354.39999389648</ele>
        <time>2013-02-19T09:52:03.000Z</time>
      </trkpt>
      <trkpt lat="43.54166" lon="5.53322">
        <ele>352.20001220703</ele>
        <time>2013-02-19T09:52:14.000Z</time>
      </trkpt>
      <trkpt lat="43.54166" lon="5.53324">
        <ele>352.20001220703</ele>
        <time>2013-02-19T09:52:15.000Z</time>
      </trkpt>
      <trkpt lat="43.54167" lon="5.53326">
        <ele>352.39999389648</ele>
        <time>2013-02-19T09:52:16.000Z</time>
      </trkpt>
      <trkpt lat="43.54168" lon="5.53329">
        <ele>352.39999389648</ele>
        <time>2013-02-19T09:52:17.000Z</time>
      </trkpt>
      <trkpt lat="43.54168" lon="5.53331">
        <ele>352.20001220703</ele>
        <time>2013-02-19T09:52:18.000Z</time>
      </trkpt>
      <trkpt lat="43.54168" lon="5.53333">
        <ele>352.20001220703</ele>
        <time>2013-02-19T09:52:19.000Z</time>
      </trkpt>
      <trkpt lat="43.54168" lon="5.53335">
        <ele>352.20001220703</ele>
        <time>2013-02-19T09:52:20.000Z</time>
      </trkpt>
      <trkpt lat="43.54167" lon="5.53337">
        <ele>352</ele>
        <time>2013-02-19T09:52:21.000Z</time>
      </trkpt>
      <trkpt lat="43.54166" lon="5.53339">
        <ele>351.79998779297</ele>
        <time>2013-02-19T09:52:22.000Z</time>
      </trkpt>
      <trkpt lat="43.54167" lon="5.53341">
        <ele>352.20001220703</ele>
        <time>2013-02-19T09:52:23.000Z</time>
      </trkpt>
      <trkpt lat="43.54168" lon="5.53342">
        <ele>352.39999389648</ele>
        <time>2013-02-19T09:52:24.000Z</time>
      </trkpt>
      <trkpt lat="43.54172" lon="5.53333">
        <ele>353</ele>
        <time>2013-02-19T09:52:30.000Z</time>
      </trkpt>
      <trkpt lat="43.54164" lon="5.53336">
        <ele>350.79998779297</ele>
        <time>2013-02-19T09:52:36.000Z</time>
      </trkpt>
      <trkpt lat="43.54164" lon="5.53355">
        <ele>351.20001220703</ele>
        <time>2013-02-19T09:52:42.000Z</time>
      </trkpt>
      <trkpt lat="43.54164" lon="5.53358">
        <ele>351.39999389648</ele>
        <time>2013-02-19T09:52:43.000Z</time>
      </trkpt>
      <trkpt lat="43.54164" lon="5.53361">
        <ele>351.39999389648</ele>
        <time>2013-02-19T09:52:44.000Z</time>
      </trkpt>
      <trkpt lat="43.54164" lon="5.53365">
        <ele>351.60000610352</ele>
        <time>2013-02-19T09:52:45.000Z</time>
      </trkpt>
      <trkpt lat="43.54163" lon="5.53369">
        <ele>351.60000610352</ele>
        <time>2013-02-19T09:52:46.000Z</time>
      </trkpt>
      <trkpt lat="43.54154" lon="5.53404">
        <ele>348</ele>
        <time>2013-02-19T09:52:54.000Z</time>
      </trkpt>
      <trkpt lat="43.54142" lon="5.53432">
        <ele>342.20001220703</ele>
        <time>2013-02-19T09:53:01.000Z</time>
      </trkpt>
      <trkpt lat="43.54139" lon="5.53466">
        <ele>340</ele>
        <time>2013-02-19T09:53:09.000Z</time>
      </trkpt>
      <trkpt lat="43.5414" lon="5.53477">
        <ele>340.39999389648</ele>
        <time>2013-02-19T09:53:11.000Z</time>
      </trkpt>
      <trkpt lat="43.54149" lon="5.53513">
        <ele>342.20001220703</ele>
        <time>2013-02-19T09:53:16.000Z</time>
      </trkpt>
      <trkpt lat="43.54151" lon="5.53522">
        <ele>342</ele>
        <time>2013-02-19T09:53:17.000Z</time>
      </trkpt>
      <trkpt lat="43.54152" lon="5.53532">
        <ele>341.60000610352</ele>
        <time>2013-02-19T09:53:18.000Z</time>
      </trkpt>
      <trkpt lat="43.54153" lon="5.53542">
        <ele>340.79998779297</ele>
        <time>2013-02-19T09:53:19.000Z</time>
      </trkpt>
      <trkpt lat="43.54153" lon="5.53553">
        <ele>339.79998779297</ele>
        <time>2013-02-19T09:53:20.000Z</time>
      </trkpt>
      <trkpt lat="43.54151" lon="5.53564">
        <ele>338</ele>
        <time>2013-02-19T09:53:21.000Z</time>
      </trkpt>
      <trkpt lat="43.54147" lon="5.53574">
        <ele>335.60000610352</ele>
        <time>2013-02-19T09:53:22.000Z</time>
      </trkpt>
      <trkpt lat="43.54142" lon="5.53584">
        <ele>333.20001220703</ele>
        <time>2013-02-19T09:53:23.000Z</time>
      </trkpt>
      <trkpt lat="43.54136" lon="5.53592">
        <ele>330.79998779297</ele>
        <time>2013-02-19T09:53:24.000Z</time>
      </trkpt>
      <trkpt lat="43.5413" lon="5.536">
        <ele>328.79998779297</ele>
        <time>2013-02-19T09:53:25.000Z</time>
      </trkpt>
      <trkpt lat="43.54098" lon="5.53633">
        <ele>320.39999389648</ele>
        <time>2013-02-19T09:53:31.000Z</time>
      </trkpt>
      <trkpt lat="43.54093" lon="5.53636">
        <ele>319.39999389648</ele>
        <time>2013-02-19T09:53:32.000Z</time>
      </trkpt>
      <trkpt lat="43.54074" lon="5.53646">
        <ele>318.60000610352</ele>
        <time>2013-02-19T09:53:36.000Z</time>
      </trkpt>
      <trkpt lat="43.54069" lon="5.53647">
        <ele>319.20001220703</ele>
        <time>2013-02-19T09:53:37.000Z</time>
      </trkpt>
      <trkpt lat="43.54065" lon="5.53649">
        <ele>319.60000610352</ele>
        <time>2013-02-19T09:53:38.000Z</time>
      </trkpt>
      <trkpt lat="43.54035" lon="5.53653">
        <ele>323</ele>
        <time>2013-02-19T09:53:46.000Z</time>
      </trkpt>
      <trkpt lat="43.54006" lon="5.53649">
        <ele>325</ele>
        <time>2013-02-19T09:53:53.000Z</time>
      </trkpt>
      <trkpt lat="43.53986" lon="5.53642">
        <ele>329.39999389648</ele>
        <time>2013-02-19T09:53:58.000Z</time>
      </trkpt>
      <trkpt lat="43.53951" lon="5.53614">
        <ele>339.39999389648</ele>
        <time>2013-02-19T09:54:08.000Z</time>
      </trkpt>
      <trkpt lat="43.53925" lon="5.53586">
        <ele>347.20001220703</ele>
        <time>2013-02-19T09:54:18.000Z</time>
      </trkpt>
      <trkpt lat="43.53923" lon="5.53577">
        <ele>347.39999389648</ele>
        <time>2013-02-19T09:54:27.000Z</time>
      </trkpt>
      <trkpt lat="43.53924" lon="5.53576">
        <ele>347</ele>
        <time>2013-02-19T09:54:43.000Z</time>
      </trkpt>
      <trkpt lat="43.53925" lon="5.53576">
        <ele>346.60000610352</ele>
        <time>2013-02-19T09:54:44.000Z</time>
      </trkpt>
      <trkpt lat="43.53928" lon="5.5358">
        <ele>345.60000610352</ele>
        <time>2013-02-19T09:54:46.000Z</time>
      </trkpt>
      <trkpt lat="43.53929" lon="5.53583">
        <ele>345</ele>
        <time>2013-02-19T09:54:47.000Z</time>
      </trkpt>
      <trkpt lat="43.53931" lon="5.53587">
        <ele>344.60000610352</ele>
        <time>2013-02-19T09:54:48.000Z</time>
      </trkpt>
      <trkpt lat="43.53934" lon="5.53591">
        <ele>343.79998779297</ele>
        <time>2013-02-19T09:54:49.000Z</time>
      </trkpt>
      <trkpt lat="43.53937" lon="5.53596">
        <ele>343.20001220703</ele>
        <time>2013-02-19T09:54:50.000Z</time>
      </trkpt>
      <trkpt lat="43.5394" lon="5.53601">
        <ele>342.39999389648</ele>
        <time>2013-02-19T09:54:51.000Z</time>
      </trkpt>
      <trkpt lat="43.53944" lon="5.53606">
        <ele>341.20001220703</ele>
        <time>2013-02-19T09:54:52.000Z</time>
      </trkpt>
      <trkpt lat="43.53949" lon="5.5361">
        <ele>339.79998779297</ele>
        <time>2013-02-19T09:54:53.000Z</time>
      </trkpt>
      <trkpt lat="43.53969" lon="5.53626">
        <ele>333.60000610352</ele>
        <time>2013-02-19T09:54:58.000Z</time>
      </trkpt>
      <trkpt lat="43.53992" lon="5.53641">
        <ele>327.20001220703</ele>
        <time>2013-02-19T09:55:05.000Z</time>
      </trkpt>
      <trkpt lat="43.53987" lon="5.53641">
        <ele>328.79998779297</ele>
        <time>2013-02-19T09:55:10.000Z</time>
      </trkpt>
      <trkpt lat="43.53986" lon="5.5364">
        <ele>329</ele>
        <time>2013-02-19T09:55:25.000Z</time>
      </trkpt>
      <trkpt lat="43.53986" lon="5.5364">
        <ele>329.20001220703</ele>
        <time>2013-02-19T09:55:41.000Z</time>
      </trkpt>
      <trkpt lat="43.53986" lon="5.53639">
        <ele>329</ele>
        <time>2013-02-19T09:55:43.000Z</time>
      </trkpt>
      <trkpt lat="43.53986" lon="5.53636">
        <ele>328.60000610352</ele>
        <time>2013-02-19T09:55:54.000Z</time>
      </trkpt>
      <trkpt lat="43.53985" lon="5.53636">
        <ele>328.79998779297</ele>
        <time>2013-02-19T09:55:55.000Z</time>
      </trkpt>
      <trkpt lat="43.53979" lon="5.53635">
        <ele>331.20001220703</ele>
        <time>2013-02-19T09:55:59.000Z</time>
      </trkpt>
      <trkpt lat="43.53977" lon="5.53634">
        <ele>331.79998779297</ele>
        <time>2013-02-19T09:56:00.000Z</time>
      </trkpt>
      <trkpt lat="43.53955" lon="5.53617">
        <ele>338</ele>
        <time>2013-02-19T09:56:12.000Z</time>
      </trkpt>
      <trkpt lat="43.53948" lon="5.53613">
        <ele>340.20001220703</ele>
        <time>2013-02-19T09:56:15.000Z</time>
      </trkpt>
      <trkpt lat="43.53946" lon="5.53611">
        <ele>340.79998779297</ele>
        <time>2013-02-19T09:56:16.000Z</time>
      </trkpt>
      <trkpt lat="43.53926" lon="5.53586">
        <ele>347.20001220703</ele>
        <time>2013-02-19T09:56:26.000Z</time>
      </trkpt>
      <trkpt lat="43.5392" lon="5.53574">
        <ele>348.60000610352</ele>
        <time>2013-02-19T09:56:30.000Z</time>
      </trkpt>
      <trkpt lat="43.53917" lon="5.53571">
        <ele>349.39999389648</ele>
        <time>2013-02-19T09:56:31.000Z</time>
      </trkpt>
      <trkpt lat="43.53915" lon="5.53568">
        <ele>349.79998779297</ele>
        <time>2013-02-19T09:56:32.000Z</time>
      </trkpt>
      <trkpt lat="43.53912" lon="5.53565">
        <ele>350</ele>
        <time>2013-02-19T09:56:33.000Z</time>
      </trkpt>
      <trkpt lat="43.53908" lon="5.53563">
        <ele>350.39999389648</ele>
        <time>2013-02-19T09:56:34.000Z</time>
      </trkpt>
      <trkpt lat="43.53905" lon="5.53561">
        <ele>351</ele>
        <time>2013-02-19T09:56:35.000Z</time>
      </trkpt>
      <trkpt lat="43.53902" lon="5.5356">
        <ele>351.60000610352</ele>
        <time>2013-02-19T09:56:36.000Z</time>
      </trkpt>
      <trkpt lat="43.53898" lon="5.5356">
        <ele>352.20001220703</ele>
        <time>2013-02-19T09:56:37.000Z</time>
      </trkpt>
      <trkpt lat="43.53896" lon="5.53562">
        <ele>352.79998779297</ele>
        <time>2013-02-19T09:56:38.000Z</time>
      </trkpt>
      <trkpt lat="43.53893" lon="5.53563">
        <ele>353.39999389648</ele>
        <time>2013-02-19T09:56:39.000Z</time>
      </trkpt>
      <trkpt lat="43.53867" lon="5.53581">
        <ele>359.79998779297</ele>
        <time>2013-02-19T09:56:50.000Z</time>
      </trkpt>
      <trkpt lat="43.53844" lon="5.53589">
        <ele>364.39999389648</ele>
        <time>2013-02-19T09:57:00.000Z</time>
      </trkpt>
      <trkpt lat="43.5382" lon="5.53572">
        <ele>366.20001220703</ele>
        <time>2013-02-19T09:57:10.000Z</time>
      </trkpt>
      <trkpt lat="43.53793" lon="5.53547">
        <ele>366.39999389648</ele>
        <time>2013-02-19T09:57:22.000Z</time>
      </trkpt>
      <trkpt lat="43.53762" lon="5.5352">
        <ele>366.60000610352</ele>
        <time>2013-02-19T09:57:34.000Z</time>
      </trkpt>
      <trkpt lat="43.53731" lon="5.53521">
        <ele>367.79998779297</ele>
        <time>2013-02-19T09:57:43.000Z</time>
      </trkpt>
      <trkpt lat="43.53703" lon="5.5354">
        <ele>369.60000610352</ele>
        <time>2013-02-19T09:57:52.000Z</time>
      </trkpt>
      <trkpt lat="43.53676" lon="5.53568">
        <ele>371.79998779297</ele>
        <time>2013-02-19T09:58:03.000Z</time>
      </trkpt>
      <trkpt lat="43.53675" lon="5.53571">
        <ele>372</ele>
        <time>2013-02-19T09:58:14.000Z</time>
      </trkpt>
      <trkpt lat="43.5367" lon="5.53576">
        <ele>372.39999389648</ele>
        <time>2013-02-19T09:58:25.000Z</time>
      </trkpt>
      <trkpt lat="43.53643" lon="5.53596">
        <ele>372.79998779297</ele>
        <time>2013-02-19T09:58:37.000Z</time>
      </trkpt>
      <trkpt lat="43.53611" lon="5.53624">
        <ele>372.79998779297</ele>
        <time>2013-02-19T09:58:50.000Z</time>
      </trkpt>
      <trkpt lat="43.53582" lon="5.53647">
        <ele>372.60000610352</ele>
        <time>2013-02-19T09:59:02.000Z</time>
      </trkpt>
      <trkpt lat="43.53555" lon="5.53665">
        <ele>372.20001220703</ele>
        <time>2013-02-19T09:59:11.000Z</time>
      </trkpt>
      <trkpt lat="43.53536" lon="5.537">
        <ele>371.60000610352</ele>
        <time>2013-02-19T09:59:20.000Z</time>
      </trkpt>
      <trkpt lat="43.53508" lon="5.53748">
        <ele>370.20001220703</ele>
        <time>2013-02-19T09:59:32.000Z</time>
      </trkpt>
      <trkpt lat="43.53506" lon="5.53753">
        <ele>370.20001220703</ele>
        <time>2013-02-19T09:59:33.000Z</time>
      </trkpt>
      <trkpt lat="43.53499" lon="5.5377">
        <ele>370</ele>
        <time>2013-02-19T09:59:36.000Z</time>
      </trkpt>
      <trkpt lat="43.53497" lon="5.53776">
        <ele>369.79998779297</ele>
        <time>2013-02-19T09:59:37.000Z</time>
      </trkpt>
      <trkpt lat="43.53494" lon="5.53782">
        <ele>369.39999389648</ele>
        <time>2013-02-19T09:59:38.000Z</time>
      </trkpt>
      <trkpt lat="43.53492" lon="5.53789">
        <ele>369.20001220703</ele>
        <time>2013-02-19T09:59:39.000Z</time>
      </trkpt>
      <trkpt lat="43.53491" lon="5.53796">
        <ele>369.20001220703</ele>
        <time>2013-02-19T09:59:40.000Z</time>
      </trkpt>
      <trkpt lat="43.5349" lon="5.53803">
        <ele>369.20001220703</ele>
        <time>2013-02-19T09:59:41.000Z</time>
      </trkpt>
      <trkpt lat="43.53489" lon="5.5381">
        <ele>369.20001220703</ele>
        <time>2013-02-19T09:59:42.000Z</time>
      </trkpt>
      <trkpt lat="43.53487" lon="5.5385">
        <ele>370.20001220703</ele>
        <time>2013-02-19T09:59:50.000Z</time>
      </trkpt>
      <trkpt lat="43.53484" lon="5.53902">
        <ele>372.39999389648</ele>
        <time>2013-02-19T10:00:00.000Z</time>
      </trkpt>
      <trkpt lat="43.53482" lon="5.5395">
        <ele>376.20001220703</ele>
        <time>2013-02-19T10:00:10.000Z</time>
      </trkpt>
      <trkpt lat="43.53466" lon="5.53983">
        <ele>377.20001220703</ele>
        <time>2013-02-19T10:00:19.000Z</time>
      </trkpt>
      <trkpt lat="43.53443" lon="5.54019">
        <ele>376.79998779297</ele>
        <time>2013-02-19T10:00:29.000Z</time>
      </trkpt>
      <trkpt lat="43.53432" lon="5.54057">
        <ele>378.60000610352</ele>
        <time>2013-02-19T10:00:37.000Z</time>
      </trkpt>
      <trkpt lat="43.53421" lon="5.54076">
        <ele>378.79998779297</ele>
        <time>2013-02-19T10:00:41.000Z</time>
      </trkpt>
      <trkpt lat="43.53417" lon="5.54079">
        <ele>378.60000610352</ele>
        <time>2013-02-19T10:00:42.000Z</time>
      </trkpt>
      <trkpt lat="43.53413" lon="5.54083">
        <ele>377.60000610352</ele>
        <time>2013-02-19T10:00:43.000Z</time>
      </trkpt>
      <trkpt lat="43.53408" lon="5.54085">
        <ele>376.60000610352</ele>
        <time>2013-02-19T10:00:44.000Z</time>
      </trkpt>
      <trkpt lat="43.53402" lon="5.54088">
        <ele>375.20001220703</ele>
        <time>2013-02-19T10:00:45.000Z</time>
      </trkpt>
      <trkpt lat="43.53396" lon="5.54089">
        <ele>373.79998779297</ele>
        <time>2013-02-19T10:00:46.000Z</time>
      </trkpt>
      <trkpt lat="43.5339" lon="5.54091">
        <ele>372.20001220703</ele>
        <time>2013-02-19T10:00:47.000Z</time>
      </trkpt>
      <trkpt lat="43.53384" lon="5.54093">
        <ele>370.60000610352</ele>
        <time>2013-02-19T10:00:48.000Z</time>
      </trkpt>
      <trkpt lat="43.53371" lon="5.54095">
        <ele>367.20001220703</ele>
        <time>2013-02-19T10:00:50.000Z</time>
      </trkpt>
      <trkpt lat="43.53366" lon="5.54097">
        <ele>366</ele>
        <time>2013-02-19T10:00:51.000Z</time>
      </trkpt>
      <trkpt lat="43.53361" lon="5.54101">
        <ele>365.20001220703</ele>
        <time>2013-02-19T10:00:52.000Z</time>
      </trkpt>
      <trkpt lat="43.53358" lon="5.54106">
        <ele>364.60000610352</ele>
        <time>2013-02-19T10:00:53.000Z</time>
      </trkpt>
      <trkpt lat="43.53355" lon="5.54111">
        <ele>364.20001220703</ele>
        <time>2013-02-19T10:00:54.000Z</time>
      </trkpt>
      <trkpt lat="43.53352" lon="5.54117">
        <ele>363.79998779297</ele>
        <time>2013-02-19T10:00:55.000Z</time>
      </trkpt>
      <trkpt lat="43.53349" lon="5.54123">
        <ele>363.60000610352</ele>
        <time>2013-02-19T10:00:56.000Z</time>
      </trkpt>
      <trkpt lat="43.53347" lon="5.54131">
        <ele>363.60000610352</ele>
        <time>2013-02-19T10:00:57.000Z</time>
      </trkpt>
      <trkpt lat="43.53346" lon="5.5414">
        <ele>364.20001220703</ele>
        <time>2013-02-19T10:00:58.000Z</time>
      </trkpt>
      <trkpt lat="43.53347" lon="5.5415">
        <ele>365.20001220703</ele>
        <time>2013-02-19T10:00:59.000Z</time>
      </trkpt>
      <trkpt lat="43.53348" lon="5.54161">
        <ele>366.39999389648</ele>
        <time>2013-02-19T10:01:00.000Z</time>
      </trkpt>
      <trkpt lat="43.5335" lon="5.5417">
        <ele>367.60000610352</ele>
        <time>2013-02-19T10:01:01.000Z</time>
      </trkpt>
      <trkpt lat="43.53352" lon="5.54179">
        <ele>368.60000610352</ele>
        <time>2013-02-19T10:01:02.000Z</time>
      </trkpt>
      <trkpt lat="43.53352" lon="5.54187">
        <ele>369.20001220703</ele>
        <time>2013-02-19T10:01:03.000Z</time>
      </trkpt>
      <trkpt lat="43.53351" lon="5.54194">
        <ele>369.20001220703</ele>
        <time>2013-02-19T10:01:04.000Z</time>
      </trkpt>
      <trkpt lat="43.53347" lon="5.54201">
        <ele>368.60000610352</ele>
        <time>2013-02-19T10:01:05.000Z</time>
      </trkpt>
      <trkpt lat="43.53342" lon="5.54207">
        <ele>367.60000610352</ele>
        <time>2013-02-19T10:01:06.000Z</time>
      </trkpt>
      <trkpt lat="43.53335" lon="5.5421">
        <ele>366</ele>
        <time>2013-02-19T10:01:07.000Z</time>
      </trkpt>
      <trkpt lat="43.53329" lon="5.54213">
        <ele>365.20001220703</ele>
        <time>2013-02-19T10:01:08.000Z</time>
      </trkpt>
      <trkpt lat="43.53324" lon="5.54217">
        <ele>364.79998779297</ele>
        <time>2013-02-19T10:01:09.000Z</time>
      </trkpt>
      <trkpt lat="43.5332" lon="5.54222">
        <ele>364.60000610352</ele>
        <time>2013-02-19T10:01:10.000Z</time>
      </trkpt>
      <trkpt lat="43.53316" lon="5.54228">
        <ele>364.39999389648</ele>
        <time>2013-02-19T10:01:11.000Z</time>
      </trkpt>
      <trkpt lat="43.53308" lon="5.5424">
        <ele>363.79998779297</ele>
        <time>2013-02-19T10:01:13.000Z</time>
      </trkpt>
      <trkpt lat="43.53306" lon="5.54246">
        <ele>363.79998779297</ele>
        <time>2013-02-19T10:01:14.000Z</time>
      </trkpt>
      <trkpt lat="43.53304" lon="5.54251">
        <ele>363.60000610352</ele>
        <time>2013-02-19T10:01:15.000Z</time>
      </trkpt>
      <trkpt lat="43.533" lon="5.54255">
        <ele>362.79998779297</ele>
        <time>2013-02-19T10:01:16.000Z</time>
      </trkpt>
      <trkpt lat="43.53296" lon="5.5426">
        <ele>362</ele>
        <time>2013-02-19T10:01:17.000Z</time>
      </trkpt>
      <trkpt lat="43.53289" lon="5.54271">
        <ele>360.20001220703</ele>
        <time>2013-02-19T10:01:19.000Z</time>
      </trkpt>
      <trkpt lat="43.53287" lon="5.54277">
        <ele>359.60000610352</ele>
        <time>2013-02-19T10:01:20.000Z</time>
      </trkpt>
      <trkpt lat="43.53283" lon="5.54304">
        <ele>357</ele>
        <time>2013-02-19T10:01:26.000Z</time>
      </trkpt>
      <trkpt lat="43.53282" lon="5.54308">
        <ele>356.79998779297</ele>
        <time>2013-02-19T10:01:28.000Z</time>
      </trkpt>
      <trkpt lat="43.53278" lon="5.54324">
        <ele>355</ele>
        <time>2013-02-19T10:01:35.000Z</time>
      </trkpt>
      <trkpt lat="43.53274" lon="5.54341">
        <ele>353.39999389648</ele>
        <time>2013-02-19T10:01:40.000Z</time>
      </trkpt>
      <trkpt lat="43.53271" lon="5.54348">
        <ele>352.79998779297</ele>
        <time>2013-02-19T10:01:41.000Z</time>
      </trkpt>
      <trkpt lat="43.53268" lon="5.54354">
        <ele>352</ele>
        <time>2013-02-19T10:01:42.000Z</time>
      </trkpt>
      <trkpt lat="43.53264" lon="5.54361">
        <ele>351</ele>
        <time>2013-02-19T10:01:43.000Z</time>
      </trkpt>
      <trkpt lat="43.53259" lon="5.54368">
        <ele>349.79998779297</ele>
        <time>2013-02-19T10:01:44.000Z</time>
      </trkpt>
      <trkpt lat="43.53253" lon="5.54374">
        <ele>348.60000610352</ele>
        <time>2013-02-19T10:01:45.000Z</time>
      </trkpt>
      <trkpt lat="43.53242" lon="5.54387">
        <ele>347.60000610352</ele>
        <time>2013-02-19T10:01:47.000Z</time>
      </trkpt>
      <trkpt lat="43.53229" lon="5.54399">
        <ele>347</ele>
        <time>2013-02-19T10:01:49.000Z</time>
      </trkpt>
      <trkpt lat="43.53225" lon="5.54406">
        <ele>346.79998779297</ele>
        <time>2013-02-19T10:01:50.000Z</time>
      </trkpt>
      <trkpt lat="43.53216" lon="5.5442">
        <ele>346</ele>
        <time>2013-02-19T10:01:52.000Z</time>
      </trkpt>
      <trkpt lat="43.53213" lon="5.54424">
        <ele>345.79998779297</ele>
        <time>2013-02-19T10:01:53.000Z</time>
      </trkpt>
      <trkpt lat="43.53209" lon="5.54427">
        <ele>345.60000610352</ele>
        <time>2013-02-19T10:01:54.000Z</time>
      </trkpt>
      <trkpt lat="43.53201" lon="5.54432">
        <ele>345.20001220703</ele>
        <time>2013-02-19T10:01:56.000Z</time>
      </trkpt>
      <trkpt lat="43.53196" lon="5.54436">
        <ele>345</ele>
        <time>2013-02-19T10:01:57.000Z</time>
      </trkpt>
      <trkpt lat="43.53177" lon="5.54456">
        <ele>343.79998779297</ele>
        <time>2013-02-19T10:02:01.000Z</time>
      </trkpt>
      <trkpt lat="43.53175" lon="5.54463">
        <ele>343.39999389648</ele>
        <time>2013-02-19T10:02:02.000Z</time>
      </trkpt>
      <trkpt lat="43.53173" lon="5.5447">
        <ele>343.20001220703</ele>
        <time>2013-02-19T10:02:03.000Z</time>
      </trkpt>
      <trkpt lat="43.53173" lon="5.54478">
        <ele>342.79998779297</ele>
        <time>2013-02-19T10:02:04.000Z</time>
      </trkpt>
      <trkpt lat="43.53173" lon="5.54487">
        <ele>342.60000610352</ele>
        <time>2013-02-19T10:02:05.000Z</time>
      </trkpt>
      <trkpt lat="43.53174" lon="5.54494">
        <ele>342.39999389648</ele>
        <time>2013-02-19T10:02:06.000Z</time>
      </trkpt>
      <trkpt lat="43.53175" lon="5.54501">
        <ele>342.20001220703</ele>
        <time>2013-02-19T10:02:07.000Z</time>
      </trkpt>
      <trkpt lat="43.53175" lon="5.54509">
        <ele>341.79998779297</ele>
        <time>2013-02-19T10:02:08.000Z</time>
      </trkpt>
      <trkpt lat="43.53176" lon="5.54516">
        <ele>341.60000610352</ele>
        <time>2013-02-19T10:02:09.000Z</time>
      </trkpt>
      <trkpt lat="43.53178" lon="5.54523">
        <ele>341.20001220703</ele>
        <time>2013-02-19T10:02:10.000Z</time>
      </trkpt>
      <trkpt lat="43.5318" lon="5.54531">
        <ele>340.79998779297</ele>
        <time>2013-02-19T10:02:11.000Z</time>
      </trkpt>
      <trkpt lat="43.53182" lon="5.5454">
        <ele>340.39999389648</ele>
        <time>2013-02-19T10:02:12.000Z</time>
      </trkpt>
      <trkpt lat="43.53182" lon="5.54549">
        <ele>340</ele>
        <time>2013-02-19T10:02:13.000Z</time>
      </trkpt>
      <trkpt lat="43.53182" lon="5.54559">
        <ele>339.39999389648</ele>
        <time>2013-02-19T10:02:14.000Z</time>
      </trkpt>
      <trkpt lat="43.53184" lon="5.54597">
        <ele>336</ele>
        <time>2013-02-19T10:02:18.000Z</time>
      </trkpt>
      <trkpt lat="43.53188" lon="5.54623">
        <ele>332.20001220703</ele>
        <time>2013-02-19T10:02:21.000Z</time>
      </trkpt>
      <trkpt lat="43.53189" lon="5.54631">
        <ele>330.79998779297</ele>
        <time>2013-02-19T10:02:22.000Z</time>
      </trkpt>
      <trkpt lat="43.5319" lon="5.54641">
        <ele>329.39999389648</ele>
        <time>2013-02-19T10:02:23.000Z</time>
      </trkpt>
      <trkpt lat="43.5319" lon="5.54651">
        <ele>328</ele>
        <time>2013-02-19T10:02:24.000Z</time>
      </trkpt>
      <trkpt lat="43.5319" lon="5.54662">
        <ele>326.39999389648</ele>
        <time>2013-02-19T10:02:25.000Z</time>
      </trkpt>
      <trkpt lat="43.53189" lon="5.54673">
        <ele>325</ele>
        <time>2013-02-19T10:02:26.000Z</time>
      </trkpt>
      <trkpt lat="43.53189" lon="5.54683">
        <ele>323.60000610352</ele>
        <time>2013-02-19T10:02:27.000Z</time>
      </trkpt>
      <trkpt lat="43.53189" lon="5.54694">
        <ele>322.20001220703</ele>
        <time>2013-02-19T10:02:28.000Z</time>
      </trkpt>
      <trkpt lat="43.53192" lon="5.54705">
        <ele>320.60000610352</ele>
        <time>2013-02-19T10:02:29.000Z</time>
      </trkpt>
      <trkpt lat="43.53195" lon="5.54715">
        <ele>319</ele>
        <time>2013-02-19T10:02:30.000Z</time>
      </trkpt>
      <trkpt lat="43.53198" lon="5.54724">
        <ele>317.60000610352</ele>
        <time>2013-02-19T10:02:31.000Z</time>
      </trkpt>
      <trkpt lat="43.53202" lon="5.54731">
        <ele>316.60000610352</ele>
        <time>2013-02-19T10:02:32.000Z</time>
      </trkpt>
      <trkpt lat="43.53204" lon="5.54739">
        <ele>315.39999389648</ele>
        <time>2013-02-19T10:02:33.000Z</time>
      </trkpt>
      <trkpt lat="43.53209" lon="5.54758">
        <ele>312.79998779297</ele>
        <time>2013-02-19T10:02:36.000Z</time>
      </trkpt>
      <trkpt lat="43.53209" lon="5.54764">
        <ele>312</ele>
        <time>2013-02-19T10:02:37.000Z</time>
      </trkpt>
      <trkpt lat="43.53208" lon="5.5477">
        <ele>311.20001220703</ele>
        <time>2013-02-19T10:02:38.000Z</time>
      </trkpt>
      <trkpt lat="43.53206" lon="5.54776">
        <ele>310.20001220703</ele>
        <time>2013-02-19T10:02:39.000Z</time>
      </trkpt>
      <trkpt lat="43.53203" lon="5.54783">
        <ele>309.20001220703</ele>
        <time>2013-02-19T10:02:40.000Z</time>
      </trkpt>
      <trkpt lat="43.532" lon="5.5479">
        <ele>308.20001220703</ele>
        <time>2013-02-19T10:02:41.000Z</time>
      </trkpt>
      <trkpt lat="43.53197" lon="5.54796">
        <ele>307</ele>
        <time>2013-02-19T10:02:42.000Z</time>
      </trkpt>
      <trkpt lat="43.53192" lon="5.548">
        <ele>306</ele>
        <time>2013-02-19T10:02:43.000Z</time>
      </trkpt>
      <trkpt lat="43.53187" lon="5.54803">
        <ele>305.39999389648</ele>
        <time>2013-02-19T10:02:44.000Z</time>
      </trkpt>
      <trkpt lat="43.53181" lon="5.54804">
        <ele>304.79998779297</ele>
        <time>2013-02-19T10:02:45.000Z</time>
      </trkpt>
      <trkpt lat="43.53174" lon="5.54804">
        <ele>304.20001220703</ele>
        <time>2013-02-19T10:02:46.000Z</time>
      </trkpt>
      <trkpt lat="43.53168" lon="5.54803">
        <ele>304</ele>
        <time>2013-02-19T10:02:47.000Z</time>
      </trkpt>
      <trkpt lat="43.53161" lon="5.54802">
        <ele>304</ele>
        <time>2013-02-19T10:02:48.000Z</time>
      </trkpt>
      <trkpt lat="43.53154" lon="5.54801">
        <ele>303.79998779297</ele>
        <time>2013-02-19T10:02:49.000Z</time>
      </trkpt>
      <trkpt lat="43.53147" lon="5.54803">
        <ele>303.20001220703</ele>
        <time>2013-02-19T10:02:50.000Z</time>
      </trkpt>
      <trkpt lat="43.5314" lon="5.54806">
        <ele>302.20001220703</ele>
        <time>2013-02-19T10:02:51.000Z</time>
      </trkpt>
      <trkpt lat="43.53132" lon="5.54809">
        <ele>300.79998779297</ele>
        <time>2013-02-19T10:02:52.000Z</time>
      </trkpt>
      <trkpt lat="43.53123" lon="5.54812">
        <ele>299.79998779297</ele>
        <time>2013-02-19T10:02:53.000Z</time>
      </trkpt>
      <trkpt lat="43.53106" lon="5.54819">
        <ele>297.20001220703</ele>
        <time>2013-02-19T10:02:55.000Z</time>
      </trkpt>
      <trkpt lat="43.53092" lon="5.54824">
        <ele>294.79998779297</ele>
        <time>2013-02-19T10:02:57.000Z</time>
      </trkpt>
      <trkpt lat="43.53071" lon="5.54828">
        <ele>291.79998779297</ele>
        <time>2013-02-19T10:03:00.000Z</time>
      </trkpt>
      <trkpt lat="43.53066" lon="5.54832">
        <ele>290.39999389648</ele>
        <time>2013-02-19T10:03:01.000Z</time>
      </trkpt>
      <trkpt lat="43.53062" lon="5.54837">
        <ele>289.60000610352</ele>
        <time>2013-02-19T10:03:02.000Z</time>
      </trkpt>
      <trkpt lat="43.53058" lon="5.54844">
        <ele>289</ele>
        <time>2013-02-19T10:03:03.000Z</time>
      </trkpt>
      <trkpt lat="43.53054" lon="5.54852">
        <ele>288.60000610352</ele>
        <time>2013-02-19T10:03:04.000Z</time>
      </trkpt>
      <trkpt lat="43.53043" lon="5.54868">
        <ele>287.20001220703</ele>
        <time>2013-02-19T10:03:06.000Z</time>
      </trkpt>
      <trkpt lat="43.53037" lon="5.54874">
        <ele>286.39999389648</ele>
        <time>2013-02-19T10:03:07.000Z</time>
      </trkpt>
      <trkpt lat="43.53033" lon="5.54879">
        <ele>285.79998779297</ele>
        <time>2013-02-19T10:03:08.000Z</time>
      </trkpt>
      <trkpt lat="43.53029" lon="5.54883">
        <ele>285.20001220703</ele>
        <time>2013-02-19T10:03:09.000Z</time>
      </trkpt>
      <trkpt lat="43.53024" lon="5.54888">
        <ele>284.60000610352</ele>
        <time>2013-02-19T10:03:10.000Z</time>
      </trkpt>
      <trkpt lat="43.53019" lon="5.54891">
        <ele>283.79998779297</ele>
        <time>2013-02-19T10:03:11.000Z</time>
      </trkpt>
      <trkpt lat="43.53015" lon="5.54895">
        <ele>283.39999389648</ele>
        <time>2013-02-19T10:03:12.000Z</time>
      </trkpt>
      <trkpt lat="43.53012" lon="5.54899">
        <ele>283</ele>
        <time>2013-02-19T10:03:13.000Z</time>
      </trkpt>
      <trkpt lat="43.53011" lon="5.54904">
        <ele>282.60000610352</ele>
        <time>2013-02-19T10:03:14.000Z</time>
      </trkpt>
      <trkpt lat="43.5301" lon="5.5491">
        <ele>282.39999389648</ele>
        <time>2013-02-19T10:03:15.000Z</time>
      </trkpt>
      <trkpt lat="43.5301" lon="5.54916">
        <ele>282.20001220703</ele>
        <time>2013-02-19T10:03:16.000Z</time>
      </trkpt>
      <trkpt lat="43.53009" lon="5.54921">
        <ele>281.79998779297</ele>
        <time>2013-02-19T10:03:17.000Z</time>
      </trkpt>
      <trkpt lat="43.53007" lon="5.54925">
        <ele>281.39999389648</ele>
        <time>2013-02-19T10:03:18.000Z</time>
      </trkpt>
      <trkpt lat="43.53005" lon="5.5493">
        <ele>281</ele>
        <time>2013-02-19T10:03:19.000Z</time>
      </trkpt>
      <trkpt lat="43.53003" lon="5.54935">
        <ele>280.39999389648</ele>
        <time>2013-02-19T10:03:20.000Z</time>
      </trkpt>
      <trkpt lat="43.53" lon="5.54938">
        <ele>279.79998779297</ele>
        <time>2013-02-19T10:03:21.000Z</time>
      </trkpt>
      <trkpt lat="43.52997" lon="5.54941">
        <ele>279.39999389648</ele>
        <time>2013-02-19T10:03:22.000Z</time>
      </trkpt>
      <trkpt lat="43.52994" lon="5.54945">
        <ele>279</ele>
        <time>2013-02-19T10:03:23.000Z</time>
      </trkpt>
      <trkpt lat="43.5299" lon="5.54946">
        <ele>278.79998779297</ele>
        <time>2013-02-19T10:03:24.000Z</time>
      </trkpt>
      <trkpt lat="43.52986" lon="5.54946">
        <ele>278.39999389648</ele>
        <time>2013-02-19T10:03:25.000Z</time>
      </trkpt>
      <trkpt lat="43.52982" lon="5.54945">
        <ele>278</ele>
        <time>2013-02-19T10:03:26.000Z</time>
      </trkpt>
      <trkpt lat="43.52978" lon="5.54944">
        <ele>277.79998779297</ele>
        <time>2013-02-19T10:03:27.000Z</time>
      </trkpt>
      <trkpt lat="43.52974" lon="5.54943">
        <ele>277.60000610352</ele>
        <time>2013-02-19T10:03:28.000Z</time>
      </trkpt>
      <trkpt lat="43.52969" lon="5.54943">
        <ele>277.20001220703</ele>
        <time>2013-02-19T10:03:29.000Z</time>
      </trkpt>
      <trkpt lat="43.52965" lon="5.54944">
        <ele>276.79998779297</ele>
        <time>2013-02-19T10:03:30.000Z</time>
      </trkpt>
      <trkpt lat="43.52961" lon="5.54945">
        <ele>276.39999389648</ele>
        <time>2013-02-19T10:03:36.000Z</time>
      </trkpt>
      <trkpt lat="43.52949" lon="5.54953">
        <ele>275.39999389648</ele>
        <time>2013-02-19T10:03:46.000Z</time>
      </trkpt>
      <trkpt lat="43.52942" lon="5.54959">
        <ele>275</ele>
        <time>2013-02-19T10:03:48.000Z</time>
      </trkpt>
      <trkpt lat="43.52938" lon="5.54961">
        <ele>274.79998779297</ele>
        <time>2013-02-19T10:03:49.000Z</time>
      </trkpt>
      <trkpt lat="43.52933" lon="5.54961">
        <ele>274.60000610352</ele>
        <time>2013-02-19T10:03:50.000Z</time>
      </trkpt>
      <trkpt lat="43.52929" lon="5.54959">
        <ele>274.20001220703</ele>
        <time>2013-02-19T10:03:51.000Z</time>
      </trkpt>
      <trkpt lat="43.52927" lon="5.54954">
        <ele>274</ele>
        <time>2013-02-19T10:03:52.000Z</time>
      </trkpt>
      <trkpt lat="43.52924" lon="5.54948">
        <ele>273.60000610352</ele>
        <time>2013-02-19T10:03:53.000Z</time>
      </trkpt>
      <trkpt lat="43.52921" lon="5.54944">
        <ele>273.20001220703</ele>
        <time>2013-02-19T10:03:54.000Z</time>
      </trkpt>
      <trkpt lat="43.52918" lon="5.54943">
        <ele>273</ele>
        <time>2013-02-19T10:03:55.000Z</time>
      </trkpt>
      <trkpt lat="43.52915" lon="5.54943">
        <ele>273</ele>
        <time>2013-02-19T10:03:56.000Z</time>
      </trkpt>
      <trkpt lat="43.52913" lon="5.54941">
        <ele>273.39999389648</ele>
        <time>2013-02-19T10:03:57.000Z</time>
      </trkpt>
      <trkpt lat="43.52911" lon="5.54939">
        <ele>273.39999389648</ele>
        <time>2013-02-19T10:03:58.000Z</time>
      </trkpt>
      <trkpt lat="43.52909" lon="5.54935">
        <ele>273.60000610352</ele>
        <time>2013-02-19T10:03:59.000Z</time>
      </trkpt>
      <trkpt lat="43.52907" lon="5.54932">
        <ele>273.79998779297</ele>
        <time>2013-02-19T10:04:00.000Z</time>
      </trkpt>
      <trkpt lat="43.52888" lon="5.54913">
        <ele>274.79998779297</ele>
        <time>2013-02-19T10:04:08.000Z</time>
      </trkpt>
      <trkpt lat="43.52874" lon="5.54899">
        <ele>275.60000610352</ele>
        <time>2013-02-19T10:04:13.000Z</time>
      </trkpt>
      <trkpt lat="43.52871" lon="5.54897">
        <ele>275.79998779297</ele>
        <time>2013-02-19T10:04:14.000Z</time>
      </trkpt>
      <trkpt lat="43.52866" lon="5.54894">
        <ele>276</ele>
        <time>2013-02-19T10:04:15.000Z</time>
      </trkpt>
      <trkpt lat="43.52862" lon="5.5489">
        <ele>276.20001220703</ele>
        <time>2013-02-19T10:04:16.000Z</time>
      </trkpt>
      <trkpt lat="43.52859" lon="5.54885">
        <ele>276</ele>
        <time>2013-02-19T10:04:17.000Z</time>
      </trkpt>
      <trkpt lat="43.52855" lon="5.5488">
        <ele>276</ele>
        <time>2013-02-19T10:04:18.000Z</time>
      </trkpt>
      <trkpt lat="43.52852" lon="5.54876">
        <ele>275.79998779297</ele>
        <time>2013-02-19T10:04:19.000Z</time>
      </trkpt>
      <trkpt lat="43.52835" lon="5.54855">
        <ele>274.79998779297</ele>
        <time>2013-02-19T10:04:23.000Z</time>
      </trkpt>
      <trkpt lat="43.52831" lon="5.54848">
        <ele>274.39999389648</ele>
        <time>2013-02-19T10:04:24.000Z</time>
      </trkpt>
      <trkpt lat="43.52828" lon="5.54843">
        <ele>274</ele>
        <time>2013-02-19T10:04:25.000Z</time>
      </trkpt>
      <trkpt lat="43.52822" lon="5.54833">
        <ele>273.20001220703</ele>
        <time>2013-02-19T10:04:27.000Z</time>
      </trkpt>
      <trkpt lat="43.52815" lon="5.54821">
        <ele>273.20001220703</ele>
        <time>2013-02-19T10:04:29.000Z</time>
      </trkpt>
      <trkpt lat="43.52811" lon="5.54817">
        <ele>273.20001220703</ele>
        <time>2013-02-19T10:04:30.000Z</time>
      </trkpt>
      <trkpt lat="43.52807" lon="5.54814">
        <ele>273.20001220703</ele>
        <time>2013-02-19T10:04:31.000Z</time>
      </trkpt>
      <trkpt lat="43.52804" lon="5.54811">
        <ele>273.20001220703</ele>
        <time>2013-02-19T10:04:32.000Z</time>
      </trkpt>
      <trkpt lat="43.52801" lon="5.54808">
        <ele>273.20001220703</ele>
        <time>2013-02-19T10:04:33.000Z</time>
      </trkpt>
      <trkpt lat="43.52799" lon="5.54807">
        <ele>273.39999389648</ele>
        <time>2013-02-19T10:04:34.000Z</time>
      </trkpt>
      <trkpt lat="43.52798" lon="5.54807">
        <ele>273.39999389648</ele>
        <time>2013-02-19T10:04:35.000Z</time>
      </trkpt>
      <trkpt lat="43.52795" lon="5.54807">
        <ele>273.39999389648</ele>
        <time>2013-02-19T10:04:36.000Z</time>
      </trkpt>
      <trkpt lat="43.52793" lon="5.54807">
        <ele>273.60000610352</ele>
        <time>2013-02-19T10:04:37.000Z</time>
      </trkpt>
      <trkpt lat="43.52791" lon="5.54807">
        <ele>273.60000610352</ele>
        <time>2013-02-19T10:04:38.000Z</time>
      </trkpt>
      <trkpt lat="43.52789" lon="5.54807">
        <ele>273.60000610352</ele>
        <time>2013-02-19T10:04:39.000Z</time>
      </trkpt>
      <trkpt lat="43.52786" lon="5.54808">
        <ele>273.79998779297</ele>
        <time>2013-02-19T10:04:40.000Z</time>
      </trkpt>
      <trkpt lat="43.5277" lon="5.54811">
        <ele>274.20001220703</ele>
        <time>2013-02-19T10:04:49.000Z</time>
      </trkpt>
      <trkpt lat="43.52768" lon="5.54811">
        <ele>274.39999389648</ele>
        <time>2013-02-19T10:04:50.000Z</time>
      </trkpt>
      <trkpt lat="43.52766" lon="5.54811">
        <ele>274.39999389648</ele>
        <time>2013-02-19T10:04:51.000Z</time>
      </trkpt>
      <trkpt lat="43.52763" lon="5.5481">
        <ele>274.60000610352</ele>
        <time>2013-02-19T10:04:52.000Z</time>
      </trkpt>
      <trkpt lat="43.52759" lon="5.5481">
        <ele>274.60000610352</ele>
        <time>2013-02-19T10:04:53.000Z</time>
      </trkpt>
      <trkpt lat="43.52743" lon="5.54811">
        <ele>274.20001220703</ele>
        <time>2013-02-19T10:04:57.000Z</time>
      </trkpt>
      <trkpt lat="43.52739" lon="5.54814">
        <ele>273.60000610352</ele>
        <time>2013-02-19T10:04:58.000Z</time>
      </trkpt>
      <trkpt lat="43.52735" lon="5.54819">
        <ele>273.20001220703</ele>
        <time>2013-02-19T10:04:59.000Z</time>
      </trkpt>
      <trkpt lat="43.52732" lon="5.54824">
        <ele>272.79998779297</ele>
        <time>2013-02-19T10:05:00.000Z</time>
      </trkpt>
      <trkpt lat="43.52731" lon="5.5483">
        <ele>272.60000610352</ele>
        <time>2013-02-19T10:05:01.000Z</time>
      </trkpt>
      <trkpt lat="43.5273" lon="5.54837">
        <ele>272.79998779297</ele>
        <time>2013-02-19T10:05:02.000Z</time>
      </trkpt>
      <trkpt lat="43.52728" lon="5.54865">
        <ele>274.60000610352</ele>
        <time>2013-02-19T10:05:06.000Z</time>
      </trkpt>
      <trkpt lat="43.52727" lon="5.54898">
        <ele>277</ele>
        <time>2013-02-19T10:05:10.000Z</time>
      </trkpt>
      <trkpt lat="43.52729" lon="5.54912">
        <ele>278.20001220703</ele>
        <time>2013-02-19T10:05:12.000Z</time>
      </trkpt>
      <trkpt lat="43.5273" lon="5.54917">
        <ele>278.79998779297</ele>
        <time>2013-02-19T10:05:13.000Z</time>
      </trkpt>
      <trkpt lat="43.5273" lon="5.54921">
        <ele>279.20001220703</ele>
        <time>2013-02-19T10:05:14.000Z</time>
      </trkpt>
      <trkpt lat="43.52732" lon="5.54949">
        <ele>281.60000610352</ele>
        <time>2013-02-19T10:05:24.000Z</time>
      </trkpt>
      <trkpt lat="43.52741" lon="5.54974">
        <ele>284</ele>
        <time>2013-02-19T10:05:35.000Z</time>
      </trkpt>
      <trkpt lat="43.5275" lon="5.55">
        <ele>285.79998779297</ele>
        <time>2013-02-19T10:05:45.000Z</time>
      </trkpt>
      <trkpt lat="43.52751" lon="5.55003">
        <ele>286</ele>
        <time>2013-02-19T10:05:46.000Z</time>
      </trkpt>
      <trkpt lat="43.52762" lon="5.5503">
        <ele>288.39999389648</ele>
        <time>2013-02-19T10:05:56.000Z</time>
      </trkpt>
      <trkpt lat="43.52765" lon="5.55038">
        <ele>289.20001220703</ele>
        <time>2013-02-19T10:05:59.000Z</time>
      </trkpt>
      <trkpt lat="43.52768" lon="5.55064">
        <ele>291.20001220703</ele>
        <time>2013-02-19T10:06:08.000Z</time>
      </trkpt>
      <trkpt lat="43.52772" lon="5.55078">
        <ele>292.60000610352</ele>
        <time>2013-02-19T10:06:13.000Z</time>
      </trkpt>
      <trkpt lat="43.52773" lon="5.55081">
        <ele>293</ele>
        <time>2013-02-19T10:06:14.000Z</time>
      </trkpt>
      <trkpt lat="43.52774" lon="5.55083">
        <ele>293.39999389648</ele>
        <time>2013-02-19T10:06:15.000Z</time>
      </trkpt>
      <trkpt lat="43.52774" lon="5.55086">
        <ele>293.79998779297</ele>
        <time>2013-02-19T10:06:16.000Z</time>
      </trkpt>
      <trkpt lat="43.52775" lon="5.55089">
        <ele>294.39999389648</ele>
        <time>2013-02-19T10:06:17.000Z</time>
      </trkpt>
      <trkpt lat="43.52776" lon="5.55092">
        <ele>294.79998779297</ele>
        <time>2013-02-19T10:06:18.000Z</time>
      </trkpt>
      <trkpt lat="43.52785" lon="5.55127">
        <ele>300.79998779297</ele>
        <time>2013-02-19T10:06:31.000Z</time>
      </trkpt>
      <trkpt lat="43.52792" lon="5.55155">
        <ele>305</ele>
        <time>2013-02-19T10:06:41.000Z</time>
      </trkpt>
      <trkpt lat="43.52801" lon="5.55187">
        <ele>309.39999389648</ele>
        <time>2013-02-19T10:06:53.000Z</time>
      </trkpt>
      <trkpt lat="43.52803" lon="5.55209">
        <ele>312</ele>
        <time>2013-02-19T10:07:01.000Z</time>
      </trkpt>
      <trkpt lat="43.52804" lon="5.55212">
        <ele>312.39999389648</ele>
        <time>2013-02-19T10:07:02.000Z</time>
      </trkpt>
      <trkpt lat="43.52804" lon="5.55216">
        <ele>312.60000610352</ele>
        <time>2013-02-19T10:07:03.000Z</time>
      </trkpt>
      <trkpt lat="43.5281" lon="5.55249">
        <ele>316.60000610352</ele>
        <time>2013-02-19T10:07:14.000Z</time>
      </trkpt>
      <trkpt lat="43.52816" lon="5.55278">
        <ele>318.79998779297</ele>
        <time>2013-02-19T10:07:24.000Z</time>
      </trkpt>
      <trkpt lat="43.52826" lon="5.55306">
        <ele>320.20001220703</ele>
        <time>2013-02-19T10:07:35.000Z</time>
      </trkpt>
      <trkpt lat="43.52829" lon="5.55313">
        <ele>320.39999389648</ele>
        <time>2013-02-19T10:07:38.000Z</time>
      </trkpt>
      <trkpt lat="43.52839" lon="5.55331">
        <ele>321.20001220703</ele>
        <time>2013-02-19T10:07:46.000Z</time>
      </trkpt>
      <trkpt lat="43.5285" lon="5.55356">
        <ele>323.39999389648</ele>
        <time>2013-02-19T10:07:56.000Z</time>
      </trkpt>
      <trkpt lat="43.52857" lon="5.55395">
        <ele>326.20001220703</ele>
        <time>2013-02-19T10:08:09.000Z</time>
      </trkpt>
      <trkpt lat="43.52865" lon="5.55436">
        <ele>331.20001220703</ele>
        <time>2013-02-19T10:08:22.000Z</time>
      </trkpt>
      <trkpt lat="43.52869" lon="5.55473">
        <ele>336.39999389648</ele>
        <time>2013-02-19T10:08:32.000Z</time>
      </trkpt>
      <trkpt lat="43.52867" lon="5.55523">
        <ele>340.79998779297</ele>
        <time>2013-02-19T10:08:44.000Z</time>
      </trkpt>
      <trkpt lat="43.52862" lon="5.55577">
        <ele>343.20001220703</ele>
        <time>2013-02-19T10:08:56.000Z</time>
      </trkpt>
      <trkpt lat="43.52865" lon="5.55623">
        <ele>344.79998779297</ele>
        <time>2013-02-19T10:09:08.000Z</time>
      </trkpt>
      <trkpt lat="43.52874" lon="5.55662">
        <ele>346.20001220703</ele>
        <time>2013-02-19T10:09:19.000Z</time>
      </trkpt>
      <trkpt lat="43.52879" lon="5.557">
        <ele>348.39999389648</ele>
        <time>2013-02-19T10:09:28.000Z</time>
      </trkpt>
      <trkpt lat="43.5288" lon="5.55706">
        <ele>348.60000610352</ele>
        <time>2013-02-19T10:09:29.000Z</time>
      </trkpt>
      <trkpt lat="43.52884" lon="5.55734">
        <ele>350.20001220703</ele>
        <time>2013-02-19T10:09:34.000Z</time>
      </trkpt>
      <trkpt lat="43.5289" lon="5.55777">
        <ele>352.79998779297</ele>
        <time>2013-02-19T10:09:44.000Z</time>
      </trkpt>
      <trkpt lat="43.52891" lon="5.5578">
        <ele>353.20001220703</ele>
        <time>2013-02-19T10:09:45.000Z</time>
      </trkpt>
      <trkpt lat="43.52895" lon="5.55826">
        <ele>356.39999389648</ele>
        <time>2013-02-19T10:09:57.000Z</time>
      </trkpt>
      <trkpt lat="43.52899" lon="5.55866">
        <ele>358.39999389648</ele>
        <time>2013-02-19T10:10:08.000Z</time>
      </trkpt>
      <trkpt lat="43.52901" lon="5.55903">
        <ele>360</ele>
        <time>2013-02-19T10:10:19.000Z</time>
      </trkpt>
      <trkpt lat="43.52901" lon="5.55906">
        <ele>360.20001220703</ele>
        <time>2013-02-19T10:10:20.000Z</time>
      </trkpt>
      <trkpt lat="43.52904" lon="5.55919">
        <ele>360.60000610352</ele>
        <time>2013-02-19T10:10:25.000Z</time>
      </trkpt>
      <trkpt lat="43.52915" lon="5.55941">
        <ele>360.39999389648</ele>
        <time>2013-02-19T10:10:35.000Z</time>
      </trkpt>
      <trkpt lat="43.52923" lon="5.55963">
        <ele>359.20001220703</ele>
        <time>2013-02-19T10:10:45.000Z</time>
      </trkpt>
      <trkpt lat="43.5293" lon="5.55984">
        <ele>358.20001220703</ele>
        <time>2013-02-19T10:10:54.000Z</time>
      </trkpt>
      <trkpt lat="43.52931" lon="5.55987">
        <ele>358.20001220703</ele>
        <time>2013-02-19T10:10:55.000Z</time>
      </trkpt>
      <trkpt lat="43.52931" lon="5.55989">
        <ele>358</ele>
        <time>2013-02-19T10:10:56.000Z</time>
      </trkpt>
      <trkpt lat="43.52937" lon="5.56019">
        <ele>359.20001220703</ele>
        <time>2013-02-19T10:11:07.000Z</time>
      </trkpt>
      <trkpt lat="43.52933" lon="5.56034">
        <ele>361.39999389648</ele>
        <time>2013-02-19T10:11:12.000Z</time>
      </trkpt>
      <trkpt lat="43.5293" lon="5.56036">
        <ele>362</ele>
        <time>2013-02-19T10:11:13.000Z</time>
      </trkpt>
      <trkpt lat="43.52928" lon="5.56037">
        <ele>362.60000610352</ele>
        <time>2013-02-19T10:11:14.000Z</time>
      </trkpt>
      <trkpt lat="43.52925" lon="5.56037">
        <ele>363</ele>
        <time>2013-02-19T10:11:15.000Z</time>
      </trkpt>
      <trkpt lat="43.52922" lon="5.56037">
        <ele>363.60000610352</ele>
        <time>2013-02-19T10:11:16.000Z</time>
      </trkpt>
      <trkpt lat="43.5292" lon="5.56037">
        <ele>363.79998779297</ele>
        <time>2013-02-19T10:11:17.000Z</time>
      </trkpt>
      <trkpt lat="43.52917" lon="5.56036">
        <ele>364.20001220703</ele>
        <time>2013-02-19T10:11:18.000Z</time>
      </trkpt>
      <trkpt lat="43.52915" lon="5.56035">
        <ele>364.60000610352</ele>
        <time>2013-02-19T10:11:19.000Z</time>
      </trkpt>
      <trkpt lat="43.52913" lon="5.56033">
        <ele>364.60000610352</ele>
        <time>2013-02-19T10:11:20.000Z</time>
      </trkpt>
      <trkpt lat="43.52887" lon="5.56016">
        <ele>366.60000610352</ele>
        <time>2013-02-19T10:11:30.000Z</time>
      </trkpt>
      <trkpt lat="43.52879" lon="5.56009">
        <ele>366.79998779297</ele>
        <time>2013-02-19T10:11:34.000Z</time>
      </trkpt>
      <trkpt lat="43.52866" lon="5.55969">
        <ele>365.60000610352</ele>
        <time>2013-02-19T10:11:44.000Z</time>
      </trkpt>
      <trkpt lat="43.52862" lon="5.5596">
        <ele>365.39999389648</ele>
        <time>2013-02-19T10:11:46.000Z</time>
      </trkpt>
      <trkpt lat="43.52861" lon="5.55954">
        <ele>365.20001220703</ele>
        <time>2013-02-19T10:11:47.000Z</time>
      </trkpt>
      <trkpt lat="43.52859" lon="5.55949">
        <ele>365</ele>
        <time>2013-02-19T10:11:48.000Z</time>
      </trkpt>
      <trkpt lat="43.52843" lon="5.55916">
        <ele>363.39999389648</ele>
        <time>2013-02-19T10:11:54.000Z</time>
      </trkpt>
      <trkpt lat="43.5284" lon="5.55912">
        <ele>363.20001220703</ele>
        <time>2013-02-19T10:11:55.000Z</time>
      </trkpt>
      <trkpt lat="43.52837" lon="5.55908">
        <ele>363</ele>
        <time>2013-02-19T10:11:56.000Z</time>
      </trkpt>
      <trkpt lat="43.52832" lon="5.55897">
        <ele>362.20001220703</ele>
        <time>2013-02-19T10:11:58.000Z</time>
      </trkpt>
      <trkpt lat="43.5283" lon="5.55892">
        <ele>361.60000610352</ele>
        <time>2013-02-19T10:11:59.000Z</time>
      </trkpt>
      <trkpt lat="43.52817" lon="5.5586">
        <ele>358.39999389648</ele>
        <time>2013-02-19T10:12:04.000Z</time>
      </trkpt>
      <trkpt lat="43.5281" lon="5.55835">
        <ele>356.39999389648</ele>
        <time>2013-02-19T10:12:08.000Z</time>
      </trkpt>
      <trkpt lat="43.52796" lon="5.55753">
        <ele>350.79998779297</ele>
        <time>2013-02-19T10:12:21.000Z</time>
      </trkpt>
      <trkpt lat="43.52786" lon="5.55718">
        <ele>351</ele>
        <time>2013-02-19T10:12:27.000Z</time>
      </trkpt>
      <trkpt lat="43.52775" lon="5.55705">
        <ele>352</ele>
        <time>2013-02-19T10:12:33.000Z</time>
      </trkpt>
      <trkpt lat="43.52774" lon="5.55705">
        <ele>352.20001220703</ele>
        <time>2013-02-19T10:12:34.000Z</time>
      </trkpt>
      <trkpt lat="43.52772" lon="5.55705">
        <ele>352.39999389648</ele>
        <time>2013-02-19T10:12:35.000Z</time>
      </trkpt>
      <trkpt lat="43.52771" lon="5.55704">
        <ele>352.60000610352</ele>
        <time>2013-02-19T10:12:36.000Z</time>
      </trkpt>
      <trkpt lat="43.5277" lon="5.55702">
        <ele>352.60000610352</ele>
        <time>2013-02-19T10:12:37.000Z</time>
      </trkpt>
      <trkpt lat="43.5277" lon="5.557">
        <ele>352.79998779297</ele>
        <time>2013-02-19T10:12:38.000Z</time>
      </trkpt>
      <trkpt lat="43.5277" lon="5.55699">
        <ele>352.79998779297</ele>
        <time>2013-02-19T10:12:46.000Z</time>
      </trkpt>
      <trkpt lat="43.5277" lon="5.557">
        <ele>352.79998779297</ele>
        <time>2013-02-19T10:13:11.000Z</time>
      </trkpt>
      <trkpt lat="43.5277" lon="5.55699">
        <ele>352.79998779297</ele>
        <time>2013-02-19T10:13:47.000Z</time>
      </trkpt>
      <trkpt lat="43.5277" lon="5.55698">
        <ele>352.79998779297</ele>
        <time>2013-02-19T10:14:31.000Z</time>
      </trkpt>
      <trkpt lat="43.52769" lon="5.55697">
        <ele>352.79998779297</ele>
        <time>2013-02-19T10:15:04.000Z</time>
      </trkpt>
      <trkpt lat="43.52769" lon="5.55697">
        <ele>352.79998779297</ele>
        <time>2013-02-19T10:15:36.000Z</time>
      </trkpt>
      <trkpt lat="43.52771" lon="5.55696">
        <ele>352.79998779297</ele>
        <time>2013-02-19T10:16:02.000Z</time>
      </trkpt>
      <trkpt lat="43.52771" lon="5.55697">
        <ele>352.79998779297</ele>
        <time>2013-02-19T10:16:03.000Z</time>
      </trkpt>
      <trkpt lat="43.52771" lon="5.55697">
        <ele>352.79998779297</ele>
        <time>2013-02-19T10:16:26.000Z</time>
      </trkpt>
      <trkpt lat="43.52771" lon="5.55695">
        <ele>352.79998779297</ele>
        <time>2013-02-19T10:16:39.000Z</time>
      </trkpt>
      <trkpt lat="43.52771" lon="5.55696">
        <ele>352.79998779297</ele>
        <time>2013-02-19T10:16:57.000Z</time>
      </trkpt>
      <trkpt lat="43.52771" lon="5.55696">
        <ele>352.60000610352</ele>
        <time>2013-02-19T10:17:22.000Z</time>
      </trkpt>
      <trkpt lat="43.52771" lon="5.55696">
        <ele>352.60000610352</ele>
        <time>2013-02-19T10:17:49.000Z</time>
      </trkpt>
      <trkpt lat="43.52772" lon="5.55694">
        <ele>352.60000610352</ele>
        <time>2013-02-19T10:18:17.000Z</time>
      </trkpt>
      <trkpt lat="43.52771" lon="5.55691">
        <ele>352.79998779297</ele>
        <time>2013-02-19T10:18:41.000Z</time>
      </trkpt>
      <trkpt lat="43.52771" lon="5.5569">
        <ele>352.79998779297</ele>
        <time>2013-02-19T10:18:42.000Z</time>
      </trkpt>
      <trkpt lat="43.5277" lon="5.55688">
        <ele>353</ele>
        <time>2013-02-19T10:18:43.000Z</time>
      </trkpt>
      <trkpt lat="43.52769" lon="5.55686">
        <ele>353.20001220703</ele>
        <time>2013-02-19T10:18:44.000Z</time>
      </trkpt>
      <trkpt lat="43.52768" lon="5.55683">
        <ele>353.39999389648</ele>
        <time>2013-02-19T10:18:45.000Z</time>
      </trkpt>
      <trkpt lat="43.52767" lon="5.55681">
        <ele>353.39999389648</ele>
        <time>2013-02-19T10:18:46.000Z</time>
      </trkpt>
      <trkpt lat="43.52767" lon="5.55678">
        <ele>353.60000610352</ele>
        <time>2013-02-19T10:18:47.000Z</time>
      </trkpt>
      <trkpt lat="43.52765" lon="5.55641">
        <ele>353.60000610352</ele>
        <time>2013-02-19T10:18:56.000Z</time>
      </trkpt>
      <trkpt lat="43.52766" lon="5.55592">
        <ele>352</ele>
        <time>2013-02-19T10:19:03.000Z</time>
      </trkpt>
      <trkpt lat="43.52765" lon="5.55584">
        <ele>352</ele>
        <time>2013-02-19T10:19:04.000Z</time>
      </trkpt>
      <trkpt lat="43.52762" lon="5.55577">
        <ele>352.20001220703</ele>
        <time>2013-02-19T10:19:05.000Z</time>
      </trkpt>
      <trkpt lat="43.52759" lon="5.55571">
        <ele>352.39999389648</ele>
        <time>2013-02-19T10:19:06.000Z</time>
      </trkpt>
      <trkpt lat="43.52755" lon="5.55566">
        <ele>353</ele>
        <time>2013-02-19T10:19:07.000Z</time>
      </trkpt>
      <trkpt lat="43.52751" lon="5.5556">
        <ele>353.60000610352</ele>
        <time>2013-02-19T10:19:08.000Z</time>
      </trkpt>
      <trkpt lat="43.52745" lon="5.55554">
        <ele>353.60000610352</ele>
        <time>2013-02-19T10:19:09.000Z</time>
      </trkpt>
      <trkpt lat="43.52741" lon="5.55548">
        <ele>353.60000610352</ele>
        <time>2013-02-19T10:19:10.000Z</time>
      </trkpt>
      <trkpt lat="43.52737" lon="5.55541">
        <ele>353.39999389648</ele>
        <time>2013-02-19T10:19:11.000Z</time>
      </trkpt>
      <trkpt lat="43.52733" lon="5.55535">
        <ele>353.39999389648</ele>
        <time>2013-02-19T10:19:12.000Z</time>
      </trkpt>
      <trkpt lat="43.5273" lon="5.5553">
        <ele>353.60000610352</ele>
        <time>2013-02-19T10:19:13.000Z</time>
      </trkpt>
      <trkpt lat="43.52726" lon="5.55528">
        <ele>353.60000610352</ele>
        <time>2013-02-19T10:19:14.000Z</time>
      </trkpt>
      <trkpt lat="43.52723" lon="5.55528">
        <ele>353.79998779297</ele>
        <time>2013-02-19T10:19:15.000Z</time>
      </trkpt>
      <trkpt lat="43.5272" lon="5.55531">
        <ele>354</ele>
        <time>2013-02-19T10:19:16.000Z</time>
      </trkpt>
      <trkpt lat="43.52719" lon="5.55535">
        <ele>354.20001220703</ele>
        <time>2013-02-19T10:19:17.000Z</time>
      </trkpt>
      <trkpt lat="43.5272" lon="5.5554">
        <ele>354.20001220703</ele>
        <time>2013-02-19T10:19:18.000Z</time>
      </trkpt>
      <trkpt lat="43.52721" lon="5.55545">
        <ele>354.20001220703</ele>
        <time>2013-02-19T10:19:19.000Z</time>
      </trkpt>
      <trkpt lat="43.52733" lon="5.55592">
        <ele>354.79998779297</ele>
        <time>2013-02-19T10:19:29.000Z</time>
      </trkpt>
      <trkpt lat="43.52729" lon="5.55612">
        <ele>354.60000610352</ele>
        <time>2013-02-19T10:19:33.000Z</time>
      </trkpt>
      <trkpt lat="43.52726" lon="5.55617">
        <ele>354.39999389648</ele>
        <time>2013-02-19T10:19:34.000Z</time>
      </trkpt>
      <trkpt lat="43.52702" lon="5.55663">
        <ele>351.20001220703</ele>
        <time>2013-02-19T10:19:41.000Z</time>
      </trkpt>
      <trkpt lat="43.527" lon="5.55673">
        <ele>350.20001220703</ele>
        <time>2013-02-19T10:19:42.000Z</time>
      </trkpt>
      <trkpt lat="43.52699" lon="5.55684">
        <ele>349</ele>
        <time>2013-02-19T10:19:43.000Z</time>
      </trkpt>
      <trkpt lat="43.52699" lon="5.55696">
        <ele>347.79998779297</ele>
        <time>2013-02-19T10:19:44.000Z</time>
      </trkpt>
      <trkpt lat="43.52699" lon="5.55708">
        <ele>346.79998779297</ele>
        <time>2013-02-19T10:19:45.000Z</time>
      </trkpt>
      <trkpt lat="43.52698" lon="5.5572">
        <ele>345.39999389648</ele>
        <time>2013-02-19T10:19:46.000Z</time>
      </trkpt>
      <trkpt lat="43.52697" lon="5.55731">
        <ele>344</ele>
        <time>2013-02-19T10:19:47.000Z</time>
      </trkpt>
      <trkpt lat="43.52696" lon="5.55742">
        <ele>342.79998779297</ele>
        <time>2013-02-19T10:19:48.000Z</time>
      </trkpt>
      <trkpt lat="43.52697" lon="5.55753">
        <ele>342</ele>
        <time>2013-02-19T10:19:49.000Z</time>
      </trkpt>
      <trkpt lat="43.52698" lon="5.55763">
        <ele>341.79998779297</ele>
        <time>2013-02-19T10:19:50.000Z</time>
      </trkpt>
      <trkpt lat="43.52699" lon="5.55771">
        <ele>341.60000610352</ele>
        <time>2013-02-19T10:19:51.000Z</time>
      </trkpt>
      <trkpt lat="43.52698" lon="5.5578">
        <ele>341</ele>
        <time>2013-02-19T10:19:52.000Z</time>
      </trkpt>
      <trkpt lat="43.52698" lon="5.5579">
        <ele>340.39999389648</ele>
        <time>2013-02-19T10:19:53.000Z</time>
      </trkpt>
      <trkpt lat="43.52698" lon="5.55799">
        <ele>340.20001220703</ele>
        <time>2013-02-19T10:19:54.000Z</time>
      </trkpt>
      <trkpt lat="43.52698" lon="5.55807">
        <ele>339.79998779297</ele>
        <time>2013-02-19T10:19:55.000Z</time>
      </trkpt>
      <trkpt lat="43.52697" lon="5.55814">
        <ele>339.20001220703</ele>
        <time>2013-02-19T10:19:56.000Z</time>
      </trkpt>
      <trkpt lat="43.52695" lon="5.5582">
        <ele>338.39999389648</ele>
        <time>2013-02-19T10:19:57.000Z</time>
      </trkpt>
      <trkpt lat="43.52692" lon="5.55827">
        <ele>337.20001220703</ele>
        <time>2013-02-19T10:19:58.000Z</time>
      </trkpt>
      <trkpt lat="43.52687" lon="5.55849">
        <ele>335.39999389648</ele>
        <time>2013-02-19T10:20:01.000Z</time>
      </trkpt>
      <trkpt lat="43.52684" lon="5.55856">
        <ele>334.60000610352</ele>
        <time>2013-02-19T10:20:02.000Z</time>
      </trkpt>
      <trkpt lat="43.52679" lon="5.55861">
        <ele>333.39999389648</ele>
        <time>2013-02-19T10:20:03.000Z</time>
      </trkpt>
      <trkpt lat="43.52674" lon="5.55865">
        <ele>332</ele>
        <time>2013-02-19T10:20:04.000Z</time>
      </trkpt>
      <trkpt lat="43.52668" lon="5.55868">
        <ele>330.20001220703</ele>
        <time>2013-02-19T10:20:05.000Z</time>
      </trkpt>
      <trkpt lat="43.52662" lon="5.55871">
        <ele>329.20001220703</ele>
        <time>2013-02-19T10:20:06.000Z</time>
      </trkpt>
      <trkpt lat="43.52657" lon="5.55874">
        <ele>328.39999389648</ele>
        <time>2013-02-19T10:20:07.000Z</time>
      </trkpt>
      <trkpt lat="43.52653" lon="5.55877">
        <ele>327.79998779297</ele>
        <time>2013-02-19T10:20:08.000Z</time>
      </trkpt>
      <trkpt lat="43.52649" lon="5.55878">
        <ele>327.20001220703</ele>
        <time>2013-02-19T10:20:10.000Z</time>
      </trkpt>
      <trkpt lat="43.52647" lon="5.55878">
        <ele>327</ele>
        <time>2013-02-19T10:20:11.000Z</time>
      </trkpt>
      <trkpt lat="43.52634" lon="5.55867">
        <ele>324.79998779297</ele>
        <time>2013-02-19T10:20:17.000Z</time>
      </trkpt>
      <trkpt lat="43.52632" lon="5.5586">
        <ele>324.39999389648</ele>
        <time>2013-02-19T10:20:18.000Z</time>
      </trkpt>
      <trkpt lat="43.52628" lon="5.55847">
        <ele>323.39999389648</ele>
        <time>2013-02-19T10:20:20.000Z</time>
      </trkpt>
      <trkpt lat="43.52626" lon="5.5584">
        <ele>322.79998779297</ele>
        <time>2013-02-19T10:20:21.000Z</time>
      </trkpt>
      <trkpt lat="43.52623" lon="5.55834">
        <ele>322</ele>
        <time>2013-02-19T10:20:22.000Z</time>
      </trkpt>
      <trkpt lat="43.5262" lon="5.55829">
        <ele>322</ele>
        <time>2013-02-19T10:20:23.000Z</time>
      </trkpt>
      <trkpt lat="43.52619" lon="5.55823">
        <ele>322.20001220703</ele>
        <time>2013-02-19T10:20:24.000Z</time>
      </trkpt>
      <trkpt lat="43.52616" lon="5.55817">
        <ele>322.20001220703</ele>
        <time>2013-02-19T10:20:25.000Z</time>
      </trkpt>
      <trkpt lat="43.52612" lon="5.55814">
        <ele>321.79998779297</ele>
        <time>2013-02-19T10:20:26.000Z</time>
      </trkpt>
      <trkpt lat="43.52608" lon="5.55812">
        <ele>321.20001220703</ele>
        <time>2013-02-19T10:20:27.000Z</time>
      </trkpt>
      <trkpt lat="43.52604" lon="5.55807">
        <ele>321</ele>
        <time>2013-02-19T10:20:28.000Z</time>
      </trkpt>
      <trkpt lat="43.52602" lon="5.55802">
        <ele>320.79998779297</ele>
        <time>2013-02-19T10:20:29.000Z</time>
      </trkpt>
      <trkpt lat="43.52599" lon="5.55797">
        <ele>320.79998779297</ele>
        <time>2013-02-19T10:20:30.000Z</time>
      </trkpt>
      <trkpt lat="43.52597" lon="5.55793">
        <ele>320.60000610352</ele>
        <time>2013-02-19T10:20:31.000Z</time>
      </trkpt>
      <trkpt lat="43.52595" lon="5.55791">
        <ele>320.39999389648</ele>
        <time>2013-02-19T10:20:32.000Z</time>
      </trkpt>
      <trkpt lat="43.52593" lon="5.55789">
        <ele>320.20001220703</ele>
        <time>2013-02-19T10:20:33.000Z</time>
      </trkpt>
      <trkpt lat="43.52591" lon="5.55788">
        <ele>320</ele>
        <time>2013-02-19T10:20:34.000Z</time>
      </trkpt>
      <trkpt lat="43.52589" lon="5.55786">
        <ele>319.60000610352</ele>
        <time>2013-02-19T10:20:35.000Z</time>
      </trkpt>
      <trkpt lat="43.52586" lon="5.55785">
        <ele>319.20001220703</ele>
        <time>2013-02-19T10:20:36.000Z</time>
      </trkpt>
      <trkpt lat="43.52582" lon="5.55783">
        <ele>318.79998779297</ele>
        <time>2013-02-19T10:20:37.000Z</time>
      </trkpt>
      <trkpt lat="43.52578" lon="5.55781">
        <ele>318.79998779297</ele>
        <time>2013-02-19T10:20:38.000Z</time>
      </trkpt>
      <trkpt lat="43.52574" lon="5.55779">
        <ele>318.79998779297</ele>
        <time>2013-02-19T10:20:39.000Z</time>
      </trkpt>
      <trkpt lat="43.5257" lon="5.55776">
        <ele>318.60000610352</ele>
        <time>2013-02-19T10:20:40.000Z</time>
      </trkpt>
      <trkpt lat="43.52567" lon="5.55774">
        <ele>318.60000610352</ele>
        <time>2013-02-19T10:20:41.000Z</time>
      </trkpt>
      <trkpt lat="43.52563" lon="5.55771">
        <ele>318.39999389648</ele>
        <time>2013-02-19T10:20:42.000Z</time>
      </trkpt>
      <trkpt lat="43.52561" lon="5.55767">
        <ele>318.60000610352</ele>
        <time>2013-02-19T10:20:43.000Z</time>
      </trkpt>
      <trkpt lat="43.5256" lon="5.55761">
        <ele>318.60000610352</ele>
        <time>2013-02-19T10:20:44.000Z</time>
      </trkpt>
      <trkpt lat="43.5256" lon="5.55755">
        <ele>318.79998779297</ele>
        <time>2013-02-19T10:20:45.000Z</time>
      </trkpt>
      <trkpt lat="43.52559" lon="5.55744">
        <ele>319</ele>
        <time>2013-02-19T10:20:47.000Z</time>
      </trkpt>
      <trkpt lat="43.52557" lon="5.5574">
        <ele>318.79998779297</ele>
        <time>2013-02-19T10:20:48.000Z</time>
      </trkpt>
      <trkpt lat="43.52555" lon="5.55735">
        <ele>318.60000610352</ele>
        <time>2013-02-19T10:20:49.000Z</time>
      </trkpt>
      <trkpt lat="43.52553" lon="5.5573">
        <ele>318.39999389648</ele>
        <time>2013-02-19T10:20:50.000Z</time>
      </trkpt>
      <trkpt lat="43.52551" lon="5.55723">
        <ele>318.20001220703</ele>
        <time>2013-02-19T10:20:51.000Z</time>
      </trkpt>
      <trkpt lat="43.52549" lon="5.55716">
        <ele>318</ele>
        <time>2013-02-19T10:20:52.000Z</time>
      </trkpt>
      <trkpt lat="43.52548" lon="5.55709">
        <ele>317.79998779297</ele>
        <time>2013-02-19T10:20:53.000Z</time>
      </trkpt>
      <trkpt lat="43.52547" lon="5.55702">
        <ele>317.60000610352</ele>
        <time>2013-02-19T10:20:54.000Z</time>
      </trkpt>
      <trkpt lat="43.52545" lon="5.55696">
        <ele>317.39999389648</ele>
        <time>2013-02-19T10:20:55.000Z</time>
      </trkpt>
      <trkpt lat="43.52542" lon="5.55691">
        <ele>316.79998779297</ele>
        <time>2013-02-19T10:20:56.000Z</time>
      </trkpt>
      <trkpt lat="43.52538" lon="5.55686">
        <ele>316</ele>
        <time>2013-02-19T10:20:57.000Z</time>
      </trkpt>
      <trkpt lat="43.52535" lon="5.55681">
        <ele>315.39999389648</ele>
        <time>2013-02-19T10:20:58.000Z</time>
      </trkpt>
      <trkpt lat="43.52533" lon="5.55677">
        <ele>315</ele>
        <time>2013-02-19T10:20:59.000Z</time>
      </trkpt>
      <trkpt lat="43.52532" lon="5.55674">
        <ele>314.60000610352</ele>
        <time>2013-02-19T10:21:00.000Z</time>
      </trkpt>
      <trkpt lat="43.52532" lon="5.55672">
        <ele>314.39999389648</ele>
        <time>2013-02-19T10:21:01.000Z</time>
      </trkpt>
      <trkpt lat="43.5253" lon="5.55669">
        <ele>314</ele>
        <time>2013-02-19T10:21:08.000Z</time>
      </trkpt>
      <trkpt lat="43.52528" lon="5.55668">
        <ele>313.60000610352</ele>
        <time>2013-02-19T10:21:11.000Z</time>
      </trkpt>
      <trkpt lat="43.52522" lon="5.55671">
        <ele>312.39999389648</ele>
        <time>2013-02-19T10:21:20.000Z</time>
      </trkpt>
      <trkpt lat="43.52519" lon="5.55664">
        <ele>311.79998779297</ele>
        <time>2013-02-19T10:21:27.000Z</time>
      </trkpt>
      <trkpt lat="43.52519" lon="5.55661">
        <ele>311.79998779297</ele>
        <time>2013-02-19T10:21:28.000Z</time>
      </trkpt>
      <trkpt lat="43.52518" lon="5.55659">
        <ele>311.60000610352</ele>
        <time>2013-02-19T10:21:29.000Z</time>
      </trkpt>
      <trkpt lat="43.52517" lon="5.55657">
        <ele>311.39999389648</ele>
        <time>2013-02-19T10:21:30.000Z</time>
      </trkpt>
      <trkpt lat="43.52516" lon="5.55656">
        <ele>311</ele>
        <time>2013-02-19T10:21:31.000Z</time>
      </trkpt>
      <trkpt lat="43.52512" lon="5.55651">
        <ele>310</ele>
        <time>2013-02-19T10:21:38.000Z</time>
      </trkpt>
      <trkpt lat="43.5251" lon="5.5565">
        <ele>309.79998779297</ele>
        <time>2013-02-19T10:21:39.000Z</time>
      </trkpt>
      <trkpt lat="43.52509" lon="5.55648">
        <ele>309.39999389648</ele>
        <time>2013-02-19T10:21:40.000Z</time>
      </trkpt>
      <trkpt lat="43.52507" lon="5.55646">
        <ele>308.79998779297</ele>
        <time>2013-02-19T10:21:41.000Z</time>
      </trkpt>
      <trkpt lat="43.52504" lon="5.55643">
        <ele>308</ele>
        <time>2013-02-19T10:21:42.000Z</time>
      </trkpt>
      <trkpt lat="43.52501" lon="5.5564">
        <ele>307.20001220703</ele>
        <time>2013-02-19T10:21:43.000Z</time>
      </trkpt>
      <trkpt lat="43.52499" lon="5.55637">
        <ele>306.79998779297</ele>
        <time>2013-02-19T10:21:44.000Z</time>
      </trkpt>
      <trkpt lat="43.52498" lon="5.55633">
        <ele>306.39999389648</ele>
        <time>2013-02-19T10:21:45.000Z</time>
      </trkpt>
      <trkpt lat="43.52497" lon="5.55629">
        <ele>306.20001220703</ele>
        <time>2013-02-19T10:21:46.000Z</time>
      </trkpt>
      <trkpt lat="43.5249" lon="5.55591">
        <ele>303.79998779297</ele>
        <time>2013-02-19T10:21:55.000Z</time>
      </trkpt>
      <trkpt lat="43.52475" lon="5.55574">
        <ele>302</ele>
        <time>2013-02-19T10:22:01.000Z</time>
      </trkpt>
      <trkpt lat="43.52472" lon="5.55569">
        <ele>301.79998779297</ele>
        <time>2013-02-19T10:22:02.000Z</time>
      </trkpt>
      <trkpt lat="43.52469" lon="5.55565">
        <ele>301.60000610352</ele>
        <time>2013-02-19T10:22:03.000Z</time>
      </trkpt>
      <trkpt lat="43.52466" lon="5.55561">
        <ele>301.39999389648</ele>
        <time>2013-02-19T10:22:04.000Z</time>
      </trkpt>
      <trkpt lat="43.52464" lon="5.55556">
        <ele>301.60000610352</ele>
        <time>2013-02-19T10:22:05.000Z</time>
      </trkpt>
      <trkpt lat="43.52464" lon="5.5555">
        <ele>301.79998779297</ele>
        <time>2013-02-19T10:22:06.000Z</time>
      </trkpt>
      <trkpt lat="43.52463" lon="5.55545">
        <ele>302</ele>
        <time>2013-02-19T10:22:07.000Z</time>
      </trkpt>
      <trkpt lat="43.52461" lon="5.55539">
        <ele>302</ele>
        <time>2013-02-19T10:22:08.000Z</time>
      </trkpt>
      <trkpt lat="43.5246" lon="5.55533">
        <ele>302.20001220703</ele>
        <time>2013-02-19T10:22:09.000Z</time>
      </trkpt>
      <trkpt lat="43.52459" lon="5.55527">
        <ele>302.39999389648</ele>
        <time>2013-02-19T10:22:10.000Z</time>
      </trkpt>
      <trkpt lat="43.52458" lon="5.5552">
        <ele>302.79998779297</ele>
        <time>2013-02-19T10:22:11.000Z</time>
      </trkpt>
      <trkpt lat="43.52455" lon="5.5549">
        <ele>303.60000610352</ele>
        <time>2013-02-19T10:22:17.000Z</time>
      </trkpt>
      <trkpt lat="43.52455" lon="5.55484">
        <ele>303.60000610352</ele>
        <time>2013-02-19T10:22:18.000Z</time>
      </trkpt>
      <trkpt lat="43.52455" lon="5.55478">
        <ele>303.60000610352</ele>
        <time>2013-02-19T10:22:19.000Z</time>
      </trkpt>
      <trkpt lat="43.52455" lon="5.55471">
        <ele>303.39999389648</ele>
        <time>2013-02-19T10:22:20.000Z</time>
      </trkpt>
      <trkpt lat="43.52455" lon="5.55464">
        <ele>303.39999389648</ele>
        <time>2013-02-19T10:22:21.000Z</time>
      </trkpt>
      <trkpt lat="43.52454" lon="5.55458">
        <ele>303.20001220703</ele>
        <time>2013-02-19T10:22:22.000Z</time>
      </trkpt>
      <trkpt lat="43.52454" lon="5.55453">
        <ele>303.20001220703</ele>
        <time>2013-02-19T10:22:23.000Z</time>
      </trkpt>
      <trkpt lat="43.52454" lon="5.55448">
        <ele>303</ele>
        <time>2013-02-19T10:22:24.000Z</time>
      </trkpt>
      <trkpt lat="43.52453" lon="5.55444">
        <ele>303</ele>
        <time>2013-02-19T10:22:25.000Z</time>
      </trkpt>
      <trkpt lat="43.52437" lon="5.55411">
        <ele>300.20001220703</ele>
        <time>2013-02-19T10:22:34.000Z</time>
      </trkpt>
      <trkpt lat="43.52431" lon="5.55404">
        <ele>298.79998779297</ele>
        <time>2013-02-19T10:22:36.000Z</time>
      </trkpt>
      <trkpt lat="43.52429" lon="5.554">
        <ele>298.20001220703</ele>
        <time>2013-02-19T10:22:37.000Z</time>
      </trkpt>
      <trkpt lat="43.52426" lon="5.55396">
        <ele>297.39999389648</ele>
        <time>2013-02-19T10:22:38.000Z</time>
      </trkpt>
      <trkpt lat="43.52424" lon="5.55392">
        <ele>296.60000610352</ele>
        <time>2013-02-19T10:22:39.000Z</time>
      </trkpt>
      <trkpt lat="43.52421" lon="5.55389">
        <ele>295.79998779297</ele>
        <time>2013-02-19T10:22:40.000Z</time>
      </trkpt>
      <trkpt lat="43.52418" lon="5.55386">
        <ele>295</ele>
        <time>2013-02-19T10:22:41.000Z</time>
      </trkpt>
      <trkpt lat="43.52409" lon="5.55377">
        <ele>293</ele>
        <time>2013-02-19T10:22:44.000Z</time>
      </trkpt>
      <trkpt lat="43.52406" lon="5.55373">
        <ele>292.39999389648</ele>
        <time>2013-02-19T10:22:45.000Z</time>
      </trkpt>
      <trkpt lat="43.52402" lon="5.55369">
        <ele>291.79998779297</ele>
        <time>2013-02-19T10:22:46.000Z</time>
      </trkpt>
      <trkpt lat="43.52387" lon="5.5535">
        <ele>289.39999389648</ele>
        <time>2013-02-19T10:22:50.000Z</time>
      </trkpt>
      <trkpt lat="43.52366" lon="5.55323">
        <ele>287.20001220703</ele>
        <time>2013-02-19T10:22:57.000Z</time>
      </trkpt>
      <trkpt lat="43.5236" lon="5.55308">
        <ele>286.39999389648</ele>
        <time>2013-02-19T10:23:02.000Z</time>
      </trkpt>
      <trkpt lat="43.52357" lon="5.55306">
        <ele>286.20001220703</ele>
        <time>2013-02-19T10:23:03.000Z</time>
      </trkpt>
      <trkpt lat="43.52354" lon="5.55304">
        <ele>285.79998779297</ele>
        <time>2013-02-19T10:23:04.000Z</time>
      </trkpt>
      <trkpt lat="43.52352" lon="5.55299">
        <ele>285.60000610352</ele>
        <time>2013-02-19T10:23:05.000Z</time>
      </trkpt>
      <trkpt lat="43.52352" lon="5.55294">
        <ele>285.20001220703</ele>
        <time>2013-02-19T10:23:06.000Z</time>
      </trkpt>
      <trkpt lat="43.52354" lon="5.55287">
        <ele>285</ele>
        <time>2013-02-19T10:23:07.000Z</time>
      </trkpt>
      <trkpt lat="43.52357" lon="5.5528">
        <ele>285</ele>
        <time>2013-02-19T10:23:08.000Z</time>
      </trkpt>
      <trkpt lat="43.5236" lon="5.55272">
        <ele>284.79998779297</ele>
        <time>2013-02-19T10:23:09.000Z</time>
      </trkpt>
      <trkpt lat="43.52362" lon="5.55264">
        <ele>284.60000610352</ele>
        <time>2013-02-19T10:23:10.000Z</time>
      </trkpt>
      <trkpt lat="43.52362" lon="5.55256">
        <ele>284.39999389648</ele>
        <time>2013-02-19T10:23:11.000Z</time>
      </trkpt>
      <trkpt lat="43.52362" lon="5.55249">
        <ele>284</ele>
        <time>2013-02-19T10:23:12.000Z</time>
      </trkpt>
      <trkpt lat="43.52361" lon="5.55244">
        <ele>283.39999389648</ele>
        <time>2013-02-19T10:23:13.000Z</time>
      </trkpt>
      <trkpt lat="43.52359" lon="5.55238">
        <ele>282.79998779297</ele>
        <time>2013-02-19T10:23:14.000Z</time>
      </trkpt>
      <trkpt lat="43.52358" lon="5.55233">
        <ele>282.39999389648</ele>
        <time>2013-02-19T10:23:15.000Z</time>
      </trkpt>
      <trkpt lat="43.52358" lon="5.55228">
        <ele>282</ele>
        <time>2013-02-19T10:23:16.000Z</time>
      </trkpt>
      <trkpt lat="43.52357" lon="5.55225">
        <ele>281.60000610352</ele>
        <time>2013-02-19T10:23:17.000Z</time>
      </trkpt>
      <trkpt lat="43.52356" lon="5.55223">
        <ele>281.39999389648</ele>
        <time>2013-02-19T10:23:18.000Z</time>
      </trkpt>
      <trkpt lat="43.52355" lon="5.55221">
        <ele>281.20001220703</ele>
        <time>2013-02-19T10:23:19.000Z</time>
      </trkpt>
      <trkpt lat="43.52355" lon="5.55218">
        <ele>280.79998779297</ele>
        <time>2013-02-19T10:23:20.000Z</time>
      </trkpt>
      <trkpt lat="43.5234" lon="5.55203">
        <ele>277.39999389648</ele>
        <time>2013-02-19T10:23:26.000Z</time>
      </trkpt>
      <trkpt lat="43.52332" lon="5.55199">
        <ele>275.79998779297</ele>
        <time>2013-02-19T10:23:28.000Z</time>
      </trkpt>
      <trkpt lat="43.52327" lon="5.55199">
        <ele>275.39999389648</ele>
        <time>2013-02-19T10:23:29.000Z</time>
      </trkpt>
      <trkpt lat="43.52323" lon="5.552">
        <ele>275</ele>
        <time>2013-02-19T10:23:30.000Z</time>
      </trkpt>
      <trkpt lat="43.52318" lon="5.552">
        <ele>274.39999389648</ele>
        <time>2013-02-19T10:23:31.000Z</time>
      </trkpt>
      <trkpt lat="43.52314" lon="5.55199">
        <ele>274</ele>
        <time>2013-02-19T10:23:32.000Z</time>
      </trkpt>
      <trkpt lat="43.52304" lon="5.552">
        <ele>273</ele>
        <time>2013-02-19T10:23:35.000Z</time>
      </trkpt>
      <trkpt lat="43.52299" lon="5.552">
        <ele>272.39999389648</ele>
        <time>2013-02-19T10:23:36.000Z</time>
      </trkpt>
      <trkpt lat="43.5229" lon="5.55196">
        <ele>271.20001220703</ele>
        <time>2013-02-19T10:23:38.000Z</time>
      </trkpt>
      <trkpt lat="43.52285" lon="5.55195">
        <ele>270.60000610352</ele>
        <time>2013-02-19T10:23:39.000Z</time>
      </trkpt>
      <trkpt lat="43.52271" lon="5.5519">
        <ele>268.79998779297</ele>
        <time>2013-02-19T10:23:44.000Z</time>
      </trkpt>
      <trkpt lat="43.5227" lon="5.55188">
        <ele>268.60000610352</ele>
        <time>2013-02-19T10:23:45.000Z</time>
      </trkpt>
      <trkpt lat="43.52269" lon="5.55185">
        <ele>268.39999389648</ele>
        <time>2013-02-19T10:23:46.000Z</time>
      </trkpt>
      <trkpt lat="43.52268" lon="5.55182">
        <ele>268.20001220703</ele>
        <time>2013-02-19T10:23:47.000Z</time>
      </trkpt>
      <trkpt lat="43.52269" lon="5.55179">
        <ele>268</ele>
        <time>2013-02-19T10:23:48.000Z</time>
      </trkpt>
      <trkpt lat="43.5227" lon="5.55176">
        <ele>268.20001220703</ele>
        <time>2013-02-19T10:23:49.000Z</time>
      </trkpt>
      <trkpt lat="43.52273" lon="5.55174">
        <ele>268.20001220703</ele>
        <time>2013-02-19T10:23:50.000Z</time>
      </trkpt>
      <trkpt lat="43.52281" lon="5.55163">
        <ele>268.60000610352</ele>
        <time>2013-02-19T10:23:53.000Z</time>
      </trkpt>
      <trkpt lat="43.52299" lon="5.55151">
        <ele>270.79998779297</ele>
        <time>2013-02-19T10:23:59.000Z</time>
      </trkpt>
      <trkpt lat="43.52317" lon="5.55139">
        <ele>273.20001220703</ele>
        <time>2013-02-19T10:24:07.000Z</time>
      </trkpt>
      <trkpt lat="43.52319" lon="5.55138">
        <ele>273.39999389648</ele>
        <time>2013-02-19T10:24:08.000Z</time>
      </trkpt>
      <trkpt lat="43.52331" lon="5.55127">
        <ele>275.60000610352</ele>
        <time>2013-02-19T10:24:16.000Z</time>
      </trkpt>
      <trkpt lat="43.52333" lon="5.55126">
        <ele>275.79998779297</ele>
        <time>2013-02-19T10:24:17.000Z</time>
      </trkpt>
      <trkpt lat="43.52342" lon="5.55123">
        <ele>277.79998779297</ele>
        <time>2013-02-19T10:24:22.000Z</time>
      </trkpt>
      <trkpt lat="43.52343" lon="5.55121">
        <ele>278.20001220703</ele>
        <time>2013-02-19T10:24:23.000Z</time>
      </trkpt>
      <trkpt lat="43.52344" lon="5.55119">
        <ele>278.60000610352</ele>
        <time>2013-02-19T10:24:24.000Z</time>
      </trkpt>
      <trkpt lat="43.52346" lon="5.55117">
        <ele>279</ele>
        <time>2013-02-19T10:24:25.000Z</time>
      </trkpt>
      <trkpt lat="43.52347" lon="5.55116">
        <ele>279.39999389648</ele>
        <time>2013-02-19T10:24:26.000Z</time>
      </trkpt>
      <trkpt lat="43.5236" lon="5.55106">
        <ele>282.60000610352</ele>
        <time>2013-02-19T10:24:37.000Z</time>
      </trkpt>
      <trkpt lat="43.52365" lon="5.55102">
        <ele>284</ele>
        <time>2013-02-19T10:24:42.000Z</time>
      </trkpt>
      <trkpt lat="43.52366" lon="5.55102">
        <ele>284.20001220703</ele>
        <time>2013-02-19T10:24:43.000Z</time>
      </trkpt>
      <trkpt lat="43.5237" lon="5.55099">
        <ele>285.20001220703</ele>
        <time>2013-02-19T10:24:49.000Z</time>
      </trkpt>
      <trkpt lat="43.52371" lon="5.55098">
        <ele>285.39999389648</ele>
        <time>2013-02-19T10:24:50.000Z</time>
      </trkpt>
      <trkpt lat="43.52374" lon="5.55087">
        <ele>287</ele>
        <time>2013-02-19T10:25:00.000Z</time>
      </trkpt>
      <trkpt lat="43.52376" lon="5.5508">
        <ele>287.79998779297</ele>
        <time>2013-02-19T10:25:10.000Z</time>
      </trkpt>
      <trkpt lat="43.52378" lon="5.55072">
        <ele>288.60000610352</ele>
        <time>2013-02-19T10:25:21.000Z</time>
      </trkpt>
      <trkpt lat="43.52377" lon="5.55069">
        <ele>288.60000610352</ele>
        <time>2013-02-19T10:25:26.000Z</time>
      </trkpt>
      <trkpt lat="43.52378" lon="5.55065">
        <ele>289</ele>
        <time>2013-02-19T10:25:29.000Z</time>
      </trkpt>
      <trkpt lat="43.52379" lon="5.55062">
        <ele>289.20001220703</ele>
        <time>2013-02-19T10:25:31.000Z</time>
      </trkpt>
      <trkpt lat="43.52379" lon="5.55061">
        <ele>289.39999389648</ele>
        <time>2013-02-19T10:25:32.000Z</time>
      </trkpt>
      <trkpt lat="43.52379" lon="5.55059">
        <ele>289.39999389648</ele>
        <time>2013-02-19T10:25:33.000Z</time>
      </trkpt>
      <trkpt lat="43.52379" lon="5.55057">
        <ele>289.60000610352</ele>
        <time>2013-02-19T10:25:34.000Z</time>
      </trkpt>
      <trkpt lat="43.52379" lon="5.55054">
        <ele>289.60000610352</ele>
        <time>2013-02-19T10:25:35.000Z</time>
      </trkpt>
      <trkpt lat="43.5238" lon="5.55052">
        <ele>289.79998779297</ele>
        <time>2013-02-19T10:25:36.000Z</time>
      </trkpt>
      <trkpt lat="43.5238" lon="5.55039">
        <ele>290.60000610352</ele>
        <time>2013-02-19T10:25:43.000Z</time>
      </trkpt>
      <trkpt lat="43.5238" lon="5.55033">
        <ele>290.79998779297</ele>
        <time>2013-02-19T10:25:46.000Z</time>
      </trkpt>
      <trkpt lat="43.52379" lon="5.55031">
        <ele>290.79998779297</ele>
        <time>2013-02-19T10:25:47.000Z</time>
      </trkpt>
      <trkpt lat="43.52379" lon="5.55029">
        <ele>291</ele>
        <time>2013-02-19T10:25:48.000Z</time>
      </trkpt>
      <trkpt lat="43.5238" lon="5.55009">
        <ele>292</ele>
        <time>2013-02-19T10:25:55.000Z</time>
      </trkpt>
      <trkpt lat="43.52381" lon="5.55007">
        <ele>292.20001220703</ele>
        <time>2013-02-19T10:25:56.000Z</time>
      </trkpt>
      <trkpt lat="43.52382" lon="5.55005">
        <ele>292.39999389648</ele>
        <time>2013-02-19T10:25:57.000Z</time>
      </trkpt>
      <trkpt lat="43.52383" lon="5.55003">
        <ele>292.79998779297</ele>
        <time>2013-02-19T10:25:58.000Z</time>
      </trkpt>
      <trkpt lat="43.52384" lon="5.55001">
        <ele>293</ele>
        <time>2013-02-19T10:25:59.000Z</time>
      </trkpt>
      <trkpt lat="43.52385" lon="5.54998">
        <ele>292.79998779297</ele>
        <time>2013-02-19T10:26:00.000Z</time>
      </trkpt>
      <trkpt lat="43.52386" lon="5.54996">
        <ele>292.79998779297</ele>
        <time>2013-02-19T10:26:01.000Z</time>
      </trkpt>
      <trkpt lat="43.52386" lon="5.54994">
        <ele>292.60000610352</ele>
        <time>2013-02-19T10:26:02.000Z</time>
      </trkpt>
      <trkpt lat="43.52392" lon="5.54989">
        <ele>292.60000610352</ele>
        <time>2013-02-19T10:26:06.000Z</time>
      </trkpt>
      <trkpt lat="43.52393" lon="5.54987">
        <ele>292.60000610352</ele>
        <time>2013-02-19T10:26:07.000Z</time>
      </trkpt>
      <trkpt lat="43.52394" lon="5.54984">
        <ele>292.39999389648</ele>
        <time>2013-02-19T10:26:08.000Z</time>
      </trkpt>
      <trkpt lat="43.52395" lon="5.54982">
        <ele>292.20001220703</ele>
        <time>2013-02-19T10:26:09.000Z</time>
      </trkpt>
      <trkpt lat="43.52395" lon="5.5498">
        <ele>292</ele>
        <time>2013-02-19T10:26:17.000Z</time>
      </trkpt>
      <trkpt lat="43.52395" lon="5.54978">
        <ele>291.60000610352</ele>
        <time>2013-02-19T10:26:37.000Z</time>
      </trkpt>
      <trkpt lat="43.52394" lon="5.54978">
        <ele>291.60000610352</ele>
        <time>2013-02-19T10:27:02.000Z</time>
      </trkpt>
      <trkpt lat="43.52397" lon="5.5498">
        <ele>292.20001220703</ele>
        <time>2013-02-19T10:27:11.000Z</time>
      </trkpt>
      <trkpt lat="43.52399" lon="5.54981">
        <ele>292.39999389648</ele>
        <time>2013-02-19T10:27:12.000Z</time>
      </trkpt>
      <trkpt lat="43.52401" lon="5.54982">
        <ele>292.79998779297</ele>
        <time>2013-02-19T10:27:13.000Z</time>
      </trkpt>
      <trkpt lat="43.52403" lon="5.54982">
        <ele>293</ele>
        <time>2013-02-19T10:27:14.000Z</time>
      </trkpt>
      <trkpt lat="43.52406" lon="5.54981">
        <ele>293</ele>
        <time>2013-02-19T10:27:15.000Z</time>
      </trkpt>
      <trkpt lat="43.52408" lon="5.54979">
        <ele>293</ele>
        <time>2013-02-19T10:27:16.000Z</time>
      </trkpt>
      <trkpt lat="43.5241" lon="5.54977">
        <ele>293</ele>
        <time>2013-02-19T10:27:17.000Z</time>
      </trkpt>
      <trkpt lat="43.52413" lon="5.54974">
        <ele>292.79998779297</ele>
        <time>2013-02-19T10:27:18.000Z</time>
      </trkpt>
      <trkpt lat="43.52416" lon="5.5497">
        <ele>292.39999389648</ele>
        <time>2013-02-19T10:27:19.000Z</time>
      </trkpt>
      <trkpt lat="43.52422" lon="5.5496">
        <ele>291.60000610352</ele>
        <time>2013-02-19T10:27:21.000Z</time>
      </trkpt>
      <trkpt lat="43.5244" lon="5.54924">
        <ele>287.20001220703</ele>
        <time>2013-02-19T10:27:26.000Z</time>
      </trkpt>
      <trkpt lat="43.52444" lon="5.54917">
        <ele>286.20001220703</ele>
        <time>2013-02-19T10:27:27.000Z</time>
      </trkpt>
      <trkpt lat="43.52449" lon="5.5491">
        <ele>285.39999389648</ele>
        <time>2013-02-19T10:27:28.000Z</time>
      </trkpt>
      <trkpt lat="43.52462" lon="5.54894">
        <ele>283.20001220703</ele>
        <time>2013-02-19T10:27:31.000Z</time>
      </trkpt>
      <trkpt lat="43.52467" lon="5.5489">
        <ele>282.79998779297</ele>
        <time>2013-02-19T10:27:32.000Z</time>
      </trkpt>
      <trkpt lat="43.52471" lon="5.54887">
        <ele>282.60000610352</ele>
        <time>2013-02-19T10:27:33.000Z</time>
      </trkpt>
      <trkpt lat="43.52475" lon="5.54885">
        <ele>282.60000610352</ele>
        <time>2013-02-19T10:27:34.000Z</time>
      </trkpt>
      <trkpt lat="43.52479" lon="5.54885">
        <ele>282.79998779297</ele>
        <time>2013-02-19T10:27:35.000Z</time>
      </trkpt>
      <trkpt lat="43.52482" lon="5.54885">
        <ele>283</ele>
        <time>2013-02-19T10:27:36.000Z</time>
      </trkpt>
      <trkpt lat="43.52485" lon="5.54886">
        <ele>283.20001220703</ele>
        <time>2013-02-19T10:27:37.000Z</time>
      </trkpt>
      <trkpt lat="43.52488" lon="5.54887">
        <ele>283.60000610352</ele>
        <time>2013-02-19T10:27:38.000Z</time>
      </trkpt>
      <trkpt lat="43.52491" lon="5.54887">
        <ele>283.79998779297</ele>
        <time>2013-02-19T10:27:39.000Z</time>
      </trkpt>
      <trkpt lat="43.52494" lon="5.54888">
        <ele>284.20001220703</ele>
        <time>2013-02-19T10:27:40.000Z</time>
      </trkpt>
      <trkpt lat="43.52498" lon="5.5489">
        <ele>284.60000610352</ele>
        <time>2013-02-19T10:27:41.000Z</time>
      </trkpt>
      <trkpt lat="43.52501" lon="5.54893">
        <ele>285.20001220703</ele>
        <time>2013-02-19T10:27:42.000Z</time>
      </trkpt>
      <trkpt lat="43.52503" lon="5.54896">
        <ele>285.20001220703</ele>
        <time>2013-02-19T10:27:43.000Z</time>
      </trkpt>
      <trkpt lat="43.5251" lon="5.54908">
        <ele>285.60000610352</ele>
        <time>2013-02-19T10:27:46.000Z</time>
      </trkpt>
      <trkpt lat="43.52512" lon="5.54913">
        <ele>286.20001220703</ele>
        <time>2013-02-19T10:27:47.000Z</time>
      </trkpt>
      <trkpt lat="43.52515" lon="5.54917">
        <ele>286.39999389648</ele>
        <time>2013-02-19T10:27:48.000Z</time>
      </trkpt>
      <trkpt lat="43.52517" lon="5.54921">
        <ele>286.79998779297</ele>
        <time>2013-02-19T10:27:49.000Z</time>
      </trkpt>
      <trkpt lat="43.52518" lon="5.54923">
        <ele>287.20001220703</ele>
        <time>2013-02-19T10:27:50.000Z</time>
      </trkpt>
      <trkpt lat="43.5252" lon="5.54925">
        <ele>287.20001220703</ele>
        <time>2013-02-19T10:27:51.000Z</time>
      </trkpt>
      <trkpt lat="43.52522" lon="5.54928">
        <ele>287.39999389648</ele>
        <time>2013-02-19T10:27:52.000Z</time>
      </trkpt>
      <trkpt lat="43.52528" lon="5.54933">
        <ele>287.39999389648</ele>
        <time>2013-02-19T10:27:58.000Z</time>
      </trkpt>
      <trkpt lat="43.52531" lon="5.54932">
        <ele>286.79998779297</ele>
        <time>2013-02-19T10:28:07.000Z</time>
      </trkpt>
      <trkpt lat="43.52534" lon="5.54929">
        <ele>285.39999389648</ele>
        <time>2013-02-19T10:28:15.000Z</time>
      </trkpt>
      <trkpt lat="43.52543" lon="5.54924">
        <ele>282.79998779297</ele>
        <time>2013-02-19T10:28:27.000Z</time>
      </trkpt>
      <trkpt lat="43.52547" lon="5.54924">
        <ele>282</ele>
        <time>2013-02-19T10:28:34.000Z</time>
      </trkpt>
      <trkpt lat="43.52549" lon="5.54924">
        <ele>281.79998779297</ele>
        <time>2013-02-19T10:28:35.000Z</time>
      </trkpt>
      <trkpt lat="43.52551" lon="5.54924">
        <ele>281.39999389648</ele>
        <time>2013-02-19T10:28:36.000Z</time>
      </trkpt>
      <trkpt lat="43.52555" lon="5.54922">
        <ele>280.20001220703</ele>
        <time>2013-02-19T10:28:42.000Z</time>
      </trkpt>
      <trkpt lat="43.52556" lon="5.54921">
        <ele>279.60000610352</ele>
        <time>2013-02-19T10:28:43.000Z</time>
      </trkpt>
      <trkpt lat="43.52558" lon="5.5492">
        <ele>279.20001220703</ele>
        <time>2013-02-19T10:28:44.000Z</time>
      </trkpt>
      <trkpt lat="43.52559" lon="5.5492">
        <ele>279</ele>
        <time>2013-02-19T10:28:45.000Z</time>
      </trkpt>
      <trkpt lat="43.52561" lon="5.5492">
        <ele>278.79998779297</ele>
        <time>2013-02-19T10:28:46.000Z</time>
      </trkpt>
      <trkpt lat="43.52563" lon="5.54921">
        <ele>278.60000610352</ele>
        <time>2013-02-19T10:28:47.000Z</time>
      </trkpt>
      <trkpt lat="43.52565" lon="5.54922">
        <ele>278.39999389648</ele>
        <time>2013-02-19T10:28:48.000Z</time>
      </trkpt>
      <trkpt lat="43.52567" lon="5.54922">
        <ele>278.20001220703</ele>
        <time>2013-02-19T10:28:49.000Z</time>
      </trkpt>
      <trkpt lat="43.52569" lon="5.54923">
        <ele>278</ele>
        <time>2013-02-19T10:28:50.000Z</time>
      </trkpt>
      <trkpt lat="43.52573" lon="5.54924">
        <ele>277.39999389648</ele>
        <time>2013-02-19T10:28:52.000Z</time>
      </trkpt>
      <trkpt lat="43.52575" lon="5.54923">
        <ele>277</ele>
        <time>2013-02-19T10:28:53.000Z</time>
      </trkpt>
      <trkpt lat="43.52601" lon="5.54917">
        <ele>273.60000610352</ele>
        <time>2013-02-19T10:29:02.000Z</time>
      </trkpt>
      <trkpt lat="43.52619" lon="5.54904">
        <ele>271.79998779297</ele>
        <time>2013-02-19T10:29:07.000Z</time>
      </trkpt>
      <trkpt lat="43.52622" lon="5.54902">
        <ele>271.60000610352</ele>
        <time>2013-02-19T10:29:08.000Z</time>
      </trkpt>
      <trkpt lat="43.52645" lon="5.54891">
        <ele>270.20001220703</ele>
        <time>2013-02-19T10:29:13.000Z</time>
      </trkpt>
      <trkpt lat="43.5265" lon="5.54888">
        <ele>269.79998779297</ele>
        <time>2013-02-19T10:29:14.000Z</time>
      </trkpt>
      <trkpt lat="43.52654" lon="5.54885">
        <ele>269.60000610352</ele>
        <time>2013-02-19T10:29:15.000Z</time>
      </trkpt>
      <trkpt lat="43.52659" lon="5.54884">
        <ele>269.20001220703</ele>
        <time>2013-02-19T10:29:16.000Z</time>
      </trkpt>
      <trkpt lat="43.52669" lon="5.54881">
        <ele>269.20001220703</ele>
        <time>2013-02-19T10:29:18.000Z</time>
      </trkpt>
      <trkpt lat="43.52673" lon="5.54879">
        <ele>269.39999389648</ele>
        <time>2013-02-19T10:29:19.000Z</time>
      </trkpt>
      <trkpt lat="43.52676" lon="5.54876">
        <ele>269.60000610352</ele>
        <time>2013-02-19T10:29:20.000Z</time>
      </trkpt>
      <trkpt lat="43.52678" lon="5.54872">
        <ele>269.39999389648</ele>
        <time>2013-02-19T10:29:21.000Z</time>
      </trkpt>
      <trkpt lat="43.52681" lon="5.54867">
        <ele>269.20001220703</ele>
        <time>2013-02-19T10:29:22.000Z</time>
      </trkpt>
      <trkpt lat="43.52684" lon="5.54863">
        <ele>269.39999389648</ele>
        <time>2013-02-19T10:29:23.000Z</time>
      </trkpt>
      <trkpt lat="43.52688" lon="5.5486">
        <ele>269.60000610352</ele>
        <time>2013-02-19T10:29:24.000Z</time>
      </trkpt>
      <trkpt lat="43.52695" lon="5.54855">
        <ele>270</ele>
        <time>2013-02-19T10:29:26.000Z</time>
      </trkpt>
      <trkpt lat="43.52698" lon="5.54856">
        <ele>270.60000610352</ele>
        <time>2013-02-19T10:29:27.000Z</time>
      </trkpt>
      <trkpt lat="43.52702" lon="5.54857">
        <ele>271</ele>
        <time>2013-02-19T10:29:28.000Z</time>
      </trkpt>
      <trkpt lat="43.52705" lon="5.54857">
        <ele>271.39999389648</ele>
        <time>2013-02-19T10:29:29.000Z</time>
      </trkpt>
      <trkpt lat="43.52708" lon="5.54856">
        <ele>271.60000610352</ele>
        <time>2013-02-19T10:29:30.000Z</time>
      </trkpt>
      <trkpt lat="43.5271" lon="5.54853">
        <ele>271.60000610352</ele>
        <time>2013-02-19T10:29:31.000Z</time>
      </trkpt>
      <trkpt lat="43.52712" lon="5.54849">
        <ele>271.39999389648</ele>
        <time>2013-02-19T10:29:32.000Z</time>
      </trkpt>
      <trkpt lat="43.52713" lon="5.54845">
        <ele>271.39999389648</ele>
        <time>2013-02-19T10:29:33.000Z</time>
      </trkpt>
      <trkpt lat="43.52715" lon="5.54842">
        <ele>271.39999389648</ele>
        <time>2013-02-19T10:29:34.000Z</time>
      </trkpt>
      <trkpt lat="43.52716" lon="5.54838">
        <ele>271.20001220703</ele>
        <time>2013-02-19T10:29:35.000Z</time>
      </trkpt>
      <trkpt lat="43.52724" lon="5.54824">
        <ele>271.79998779297</ele>
        <time>2013-02-19T10:29:39.000Z</time>
      </trkpt>
      <trkpt lat="43.52726" lon="5.54822">
        <ele>272.20001220703</ele>
        <time>2013-02-19T10:29:40.000Z</time>
      </trkpt>
      <trkpt lat="43.52729" lon="5.5482">
        <ele>272.39999389648</ele>
        <time>2013-02-19T10:29:41.000Z</time>
      </trkpt>
      <trkpt lat="43.52731" lon="5.54817">
        <ele>272.60000610352</ele>
        <time>2013-02-19T10:29:42.000Z</time>
      </trkpt>
      <trkpt lat="43.52733" lon="5.54814">
        <ele>273</ele>
        <time>2013-02-19T10:29:43.000Z</time>
      </trkpt>
      <trkpt lat="43.52734" lon="5.5481">
        <ele>273.20001220703</ele>
        <time>2013-02-19T10:29:44.000Z</time>
      </trkpt>
      <trkpt lat="43.52735" lon="5.54805">
        <ele>273.20001220703</ele>
        <time>2013-02-19T10:29:45.000Z</time>
      </trkpt>
      <trkpt lat="43.52735" lon="5.548">
        <ele>273.20001220703</ele>
        <time>2013-02-19T10:29:46.000Z</time>
      </trkpt>
      <trkpt lat="43.52735" lon="5.54796">
        <ele>273.20001220703</ele>
        <time>2013-02-19T10:29:47.000Z</time>
      </trkpt>
      <trkpt lat="43.52735" lon="5.54792">
        <ele>273.20001220703</ele>
        <time>2013-02-19T10:29:48.000Z</time>
      </trkpt>
      <trkpt lat="43.5272" lon="5.54773">
        <ele>271.79998779297</ele>
        <time>2013-02-19T10:29:54.000Z</time>
      </trkpt>
      <trkpt lat="43.52693" lon="5.54747">
        <ele>269.79998779297</ele>
        <time>2013-02-19T10:30:03.000Z</time>
      </trkpt>
      <trkpt lat="43.52682" lon="5.54725">
        <ele>271.20001220703</ele>
        <time>2013-02-19T10:30:08.000Z</time>
      </trkpt>
      <trkpt lat="43.52679" lon="5.54721">
        <ele>271.60000610352</ele>
        <time>2013-02-19T10:30:09.000Z</time>
      </trkpt>
      <trkpt lat="43.52656" lon="5.54683">
        <ele>274</ele>
        <time>2013-02-19T10:30:19.000Z</time>
      </trkpt>
      <trkpt lat="43.52627" lon="5.5463">
        <ele>275.79998779297</ele>
        <time>2013-02-19T10:30:31.000Z</time>
      </trkpt>
      <trkpt lat="43.5262" lon="5.54615">
        <ele>276</ele>
        <time>2013-02-19T10:30:34.000Z</time>
      </trkpt>
      <trkpt lat="43.52603" lon="5.54587">
        <ele>274.60000610352</ele>
        <time>2013-02-19T10:30:40.000Z</time>
      </trkpt>
      <trkpt lat="43.5258" lon="5.54543">
        <ele>272.60000610352</ele>
        <time>2013-02-19T10:30:49.000Z</time>
      </trkpt>
      <trkpt lat="43.52554" lon="5.54519">
        <ele>273.79998779297</ele>
        <time>2013-02-19T10:30:58.000Z</time>
      </trkpt>
      <trkpt lat="43.52551" lon="5.54519">
        <ele>273.79998779297</ele>
        <time>2013-02-19T10:30:59.000Z</time>
      </trkpt>
      <trkpt lat="43.52548" lon="5.54518">
        <ele>273.60000610352</ele>
        <time>2013-02-19T10:31:00.000Z</time>
      </trkpt>
      <trkpt lat="43.52546" lon="5.54517">
        <ele>273.60000610352</ele>
        <time>2013-02-19T10:31:01.000Z</time>
      </trkpt>
      <trkpt lat="43.52545" lon="5.54515">
        <ele>273.79998779297</ele>
        <time>2013-02-19T10:31:02.000Z</time>
      </trkpt>
      <trkpt lat="43.52543" lon="5.54513">
        <ele>273.79998779297</ele>
        <time>2013-02-19T10:31:03.000Z</time>
      </trkpt>
      <trkpt lat="43.52541" lon="5.54512">
        <ele>273.79998779297</ele>
        <time>2013-02-19T10:31:04.000Z</time>
      </trkpt>
      <trkpt lat="43.52539" lon="5.5451">
        <ele>274</ele>
        <time>2013-02-19T10:31:05.000Z</time>
      </trkpt>
      <trkpt lat="43.52537" lon="5.54509">
        <ele>274</ele>
        <time>2013-02-19T10:31:06.000Z</time>
      </trkpt>
      <trkpt lat="43.52533" lon="5.54507">
        <ele>273.79998779297</ele>
        <time>2013-02-19T10:31:07.000Z</time>
      </trkpt>
      <trkpt lat="43.52502" lon="5.54492">
        <ele>273.20001220703</ele>
        <time>2013-02-19T10:31:18.000Z</time>
      </trkpt>
      <trkpt lat="43.52486" lon="5.54472">
        <ele>276.60000610352</ele>
        <time>2013-02-19T10:31:27.000Z</time>
      </trkpt>
      <trkpt lat="43.52479" lon="5.54437">
        <ele>279.20001220703</ele>
        <time>2013-02-19T10:31:38.000Z</time>
      </trkpt>
      <trkpt lat="43.52472" lon="5.54402">
        <ele>282</ele>
        <time>2013-02-19T10:31:48.000Z</time>
      </trkpt>
      <trkpt lat="43.52466" lon="5.54367">
        <ele>284.20001220703</ele>
        <time>2013-02-19T10:31:59.000Z</time>
      </trkpt>
      <trkpt lat="43.52456" lon="5.54322">
        <ele>286.39999389648</ele>
        <time>2013-02-19T10:32:11.000Z</time>
      </trkpt>
      <trkpt lat="43.52452" lon="5.543">
        <ele>287</ele>
        <time>2013-02-19T10:32:17.000Z</time>
      </trkpt>
      <trkpt lat="43.52444" lon="5.5426">
        <ele>288.39999389648</ele>
        <time>2013-02-19T10:32:28.000Z</time>
      </trkpt>
      <trkpt lat="43.52439" lon="5.54221">
        <ele>289.39999389648</ele>
        <time>2013-02-19T10:32:39.000Z</time>
      </trkpt>
      <trkpt lat="43.52431" lon="5.54184">
        <ele>290.20001220703</ele>
        <time>2013-02-19T10:32:51.000Z</time>
      </trkpt>
      <trkpt lat="43.52424" lon="5.54145">
        <ele>290.39999389648</ele>
        <time>2013-02-19T10:33:04.000Z</time>
      </trkpt>
      <trkpt lat="43.52419" lon="5.54107">
        <ele>290.20001220703</ele>
        <time>2013-02-19T10:33:16.000Z</time>
      </trkpt>
      <trkpt lat="43.52416" lon="5.54092">
        <ele>290.20001220703</ele>
        <time>2013-02-19T10:33:21.000Z</time>
      </trkpt>
      <trkpt lat="43.52416" lon="5.5409">
        <ele>290</ele>
        <time>2013-02-19T10:33:22.000Z</time>
      </trkpt>
      <trkpt lat="43.52416" lon="5.54086">
        <ele>290</ele>
        <time>2013-02-19T10:33:23.000Z</time>
      </trkpt>
      <trkpt lat="43.52415" lon="5.54082">
        <ele>290.20001220703</ele>
        <time>2013-02-19T10:33:24.000Z</time>
      </trkpt>
      <trkpt lat="43.52414" lon="5.54078">
        <ele>290.39999389648</ele>
        <time>2013-02-19T10:33:25.000Z</time>
      </trkpt>
      <trkpt lat="43.52412" lon="5.54058">
        <ele>291.79998779297</ele>
        <time>2013-02-19T10:33:31.000Z</time>
      </trkpt>
      <trkpt lat="43.52412" lon="5.54055">
        <ele>291.79998779297</ele>
        <time>2013-02-19T10:33:32.000Z</time>
      </trkpt>
      <trkpt lat="43.52412" lon="5.54052">
        <ele>292</ele>
        <time>2013-02-19T10:33:33.000Z</time>
      </trkpt>
      <trkpt lat="43.52412" lon="5.54049">
        <ele>292.20001220703</ele>
        <time>2013-02-19T10:33:34.000Z</time>
      </trkpt>
      <trkpt lat="43.52411" lon="5.54047">
        <ele>292.39999389648</ele>
        <time>2013-02-19T10:33:35.000Z</time>
      </trkpt>
      <trkpt lat="43.5241" lon="5.54046">
        <ele>292.60000610352</ele>
        <time>2013-02-19T10:33:36.000Z</time>
      </trkpt>
      <trkpt lat="43.52409" lon="5.54044">
        <ele>293</ele>
        <time>2013-02-19T10:33:37.000Z</time>
      </trkpt>
      <trkpt lat="43.52409" lon="5.54041">
        <ele>293</ele>
        <time>2013-02-19T10:33:38.000Z</time>
      </trkpt>
      <trkpt lat="43.52409" lon="5.54027">
        <ele>293.79998779297</ele>
        <time>2013-02-19T10:33:43.000Z</time>
      </trkpt>
      <trkpt lat="43.52409" lon="5.54025">
        <ele>294</ele>
        <time>2013-02-19T10:33:44.000Z</time>
      </trkpt>
      <trkpt lat="43.52409" lon="5.54004">
        <ele>295</ele>
        <time>2013-02-19T10:33:51.000Z</time>
      </trkpt>
      <trkpt lat="43.5241" lon="5.53969">
        <ele>296.60000610352</ele>
        <time>2013-02-19T10:34:02.000Z</time>
      </trkpt>
      <trkpt lat="43.52407" lon="5.53947">
        <ele>298.20001220703</ele>
        <time>2013-02-19T10:34:10.000Z</time>
      </trkpt>
      <trkpt lat="43.52406" lon="5.53923">
        <ele>299.39999389648</ele>
        <time>2013-02-19T10:34:19.000Z</time>
      </trkpt>
      <trkpt lat="43.5241" lon="5.53891">
        <ele>299.60000610352</ele>
        <time>2013-02-19T10:34:30.000Z</time>
      </trkpt>
      <trkpt lat="43.52419" lon="5.5386">
        <ele>299.60000610352</ele>
        <time>2013-02-19T10:34:42.000Z</time>
      </trkpt>
      <trkpt lat="43.52423" lon="5.53842">
        <ele>300</ele>
        <time>2013-02-19T10:34:51.000Z</time>
      </trkpt>
      <trkpt lat="43.52428" lon="5.53824">
        <ele>300.39999389648</ele>
        <time>2013-02-19T10:34:58.000Z</time>
      </trkpt>
      <trkpt lat="43.52429" lon="5.53821">
        <ele>300.39999389648</ele>
        <time>2013-02-19T10:35:00.000Z</time>
      </trkpt>
      <trkpt lat="43.52429" lon="5.53819">
        <ele>300.39999389648</ele>
        <time>2013-02-19T10:35:01.000Z</time>
      </trkpt>
      <trkpt lat="43.52428" lon="5.53817">
        <ele>300.39999389648</ele>
        <time>2013-02-19T10:35:02.000Z</time>
      </trkpt>
      <trkpt lat="43.52427" lon="5.53815">
        <ele>300.39999389648</ele>
        <time>2013-02-19T10:35:03.000Z</time>
      </trkpt>
      <trkpt lat="43.52426" lon="5.53813">
        <ele>300.20001220703</ele>
        <time>2013-02-19T10:35:04.000Z</time>
      </trkpt>
      <trkpt lat="43.52423" lon="5.53802">
        <ele>300</ele>
        <time>2013-02-19T10:35:08.000Z</time>
      </trkpt>
      <trkpt lat="43.52423" lon="5.53799">
        <ele>300</ele>
        <time>2013-02-19T10:35:09.000Z</time>
      </trkpt>
      <trkpt lat="43.52423" lon="5.53796">
        <ele>300</ele>
        <time>2013-02-19T10:35:10.000Z</time>
      </trkpt>
      <trkpt lat="43.52423" lon="5.53793">
        <ele>299.79998779297</ele>
        <time>2013-02-19T10:35:11.000Z</time>
      </trkpt>
      <trkpt lat="43.52422" lon="5.5379">
        <ele>299.79998779297</ele>
        <time>2013-02-19T10:35:12.000Z</time>
      </trkpt>
      <trkpt lat="43.5242" lon="5.53787">
        <ele>299.60000610352</ele>
        <time>2013-02-19T10:35:13.000Z</time>
      </trkpt>
      <trkpt lat="43.52418" lon="5.53785">
        <ele>299.39999389648</ele>
        <time>2013-02-19T10:35:14.000Z</time>
      </trkpt>
      <trkpt lat="43.52417" lon="5.53782">
        <ele>299.39999389648</ele>
        <time>2013-02-19T10:35:15.000Z</time>
      </trkpt>
      <trkpt lat="43.52416" lon="5.53779">
        <ele>299.20001220703</ele>
        <time>2013-02-19T10:35:16.000Z</time>
      </trkpt>
      <trkpt lat="43.52415" lon="5.53776">
        <ele>299</ele>
        <time>2013-02-19T10:35:17.000Z</time>
      </trkpt>
      <trkpt lat="43.52414" lon="5.53772">
        <ele>299</ele>
        <time>2013-02-19T10:35:18.000Z</time>
      </trkpt>
      <trkpt lat="43.52412" lon="5.53769">
        <ele>298.79998779297</ele>
        <time>2013-02-19T10:35:19.000Z</time>
      </trkpt>
      <trkpt lat="43.52411" lon="5.53766">
        <ele>298.60000610352</ele>
        <time>2013-02-19T10:35:20.000Z</time>
      </trkpt>
      <trkpt lat="43.52406" lon="5.5375">
        <ele>297.60000610352</ele>
        <time>2013-02-19T10:35:26.000Z</time>
      </trkpt>
      <trkpt lat="43.52406" lon="5.53747">
        <ele>297.60000610352</ele>
        <time>2013-02-19T10:35:27.000Z</time>
      </trkpt>
      <trkpt lat="43.52407" lon="5.53742">
        <ele>297.60000610352</ele>
        <time>2013-02-19T10:35:28.000Z</time>
      </trkpt>
      <trkpt lat="43.52405" lon="5.53695">
        <ele>296.39999389648</ele>
        <time>2013-02-19T10:35:38.000Z</time>
      </trkpt>
      <trkpt lat="43.5241" lon="5.53645">
        <ele>295.39999389648</ele>
        <time>2013-02-19T10:35:48.000Z</time>
      </trkpt>
      <trkpt lat="43.52414" lon="5.53608">
        <ele>294</ele>
        <time>2013-02-19T10:35:54.000Z</time>
      </trkpt>
      <trkpt lat="43.52415" lon="5.5359">
        <ele>293</ele>
        <time>2013-02-19T10:35:57.000Z</time>
      </trkpt>
      <trkpt lat="43.52418" lon="5.53557">
        <ele>291.39999389648</ele>
        <time>2013-02-19T10:36:02.000Z</time>
      </trkpt>
      <trkpt lat="43.52418" lon="5.5355">
        <ele>291</ele>
        <time>2013-02-19T10:36:03.000Z</time>
      </trkpt>
      <trkpt lat="43.52417" lon="5.53543">
        <ele>290.60000610352</ele>
        <time>2013-02-19T10:36:04.000Z</time>
      </trkpt>
      <trkpt lat="43.52417" lon="5.53538">
        <ele>290.20001220703</ele>
        <time>2013-02-19T10:36:05.000Z</time>
      </trkpt>
      <trkpt lat="43.52417" lon="5.53534">
        <ele>290</ele>
        <time>2013-02-19T10:36:06.000Z</time>
      </trkpt>
      <trkpt lat="43.52419" lon="5.5353">
        <ele>290</ele>
        <time>2013-02-19T10:36:07.000Z</time>
      </trkpt>
      <trkpt lat="43.52421" lon="5.53526">
        <ele>290.20001220703</ele>
        <time>2013-02-19T10:36:08.000Z</time>
      </trkpt>
      <trkpt lat="43.52424" lon="5.53522">
        <ele>290.39999389648</ele>
        <time>2013-02-19T10:36:09.000Z</time>
      </trkpt>
      <trkpt lat="43.52427" lon="5.53519">
        <ele>290.60000610352</ele>
        <time>2013-02-19T10:36:10.000Z</time>
      </trkpt>
      <trkpt lat="43.52428" lon="5.53515">
        <ele>290.60000610352</ele>
        <time>2013-02-19T10:36:11.000Z</time>
      </trkpt>
      <trkpt lat="43.52428" lon="5.53511">
        <ele>290.39999389648</ele>
        <time>2013-02-19T10:36:12.000Z</time>
      </trkpt>
      <trkpt lat="43.52429" lon="5.53506">
        <ele>290.20001220703</ele>
        <time>2013-02-19T10:36:13.000Z</time>
      </trkpt>
      <trkpt lat="43.5243" lon="5.53501">
        <ele>290.20001220703</ele>
        <time>2013-02-19T10:36:14.000Z</time>
      </trkpt>
      <trkpt lat="43.52431" lon="5.53497">
        <ele>290.20001220703</ele>
        <time>2013-02-19T10:36:15.000Z</time>
      </trkpt>
      <trkpt lat="43.52433" lon="5.53493">
        <ele>290.20001220703</ele>
        <time>2013-02-19T10:36:16.000Z</time>
      </trkpt>
      <trkpt lat="43.52434" lon="5.53488">
        <ele>290</ele>
        <time>2013-02-19T10:36:17.000Z</time>
      </trkpt>
      <trkpt lat="43.52435" lon="5.53483">
        <ele>289.79998779297</ele>
        <time>2013-02-19T10:36:18.000Z</time>
      </trkpt>
      <trkpt lat="43.52436" lon="5.53478">
        <ele>289.60000610352</ele>
        <time>2013-02-19T10:36:19.000Z</time>
      </trkpt>
      <trkpt lat="43.52437" lon="5.53472">
        <ele>289.39999389648</ele>
        <time>2013-02-19T10:36:20.000Z</time>
      </trkpt>
      <trkpt lat="43.52437" lon="5.53465">
        <ele>289</ele>
        <time>2013-02-19T10:36:21.000Z</time>
      </trkpt>
      <trkpt lat="43.52442" lon="5.53411">
        <ele>286.20001220703</ele>
        <time>2013-02-19T10:36:29.000Z</time>
      </trkpt>
      <trkpt lat="43.52443" lon="5.53397">
        <ele>285.79998779297</ele>
        <time>2013-02-19T10:36:31.000Z</time>
      </trkpt>
      <trkpt lat="43.52451" lon="5.53365">
        <ele>285</ele>
        <time>2013-02-19T10:36:37.000Z</time>
      </trkpt>
      <trkpt lat="43.52452" lon="5.53359">
        <ele>284.79998779297</ele>
        <time>2013-02-19T10:36:38.000Z</time>
      </trkpt>
      <trkpt lat="43.52457" lon="5.5332">
        <ele>283.60000610352</ele>
        <time>2013-02-19T10:36:43.000Z</time>
      </trkpt>
      <trkpt lat="43.52458" lon="5.53311">
        <ele>283.20001220703</ele>
        <time>2013-02-19T10:36:44.000Z</time>
      </trkpt>
      <trkpt lat="43.5246" lon="5.53286">
        <ele>282.39999389648</ele>
        <time>2013-02-19T10:36:47.000Z</time>
      </trkpt>
      <trkpt lat="43.5246" lon="5.53257">
        <ele>281</ele>
        <time>2013-02-19T10:36:51.000Z</time>
      </trkpt>
      <trkpt lat="43.52461" lon="5.53252">
        <ele>281</ele>
        <time>2013-02-19T10:36:52.000Z</time>
      </trkpt>
      <trkpt lat="43.52463" lon="5.53248">
        <ele>281.20001220703</ele>
        <time>2013-02-19T10:36:53.000Z</time>
      </trkpt>
      <trkpt lat="43.52464" lon="5.53245">
        <ele>281.39999389648</ele>
        <time>2013-02-19T10:36:54.000Z</time>
      </trkpt>
      <trkpt lat="43.52466" lon="5.53244">
        <ele>281.60000610352</ele>
        <time>2013-02-19T10:36:55.000Z</time>
      </trkpt>
      <trkpt lat="43.52468" lon="5.53244">
        <ele>282</ele>
        <time>2013-02-19T10:36:56.000Z</time>
      </trkpt>
      <trkpt lat="43.52471" lon="5.53245">
        <ele>282.60000610352</ele>
        <time>2013-02-19T10:36:57.000Z</time>
      </trkpt>
      <trkpt lat="43.52473" lon="5.53246">
        <ele>283</ele>
        <time>2013-02-19T10:36:58.000Z</time>
      </trkpt>
      <trkpt lat="43.52475" lon="5.53248">
        <ele>283.39999389648</ele>
        <time>2013-02-19T10:36:59.000Z</time>
      </trkpt>
      <trkpt lat="43.52484" lon="5.53252">
        <ele>285</ele>
        <time>2013-02-19T10:37:03.000Z</time>
      </trkpt>
      <trkpt lat="43.52485" lon="5.53252">
        <ele>285.39999389648</ele>
        <time>2013-02-19T10:37:04.000Z</time>
      </trkpt>
      <trkpt lat="43.52487" lon="5.53251">
        <ele>285.60000610352</ele>
        <time>2013-02-19T10:37:05.000Z</time>
      </trkpt>
      <trkpt lat="43.52487" lon="5.5325">
        <ele>285.60000610352</ele>
        <time>2013-02-19T10:37:06.000Z</time>
      </trkpt>
      <trkpt lat="43.52488" lon="5.53248">
        <ele>285.79998779297</ele>
        <time>2013-02-19T10:37:07.000Z</time>
      </trkpt>
      <trkpt lat="43.52489" lon="5.53246">
        <ele>285.79998779297</ele>
        <time>2013-02-19T10:37:08.000Z</time>
      </trkpt>
      <trkpt lat="43.52489" lon="5.53244">
        <ele>285.79998779297</ele>
        <time>2013-02-19T10:37:09.000Z</time>
      </trkpt>
      <trkpt lat="43.52489" lon="5.53242">
        <ele>285.79998779297</ele>
        <time>2013-02-19T10:37:10.000Z</time>
      </trkpt>
      <trkpt lat="43.52489" lon="5.53238">
        <ele>285.79998779297</ele>
        <time>2013-02-19T10:37:12.000Z</time>
      </trkpt>
      <trkpt lat="43.52484" lon="5.53227">
        <ele>284.60000610352</ele>
        <time>2013-02-19T10:37:21.000Z</time>
      </trkpt>
      <trkpt lat="43.52482" lon="5.53227">
        <ele>284.20001220703</ele>
        <time>2013-02-19T10:37:37.000Z</time>
      </trkpt>
      <trkpt lat="43.52483" lon="5.53226">
        <ele>284.39999389648</ele>
        <time>2013-02-19T10:37:53.000Z</time>
      </trkpt>
      <trkpt lat="43.52483" lon="5.53227">
        <ele>284.39999389648</ele>
        <time>2013-02-19T10:38:12.000Z</time>
      </trkpt>
      <trkpt lat="43.52482" lon="5.53227">
        <ele>284.20001220703</ele>
        <time>2013-02-19T10:38:32.000Z</time>
      </trkpt>
      <trkpt lat="43.52485" lon="5.53227">
        <ele>284.79998779297</ele>
        <time>2013-02-19T10:38:53.000Z</time>
      </trkpt>
      <trkpt lat="43.52485" lon="5.53226">
        <ele>284.79998779297</ele>
        <time>2013-02-19T10:39:08.000Z</time>
      </trkpt>
      <trkpt lat="43.52484" lon="5.53226">
        <ele>284.60000610352</ele>
        <time>2013-02-19T10:39:24.000Z</time>
      </trkpt>
      <trkpt lat="43.52484" lon="5.53226">
        <ele>284.60000610352</ele>
        <time>2013-02-19T10:39:47.000Z</time>
      </trkpt>
      <trkpt lat="43.52485" lon="5.53226">
        <ele>284.60000610352</ele>
        <time>2013-02-19T10:40:05.000Z</time>
      </trkpt>
      <trkpt lat="43.52485" lon="5.53226">
        <ele>284.79998779297</ele>
        <time>2013-02-19T10:40:22.000Z</time>
      </trkpt>
      <trkpt lat="43.52481" lon="5.53221">
        <ele>284</ele>
        <time>2013-02-19T10:40:32.000Z</time>
      </trkpt>
      <trkpt lat="43.52466" lon="5.53189">
        <ele>280.20001220703</ele>
        <time>2013-02-19T10:40:38.000Z</time>
      </trkpt>
      <trkpt lat="43.52457" lon="5.53162">
        <ele>277.60000610352</ele>
        <time>2013-02-19T10:40:42.000Z</time>
      </trkpt>
      <trkpt lat="43.52445" lon="5.53106">
        <ele>274.79998779297</ele>
        <time>2013-02-19T10:40:49.000Z</time>
      </trkpt>
      <trkpt lat="43.52442" lon="5.53086">
        <ele>274</ele>
        <time>2013-02-19T10:40:51.000Z</time>
      </trkpt>
      <trkpt lat="43.52435" lon="5.53055">
        <ele>271.60000610352</ele>
        <time>2013-02-19T10:40:54.000Z</time>
      </trkpt>
      <trkpt lat="43.52433" lon="5.53044">
        <ele>270.79998779297</ele>
        <time>2013-02-19T10:40:55.000Z</time>
      </trkpt>
      <trkpt lat="43.52432" lon="5.53033">
        <ele>270.39999389648</ele>
        <time>2013-02-19T10:40:56.000Z</time>
      </trkpt>
      <trkpt lat="43.52433" lon="5.53021">
        <ele>270</ele>
        <time>2013-02-19T10:40:57.000Z</time>
      </trkpt>
      <trkpt lat="43.52436" lon="5.52997">
        <ele>269.39999389648</ele>
        <time>2013-02-19T10:40:59.000Z</time>
      </trkpt>
      <trkpt lat="43.52436" lon="5.52984">
        <ele>268</ele>
        <time>2013-02-19T10:41:00.000Z</time>
      </trkpt>
      <trkpt lat="43.52431" lon="5.52938">
        <ele>262.79998779297</ele>
        <time>2013-02-19T10:41:04.000Z</time>
      </trkpt>
      <trkpt lat="43.52429" lon="5.52929">
        <ele>261.60000610352</ele>
        <time>2013-02-19T10:41:05.000Z</time>
      </trkpt>
      <trkpt lat="43.52427" lon="5.52921">
        <ele>260.39999389648</ele>
        <time>2013-02-19T10:41:06.000Z</time>
      </trkpt>
      <trkpt lat="43.52426" lon="5.52912">
        <ele>259.79998779297</ele>
        <time>2013-02-19T10:41:07.000Z</time>
      </trkpt>
      <trkpt lat="43.52428" lon="5.52903">
        <ele>259.60000610352</ele>
        <time>2013-02-19T10:41:08.000Z</time>
      </trkpt>
      <trkpt lat="43.52432" lon="5.52894">
        <ele>259.79998779297</ele>
        <time>2013-02-19T10:41:09.000Z</time>
      </trkpt>
      <trkpt lat="43.52435" lon="5.52886">
        <ele>260</ele>
        <time>2013-02-19T10:41:10.000Z</time>
      </trkpt>
      <trkpt lat="43.52437" lon="5.52877">
        <ele>260</ele>
        <time>2013-02-19T10:41:11.000Z</time>
      </trkpt>
      <trkpt lat="43.52438" lon="5.52869">
        <ele>260</ele>
        <time>2013-02-19T10:41:12.000Z</time>
      </trkpt>
      <trkpt lat="43.52441" lon="5.52832">
        <ele>259.39999389648</ele>
        <time>2013-02-19T10:41:18.000Z</time>
      </trkpt>
      <trkpt lat="43.52442" lon="5.52808">
        <ele>261</ele>
        <time>2013-02-19T10:41:24.000Z</time>
      </trkpt>
      <trkpt lat="43.52441" lon="5.52785">
        <ele>262</ele>
        <time>2013-02-19T10:41:32.000Z</time>
      </trkpt>
      <trkpt lat="43.52441" lon="5.5278">
        <ele>262.60000610352</ele>
        <time>2013-02-19T10:41:34.000Z</time>
      </trkpt>
      <trkpt lat="43.52441" lon="5.52755">
        <ele>263.79998779297</ele>
        <time>2013-02-19T10:41:43.000Z</time>
      </trkpt>
      <trkpt lat="43.52439" lon="5.52742">
        <ele>263.60000610352</ele>
        <time>2013-02-19T10:41:48.000Z</time>
      </trkpt>
      <trkpt lat="43.52438" lon="5.5273">
        <ele>263.60000610352</ele>
        <time>2013-02-19T10:41:52.000Z</time>
      </trkpt>
      <trkpt lat="43.52437" lon="5.52703">
        <ele>263.60000610352</ele>
        <time>2013-02-19T10:42:01.000Z</time>
      </trkpt>
      <trkpt lat="43.52448" lon="5.52667">
        <ele>267.20001220703</ele>
        <time>2013-02-19T10:42:09.000Z</time>
      </trkpt>
      <trkpt lat="43.52451" lon="5.52661">
        <ele>268.20001220703</ele>
        <time>2013-02-19T10:42:10.000Z</time>
      </trkpt>
      <trkpt lat="43.52457" lon="5.52651">
        <ele>270</ele>
        <time>2013-02-19T10:42:12.000Z</time>
      </trkpt>
      <trkpt lat="43.52465" lon="5.52634">
        <ele>271.60000610352</ele>
        <time>2013-02-19T10:42:15.000Z</time>
      </trkpt>
      <trkpt lat="43.5248" lon="5.52611">
        <ele>273.60000610352</ele>
        <time>2013-02-19T10:42:20.000Z</time>
      </trkpt>
      <trkpt lat="43.52483" lon="5.52607">
        <ele>274</ele>
        <time>2013-02-19T10:42:21.000Z</time>
      </trkpt>
      <trkpt lat="43.52486" lon="5.52603">
        <ele>274</ele>
        <time>2013-02-19T10:42:22.000Z</time>
      </trkpt>
      <trkpt lat="43.52492" lon="5.52594">
        <ele>274</ele>
        <time>2013-02-19T10:42:24.000Z</time>
      </trkpt>
      <trkpt lat="43.52513" lon="5.52525">
        <ele>273.39999389648</ele>
        <time>2013-02-19T10:42:34.000Z</time>
      </trkpt>
      <trkpt lat="43.52525" lon="5.52476">
        <ele>275.20001220703</ele>
        <time>2013-02-19T10:42:43.000Z</time>
      </trkpt>
      <trkpt lat="43.52527" lon="5.52458">
        <ele>276.60000610352</ele>
        <time>2013-02-19T10:42:48.000Z</time>
      </trkpt>
      <trkpt lat="43.52538" lon="5.52431">
        <ele>279</ele>
        <time>2013-02-19T10:42:56.000Z</time>
      </trkpt>
      <trkpt lat="43.5256" lon="5.52397">
        <ele>282.20001220703</ele>
        <time>2013-02-19T10:43:06.000Z</time>
      </trkpt>
      <trkpt lat="43.52582" lon="5.52361">
        <ele>284.20001220703</ele>
        <time>2013-02-19T10:43:17.000Z</time>
      </trkpt>
      <trkpt lat="43.52591" lon="5.52334">
        <ele>285.79998779297</ele>
        <time>2013-02-19T10:43:27.000Z</time>
      </trkpt>
      <trkpt lat="43.52592" lon="5.52306">
        <ele>286.79998779297</ele>
        <time>2013-02-19T10:43:35.000Z</time>
      </trkpt>
      <trkpt lat="43.52593" lon="5.52262">
        <ele>288.39999389648</ele>
        <time>2013-02-19T10:43:45.000Z</time>
      </trkpt>
      <trkpt lat="43.52583" lon="5.5222">
        <ele>288.39999389648</ele>
        <time>2013-02-19T10:43:56.000Z</time>
      </trkpt>
      <trkpt lat="43.52574" lon="5.52195">
        <ele>289</ele>
        <time>2013-02-19T10:44:05.000Z</time>
      </trkpt>
      <trkpt lat="43.52578" lon="5.5216">
        <ele>290.60000610352</ele>
        <time>2013-02-19T10:44:13.000Z</time>
      </trkpt>
      <trkpt lat="43.52578" lon="5.52156">
        <ele>290.79998779297</ele>
        <time>2013-02-19T10:44:14.000Z</time>
      </trkpt>
      <trkpt lat="43.52585" lon="5.52114">
        <ele>293.79998779297</ele>
        <time>2013-02-19T10:44:24.000Z</time>
      </trkpt>
      <trkpt lat="43.52595" lon="5.52073">
        <ele>297.39999389648</ele>
        <time>2013-02-19T10:44:35.000Z</time>
      </trkpt>
      <trkpt lat="43.52601" lon="5.52047">
        <ele>299.39999389648</ele>
        <time>2013-02-19T10:44:44.000Z</time>
      </trkpt>
      <trkpt lat="43.526" lon="5.52025">
        <ele>300.39999389648</ele>
        <time>2013-02-19T10:44:53.000Z</time>
      </trkpt>
      <trkpt lat="43.52601" lon="5.52023">
        <ele>300.60000610352</ele>
        <time>2013-02-19T10:44:54.000Z</time>
      </trkpt>
      <trkpt lat="43.52609" lon="5.52012">
        <ele>302.60000610352</ele>
        <time>2013-02-19T10:45:03.000Z</time>
      </trkpt>
      <trkpt lat="43.52608" lon="5.52013">
        <ele>302.39999389648</ele>
        <time>2013-02-19T10:45:26.000Z</time>
      </trkpt>
      <trkpt lat="43.52614" lon="5.52005">
        <ele>304</ele>
        <time>2013-02-19T10:45:44.000Z</time>
      </trkpt>
      <trkpt lat="43.5263" lon="5.51986">
        <ele>306.39999389648</ele>
        <time>2013-02-19T10:45:53.000Z</time>
      </trkpt>
      <trkpt lat="43.52638" lon="5.51951">
        <ele>305.60000610352</ele>
        <time>2013-02-19T10:46:02.000Z</time>
      </trkpt>
      <trkpt lat="43.52647" lon="5.51911">
        <ele>304.39999389648</ele>
        <time>2013-02-19T10:46:12.000Z</time>
      </trkpt>
      <trkpt lat="43.52655" lon="5.51874">
        <ele>301.60000610352</ele>
        <time>2013-02-19T10:46:22.000Z</time>
      </trkpt>
      <trkpt lat="43.5267" lon="5.51839">
        <ele>300</ele>
        <time>2013-02-19T10:46:31.000Z</time>
      </trkpt>
      <trkpt lat="43.52689" lon="5.51799">
        <ele>297.20001220703</ele>
        <time>2013-02-19T10:46:40.000Z</time>
      </trkpt>
      <trkpt lat="43.5269" lon="5.51794">
        <ele>296.79998779297</ele>
        <time>2013-02-19T10:46:41.000Z</time>
      </trkpt>
      <trkpt lat="43.52691" lon="5.51788">
        <ele>296</ele>
        <time>2013-02-19T10:46:42.000Z</time>
      </trkpt>
      <trkpt lat="43.52691" lon="5.51781">
        <ele>295.20001220703</ele>
        <time>2013-02-19T10:46:43.000Z</time>
      </trkpt>
      <trkpt lat="43.5269" lon="5.51774">
        <ele>294.39999389648</ele>
        <time>2013-02-19T10:46:44.000Z</time>
      </trkpt>
      <trkpt lat="43.5269" lon="5.51769">
        <ele>293.39999389648</ele>
        <time>2013-02-19T10:46:45.000Z</time>
      </trkpt>
      <trkpt lat="43.52695" lon="5.5173">
        <ele>291.20001220703</ele>
        <time>2013-02-19T10:46:53.000Z</time>
      </trkpt>
      <trkpt lat="43.52702" lon="5.51706">
        <ele>291.39999389648</ele>
        <time>2013-02-19T10:46:58.000Z</time>
      </trkpt>
      <trkpt lat="43.52707" lon="5.51657">
        <ele>290.39999389648</ele>
        <time>2013-02-19T10:47:05.000Z</time>
      </trkpt>
      <trkpt lat="43.52709" lon="5.5165">
        <ele>290.60000610352</ele>
        <time>2013-02-19T10:47:06.000Z</time>
      </trkpt>
      <trkpt lat="43.5271" lon="5.51643">
        <ele>290.39999389648</ele>
        <time>2013-02-19T10:47:07.000Z</time>
      </trkpt>
      <trkpt lat="43.5271" lon="5.51629">
        <ele>289.60000610352</ele>
        <time>2013-02-19T10:47:09.000Z</time>
      </trkpt>
      <trkpt lat="43.5271" lon="5.51621">
        <ele>289</ele>
        <time>2013-02-19T10:47:10.000Z</time>
      </trkpt>
      <trkpt lat="43.52711" lon="5.51613">
        <ele>288.79998779297</ele>
        <time>2013-02-19T10:47:11.000Z</time>
      </trkpt>
      <trkpt lat="43.52712" lon="5.51605">
        <ele>288.60000610352</ele>
        <time>2013-02-19T10:47:12.000Z</time>
      </trkpt>
      <trkpt lat="43.52711" lon="5.51598">
        <ele>288</ele>
        <time>2013-02-19T10:47:13.000Z</time>
      </trkpt>
      <trkpt lat="43.52711" lon="5.51592">
        <ele>287.39999389648</ele>
        <time>2013-02-19T10:47:14.000Z</time>
      </trkpt>
      <trkpt lat="43.5271" lon="5.51581">
        <ele>286.39999389648</ele>
        <time>2013-02-19T10:47:16.000Z</time>
      </trkpt>
      <trkpt lat="43.52708" lon="5.51563">
        <ele>284.39999389648</ele>
        <time>2013-02-19T10:47:20.000Z</time>
      </trkpt>
      <trkpt lat="43.52707" lon="5.51557">
        <ele>284</ele>
        <time>2013-02-19T10:47:21.000Z</time>
      </trkpt>
      <trkpt lat="43.52707" lon="5.51534">
        <ele>282.39999389648</ele>
        <time>2013-02-19T10:47:28.000Z</time>
      </trkpt>
      <trkpt lat="43.52711" lon="5.51528">
        <ele>283.79998779297</ele>
        <time>2013-02-19T10:47:38.000Z</time>
      </trkpt>
      <trkpt lat="43.52712" lon="5.5152">
        <ele>283.39999389648</ele>
        <time>2013-02-19T10:47:44.000Z</time>
      </trkpt>
      <trkpt lat="43.52711" lon="5.51518">
        <ele>283.20001220703</ele>
        <time>2013-02-19T10:47:45.000Z</time>
      </trkpt>
      <trkpt lat="43.52712" lon="5.51517">
        <ele>283.20001220703</ele>
        <time>2013-02-19T10:47:46.000Z</time>
      </trkpt>
      <trkpt lat="43.52713" lon="5.51513">
        <ele>283.39999389648</ele>
        <time>2013-02-19T10:47:50.000Z</time>
      </trkpt>
      <trkpt lat="43.52717" lon="5.51507">
        <ele>284.60000610352</ele>
        <time>2013-02-19T10:47:55.000Z</time>
      </trkpt>
      <trkpt lat="43.52717" lon="5.51505">
        <ele>284.60000610352</ele>
        <time>2013-02-19T10:47:56.000Z</time>
      </trkpt>
      <trkpt lat="43.52722" lon="5.51497">
        <ele>286.20001220703</ele>
        <time>2013-02-19T10:48:06.000Z</time>
      </trkpt>
      <trkpt lat="43.52732" lon="5.51483">
        <ele>290.60000610352</ele>
        <time>2013-02-19T10:48:14.000Z</time>
      </trkpt>
      <trkpt lat="43.52748" lon="5.51478">
        <ele>296.60000610352</ele>
        <time>2013-02-19T10:48:19.000Z</time>
      </trkpt>
      <trkpt lat="43.52768" lon="5.51466">
        <ele>294.60000610352</ele>
        <time>2013-02-19T10:48:28.000Z</time>
      </trkpt>
      <trkpt lat="43.5279" lon="5.51452">
        <ele>291.39999389648</ele>
        <time>2013-02-19T10:48:37.000Z</time>
      </trkpt>
      <trkpt lat="43.52811" lon="5.51445">
        <ele>288.20001220703</ele>
        <time>2013-02-19T10:48:43.000Z</time>
      </trkpt>
      <trkpt lat="43.52831" lon="5.51439">
        <ele>285.20001220703</ele>
        <time>2013-02-19T10:48:49.000Z</time>
      </trkpt>
      <trkpt lat="43.52857" lon="5.51438">
        <ele>281</ele>
        <time>2013-02-19T10:48:56.000Z</time>
      </trkpt>
      <trkpt lat="43.52876" lon="5.51433">
        <ele>278</ele>
        <time>2013-02-19T10:49:00.000Z</time>
      </trkpt>
      <trkpt lat="43.52881" lon="5.5143">
        <ele>277.39999389648</ele>
        <time>2013-02-19T10:49:01.000Z</time>
      </trkpt>
      <trkpt lat="43.52886" lon="5.51425">
        <ele>276.79998779297</ele>
        <time>2013-02-19T10:49:02.000Z</time>
      </trkpt>
      <trkpt lat="43.52896" lon="5.51416">
        <ele>275.20001220703</ele>
        <time>2013-02-19T10:49:04.000Z</time>
      </trkpt>
      <trkpt lat="43.52902" lon="5.51411">
        <ele>273.20001220703</ele>
        <time>2013-02-19T10:49:05.000Z</time>
      </trkpt>
      <trkpt lat="43.5291" lon="5.51408">
        <ele>271.20001220703</ele>
        <time>2013-02-19T10:49:06.000Z</time>
      </trkpt>
      <trkpt lat="43.52937" lon="5.51399">
        <ele>267.79998779297</ele>
        <time>2013-02-19T10:49:09.000Z</time>
      </trkpt>
      <trkpt lat="43.52979" lon="5.5139">
        <ele>266.20001220703</ele>
        <time>2013-02-19T10:49:13.000Z</time>
      </trkpt>
      <trkpt lat="43.52988" lon="5.51387">
        <ele>266</ele>
        <time>2013-02-19T10:49:14.000Z</time>
      </trkpt>
      <trkpt lat="43.53003" lon="5.51381">
        <ele>266.20001220703</ele>
        <time>2013-02-19T10:49:16.000Z</time>
      </trkpt>
      <trkpt lat="43.53008" lon="5.51377">
        <ele>266.60000610352</ele>
        <time>2013-02-19T10:49:17.000Z</time>
      </trkpt>
      <trkpt lat="43.53011" lon="5.51374">
        <ele>266.79998779297</ele>
        <time>2013-02-19T10:49:18.000Z</time>
      </trkpt>
      <trkpt lat="43.53014" lon="5.51372">
        <ele>267</ele>
        <time>2013-02-19T10:49:19.000Z</time>
      </trkpt>
      <trkpt lat="43.53017" lon="5.51371">
        <ele>267.39999389648</ele>
        <time>2013-02-19T10:49:20.000Z</time>
      </trkpt>
      <trkpt lat="43.53021" lon="5.51371">
        <ele>267.60000610352</ele>
        <time>2013-02-19T10:49:21.000Z</time>
      </trkpt>
      <trkpt lat="43.53025" lon="5.51371">
        <ele>268</ele>
        <time>2013-02-19T10:49:22.000Z</time>
      </trkpt>
      <trkpt lat="43.53029" lon="5.51371">
        <ele>268.39999389648</ele>
        <time>2013-02-19T10:49:23.000Z</time>
      </trkpt>
      <trkpt lat="43.53039" lon="5.51372">
        <ele>269.20001220703</ele>
        <time>2013-02-19T10:49:25.000Z</time>
      </trkpt>
      <trkpt lat="43.53054" lon="5.51374">
        <ele>270.20001220703</ele>
        <time>2013-02-19T10:49:28.000Z</time>
      </trkpt>
      <trkpt lat="43.53059" lon="5.51373">
        <ele>270.60000610352</ele>
        <time>2013-02-19T10:49:29.000Z</time>
      </trkpt>
      <trkpt lat="43.53063" lon="5.51373">
        <ele>271.20001220703</ele>
        <time>2013-02-19T10:49:30.000Z</time>
      </trkpt>
      <trkpt lat="43.53073" lon="5.51372">
        <ele>272</ele>
        <time>2013-02-19T10:49:32.000Z</time>
      </trkpt>
      <trkpt lat="43.53102" lon="5.5137">
        <ele>269.60000610352</ele>
        <time>2013-02-19T10:49:38.000Z</time>
      </trkpt>
      <trkpt lat="43.53112" lon="5.51369">
        <ele>268</ele>
        <time>2013-02-19T10:49:41.000Z</time>
      </trkpt>
      <trkpt lat="43.53113" lon="5.51367">
        <ele>268</ele>
        <time>2013-02-19T10:49:42.000Z</time>
      </trkpt>
      <trkpt lat="43.53114" lon="5.51365">
        <ele>268</ele>
        <time>2013-02-19T10:49:43.000Z</time>
      </trkpt>
      <trkpt lat="43.53115" lon="5.51362">
        <ele>268.20001220703</ele>
        <time>2013-02-19T10:49:44.000Z</time>
      </trkpt>
      <trkpt lat="43.53117" lon="5.51358">
        <ele>268.20001220703</ele>
        <time>2013-02-19T10:49:45.000Z</time>
      </trkpt>
      <trkpt lat="43.53118" lon="5.51352">
        <ele>268.60000610352</ele>
        <time>2013-02-19T10:49:46.000Z</time>
      </trkpt>
      <trkpt lat="43.5312" lon="5.51345">
        <ele>269.20001220703</ele>
        <time>2013-02-19T10:49:47.000Z</time>
      </trkpt>
      <trkpt lat="43.53121" lon="5.51338">
        <ele>269.79998779297</ele>
        <time>2013-02-19T10:49:48.000Z</time>
      </trkpt>
      <trkpt lat="43.53124" lon="5.51312">
        <ele>267.60000610352</ele>
        <time>2013-02-19T10:49:51.000Z</time>
      </trkpt>
      <trkpt lat="43.53127" lon="5.51288">
        <ele>265</ele>
        <time>2013-02-19T10:49:54.000Z</time>
      </trkpt>
      <trkpt lat="43.53134" lon="5.51259">
        <ele>261.79998779297</ele>
        <time>2013-02-19T10:49:57.000Z</time>
      </trkpt>
      <trkpt lat="43.53141" lon="5.51223">
        <ele>257.39999389648</ele>
        <time>2013-02-19T10:50:00.000Z</time>
      </trkpt>
      <trkpt lat="43.53145" lon="5.51202">
        <ele>254.80000305176</ele>
        <time>2013-02-19T10:50:02.000Z</time>
      </trkpt>
      <trkpt lat="43.53148" lon="5.51192">
        <ele>254</ele>
        <time>2013-02-19T10:50:03.000Z</time>
      </trkpt>
      <trkpt lat="43.53149" lon="5.51182">
        <ele>253</ele>
        <time>2013-02-19T10:50:04.000Z</time>
      </trkpt>
      <trkpt lat="43.53149" lon="5.51173">
        <ele>252</ele>
        <time>2013-02-19T10:50:05.000Z</time>
      </trkpt>
      <trkpt lat="43.53149" lon="5.51164">
        <ele>250.80000305176</ele>
        <time>2013-02-19T10:50:06.000Z</time>
      </trkpt>
      <trkpt lat="43.53147" lon="5.51156">
        <ele>248.80000305176</ele>
        <time>2013-02-19T10:50:07.000Z</time>
      </trkpt>
      <trkpt lat="43.53144" lon="5.51148">
        <ele>246.80000305176</ele>
        <time>2013-02-19T10:50:08.000Z</time>
      </trkpt>
      <trkpt lat="43.53143" lon="5.51141">
        <ele>245</ele>
        <time>2013-02-19T10:50:09.000Z</time>
      </trkpt>
      <trkpt lat="43.53142" lon="5.51133">
        <ele>243.39999389648</ele>
        <time>2013-02-19T10:50:10.000Z</time>
      </trkpt>
      <trkpt lat="43.53144" lon="5.51126">
        <ele>242.19999694824</ele>
        <time>2013-02-19T10:50:11.000Z</time>
      </trkpt>
      <trkpt lat="43.5315" lon="5.51106">
        <ele>238.60000610352</ele>
        <time>2013-02-19T10:50:14.000Z</time>
      </trkpt>
      <trkpt lat="43.53153" lon="5.51101">
        <ele>238</ele>
        <time>2013-02-19T10:50:15.000Z</time>
      </trkpt>
      <trkpt lat="43.53156" lon="5.51098">
        <ele>237.60000610352</ele>
        <time>2013-02-19T10:50:16.000Z</time>
      </trkpt>
      <trkpt lat="43.53158" lon="5.51096">
        <ele>237.39999389648</ele>
        <time>2013-02-19T10:50:17.000Z</time>
      </trkpt>
      <trkpt lat="43.53159" lon="5.51094">
        <ele>237.39999389648</ele>
        <time>2013-02-19T10:50:18.000Z</time>
      </trkpt>
      <trkpt lat="43.53161" lon="5.51093">
        <ele>237.19999694824</ele>
        <time>2013-02-19T10:50:19.000Z</time>
      </trkpt>
      <trkpt lat="43.5317" lon="5.51086">
        <ele>236</ele>
        <time>2013-02-19T10:50:27.000Z</time>
      </trkpt>
      <trkpt lat="43.5317" lon="5.51084">
        <ele>235.39999389648</ele>
        <time>2013-02-19T10:50:28.000Z</time>
      </trkpt>
      <trkpt lat="43.53171" lon="5.51081">
        <ele>235</ele>
        <time>2013-02-19T10:50:29.000Z</time>
      </trkpt>
      <trkpt lat="43.53171" lon="5.51078">
        <ele>234.39999389648</ele>
        <time>2013-02-19T10:50:30.000Z</time>
      </trkpt>
      <trkpt lat="43.53172" lon="5.51076">
        <ele>233.80000305176</ele>
        <time>2013-02-19T10:50:31.000Z</time>
      </trkpt>
      <trkpt lat="43.53174" lon="5.51076">
        <ele>233.39999389648</ele>
        <time>2013-02-19T10:50:32.000Z</time>
      </trkpt>
      <trkpt lat="43.53176" lon="5.51076">
        <ele>233.19999694824</ele>
        <time>2013-02-19T10:50:33.000Z</time>
      </trkpt>
      <trkpt lat="43.53179" lon="5.51075">
        <ele>232.80000305176</ele>
        <time>2013-02-19T10:50:34.000Z</time>
      </trkpt>
      <trkpt lat="43.53185" lon="5.51075">
        <ele>232</ele>
        <time>2013-02-19T10:50:36.000Z</time>
      </trkpt>
      <trkpt lat="43.53188" lon="5.51077">
        <ele>232</ele>
        <time>2013-02-19T10:50:37.000Z</time>
      </trkpt>
      <trkpt lat="43.53195" lon="5.51084">
        <ele>232.19999694824</ele>
        <time>2013-02-19T10:50:41.000Z</time>
      </trkpt>
      <trkpt lat="43.53195" lon="5.51088">
        <ele>232.80000305176</ele>
        <time>2013-02-19T10:50:42.000Z</time>
      </trkpt>
      <trkpt lat="43.53196" lon="5.5109">
        <ele>233.19999694824</ele>
        <time>2013-02-19T10:50:43.000Z</time>
      </trkpt>
      <trkpt lat="43.53197" lon="5.51092">
        <ele>233.39999389648</ele>
        <time>2013-02-19T10:50:44.000Z</time>
      </trkpt>
      <trkpt lat="43.53198" lon="5.51094">
        <ele>233.60000610352</ele>
        <time>2013-02-19T10:50:45.000Z</time>
      </trkpt>
      <trkpt lat="43.53199" lon="5.51095">
        <ele>233.80000305176</ele>
        <time>2013-02-19T10:50:46.000Z</time>
      </trkpt>
      <trkpt lat="43.53199" lon="5.51097">
        <ele>233.80000305176</ele>
        <time>2013-02-19T10:50:47.000Z</time>
      </trkpt>
      <trkpt lat="43.53199" lon="5.51098">
        <ele>234</ele>
        <time>2013-02-19T10:50:48.000Z</time>
      </trkpt>
      <trkpt lat="43.532" lon="5.511">
        <ele>234.19999694824</ele>
        <time>2013-02-19T10:50:59.000Z</time>
      </trkpt>
      <trkpt lat="43.53201" lon="5.51103">
        <ele>234.60000610352</ele>
        <time>2013-02-19T10:51:02.000Z</time>
      </trkpt>
      <trkpt lat="43.53202" lon="5.51107">
        <ele>235.19999694824</ele>
        <time>2013-02-19T10:51:11.000Z</time>
      </trkpt>
      <trkpt lat="43.53202" lon="5.5111">
        <ele>235.60000610352</ele>
        <time>2013-02-19T10:51:15.000Z</time>
      </trkpt>
      <trkpt lat="43.53205" lon="5.51119">
        <ele>236.60000610352</ele>
        <time>2013-02-19T10:51:24.000Z</time>
      </trkpt>
      <trkpt lat="43.53209" lon="5.51123">
        <ele>236.60000610352</ele>
        <time>2013-02-19T10:51:28.000Z</time>
      </trkpt>
      <trkpt lat="43.53235" lon="5.51138">
        <ele>233.39999389648</ele>
        <time>2013-02-19T10:51:40.000Z</time>
      </trkpt>
      <trkpt lat="43.53252" lon="5.51136">
        <ele>230.39999389648</ele>
        <time>2013-02-19T10:51:48.000Z</time>
      </trkpt>
      <trkpt lat="43.53259" lon="5.51142">
        <ele>232.19999694824</ele>
        <time>2013-02-19T10:51:55.000Z</time>
      </trkpt>
      <trkpt lat="43.53265" lon="5.51148">
        <ele>233.80000305176</ele>
        <time>2013-02-19T10:51:59.000Z</time>
      </trkpt>
      <trkpt lat="43.53267" lon="5.51151">
        <ele>234.39999389648</ele>
        <time>2013-02-19T10:52:00.000Z</time>
      </trkpt>
      <trkpt lat="43.53268" lon="5.51154">
        <ele>235</ele>
        <time>2013-02-19T10:52:01.000Z</time>
      </trkpt>
      <trkpt lat="43.5327" lon="5.51156">
        <ele>235.39999389648</ele>
        <time>2013-02-19T10:52:02.000Z</time>
      </trkpt>
      <trkpt lat="43.53279" lon="5.5117">
        <ele>238.60000610352</ele>
        <time>2013-02-19T10:52:11.000Z</time>
      </trkpt>
      <trkpt lat="43.53287" lon="5.51181">
        <ele>241.80000305176</ele>
        <time>2013-02-19T10:52:20.000Z</time>
      </trkpt>
      <trkpt lat="43.53305" lon="5.51177">
        <ele>244.39999389648</ele>
        <time>2013-02-19T10:52:26.000Z</time>
      </trkpt>
      <trkpt lat="43.5331" lon="5.51168">
        <ele>243.80000305176</ele>
        <time>2013-02-19T10:52:29.000Z</time>
      </trkpt>
      <trkpt lat="43.53311" lon="5.51164">
        <ele>243.80000305176</ele>
        <time>2013-02-19T10:52:38.000Z</time>
      </trkpt>
      <trkpt lat="43.53312" lon="5.51162">
        <ele>243.80000305176</ele>
        <time>2013-02-19T10:52:55.000Z</time>
      </trkpt>
      <trkpt lat="43.5331" lon="5.51164">
        <ele>243.60000610352</ele>
        <time>2013-02-19T10:53:04.000Z</time>
      </trkpt>
      <trkpt lat="43.5331" lon="5.51162">
        <ele>243.39999389648</ele>
        <time>2013-02-19T10:53:05.000Z</time>
      </trkpt>
      <trkpt lat="43.53311" lon="5.51159">
        <ele>243.19999694824</ele>
        <time>2013-02-19T10:53:06.000Z</time>
      </trkpt>
      <trkpt lat="43.53311" lon="5.51154">
        <ele>242.80000305176</ele>
        <time>2013-02-19T10:53:07.000Z</time>
      </trkpt>
      <trkpt lat="43.53312" lon="5.51149">
        <ele>242.39999389648</ele>
        <time>2013-02-19T10:53:08.000Z</time>
      </trkpt>
      <trkpt lat="43.53312" lon="5.51144">
        <ele>242</ele>
        <time>2013-02-19T10:53:09.000Z</time>
      </trkpt>
      <trkpt lat="43.53311" lon="5.51139">
        <ele>241.39999389648</ele>
        <time>2013-02-19T10:53:10.000Z</time>
      </trkpt>
      <trkpt lat="43.5331" lon="5.51134">
        <ele>240.80000305176</ele>
        <time>2013-02-19T10:53:11.000Z</time>
      </trkpt>
      <trkpt lat="43.53309" lon="5.51129">
        <ele>240.19999694824</ele>
        <time>2013-02-19T10:53:12.000Z</time>
      </trkpt>
      <trkpt lat="43.53309" lon="5.51124">
        <ele>239.80000305176</ele>
        <time>2013-02-19T10:53:13.000Z</time>
      </trkpt>
      <trkpt lat="43.53308" lon="5.51118">
        <ele>239</ele>
        <time>2013-02-19T10:53:14.000Z</time>
      </trkpt>
      <trkpt lat="43.53306" lon="5.51112">
        <ele>238.19999694824</ele>
        <time>2013-02-19T10:53:15.000Z</time>
      </trkpt>
      <trkpt lat="43.53305" lon="5.51106">
        <ele>237.39999389648</ele>
        <time>2013-02-19T10:53:16.000Z</time>
      </trkpt>
      <trkpt lat="43.53304" lon="5.51101">
        <ele>236.80000305176</ele>
        <time>2013-02-19T10:53:17.000Z</time>
      </trkpt>
      <trkpt lat="43.53303" lon="5.51096">
        <ele>236.19999694824</ele>
        <time>2013-02-19T10:53:18.000Z</time>
      </trkpt>
      <trkpt lat="43.53303" lon="5.51092">
        <ele>235.80000305176</ele>
        <time>2013-02-19T10:53:19.000Z</time>
      </trkpt>
      <trkpt lat="43.53303" lon="5.51088">
        <ele>235.60000610352</ele>
        <time>2013-02-19T10:53:20.000Z</time>
      </trkpt>
      <trkpt lat="43.53304" lon="5.51085">
        <ele>235.39999389648</ele>
        <time>2013-02-19T10:53:21.000Z</time>
      </trkpt>
      <trkpt lat="43.53305" lon="5.51082">
        <ele>235.39999389648</ele>
        <time>2013-02-19T10:53:22.000Z</time>
      </trkpt>
      <trkpt lat="43.5332" lon="5.51068">
        <ele>237.19999694824</ele>
        <time>2013-02-19T10:53:27.000Z</time>
      </trkpt>
      <trkpt lat="43.53323" lon="5.51062">
        <ele>237.60000610352</ele>
        <time>2013-02-19T10:53:28.000Z</time>
      </trkpt>
      <trkpt lat="43.53325" lon="5.51055">
        <ele>237.60000610352</ele>
        <time>2013-02-19T10:53:29.000Z</time>
      </trkpt>
      <trkpt lat="43.53326" lon="5.51047">
        <ele>237.19999694824</ele>
        <time>2013-02-19T10:53:30.000Z</time>
      </trkpt>
      <trkpt lat="43.53326" lon="5.51039">
        <ele>236.60000610352</ele>
        <time>2013-02-19T10:53:31.000Z</time>
      </trkpt>
      <trkpt lat="43.53325" lon="5.51031">
        <ele>236</ele>
        <time>2013-02-19T10:53:32.000Z</time>
      </trkpt>
      <trkpt lat="43.53323" lon="5.51026">
        <ele>235.19999694824</ele>
        <time>2013-02-19T10:53:33.000Z</time>
      </trkpt>
      <trkpt lat="43.53321" lon="5.5102">
        <ele>234.39999389648</ele>
        <time>2013-02-19T10:53:34.000Z</time>
      </trkpt>
      <trkpt lat="43.53316" lon="5.51007">
        <ele>232.60000610352</ele>
        <time>2013-02-19T10:53:36.000Z</time>
      </trkpt>
      <trkpt lat="43.53315" lon="5.51">
        <ele>231.80000305176</ele>
        <time>2013-02-19T10:53:37.000Z</time>
      </trkpt>
      <trkpt lat="43.53309" lon="5.50952">
        <ele>231</ele>
        <time>2013-02-19T10:53:42.000Z</time>
      </trkpt>
      <trkpt lat="43.533" lon="5.5091">
        <ele>230.39999389648</ele>
        <time>2013-02-19T10:53:47.000Z</time>
      </trkpt>
      <trkpt lat="43.53298" lon="5.50902">
        <ele>231</ele>
        <time>2013-02-19T10:53:48.000Z</time>
      </trkpt>
      <trkpt lat="43.53295" lon="5.50894">
        <ele>231.80000305176</ele>
        <time>2013-02-19T10:53:49.000Z</time>
      </trkpt>
      <trkpt lat="43.53286" lon="5.50872">
        <ele>234</ele>
        <time>2013-02-19T10:53:52.000Z</time>
      </trkpt>
      <trkpt lat="43.53281" lon="5.50866">
        <ele>234.39999389648</ele>
        <time>2013-02-19T10:53:53.000Z</time>
      </trkpt>
      <trkpt lat="43.53276" lon="5.50862">
        <ele>234.39999389648</ele>
        <time>2013-02-19T10:53:54.000Z</time>
      </trkpt>
      <trkpt lat="43.53265" lon="5.50859">
        <ele>233.60000610352</ele>
        <time>2013-02-19T10:53:56.000Z</time>
      </trkpt>
      <trkpt lat="43.5326" lon="5.5086">
        <ele>232.80000305176</ele>
        <time>2013-02-19T10:53:57.000Z</time>
      </trkpt>
      <trkpt lat="43.53257" lon="5.50861">
        <ele>232.19999694824</ele>
        <time>2013-02-19T10:53:58.000Z</time>
      </trkpt>
      <trkpt lat="43.53244" lon="5.50865">
        <ele>231.19999694824</ele>
        <time>2013-02-19T10:54:05.000Z</time>
      </trkpt>
      <trkpt lat="43.53242" lon="5.50865">
        <ele>231.39999389648</ele>
        <time>2013-02-19T10:54:06.000Z</time>
      </trkpt>
      <trkpt lat="43.53229" lon="5.50866">
        <ele>233</ele>
        <time>2013-02-19T10:54:13.000Z</time>
      </trkpt>
      <trkpt lat="43.53213" lon="5.50863">
        <ele>235.80000305176</ele>
        <time>2013-02-19T10:54:22.000Z</time>
      </trkpt>
      <trkpt lat="43.53199" lon="5.50863">
        <ele>237.60000610352</ele>
        <time>2013-02-19T10:54:31.000Z</time>
      </trkpt>
      <trkpt lat="43.5319" lon="5.50864">
        <ele>238.60000610352</ele>
        <time>2013-02-19T10:54:37.000Z</time>
      </trkpt>
      <trkpt lat="43.53187" lon="5.50864">
        <ele>238.80000305176</ele>
        <time>2013-02-19T10:54:39.000Z</time>
      </trkpt>
      <trkpt lat="43.53186" lon="5.50864">
        <ele>239</ele>
        <time>2013-02-19T10:54:40.000Z</time>
      </trkpt>
      <trkpt lat="43.53185" lon="5.50865">
        <ele>239.19999694824</ele>
        <time>2013-02-19T10:54:41.000Z</time>
      </trkpt>
      <trkpt lat="43.53183" lon="5.50865">
        <ele>239.39999389648</ele>
        <time>2013-02-19T10:54:42.000Z</time>
      </trkpt>
      <trkpt lat="43.53182" lon="5.50865">
        <ele>239.60000610352</ele>
        <time>2013-02-19T10:54:43.000Z</time>
      </trkpt>
      <trkpt lat="43.5318" lon="5.50864">
        <ele>240</ele>
        <time>2013-02-19T10:54:44.000Z</time>
      </trkpt>
      <trkpt lat="43.53176" lon="5.50863">
        <ele>240.80000305176</ele>
        <time>2013-02-19T10:54:47.000Z</time>
      </trkpt>
      <trkpt lat="43.53175" lon="5.50862">
        <ele>241.39999389648</ele>
        <time>2013-02-19T10:54:48.000Z</time>
      </trkpt>
      <trkpt lat="43.53173" lon="5.50861">
        <ele>241.80000305176</ele>
        <time>2013-02-19T10:54:49.000Z</time>
      </trkpt>
      <trkpt lat="43.53172" lon="5.5086">
        <ele>242</ele>
        <time>2013-02-19T10:54:50.000Z</time>
      </trkpt>
      <trkpt lat="43.53171" lon="5.5086">
        <ele>242.19999694824</ele>
        <time>2013-02-19T10:54:51.000Z</time>
      </trkpt>
      <trkpt lat="43.53169" lon="5.5086">
        <ele>242.60000610352</ele>
        <time>2013-02-19T10:54:52.000Z</time>
      </trkpt>
      <trkpt lat="43.53168" lon="5.50859">
        <ele>242.80000305176</ele>
        <time>2013-02-19T10:54:53.000Z</time>
      </trkpt>
      <trkpt lat="43.53167" lon="5.50858">
        <ele>243.19999694824</ele>
        <time>2013-02-19T10:54:54.000Z</time>
      </trkpt>
      <trkpt lat="43.53162" lon="5.50856">
        <ele>244.60000610352</ele>
        <time>2013-02-19T10:54:57.000Z</time>
      </trkpt>
      <trkpt lat="43.5316" lon="5.50855">
        <ele>245</ele>
        <time>2013-02-19T10:54:58.000Z</time>
      </trkpt>
      <trkpt lat="43.53148" lon="5.50847">
        <ele>248.19999694824</ele>
        <time>2013-02-19T10:55:07.000Z</time>
      </trkpt>
      <trkpt lat="43.53147" lon="5.50846">
        <ele>248.39999389648</ele>
        <time>2013-02-19T10:55:08.000Z</time>
      </trkpt>
      <trkpt lat="43.53146" lon="5.50845">
        <ele>248.80000305176</ele>
        <time>2013-02-19T10:55:09.000Z</time>
      </trkpt>
      <trkpt lat="43.53144" lon="5.50844">
        <ele>249.19999694824</ele>
        <time>2013-02-19T10:55:10.000Z</time>
      </trkpt>
      <trkpt lat="43.53143" lon="5.50843">
        <ele>249.39999389648</ele>
        <time>2013-02-19T10:55:11.000Z</time>
      </trkpt>
      <trkpt lat="43.53142" lon="5.50841">
        <ele>249.80000305176</ele>
        <time>2013-02-19T10:55:12.000Z</time>
      </trkpt>
      <trkpt lat="43.53141" lon="5.5084">
        <ele>250.19999694824</ele>
        <time>2013-02-19T10:55:13.000Z</time>
      </trkpt>
      <trkpt lat="43.5314" lon="5.50839">
        <ele>250.39999389648</ele>
        <time>2013-02-19T10:55:14.000Z</time>
      </trkpt>
      <trkpt lat="43.53124" lon="5.50828">
        <ele>253.80000305176</ele>
        <time>2013-02-19T10:55:26.000Z</time>
      </trkpt>
      <trkpt lat="43.53112" lon="5.50819">
        <ele>256.60000610352</ele>
        <time>2013-02-19T10:55:36.000Z</time>
      </trkpt>
      <trkpt lat="43.53098" lon="5.50807">
        <ele>259.60000610352</ele>
        <time>2013-02-19T10:55:48.000Z</time>
      </trkpt>
      <trkpt lat="43.5309" lon="5.50799">
        <ele>261</ele>
        <time>2013-02-19T10:55:55.000Z</time>
      </trkpt>
      <trkpt lat="43.53089" lon="5.50798">
        <ele>261.39999389648</ele>
        <time>2013-02-19T10:55:56.000Z</time>
      </trkpt>
      <trkpt lat="43.53088" lon="5.50796">
        <ele>261.60000610352</ele>
        <time>2013-02-19T10:55:57.000Z</time>
      </trkpt>
      <trkpt lat="43.53087" lon="5.50795">
        <ele>261.79998779297</ele>
        <time>2013-02-19T10:55:58.000Z</time>
      </trkpt>
      <trkpt lat="43.53086" lon="5.50793">
        <ele>262.20001220703</ele>
        <time>2013-02-19T10:55:59.000Z</time>
      </trkpt>
      <trkpt lat="43.53085" lon="5.50792">
        <ele>262.39999389648</ele>
        <time>2013-02-19T10:56:00.000Z</time>
      </trkpt>
      <trkpt lat="43.53085" lon="5.50791">
        <ele>262.60000610352</ele>
        <time>2013-02-19T10:56:01.000Z</time>
      </trkpt>
      <trkpt lat="43.53084" lon="5.50789">
        <ele>262.79998779297</ele>
        <time>2013-02-19T10:56:02.000Z</time>
      </trkpt>
      <trkpt lat="43.53083" lon="5.50788">
        <ele>263.20001220703</ele>
        <time>2013-02-19T10:56:03.000Z</time>
      </trkpt>
      <trkpt lat="43.53082" lon="5.50786">
        <ele>263.60000610352</ele>
        <time>2013-02-19T10:56:04.000Z</time>
      </trkpt>
      <trkpt lat="43.53082" lon="5.50784">
        <ele>263.79998779297</ele>
        <time>2013-02-19T10:56:05.000Z</time>
      </trkpt>
      <trkpt lat="43.53081" lon="5.50783">
        <ele>264.20001220703</ele>
        <time>2013-02-19T10:56:06.000Z</time>
      </trkpt>
      <trkpt lat="43.5308" lon="5.50782">
        <ele>264.39999389648</ele>
        <time>2013-02-19T10:56:07.000Z</time>
      </trkpt>
      <trkpt lat="43.53078" lon="5.50781">
        <ele>264.79998779297</ele>
        <time>2013-02-19T10:56:08.000Z</time>
      </trkpt>
      <trkpt lat="43.53077" lon="5.5078">
        <ele>265.20001220703</ele>
        <time>2013-02-19T10:56:09.000Z</time>
      </trkpt>
      <trkpt lat="43.53076" lon="5.50778">
        <ele>265.39999389648</ele>
        <time>2013-02-19T10:56:10.000Z</time>
      </trkpt>
      <trkpt lat="43.53075" lon="5.50777">
        <ele>265.79998779297</ele>
        <time>2013-02-19T10:56:11.000Z</time>
      </trkpt>
      <trkpt lat="43.53065" lon="5.50765">
        <ele>268.60000610352</ele>
        <time>2013-02-19T10:56:21.000Z</time>
      </trkpt>
      <trkpt lat="43.53064" lon="5.50764">
        <ele>268.79998779297</ele>
        <time>2013-02-19T10:56:22.000Z</time>
      </trkpt>
      <trkpt lat="43.53063" lon="5.50764">
        <ele>269</ele>
        <time>2013-02-19T10:56:23.000Z</time>
      </trkpt>
      <trkpt lat="43.53062" lon="5.50762">
        <ele>269.39999389648</ele>
        <time>2013-02-19T10:56:24.000Z</time>
      </trkpt>
      <trkpt lat="43.53061" lon="5.50761">
        <ele>269.60000610352</ele>
        <time>2013-02-19T10:56:25.000Z</time>
      </trkpt>
      <trkpt lat="43.5306" lon="5.5076">
        <ele>270</ele>
        <time>2013-02-19T10:56:26.000Z</time>
      </trkpt>
      <trkpt lat="43.53059" lon="5.50758">
        <ele>270.20001220703</ele>
        <time>2013-02-19T10:56:27.000Z</time>
      </trkpt>
      <trkpt lat="43.53047" lon="5.50745">
        <ele>273.60000610352</ele>
        <time>2013-02-19T10:56:38.000Z</time>
      </trkpt>
      <trkpt lat="43.5303" lon="5.50742">
        <ele>275.60000610352</ele>
        <time>2013-02-19T10:56:49.000Z</time>
      </trkpt>
      <trkpt lat="43.53022" lon="5.50741">
        <ele>276.20001220703</ele>
        <time>2013-02-19T10:56:53.000Z</time>
      </trkpt>
      <trkpt lat="43.53004" lon="5.50735">
        <ele>278.39999389648</ele>
        <time>2013-02-19T10:57:02.000Z</time>
      </trkpt>
      <trkpt lat="43.52982" lon="5.50722">
        <ele>282.60000610352</ele>
        <time>2013-02-19T10:57:14.000Z</time>
      </trkpt>
      <trkpt lat="43.52966" lon="5.50717">
        <ele>284.20001220703</ele>
        <time>2013-02-19T10:57:23.000Z</time>
      </trkpt>
      <trkpt lat="43.52952" lon="5.50727">
        <ele>282.79998779297</ele>
        <time>2013-02-19T10:57:32.000Z</time>
      </trkpt>
      <trkpt lat="43.5295" lon="5.50729">
        <ele>282.60000610352</ele>
        <time>2013-02-19T10:57:33.000Z</time>
      </trkpt>
      <trkpt lat="43.52949" lon="5.50731">
        <ele>282.20001220703</ele>
        <time>2013-02-19T10:57:34.000Z</time>
      </trkpt>
      <trkpt lat="43.52948" lon="5.50733">
        <ele>282</ele>
        <time>2013-02-19T10:57:35.000Z</time>
      </trkpt>
      <trkpt lat="43.52948" lon="5.50735">
        <ele>281.79998779297</ele>
        <time>2013-02-19T10:57:36.000Z</time>
      </trkpt>
      <trkpt lat="43.52947" lon="5.50736">
        <ele>281.60000610352</ele>
        <time>2013-02-19T10:57:37.000Z</time>
      </trkpt>
      <trkpt lat="43.52938" lon="5.50746">
        <ele>280.60000610352</ele>
        <time>2013-02-19T10:57:44.000Z</time>
      </trkpt>
      <trkpt lat="43.52936" lon="5.50746">
        <ele>280.79998779297</ele>
        <time>2013-02-19T10:57:45.000Z</time>
      </trkpt>
      <trkpt lat="43.52935" lon="5.50747">
        <ele>280.79998779297</ele>
        <time>2013-02-19T10:57:46.000Z</time>
      </trkpt>
      <trkpt lat="43.52933" lon="5.50746">
        <ele>281</ele>
        <time>2013-02-19T10:57:47.000Z</time>
      </trkpt>
      <trkpt lat="43.52932" lon="5.50745">
        <ele>281.20001220703</ele>
        <time>2013-02-19T10:57:48.000Z</time>
      </trkpt>
      <trkpt lat="43.52931" lon="5.50744">
        <ele>281.60000610352</ele>
        <time>2013-02-19T10:57:49.000Z</time>
      </trkpt>
      <trkpt lat="43.5293" lon="5.50742">
        <ele>281.79998779297</ele>
        <time>2013-02-19T10:57:50.000Z</time>
      </trkpt>
      <trkpt lat="43.52929" lon="5.50741">
        <ele>282.20001220703</ele>
        <time>2013-02-19T10:57:51.000Z</time>
      </trkpt>
      <trkpt lat="43.52927" lon="5.50738">
        <ele>282.60000610352</ele>
        <time>2013-02-19T10:57:52.000Z</time>
      </trkpt>
      <trkpt lat="43.52914" lon="5.5071">
        <ele>286.39999389648</ele>
        <time>2013-02-19T10:58:02.000Z</time>
      </trkpt>
      <trkpt lat="43.52896" lon="5.50687">
        <ele>289.60000610352</ele>
        <time>2013-02-19T10:58:12.000Z</time>
      </trkpt>
      <trkpt lat="43.5288" lon="5.50659">
        <ele>293</ele>
        <time>2013-02-19T10:58:21.000Z</time>
      </trkpt>
      <trkpt lat="43.5288" lon="5.50638">
        <ele>294.79998779297</ele>
        <time>2013-02-19T10:58:30.000Z</time>
      </trkpt>
      <trkpt lat="43.5288" lon="5.50633">
        <ele>295.20001220703</ele>
        <time>2013-02-19T10:58:32.000Z</time>
      </trkpt>
      <trkpt lat="43.52881" lon="5.50631">
        <ele>295.60000610352</ele>
        <time>2013-02-19T10:58:33.000Z</time>
      </trkpt>
      <trkpt lat="43.52881" lon="5.50629">
        <ele>295.79998779297</ele>
        <time>2013-02-19T10:58:34.000Z</time>
      </trkpt>
      <trkpt lat="43.52881" lon="5.50628">
        <ele>295.79998779297</ele>
        <time>2013-02-19T10:58:35.000Z</time>
      </trkpt>
      <trkpt lat="43.5288" lon="5.50626">
        <ele>295.79998779297</ele>
        <time>2013-02-19T10:58:44.000Z</time>
      </trkpt>
      <trkpt lat="43.5288" lon="5.50629">
        <ele>295.60000610352</ele>
        <time>2013-02-19T10:58:58.000Z</time>
      </trkpt>
      <trkpt lat="43.52879" lon="5.50629">
        <ele>295.60000610352</ele>
        <time>2013-02-19T10:59:11.000Z</time>
      </trkpt>
      <trkpt lat="43.52878" lon="5.50628">
        <ele>295.60000610352</ele>
        <time>2013-02-19T10:59:24.000Z</time>
      </trkpt>
      <trkpt lat="43.52879" lon="5.50627">
        <ele>295.79998779297</ele>
        <time>2013-02-19T10:59:38.000Z</time>
      </trkpt>
      <trkpt lat="43.52879" lon="5.50626">
        <ele>295.79998779297</ele>
        <time>2013-02-19T10:59:53.000Z</time>
      </trkpt>
      <trkpt lat="43.5288" lon="5.50627">
        <ele>295.79998779297</ele>
        <time>2013-02-19T11:00:12.000Z</time>
      </trkpt>
      <trkpt lat="43.52881" lon="5.50627">
        <ele>296</ele>
        <time>2013-02-19T11:00:26.000Z</time>
      </trkpt>
      <trkpt lat="43.52883" lon="5.50625">
        <ele>296.20001220703</ele>
        <time>2013-02-19T11:00:46.000Z</time>
      </trkpt>
      <trkpt lat="43.52881" lon="5.50626">
        <ele>296</ele>
        <time>2013-02-19T11:01:03.000Z</time>
      </trkpt>
      <trkpt lat="43.52881" lon="5.50624">
        <ele>296.20001220703</ele>
        <time>2013-02-19T11:01:05.000Z</time>
      </trkpt>
      <trkpt lat="43.52882" lon="5.50623">
        <ele>296.39999389648</ele>
        <time>2013-02-19T11:01:06.000Z</time>
      </trkpt>
      <trkpt lat="43.52883" lon="5.50622">
        <ele>296.60000610352</ele>
        <time>2013-02-19T11:01:07.000Z</time>
      </trkpt>
      <trkpt lat="43.52884" lon="5.5062">
        <ele>297</ele>
        <time>2013-02-19T11:01:08.000Z</time>
      </trkpt>
      <trkpt lat="43.52884" lon="5.50619">
        <ele>297</ele>
        <time>2013-02-19T11:01:09.000Z</time>
      </trkpt>
      <trkpt lat="43.52883" lon="5.50617">
        <ele>297.20001220703</ele>
        <time>2013-02-19T11:01:10.000Z</time>
      </trkpt>
      <trkpt lat="43.52883" lon="5.50616">
        <ele>297.20001220703</ele>
        <time>2013-02-19T11:01:11.000Z</time>
      </trkpt>
      <trkpt lat="43.52882" lon="5.50614">
        <ele>297.39999389648</ele>
        <time>2013-02-19T11:01:12.000Z</time>
      </trkpt>
      <trkpt lat="43.52882" lon="5.50611">
        <ele>297.60000610352</ele>
        <time>2013-02-19T11:01:13.000Z</time>
      </trkpt>
      <trkpt lat="43.52882" lon="5.50609">
        <ele>297.79998779297</ele>
        <time>2013-02-19T11:01:14.000Z</time>
      </trkpt>
      <trkpt lat="43.52881" lon="5.50607">
        <ele>297.79998779297</ele>
        <time>2013-02-19T11:01:15.000Z</time>
      </trkpt>
      <trkpt lat="43.52881" lon="5.50606">
        <ele>298</ele>
        <time>2013-02-19T11:01:16.000Z</time>
      </trkpt>
      <trkpt lat="43.5288" lon="5.50603">
        <ele>298</ele>
        <time>2013-02-19T11:01:17.000Z</time>
      </trkpt>
      <trkpt lat="43.52879" lon="5.50602">
        <ele>298</ele>
        <time>2013-02-19T11:01:18.000Z</time>
      </trkpt>
      <trkpt lat="43.52878" lon="5.506">
        <ele>297.79998779297</ele>
        <time>2013-02-19T11:01:19.000Z</time>
      </trkpt>
      <trkpt lat="43.52877" lon="5.50598">
        <ele>297.79998779297</ele>
        <time>2013-02-19T11:01:20.000Z</time>
      </trkpt>
      <trkpt lat="43.52877" lon="5.50596">
        <ele>297.79998779297</ele>
        <time>2013-02-19T11:01:21.000Z</time>
      </trkpt>
      <trkpt lat="43.52876" lon="5.50594">
        <ele>298</ele>
        <time>2013-02-19T11:01:22.000Z</time>
      </trkpt>
      <trkpt lat="43.52867" lon="5.50571">
        <ele>298.20001220703</ele>
        <time>2013-02-19T11:01:32.000Z</time>
      </trkpt>
      <trkpt lat="43.52857" lon="5.50547">
        <ele>298.39999389648</ele>
        <time>2013-02-19T11:01:42.000Z</time>
      </trkpt>
      <trkpt lat="43.52849" lon="5.50517">
        <ele>298.79998779297</ele>
        <time>2013-02-19T11:01:52.000Z</time>
      </trkpt>
      <trkpt lat="43.52843" lon="5.50478">
        <ele>298.39999389648</ele>
        <time>2013-02-19T11:02:04.000Z</time>
      </trkpt>
      <trkpt lat="43.52845" lon="5.50442">
        <ele>300.20001220703</ele>
        <time>2013-02-19T11:02:15.000Z</time>
      </trkpt>
      <trkpt lat="43.52853" lon="5.50418">
        <ele>304.60000610352</ele>
        <time>2013-02-19T11:02:23.000Z</time>
      </trkpt>
      <trkpt lat="43.52866" lon="5.50393">
        <ele>310.39999389648</ele>
        <time>2013-02-19T11:02:33.000Z</time>
      </trkpt>
      <trkpt lat="43.52875" lon="5.5037">
        <ele>313.79998779297</ele>
        <time>2013-02-19T11:02:43.000Z</time>
      </trkpt>
      <trkpt lat="43.52876" lon="5.50369">
        <ele>314.39999389648</ele>
        <time>2013-02-19T11:02:44.000Z</time>
      </trkpt>
      <trkpt lat="43.52878" lon="5.50369">
        <ele>315.20001220703</ele>
        <time>2013-02-19T11:02:45.000Z</time>
      </trkpt>
      <trkpt lat="43.52879" lon="5.5037">
        <ele>316</ele>
        <time>2013-02-19T11:02:46.000Z</time>
      </trkpt>
      <trkpt lat="43.5288" lon="5.50372">
        <ele>316.60000610352</ele>
        <time>2013-02-19T11:02:47.000Z</time>
      </trkpt>
      <trkpt lat="43.5288" lon="5.50374">
        <ele>316.60000610352</ele>
        <time>2013-02-19T11:02:48.000Z</time>
      </trkpt>
      <trkpt lat="43.5288" lon="5.50376">
        <ele>316.60000610352</ele>
        <time>2013-02-19T11:02:49.000Z</time>
      </trkpt>
      <trkpt lat="43.5288" lon="5.50378">
        <ele>316.60000610352</ele>
        <time>2013-02-19T11:02:50.000Z</time>
      </trkpt>
      <trkpt lat="43.52879" lon="5.5038">
        <ele>316.39999389648</ele>
        <time>2013-02-19T11:02:51.000Z</time>
      </trkpt>
      <trkpt lat="43.52879" lon="5.50382">
        <ele>316.20001220703</ele>
        <time>2013-02-19T11:02:52.000Z</time>
      </trkpt>
      <trkpt lat="43.52878" lon="5.50385">
        <ele>316</ele>
        <time>2013-02-19T11:02:53.000Z</time>
      </trkpt>
      <trkpt lat="43.52874" lon="5.50407">
        <ele>314.79998779297</ele>
        <time>2013-02-19T11:03:03.000Z</time>
      </trkpt>
      <trkpt lat="43.52873" lon="5.5044">
        <ele>313.79998779297</ele>
        <time>2013-02-19T11:03:15.000Z</time>
      </trkpt>
      <trkpt lat="43.52876" lon="5.50474">
        <ele>314</ele>
        <time>2013-02-19T11:03:28.000Z</time>
      </trkpt>
      <trkpt lat="43.52877" lon="5.50476">
        <ele>314.20001220703</ele>
        <time>2013-02-19T11:03:29.000Z</time>
      </trkpt>
      <trkpt lat="43.52877" lon="5.50478">
        <ele>314.20001220703</ele>
        <time>2013-02-19T11:03:30.000Z</time>
      </trkpt>
      <trkpt lat="43.52877" lon="5.5048">
        <ele>314.20001220703</ele>
        <time>2013-02-19T11:03:31.000Z</time>
      </trkpt>
      <trkpt lat="43.52878" lon="5.50483">
        <ele>314.39999389648</ele>
        <time>2013-02-19T11:03:32.000Z</time>
      </trkpt>
      <trkpt lat="43.52885" lon="5.50504">
        <ele>316.20001220703</ele>
        <time>2013-02-19T11:03:43.000Z</time>
      </trkpt>
      <trkpt lat="43.52891" lon="5.50512">
        <ele>317.20001220703</ele>
        <time>2013-02-19T11:03:49.000Z</time>
      </trkpt>
      <trkpt lat="43.52892" lon="5.50513">
        <ele>317.39999389648</ele>
        <time>2013-02-19T11:03:50.000Z</time>
      </trkpt>
      <trkpt lat="43.52894" lon="5.50515">
        <ele>317.79998779297</ele>
        <time>2013-02-19T11:03:51.000Z</time>
      </trkpt>
      <trkpt lat="43.52896" lon="5.50516">
        <ele>318.39999389648</ele>
        <time>2013-02-19T11:03:52.000Z</time>
      </trkpt>
      <trkpt lat="43.52898" lon="5.50518">
        <ele>318.60000610352</ele>
        <time>2013-02-19T11:03:53.000Z</time>
      </trkpt>
      <trkpt lat="43.52899" lon="5.50519">
        <ele>318.79998779297</ele>
        <time>2013-02-19T11:03:54.000Z</time>
      </trkpt>
      <trkpt lat="43.529" lon="5.5052">
        <ele>319.20001220703</ele>
        <time>2013-02-19T11:03:55.000Z</time>
      </trkpt>
      <trkpt lat="43.52901" lon="5.50521">
        <ele>319.39999389648</ele>
        <time>2013-02-19T11:03:56.000Z</time>
      </trkpt>
      <trkpt lat="43.52903" lon="5.50521">
        <ele>320</ele>
        <time>2013-02-19T11:03:57.000Z</time>
      </trkpt>
      <trkpt lat="43.52904" lon="5.50521">
        <ele>320.60000610352</ele>
        <time>2013-02-19T11:03:58.000Z</time>
      </trkpt>
      <trkpt lat="43.52908" lon="5.50521">
        <ele>322.20001220703</ele>
        <time>2013-02-19T11:04:01.000Z</time>
      </trkpt>
      <trkpt lat="43.5291" lon="5.50521">
        <ele>322.79998779297</ele>
        <time>2013-02-19T11:04:02.000Z</time>
      </trkpt>
      <trkpt lat="43.52912" lon="5.50522">
        <ele>323.39999389648</ele>
        <time>2013-02-19T11:04:03.000Z</time>
      </trkpt>
      <trkpt lat="43.52913" lon="5.50522">
        <ele>324</ele>
        <time>2013-02-19T11:04:04.000Z</time>
      </trkpt>
      <trkpt lat="43.52915" lon="5.50522">
        <ele>324.60000610352</ele>
        <time>2013-02-19T11:04:05.000Z</time>
      </trkpt>
      <trkpt lat="43.52916" lon="5.50521">
        <ele>325.20001220703</ele>
        <time>2013-02-19T11:04:06.000Z</time>
      </trkpt>
      <trkpt lat="43.52917" lon="5.50521">
        <ele>325.60000610352</ele>
        <time>2013-02-19T11:04:07.000Z</time>
      </trkpt>
      <trkpt lat="43.52918" lon="5.50521">
        <ele>325.79998779297</ele>
        <time>2013-02-19T11:04:08.000Z</time>
      </trkpt>
      <trkpt lat="43.52919" lon="5.5052">
        <ele>326</ele>
        <time>2013-02-19T11:04:09.000Z</time>
      </trkpt>
      <trkpt lat="43.5292" lon="5.5052">
        <ele>326.39999389648</ele>
        <time>2013-02-19T11:04:10.000Z</time>
      </trkpt>
      <trkpt lat="43.52921" lon="5.50519">
        <ele>326.60000610352</ele>
        <time>2013-02-19T11:04:11.000Z</time>
      </trkpt>
      <trkpt lat="43.52923" lon="5.50518">
        <ele>327.20001220703</ele>
        <time>2013-02-19T11:04:12.000Z</time>
      </trkpt>
      <trkpt lat="43.52924" lon="5.50516">
        <ele>327.60000610352</ele>
        <time>2013-02-19T11:04:13.000Z</time>
      </trkpt>
      <trkpt lat="43.5293" lon="5.50514">
        <ele>328.79998779297</ele>
        <time>2013-02-19T11:04:19.000Z</time>
      </trkpt>
      <trkpt lat="43.52941" lon="5.50513">
        <ele>330.39999389648</ele>
        <time>2013-02-19T11:04:28.000Z</time>
      </trkpt>
      <trkpt lat="43.52946" lon="5.50511">
        <ele>331.39999389648</ele>
        <time>2013-02-19T11:04:33.000Z</time>
      </trkpt>
      <trkpt lat="43.52955" lon="5.50503">
        <ele>334.39999389648</ele>
        <time>2013-02-19T11:04:41.000Z</time>
      </trkpt>
      <trkpt lat="43.52961" lon="5.50502">
        <ele>335.20001220703</ele>
        <time>2013-02-19T11:04:45.000Z</time>
      </trkpt>
      <trkpt lat="43.52962" lon="5.50503">
        <ele>335.20001220703</ele>
        <time>2013-02-19T11:04:46.000Z</time>
      </trkpt>
      <trkpt lat="43.52963" lon="5.50504">
        <ele>335</ele>
        <time>2013-02-19T11:04:47.000Z</time>
      </trkpt>
      <trkpt lat="43.52964" lon="5.50505">
        <ele>334.79998779297</ele>
        <time>2013-02-19T11:04:48.000Z</time>
      </trkpt>
      <trkpt lat="43.52965" lon="5.50505">
        <ele>335</ele>
        <time>2013-02-19T11:04:49.000Z</time>
      </trkpt>
      <trkpt lat="43.52967" lon="5.50505">
        <ele>335</ele>
        <time>2013-02-19T11:04:50.000Z</time>
      </trkpt>
      <trkpt lat="43.52969" lon="5.50506">
        <ele>335.20001220703</ele>
        <time>2013-02-19T11:04:51.000Z</time>
      </trkpt>
      <trkpt lat="43.5297" lon="5.50506">
        <ele>335.20001220703</ele>
        <time>2013-02-19T11:04:52.000Z</time>
      </trkpt>
      <trkpt lat="43.52972" lon="5.50507">
        <ele>335.20001220703</ele>
        <time>2013-02-19T11:04:53.000Z</time>
      </trkpt>
      <trkpt lat="43.52974" lon="5.50507">
        <ele>335.39999389648</ele>
        <time>2013-02-19T11:04:54.000Z</time>
      </trkpt>
      <trkpt lat="43.53001" lon="5.50504">
        <ele>339</ele>
        <time>2013-02-19T11:05:03.000Z</time>
      </trkpt>
      <trkpt lat="43.5303" lon="5.50492">
        <ele>342.39999389648</ele>
        <time>2013-02-19T11:05:12.000Z</time>
      </trkpt>
      <trkpt lat="43.53068" lon="5.50482">
        <ele>345</ele>
        <time>2013-02-19T11:05:23.000Z</time>
      </trkpt>
      <trkpt lat="43.53071" lon="5.5048">
        <ele>345.20001220703</ele>
        <time>2013-02-19T11:05:24.000Z</time>
      </trkpt>
      <trkpt lat="43.53095" lon="5.50461">
        <ele>346.79998779297</ele>
        <time>2013-02-19T11:05:34.000Z</time>
      </trkpt>
      <trkpt lat="43.53124" lon="5.50442">
        <ele>347.79998779297</ele>
        <time>2013-02-19T11:05:45.000Z</time>
      </trkpt>
      <trkpt lat="43.53149" lon="5.50415">
        <ele>348.79998779297</ele>
        <time>2013-02-19T11:05:56.000Z</time>
      </trkpt>
      <trkpt lat="43.53166" lon="5.50392">
        <ele>348.79998779297</ele>
        <time>2013-02-19T11:06:05.000Z</time>
      </trkpt>
      <trkpt lat="43.5319" lon="5.50369">
        <ele>348.20001220703</ele>
        <time>2013-02-19T11:06:15.000Z</time>
      </trkpt>
      <trkpt lat="43.53191" lon="5.50369">
        <ele>348.20001220703</ele>
        <time>2013-02-19T11:06:16.000Z</time>
      </trkpt>
      <trkpt lat="43.53192" lon="5.5037">
        <ele>348.20001220703</ele>
        <time>2013-02-19T11:06:17.000Z</time>
      </trkpt>
      <trkpt lat="43.53193" lon="5.5037">
        <ele>348.20001220703</ele>
        <time>2013-02-19T11:06:18.000Z</time>
      </trkpt>
      <trkpt lat="43.53194" lon="5.5037">
        <ele>348</ele>
        <time>2013-02-19T11:06:19.000Z</time>
      </trkpt>
      <trkpt lat="43.53197" lon="5.50372">
        <ele>348</ele>
        <time>2013-02-19T11:06:28.000Z</time>
      </trkpt>
      <trkpt lat="43.53197" lon="5.50372">
        <ele>348</ele>
        <time>2013-02-19T11:06:46.000Z</time>
      </trkpt>
      <trkpt lat="43.53198" lon="5.50372">
        <ele>348</ele>
        <time>2013-02-19T11:07:01.000Z</time>
      </trkpt>
      <trkpt lat="43.532" lon="5.50369">
        <ele>348</ele>
        <time>2013-02-19T11:07:23.000Z</time>
      </trkpt>
      <trkpt lat="43.53215" lon="5.50378">
        <ele>347.39999389648</ele>
        <time>2013-02-19T11:07:30.000Z</time>
      </trkpt>
      <trkpt lat="43.53242" lon="5.50391">
        <ele>346.39999389648</ele>
        <time>2013-02-19T11:07:38.000Z</time>
      </trkpt>
      <trkpt lat="43.53246" lon="5.50393">
        <ele>346.39999389648</ele>
        <time>2013-02-19T11:07:39.000Z</time>
      </trkpt>
      <trkpt lat="43.5325" lon="5.50396">
        <ele>346.20001220703</ele>
        <time>2013-02-19T11:07:40.000Z</time>
      </trkpt>
      <trkpt lat="43.53265" lon="5.50404">
        <ele>345.39999389648</ele>
        <time>2013-02-19T11:07:43.000Z</time>
      </trkpt>
      <trkpt lat="43.5327" lon="5.50406">
        <ele>345</ele>
        <time>2013-02-19T11:07:44.000Z</time>
      </trkpt>
      <trkpt lat="43.53277" lon="5.50406">
        <ele>344.79998779297</ele>
        <time>2013-02-19T11:07:45.000Z</time>
      </trkpt>
      <trkpt lat="43.53283" lon="5.50403">
        <ele>344.60000610352</ele>
        <time>2013-02-19T11:07:46.000Z</time>
      </trkpt>
      <trkpt lat="43.53288" lon="5.504">
        <ele>344.39999389648</ele>
        <time>2013-02-19T11:07:47.000Z</time>
      </trkpt>
      <trkpt lat="43.53349" lon="5.5036">
        <ele>343.20001220703</ele>
        <time>2013-02-19T11:07:59.000Z</time>
      </trkpt>
      <trkpt lat="43.53354" lon="5.50357">
        <ele>343.20001220703</ele>
        <time>2013-02-19T11:08:00.000Z</time>
      </trkpt>
      <trkpt lat="43.53384" lon="5.50338">
        <ele>344.20001220703</ele>
        <time>2013-02-19T11:08:06.000Z</time>
      </trkpt>
      <trkpt lat="43.53402" lon="5.5033">
        <ele>344.79998779297</ele>
        <time>2013-02-19T11:08:09.000Z</time>
      </trkpt>
      <trkpt lat="43.53408" lon="5.50329">
        <ele>345</ele>
        <time>2013-02-19T11:08:10.000Z</time>
      </trkpt>
      <trkpt lat="43.53426" lon="5.50332">
        <ele>345.20001220703</ele>
        <time>2013-02-19T11:08:13.000Z</time>
      </trkpt>
      <trkpt lat="43.53431" lon="5.50335">
        <ele>345.39999389648</ele>
        <time>2013-02-19T11:08:14.000Z</time>
      </trkpt>
      <trkpt lat="43.53436" lon="5.50339">
        <ele>345.20001220703</ele>
        <time>2013-02-19T11:08:15.000Z</time>
      </trkpt>
      <trkpt lat="43.5344" lon="5.50344">
        <ele>345</ele>
        <time>2013-02-19T11:08:16.000Z</time>
      </trkpt>
      <trkpt lat="43.53444" lon="5.50351">
        <ele>344.79998779297</ele>
        <time>2013-02-19T11:08:17.000Z</time>
      </trkpt>
      <trkpt lat="43.53447" lon="5.50358">
        <ele>344.60000610352</ele>
        <time>2013-02-19T11:08:18.000Z</time>
      </trkpt>
      <trkpt lat="43.53448" lon="5.50364">
        <ele>344.20001220703</ele>
        <time>2013-02-19T11:08:19.000Z</time>
      </trkpt>
      <trkpt lat="43.53449" lon="5.50371">
        <ele>343.79998779297</ele>
        <time>2013-02-19T11:08:20.000Z</time>
      </trkpt>
      <trkpt lat="43.53448" lon="5.50378">
        <ele>343.39999389648</ele>
        <time>2013-02-19T11:08:21.000Z</time>
      </trkpt>
      <trkpt lat="43.53448" lon="5.50393">
        <ele>342.60000610352</ele>
        <time>2013-02-19T11:08:23.000Z</time>
      </trkpt>
      <trkpt lat="43.53449" lon="5.504">
        <ele>342.20001220703</ele>
        <time>2013-02-19T11:08:24.000Z</time>
      </trkpt>
      <trkpt lat="43.53451" lon="5.50414">
        <ele>341.60000610352</ele>
        <time>2013-02-19T11:08:26.000Z</time>
      </trkpt>
      <trkpt lat="43.53455" lon="5.50426">
        <ele>341</ele>
        <time>2013-02-19T11:08:28.000Z</time>
      </trkpt>
      <trkpt lat="43.53457" lon="5.50431">
        <ele>340.79998779297</ele>
        <time>2013-02-19T11:08:29.000Z</time>
      </trkpt>
      <trkpt lat="43.53475" lon="5.50451">
        <ele>340.60000610352</ele>
        <time>2013-02-19T11:08:35.000Z</time>
      </trkpt>
      <trkpt lat="43.53476" lon="5.50455">
        <ele>340.39999389648</ele>
        <time>2013-02-19T11:08:36.000Z</time>
      </trkpt>
      <trkpt lat="43.53477" lon="5.5046">
        <ele>340.20001220703</ele>
        <time>2013-02-19T11:08:37.000Z</time>
      </trkpt>
      <trkpt lat="43.53479" lon="5.5047">
        <ele>339.60000610352</ele>
        <time>2013-02-19T11:08:39.000Z</time>
      </trkpt>
      <trkpt lat="43.53481" lon="5.50476">
        <ele>339.39999389648</ele>
        <time>2013-02-19T11:08:40.000Z</time>
      </trkpt>
      <trkpt lat="43.53495" lon="5.50512">
        <ele>336.60000610352</ele>
        <time>2013-02-19T11:08:46.000Z</time>
      </trkpt>
      <trkpt lat="43.535" lon="5.50526">
        <ele>334.79998779297</ele>
        <time>2013-02-19T11:08:48.000Z</time>
      </trkpt>
      <trkpt lat="43.53503" lon="5.50533">
        <ele>334</ele>
        <time>2013-02-19T11:08:49.000Z</time>
      </trkpt>
      <trkpt lat="43.53506" lon="5.50539">
        <ele>333.39999389648</ele>
        <time>2013-02-19T11:08:50.000Z</time>
      </trkpt>
      <trkpt lat="43.5351" lon="5.50545">
        <ele>333</ele>
        <time>2013-02-19T11:08:51.000Z</time>
      </trkpt>
      <trkpt lat="43.53513" lon="5.5055">
        <ele>332.79998779297</ele>
        <time>2013-02-19T11:08:52.000Z</time>
      </trkpt>
      <trkpt lat="43.53517" lon="5.50554">
        <ele>332.79998779297</ele>
        <time>2013-02-19T11:08:53.000Z</time>
      </trkpt>
      <trkpt lat="43.53521" lon="5.50557">
        <ele>332.79998779297</ele>
        <time>2013-02-19T11:08:54.000Z</time>
      </trkpt>
      <trkpt lat="43.53525" lon="5.5056">
        <ele>333</ele>
        <time>2013-02-19T11:08:55.000Z</time>
      </trkpt>
      <trkpt lat="43.53546" lon="5.50569">
        <ele>334.60000610352</ele>
        <time>2013-02-19T11:09:00.000Z</time>
      </trkpt>
      <trkpt lat="43.53549" lon="5.50571">
        <ele>335</ele>
        <time>2013-02-19T11:09:01.000Z</time>
      </trkpt>
      <trkpt lat="43.53557" lon="5.50577">
        <ele>335.39999389648</ele>
        <time>2013-02-19T11:09:03.000Z</time>
      </trkpt>
      <trkpt lat="43.5356" lon="5.50582">
        <ele>335.39999389648</ele>
        <time>2013-02-19T11:09:04.000Z</time>
      </trkpt>
      <trkpt lat="43.53567" lon="5.50591">
        <ele>335.39999389648</ele>
        <time>2013-02-19T11:09:06.000Z</time>
      </trkpt>
      <trkpt lat="43.53579" lon="5.50606">
        <ele>335.79998779297</ele>
        <time>2013-02-19T11:09:09.000Z</time>
      </trkpt>
      <trkpt lat="43.53583" lon="5.50611">
        <ele>336.20001220703</ele>
        <time>2013-02-19T11:09:10.000Z</time>
      </trkpt>
      <trkpt lat="43.53587" lon="5.50614">
        <ele>336.39999389648</ele>
        <time>2013-02-19T11:09:11.000Z</time>
      </trkpt>
      <trkpt lat="43.53591" lon="5.50617">
        <ele>336.60000610352</ele>
        <time>2013-02-19T11:09:12.000Z</time>
      </trkpt>
      <trkpt lat="43.53595" lon="5.50619">
        <ele>337</ele>
        <time>2013-02-19T11:09:13.000Z</time>
      </trkpt>
      <trkpt lat="43.53599" lon="5.50622">
        <ele>337.20001220703</ele>
        <time>2013-02-19T11:09:14.000Z</time>
      </trkpt>
      <trkpt lat="43.53603" lon="5.50626">
        <ele>337.39999389648</ele>
        <time>2013-02-19T11:09:15.000Z</time>
      </trkpt>
      <trkpt lat="43.53606" lon="5.5063">
        <ele>337.39999389648</ele>
        <time>2013-02-19T11:09:16.000Z</time>
      </trkpt>
      <trkpt lat="43.53609" lon="5.50635">
        <ele>337.20001220703</ele>
        <time>2013-02-19T11:09:17.000Z</time>
      </trkpt>
      <trkpt lat="43.53611" lon="5.5064">
        <ele>337.20001220703</ele>
        <time>2013-02-19T11:09:18.000Z</time>
      </trkpt>
      <trkpt lat="43.53613" lon="5.50645">
        <ele>337</ele>
        <time>2013-02-19T11:09:19.000Z</time>
      </trkpt>
      <trkpt lat="43.53614" lon="5.50651">
        <ele>336.60000610352</ele>
        <time>2013-02-19T11:09:20.000Z</time>
      </trkpt>
      <trkpt lat="43.53619" lon="5.50669">
        <ele>335.79998779297</ele>
        <time>2013-02-19T11:09:23.000Z</time>
      </trkpt>
      <trkpt lat="43.53621" lon="5.50674">
        <ele>335.79998779297</ele>
        <time>2013-02-19T11:09:24.000Z</time>
      </trkpt>
      <trkpt lat="43.53624" lon="5.50679">
        <ele>335.79998779297</ele>
        <time>2013-02-19T11:09:25.000Z</time>
      </trkpt>
      <trkpt lat="43.53647" lon="5.50711">
        <ele>337.20001220703</ele>
        <time>2013-02-19T11:09:32.000Z</time>
      </trkpt>
      <trkpt lat="43.53687" lon="5.50758">
        <ele>339.20001220703</ele>
        <time>2013-02-19T11:09:41.000Z</time>
      </trkpt>
      <trkpt lat="43.53692" lon="5.50763">
        <ele>339.39999389648</ele>
        <time>2013-02-19T11:09:42.000Z</time>
      </trkpt>
      <trkpt lat="43.53695" lon="5.5077">
        <ele>339.60000610352</ele>
        <time>2013-02-19T11:09:43.000Z</time>
      </trkpt>
      <trkpt lat="43.53726" lon="5.5082">
        <ele>341</ele>
        <time>2013-02-19T11:09:52.000Z</time>
      </trkpt>
      <trkpt lat="43.53729" lon="5.50824">
        <ele>341.20001220703</ele>
        <time>2013-02-19T11:09:53.000Z</time>
      </trkpt>
      <trkpt lat="43.53731" lon="5.50828">
        <ele>341.39999389648</ele>
        <time>2013-02-19T11:09:54.000Z</time>
      </trkpt>
      <trkpt lat="43.53748" lon="5.50841">
        <ele>342.60000610352</ele>
        <time>2013-02-19T11:10:02.000Z</time>
      </trkpt>
      <trkpt lat="43.53768" lon="5.5084">
        <ele>344.79998779297</ele>
        <time>2013-02-19T11:10:11.000Z</time>
      </trkpt>
      <trkpt lat="43.53775" lon="5.50842">
        <ele>345.60000610352</ele>
        <time>2013-02-19T11:10:14.000Z</time>
      </trkpt>
      <trkpt lat="43.53804" lon="5.50857">
        <ele>348.79998779297</ele>
        <time>2013-02-19T11:10:26.000Z</time>
      </trkpt>
      <trkpt lat="43.5383" lon="5.50869">
        <ele>352</ele>
        <time>2013-02-19T11:10:38.000Z</time>
      </trkpt>
      <trkpt lat="43.53859" lon="5.50865">
        <ele>354.39999389648</ele>
        <time>2013-02-19T11:10:50.000Z</time>
      </trkpt>
      <trkpt lat="43.53891" lon="5.50847">
        <ele>357.60000610352</ele>
        <time>2013-02-19T11:11:04.000Z</time>
      </trkpt>
      <trkpt lat="43.53906" lon="5.50828">
        <ele>359.79998779297</ele>
        <time>2013-02-19T11:11:11.000Z</time>
      </trkpt>
      <trkpt lat="43.53932" lon="5.50791">
        <ele>361.60000610352</ele>
        <time>2013-02-19T11:11:22.000Z</time>
      </trkpt>
      <trkpt lat="43.53958" lon="5.50765">
        <ele>363.20001220703</ele>
        <time>2013-02-19T11:11:32.000Z</time>
      </trkpt>
      <trkpt lat="43.53994" lon="5.50757">
        <ele>365.39999389648</ele>
        <time>2013-02-19T11:11:43.000Z</time>
      </trkpt>
      <trkpt lat="43.54026" lon="5.50773">
        <ele>366</ele>
        <time>2013-02-19T11:11:52.000Z</time>
      </trkpt>
      <trkpt lat="43.54059" lon="5.50796">
        <ele>366.79998779297</ele>
        <time>2013-02-19T11:12:01.000Z</time>
      </trkpt>
      <trkpt lat="43.54065" lon="5.50804">
        <ele>367</ele>
        <time>2013-02-19T11:12:03.000Z</time>
      </trkpt>
      <trkpt lat="43.54068" lon="5.50808">
        <ele>367.20001220703</ele>
        <time>2013-02-19T11:12:04.000Z</time>
      </trkpt>
      <trkpt lat="43.54107" lon="5.50853">
        <ele>368.39999389648</ele>
        <time>2013-02-19T11:12:16.000Z</time>
      </trkpt>
      <trkpt lat="43.54122" lon="5.50892">
        <ele>368.79998779297</ele>
        <time>2013-02-19T11:12:25.000Z</time>
      </trkpt>
      <trkpt lat="43.54141" lon="5.50909">
        <ele>370</ele>
        <time>2013-02-19T11:12:33.000Z</time>
      </trkpt>
      <trkpt lat="43.54163" lon="5.50931">
        <ele>371.20001220703</ele>
        <time>2013-02-19T11:12:42.000Z</time>
      </trkpt>
      <trkpt lat="43.5418" lon="5.50976">
        <ele>369.39999389648</ele>
        <time>2013-02-19T11:12:53.000Z</time>
      </trkpt>
      <trkpt lat="43.54198" lon="5.51011">
        <ele>368.79998779297</ele>
        <time>2013-02-19T11:13:02.000Z</time>
      </trkpt>
      <trkpt lat="43.54223" lon="5.51047">
        <ele>369.39999389648</ele>
        <time>2013-02-19T11:13:13.000Z</time>
      </trkpt>
      <trkpt lat="43.54242" lon="5.51072">
        <ele>370.39999389648</ele>
        <time>2013-02-19T11:13:23.000Z</time>
      </trkpt>
      <trkpt lat="43.54243" lon="5.51074">
        <ele>370.39999389648</ele>
        <time>2013-02-19T11:13:24.000Z</time>
      </trkpt>
      <trkpt lat="43.54244" lon="5.51075">
        <ele>370.60000610352</ele>
        <time>2013-02-19T11:13:25.000Z</time>
      </trkpt>
      <trkpt lat="43.54244" lon="5.51077">
        <ele>370.60000610352</ele>
        <time>2013-02-19T11:13:26.000Z</time>
      </trkpt>
      <trkpt lat="43.54245" lon="5.51081">
        <ele>370.79998779297</ele>
        <time>2013-02-19T11:13:28.000Z</time>
      </trkpt>
      <trkpt lat="43.54246" lon="5.51082">
        <ele>370.79998779297</ele>
        <time>2013-02-19T11:13:29.000Z</time>
      </trkpt>
      <trkpt lat="43.54248" lon="5.51084">
        <ele>371</ele>
        <time>2013-02-19T11:13:30.000Z</time>
      </trkpt>
      <trkpt lat="43.5425" lon="5.51086">
        <ele>371</ele>
        <time>2013-02-19T11:13:31.000Z</time>
      </trkpt>
      <trkpt lat="43.54252" lon="5.51088">
        <ele>371</ele>
        <time>2013-02-19T11:13:32.000Z</time>
      </trkpt>
      <trkpt lat="43.54269" lon="5.5112">
        <ele>371</ele>
        <time>2013-02-19T11:13:42.000Z</time>
      </trkpt>
      <trkpt lat="43.54274" lon="5.51149">
        <ele>371.79998779297</ele>
        <time>2013-02-19T11:13:47.000Z</time>
      </trkpt>
      <trkpt lat="43.54277" lon="5.51154">
        <ele>371.79998779297</ele>
        <time>2013-02-19T11:13:48.000Z</time>
      </trkpt>
      <trkpt lat="43.5428" lon="5.51156">
        <ele>371.60000610352</ele>
        <time>2013-02-19T11:13:49.000Z</time>
      </trkpt>
      <trkpt lat="43.54284" lon="5.51158">
        <ele>371.60000610352</ele>
        <time>2013-02-19T11:13:50.000Z</time>
      </trkpt>
      <trkpt lat="43.54287" lon="5.51159">
        <ele>371.39999389648</ele>
        <time>2013-02-19T11:13:51.000Z</time>
      </trkpt>
      <trkpt lat="43.54291" lon="5.5116">
        <ele>371.20001220703</ele>
        <time>2013-02-19T11:13:52.000Z</time>
      </trkpt>
      <trkpt lat="43.54295" lon="5.5116">
        <ele>371</ele>
        <time>2013-02-19T11:13:53.000Z</time>
      </trkpt>
      <trkpt lat="43.54314" lon="5.51162">
        <ele>370</ele>
        <time>2013-02-19T11:13:57.000Z</time>
      </trkpt>
      <trkpt lat="43.54342" lon="5.5117">
        <ele>369.60000610352</ele>
        <time>2013-02-19T11:14:06.000Z</time>
      </trkpt>
      <trkpt lat="43.54358" lon="5.51176">
        <ele>370.60000610352</ele>
        <time>2013-02-19T11:14:15.000Z</time>
      </trkpt>
      <trkpt lat="43.54379" lon="5.51164">
        <ele>371.60000610352</ele>
        <time>2013-02-19T11:14:24.000Z</time>
      </trkpt>
      <trkpt lat="43.54381" lon="5.51159">
        <ele>371.79998779297</ele>
        <time>2013-02-19T11:14:25.000Z</time>
      </trkpt>
      <trkpt lat="43.54384" lon="5.51155">
        <ele>372</ele>
        <time>2013-02-19T11:14:26.000Z</time>
      </trkpt>
      <trkpt lat="43.54388" lon="5.51152">
        <ele>372.39999389648</ele>
        <time>2013-02-19T11:14:27.000Z</time>
      </trkpt>
      <trkpt lat="43.54391" lon="5.51151">
        <ele>372.60000610352</ele>
        <time>2013-02-19T11:14:28.000Z</time>
      </trkpt>
      <trkpt lat="43.54393" lon="5.51151">
        <ele>372.79998779297</ele>
        <time>2013-02-19T11:14:29.000Z</time>
      </trkpt>
      <trkpt lat="43.54396" lon="5.51153">
        <ele>372.79998779297</ele>
        <time>2013-02-19T11:14:30.000Z</time>
      </trkpt>
      <trkpt lat="43.54398" lon="5.51156">
        <ele>373</ele>
        <time>2013-02-19T11:14:31.000Z</time>
      </trkpt>
      <trkpt lat="43.544" lon="5.5116">
        <ele>373</ele>
        <time>2013-02-19T11:14:32.000Z</time>
      </trkpt>
      <trkpt lat="43.54402" lon="5.51164">
        <ele>373</ele>
        <time>2013-02-19T11:14:33.000Z</time>
      </trkpt>
      <trkpt lat="43.54404" lon="5.51168">
        <ele>373.20001220703</ele>
        <time>2013-02-19T11:14:34.000Z</time>
      </trkpt>
      <trkpt lat="43.54407" lon="5.51171">
        <ele>373.20001220703</ele>
        <time>2013-02-19T11:14:35.000Z</time>
      </trkpt>
      <trkpt lat="43.54409" lon="5.51175">
        <ele>373.20001220703</ele>
        <time>2013-02-19T11:14:36.000Z</time>
      </trkpt>
      <trkpt lat="43.54439" lon="5.51223">
        <ele>372.60000610352</ele>
        <time>2013-02-19T11:14:49.000Z</time>
      </trkpt>
      <trkpt lat="43.5446" lon="5.51261">
        <ele>373.20001220703</ele>
        <time>2013-02-19T11:14:59.000Z</time>
      </trkpt>
      <trkpt lat="43.54486" lon="5.51307">
        <ele>374</ele>
        <time>2013-02-19T11:15:11.000Z</time>
      </trkpt>
      <trkpt lat="43.54507" lon="5.51339">
        <ele>374.60000610352</ele>
        <time>2013-02-19T11:15:21.000Z</time>
      </trkpt>
      <trkpt lat="43.5453" lon="5.51388">
        <ele>375.60000610352</ele>
        <time>2013-02-19T11:15:35.000Z</time>
      </trkpt>
      <trkpt lat="43.54534" lon="5.51394">
        <ele>375.60000610352</ele>
        <time>2013-02-19T11:15:37.000Z</time>
      </trkpt>
      <trkpt lat="43.54537" lon="5.51395">
        <ele>375.79998779297</ele>
        <time>2013-02-19T11:15:38.000Z</time>
      </trkpt>
      <trkpt lat="43.5454" lon="5.51395">
        <ele>376</ele>
        <time>2013-02-19T11:15:39.000Z</time>
      </trkpt>
      <trkpt lat="43.54551" lon="5.51383">
        <ele>377.39999389648</ele>
        <time>2013-02-19T11:15:45.000Z</time>
      </trkpt>
      <trkpt lat="43.54551" lon="5.51379">
        <ele>377.60000610352</ele>
        <time>2013-02-19T11:15:46.000Z</time>
      </trkpt>
      <trkpt lat="43.54551" lon="5.51376">
        <ele>377.60000610352</ele>
        <time>2013-02-19T11:15:47.000Z</time>
      </trkpt>
      <trkpt lat="43.54554" lon="5.51333">
        <ele>379.79998779297</ele>
        <time>2013-02-19T11:15:59.000Z</time>
      </trkpt>
      <trkpt lat="43.54556" lon="5.5129">
        <ele>380.79998779297</ele>
        <time>2013-02-19T11:16:11.000Z</time>
      </trkpt>
      <trkpt lat="43.54567" lon="5.51256">
        <ele>382.79998779297</ele>
        <time>2013-02-19T11:16:21.000Z</time>
      </trkpt>
      <trkpt lat="43.5459" lon="5.51246">
        <ele>385.20001220703</ele>
        <time>2013-02-19T11:16:30.000Z</time>
      </trkpt>
      <trkpt lat="43.5461" lon="5.51241">
        <ele>386</ele>
        <time>2013-02-19T11:16:39.000Z</time>
      </trkpt>
      <trkpt lat="43.54629" lon="5.51236">
        <ele>387</ele>
        <time>2013-02-19T11:16:47.000Z</time>
      </trkpt>
      <trkpt lat="43.5465" lon="5.51221">
        <ele>388</ele>
        <time>2013-02-19T11:16:57.000Z</time>
      </trkpt>
      <trkpt lat="43.54654" lon="5.51219">
        <ele>388.20001220703</ele>
        <time>2013-02-19T11:16:59.000Z</time>
      </trkpt>
      <trkpt lat="43.54656" lon="5.51218">
        <ele>388.20001220703</ele>
        <time>2013-02-19T11:17:00.000Z</time>
      </trkpt>
      <trkpt lat="43.54657" lon="5.51217">
        <ele>388.39999389648</ele>
        <time>2013-02-19T11:17:01.000Z</time>
      </trkpt>
      <trkpt lat="43.54658" lon="5.51216">
        <ele>388.39999389648</ele>
        <time>2013-02-19T11:17:02.000Z</time>
      </trkpt>
      <trkpt lat="43.54672" lon="5.51211">
        <ele>389.20001220703</ele>
        <time>2013-02-19T11:17:11.000Z</time>
      </trkpt>
      <trkpt lat="43.54687" lon="5.51209">
        <ele>390.20001220703</ele>
        <time>2013-02-19T11:17:20.000Z</time>
      </trkpt>
      <trkpt lat="43.54705" lon="5.51206">
        <ele>391.20001220703</ele>
        <time>2013-02-19T11:17:29.000Z</time>
      </trkpt>
      <trkpt lat="43.54731" lon="5.51206">
        <ele>392.79998779297</ele>
        <time>2013-02-19T11:17:40.000Z</time>
      </trkpt>
      <trkpt lat="43.54755" lon="5.51205">
        <ele>394.20001220703</ele>
        <time>2013-02-19T11:17:51.000Z</time>
      </trkpt>
      <trkpt lat="43.54774" lon="5.51196">
        <ele>395.20001220703</ele>
        <time>2013-02-19T11:18:02.000Z</time>
      </trkpt>
      <trkpt lat="43.54802" lon="5.5119">
        <ele>396.60000610352</ele>
        <time>2013-02-19T11:18:14.000Z</time>
      </trkpt>
      <trkpt lat="43.5483" lon="5.51178">
        <ele>397.79998779297</ele>
        <time>2013-02-19T11:18:25.000Z</time>
      </trkpt>
      <trkpt lat="43.54846" lon="5.51165">
        <ele>399.20001220703</ele>
        <time>2013-02-19T11:18:33.000Z</time>
      </trkpt>
      <trkpt lat="43.5485" lon="5.51162">
        <ele>399.79998779297</ele>
        <time>2013-02-19T11:18:35.000Z</time>
      </trkpt>
      <trkpt lat="43.5487" lon="5.51154">
        <ele>402</ele>
        <time>2013-02-19T11:18:44.000Z</time>
      </trkpt>
      <trkpt lat="43.54883" lon="5.51149">
        <ele>403.20001220703</ele>
        <time>2013-02-19T11:18:49.000Z</time>
      </trkpt>
      <trkpt lat="43.54896" lon="5.51148">
        <ele>404.39999389648</ele>
        <time>2013-02-19T11:18:55.000Z</time>
      </trkpt>
      <trkpt lat="43.54898" lon="5.51147">
        <ele>404.60000610352</ele>
        <time>2013-02-19T11:18:56.000Z</time>
      </trkpt>
      <trkpt lat="43.549" lon="5.51146">
        <ele>404.79998779297</ele>
        <time>2013-02-19T11:18:57.000Z</time>
      </trkpt>
      <trkpt lat="43.54902" lon="5.51146">
        <ele>405</ele>
        <time>2013-02-19T11:18:58.000Z</time>
      </trkpt>
      <trkpt lat="43.54904" lon="5.51145">
        <ele>405.20001220703</ele>
        <time>2013-02-19T11:18:59.000Z</time>
      </trkpt>
      <trkpt lat="43.54906" lon="5.51144">
        <ele>405.39999389648</ele>
        <time>2013-02-19T11:19:00.000Z</time>
      </trkpt>
      <trkpt lat="43.54908" lon="5.51144">
        <ele>405.60000610352</ele>
        <time>2013-02-19T11:19:01.000Z</time>
      </trkpt>
      <trkpt lat="43.54909" lon="5.51143">
        <ele>405.60000610352</ele>
        <time>2013-02-19T11:19:02.000Z</time>
      </trkpt>
      <trkpt lat="43.54933" lon="5.51142">
        <ele>407.60000610352</ele>
        <time>2013-02-19T11:19:13.000Z</time>
      </trkpt>
      <trkpt lat="43.54942" lon="5.51144">
        <ele>408.39999389648</ele>
        <time>2013-02-19T11:19:17.000Z</time>
      </trkpt>
      <trkpt lat="43.54954" lon="5.51144">
        <ele>409.60000610352</ele>
        <time>2013-02-19T11:19:22.000Z</time>
      </trkpt>
      <trkpt lat="43.54957" lon="5.51145">
        <ele>409.79998779297</ele>
        <time>2013-02-19T11:19:23.000Z</time>
      </trkpt>
      <trkpt lat="43.5498" lon="5.51147">
        <ele>411.79998779297</ele>
        <time>2013-02-19T11:19:33.000Z</time>
      </trkpt>
      <trkpt lat="43.54994" lon="5.51148">
        <ele>413</ele>
        <time>2013-02-19T11:19:39.000Z</time>
      </trkpt>
      <trkpt lat="43.55017" lon="5.51152">
        <ele>415.60000610352</ele>
        <time>2013-02-19T11:19:49.000Z</time>
      </trkpt>
      <trkpt lat="43.55052" lon="5.51155">
        <ele>419.79998779297</ele>
        <time>2013-02-19T11:20:03.000Z</time>
      </trkpt>
      <trkpt lat="43.55083" lon="5.51153">
        <ele>423.20001220703</ele>
        <time>2013-02-19T11:20:14.000Z</time>
      </trkpt>
      <trkpt lat="43.55112" lon="5.51131">
        <ele>423.79998779297</ele>
        <time>2013-02-19T11:20:25.000Z</time>
      </trkpt>
      <trkpt lat="43.55136" lon="5.51111">
        <ele>425.60000610352</ele>
        <time>2013-02-19T11:20:34.000Z</time>
      </trkpt>
      <trkpt lat="43.55146" lon="5.51114">
        <ele>426.39999389648</ele>
        <time>2013-02-19T11:20:37.000Z</time>
      </trkpt>
      <trkpt lat="43.55148" lon="5.51115">
        <ele>426.60000610352</ele>
        <time>2013-02-19T11:20:38.000Z</time>
      </trkpt>
      <trkpt lat="43.55172" lon="5.51128">
        <ele>427.39999389648</ele>
        <time>2013-02-19T11:20:48.000Z</time>
      </trkpt>
      <trkpt lat="43.55202" lon="5.51122">
        <ele>429</ele>
        <time>2013-02-19T11:21:00.000Z</time>
      </trkpt>
      <trkpt lat="43.55228" lon="5.51113">
        <ele>430.60000610352</ele>
        <time>2013-02-19T11:21:10.000Z</time>
      </trkpt>
      <trkpt lat="43.55246" lon="5.51114">
        <ele>431.20001220703</ele>
        <time>2013-02-19T11:21:14.000Z</time>
      </trkpt>
      <trkpt lat="43.55251" lon="5.51112">
        <ele>431.60000610352</ele>
        <time>2013-02-19T11:21:15.000Z</time>
      </trkpt>
      <trkpt lat="43.55255" lon="5.51108">
        <ele>432</ele>
        <time>2013-02-19T11:21:16.000Z</time>
      </trkpt>
      <trkpt lat="43.55258" lon="5.51103">
        <ele>432.39999389648</ele>
        <time>2013-02-19T11:21:17.000Z</time>
      </trkpt>
      <trkpt lat="43.55261" lon="5.51097">
        <ele>432.79998779297</ele>
        <time>2013-02-19T11:21:18.000Z</time>
      </trkpt>
      <trkpt lat="43.55264" lon="5.51092">
        <ele>433</ele>
        <time>2013-02-19T11:21:19.000Z</time>
      </trkpt>
      <trkpt lat="43.55267" lon="5.51086">
        <ele>433.39999389648</ele>
        <time>2013-02-19T11:21:20.000Z</time>
      </trkpt>
      <trkpt lat="43.55272" lon="5.51082">
        <ele>433.79998779297</ele>
        <time>2013-02-19T11:21:21.000Z</time>
      </trkpt>
      <trkpt lat="43.55276" lon="5.51079">
        <ele>434</ele>
        <time>2013-02-19T11:21:22.000Z</time>
      </trkpt>
      <trkpt lat="43.55281" lon="5.51077">
        <ele>434</ele>
        <time>2013-02-19T11:21:23.000Z</time>
      </trkpt>
      <trkpt lat="43.55286" lon="5.51075">
        <ele>434.20001220703</ele>
        <time>2013-02-19T11:21:24.000Z</time>
      </trkpt>
      <trkpt lat="43.55313" lon="5.5106">
        <ele>435</ele>
        <time>2013-02-19T11:21:32.000Z</time>
      </trkpt>
      <trkpt lat="43.5534" lon="5.51048">
        <ele>435.39999389648</ele>
        <time>2013-02-19T11:21:42.000Z</time>
      </trkpt>
      <trkpt lat="43.5535" lon="5.5103">
        <ele>435.20001220703</ele>
        <time>2013-02-19T11:21:49.000Z</time>
      </trkpt>
      <trkpt lat="43.5535" lon="5.51026">
        <ele>435.20001220703</ele>
        <time>2013-02-19T11:21:50.000Z</time>
      </trkpt>
      <trkpt lat="43.55349" lon="5.51024">
        <ele>435.20001220703</ele>
        <time>2013-02-19T11:21:51.000Z</time>
      </trkpt>
      <trkpt lat="43.55344" lon="5.50998">
        <ele>434.79998779297</ele>
        <time>2013-02-19T11:22:02.000Z</time>
      </trkpt>
      <trkpt lat="43.55337" lon="5.50942">
        <ele>431.60000610352</ele>
        <time>2013-02-19T11:22:13.000Z</time>
      </trkpt>
      <trkpt lat="43.55334" lon="5.5092">
        <ele>430.20001220703</ele>
        <time>2013-02-19T11:22:17.000Z</time>
      </trkpt>
      <trkpt lat="43.55334" lon="5.50915">
        <ele>430</ele>
        <time>2013-02-19T11:22:18.000Z</time>
      </trkpt>
      <trkpt lat="43.55343" lon="5.50847">
        <ele>430</ele>
        <time>2013-02-19T11:22:29.000Z</time>
      </trkpt>
      <trkpt lat="43.55346" lon="5.50833">
        <ele>429.79998779297</ele>
        <time>2013-02-19T11:22:31.000Z</time>
      </trkpt>
      <trkpt lat="43.55347" lon="5.50826">
        <ele>429.79998779297</ele>
        <time>2013-02-19T11:22:32.000Z</time>
      </trkpt>
      <trkpt lat="43.55349" lon="5.50819">
        <ele>429.79998779297</ele>
        <time>2013-02-19T11:22:33.000Z</time>
      </trkpt>
      <trkpt lat="43.55351" lon="5.50812">
        <ele>429.60000610352</ele>
        <time>2013-02-19T11:22:34.000Z</time>
      </trkpt>
      <trkpt lat="43.55353" lon="5.50805">
        <ele>429.60000610352</ele>
        <time>2013-02-19T11:22:35.000Z</time>
      </trkpt>
      <trkpt lat="43.55355" lon="5.50798">
        <ele>429.39999389648</ele>
        <time>2013-02-19T11:22:36.000Z</time>
      </trkpt>
      <trkpt lat="43.55358" lon="5.50791">
        <ele>429.39999389648</ele>
        <time>2013-02-19T11:22:37.000Z</time>
      </trkpt>
      <trkpt lat="43.5536" lon="5.50785">
        <ele>429.39999389648</ele>
        <time>2013-02-19T11:22:38.000Z</time>
      </trkpt>
      <trkpt lat="43.55367" lon="5.50764">
        <ele>429</ele>
        <time>2013-02-19T11:22:41.000Z</time>
      </trkpt>
      <trkpt lat="43.55373" lon="5.50752">
        <ele>429</ele>
        <time>2013-02-19T11:22:43.000Z</time>
      </trkpt>
      <trkpt lat="43.5538" lon="5.5074">
        <ele>428.79998779297</ele>
        <time>2013-02-19T11:22:45.000Z</time>
      </trkpt>
      <trkpt lat="43.55402" lon="5.50679">
        <ele>427.79998779297</ele>
        <time>2013-02-19T11:22:54.000Z</time>
      </trkpt>
      <trkpt lat="43.55403" lon="5.50671">
        <ele>427.79998779297</ele>
        <time>2013-02-19T11:22:55.000Z</time>
      </trkpt>
      <trkpt lat="43.55404" lon="5.50655">
        <ele>427.39999389648</ele>
        <time>2013-02-19T11:22:57.000Z</time>
      </trkpt>
      <trkpt lat="43.55414" lon="5.50608">
        <ele>425.79998779297</ele>
        <time>2013-02-19T11:23:03.000Z</time>
      </trkpt>
      <trkpt lat="43.55416" lon="5.50601">
        <ele>425.60000610352</ele>
        <time>2013-02-19T11:23:04.000Z</time>
      </trkpt>
      <trkpt lat="43.5542" lon="5.50594">
        <ele>425.39999389648</ele>
        <time>2013-02-19T11:23:05.000Z</time>
      </trkpt>
      <trkpt lat="43.55432" lon="5.50576">
        <ele>425.20001220703</ele>
        <time>2013-02-19T11:23:08.000Z</time>
      </trkpt>
      <trkpt lat="43.5545" lon="5.50551">
        <ele>425.39999389648</ele>
        <time>2013-02-19T11:23:13.000Z</time>
      </trkpt>
      <trkpt lat="43.55474" lon="5.50519">
        <ele>425.39999389648</ele>
        <time>2013-02-19T11:23:21.000Z</time>
      </trkpt>
      <trkpt lat="43.55477" lon="5.50515">
        <ele>425.39999389648</ele>
        <time>2013-02-19T11:23:22.000Z</time>
      </trkpt>
      <trkpt lat="43.55481" lon="5.50512">
        <ele>425.60000610352</ele>
        <time>2013-02-19T11:23:23.000Z</time>
      </trkpt>
      <trkpt lat="43.55485" lon="5.50509">
        <ele>425.60000610352</ele>
        <time>2013-02-19T11:23:24.000Z</time>
      </trkpt>
      <trkpt lat="43.55489" lon="5.50506">
        <ele>425.60000610352</ele>
        <time>2013-02-19T11:23:25.000Z</time>
      </trkpt>
      <trkpt lat="43.55492" lon="5.50503">
        <ele>425.60000610352</ele>
        <time>2013-02-19T11:23:26.000Z</time>
      </trkpt>
      <trkpt lat="43.55495" lon="5.505">
        <ele>425.79998779297</ele>
        <time>2013-02-19T11:23:27.000Z</time>
      </trkpt>
      <trkpt lat="43.55523" lon="5.50489">
        <ele>426</ele>
        <time>2013-02-19T11:23:35.000Z</time>
      </trkpt>
      <trkpt lat="43.55562" lon="5.50476">
        <ele>426.39999389648</ele>
        <time>2013-02-19T11:23:46.000Z</time>
      </trkpt>
      <trkpt lat="43.55573" lon="5.50458">
        <ele>426.20001220703</ele>
        <time>2013-02-19T11:23:50.000Z</time>
      </trkpt>
      <trkpt lat="43.55575" lon="5.50454">
        <ele>426.20001220703</ele>
        <time>2013-02-19T11:23:51.000Z</time>
      </trkpt>
      <trkpt lat="43.55588" lon="5.50423">
        <ele>426</ele>
        <time>2013-02-19T11:23:57.000Z</time>
      </trkpt>
      <trkpt lat="43.5559" lon="5.50419">
        <ele>426</ele>
        <time>2013-02-19T11:23:58.000Z</time>
      </trkpt>
      <trkpt lat="43.55596" lon="5.50409">
        <ele>426</ele>
        <time>2013-02-19T11:24:00.000Z</time>
      </trkpt>
      <trkpt lat="43.55599" lon="5.50404">
        <ele>426</ele>
        <time>2013-02-19T11:24:01.000Z</time>
      </trkpt>
      <trkpt lat="43.55602" lon="5.50399">
        <ele>426</ele>
        <time>2013-02-19T11:24:02.000Z</time>
      </trkpt>
      <trkpt lat="43.55621" lon="5.50359">
        <ele>425.60000610352</ele>
        <time>2013-02-19T11:24:09.000Z</time>
      </trkpt>
      <trkpt lat="43.55624" lon="5.50354">
        <ele>425.60000610352</ele>
        <time>2013-02-19T11:24:10.000Z</time>
      </trkpt>
      <trkpt lat="43.55626" lon="5.50348">
        <ele>425.60000610352</ele>
        <time>2013-02-19T11:24:11.000Z</time>
      </trkpt>
      <trkpt lat="43.55629" lon="5.50342">
        <ele>425.60000610352</ele>
        <time>2013-02-19T11:24:12.000Z</time>
      </trkpt>
      <trkpt lat="43.55632" lon="5.50336">
        <ele>425.60000610352</ele>
        <time>2013-02-19T11:24:13.000Z</time>
      </trkpt>
      <trkpt lat="43.55641" lon="5.50318">
        <ele>425.39999389648</ele>
        <time>2013-02-19T11:24:16.000Z</time>
      </trkpt>
      <trkpt lat="43.55642" lon="5.50311">
        <ele>425.39999389648</ele>
        <time>2013-02-19T11:24:17.000Z</time>
      </trkpt>
      <trkpt lat="43.55644" lon="5.50304">
        <ele>425.39999389648</ele>
        <time>2013-02-19T11:24:18.000Z</time>
      </trkpt>
      <trkpt lat="43.55644" lon="5.50297">
        <ele>425.39999389648</ele>
        <time>2013-02-19T11:24:19.000Z</time>
      </trkpt>
      <trkpt lat="43.55643" lon="5.5029">
        <ele>425.20001220703</ele>
        <time>2013-02-19T11:24:20.000Z</time>
      </trkpt>
      <trkpt lat="43.55642" lon="5.50282">
        <ele>425.20001220703</ele>
        <time>2013-02-19T11:24:21.000Z</time>
      </trkpt>
      <trkpt lat="43.5564" lon="5.50275">
        <ele>425.20001220703</ele>
        <time>2013-02-19T11:24:22.000Z</time>
      </trkpt>
      <trkpt lat="43.55635" lon="5.50253">
        <ele>425</ele>
        <time>2013-02-19T11:24:25.000Z</time>
      </trkpt>
      <trkpt lat="43.55634" lon="5.50245">
        <ele>424.79998779297</ele>
        <time>2013-02-19T11:24:26.000Z</time>
      </trkpt>
      <trkpt lat="43.55634" lon="5.50237">
        <ele>424.60000610352</ele>
        <time>2013-02-19T11:24:27.000Z</time>
      </trkpt>
      <trkpt lat="43.55634" lon="5.50229">
        <ele>424.60000610352</ele>
        <time>2013-02-19T11:24:28.000Z</time>
      </trkpt>
      <trkpt lat="43.55635" lon="5.50221">
        <ele>424.39999389648</ele>
        <time>2013-02-19T11:24:29.000Z</time>
      </trkpt>
      <trkpt lat="43.55637" lon="5.50213">
        <ele>424.39999389648</ele>
        <time>2013-02-19T11:24:30.000Z</time>
      </trkpt>
      <trkpt lat="43.55639" lon="5.50206">
        <ele>424.20001220703</ele>
        <time>2013-02-19T11:24:31.000Z</time>
      </trkpt>
      <trkpt lat="43.55641" lon="5.50199">
        <ele>424.20001220703</ele>
        <time>2013-02-19T11:24:32.000Z</time>
      </trkpt>
      <trkpt lat="43.55644" lon="5.50193">
        <ele>424</ele>
        <time>2013-02-19T11:24:33.000Z</time>
      </trkpt>
      <trkpt lat="43.5567" lon="5.50116">
        <ele>423.39999389648</ele>
        <time>2013-02-19T11:24:45.000Z</time>
      </trkpt>
      <trkpt lat="43.55684" lon="5.5008">
        <ele>423.60000610352</ele>
        <time>2013-02-19T11:24:51.000Z</time>
      </trkpt>
      <trkpt lat="43.55685" lon="5.50074">
        <ele>423.60000610352</ele>
        <time>2013-02-19T11:24:52.000Z</time>
      </trkpt>
      <trkpt lat="43.55688" lon="5.50069">
        <ele>423.60000610352</ele>
        <time>2013-02-19T11:24:53.000Z</time>
      </trkpt>
      <trkpt lat="43.5569" lon="5.50065">
        <ele>423.60000610352</ele>
        <time>2013-02-19T11:24:54.000Z</time>
      </trkpt>
      <trkpt lat="43.55693" lon="5.50062">
        <ele>423.79998779297</ele>
        <time>2013-02-19T11:24:55.000Z</time>
      </trkpt>
      <trkpt lat="43.55696" lon="5.5006">
        <ele>423.79998779297</ele>
        <time>2013-02-19T11:24:56.000Z</time>
      </trkpt>
      <trkpt lat="43.557" lon="5.50057">
        <ele>424</ele>
        <time>2013-02-19T11:24:57.000Z</time>
      </trkpt>
      <trkpt lat="43.55703" lon="5.50055">
        <ele>424</ele>
        <time>2013-02-19T11:24:58.000Z</time>
      </trkpt>
      <trkpt lat="43.55706" lon="5.50051">
        <ele>424.20001220703</ele>
        <time>2013-02-19T11:24:59.000Z</time>
      </trkpt>
      <trkpt lat="43.55716" lon="5.50041">
        <ele>424.60000610352</ele>
        <time>2013-02-19T11:25:02.000Z</time>
      </trkpt>
      <trkpt lat="43.55719" lon="5.50037">
        <ele>424.60000610352</ele>
        <time>2013-02-19T11:25:03.000Z</time>
      </trkpt>
      <trkpt lat="43.55722" lon="5.50033">
        <ele>424.79998779297</ele>
        <time>2013-02-19T11:25:04.000Z</time>
      </trkpt>
      <trkpt lat="43.55735" lon="5.5">
        <ele>425</ele>
        <time>2013-02-19T11:25:11.000Z</time>
      </trkpt>
      <trkpt lat="43.55747" lon="5.49964">
        <ele>424</ele>
        <time>2013-02-19T11:25:18.000Z</time>
      </trkpt>
      <trkpt lat="43.5575" lon="5.49959">
        <ele>424</ele>
        <time>2013-02-19T11:25:19.000Z</time>
      </trkpt>
      <trkpt lat="43.55753" lon="5.49955">
        <ele>424</ele>
        <time>2013-02-19T11:25:20.000Z</time>
      </trkpt>
      <trkpt lat="43.55756" lon="5.49951">
        <ele>424</ele>
        <time>2013-02-19T11:25:21.000Z</time>
      </trkpt>
      <trkpt lat="43.55759" lon="5.49949">
        <ele>424.20001220703</ele>
        <time>2013-02-19T11:25:22.000Z</time>
      </trkpt>
      <trkpt lat="43.55763" lon="5.49947">
        <ele>424.39999389648</ele>
        <time>2013-02-19T11:25:23.000Z</time>
      </trkpt>
      <trkpt lat="43.55767" lon="5.49945">
        <ele>424.60000610352</ele>
        <time>2013-02-19T11:25:24.000Z</time>
      </trkpt>
      <trkpt lat="43.55798" lon="5.49933">
        <ele>426.39999389648</ele>
        <time>2013-02-19T11:25:33.000Z</time>
      </trkpt>
      <trkpt lat="43.55832" lon="5.49911">
        <ele>427.39999389648</ele>
        <time>2013-02-19T11:25:43.000Z</time>
      </trkpt>
      <trkpt lat="43.55859" lon="5.49911">
        <ele>428.20001220703</ele>
        <time>2013-02-19T11:25:50.000Z</time>
      </trkpt>
      <trkpt lat="43.5589" lon="5.49909">
        <ele>428.79998779297</ele>
        <time>2013-02-19T11:25:59.000Z</time>
      </trkpt>
      <trkpt lat="43.55918" lon="5.49928">
        <ele>430.39999389648</ele>
        <time>2013-02-19T11:26:08.000Z</time>
      </trkpt>
      <trkpt lat="43.55956" lon="5.49935">
        <ele>430.79998779297</ele>
        <time>2013-02-19T11:26:19.000Z</time>
      </trkpt>
      <trkpt lat="43.55986" lon="5.49941">
        <ele>431.20001220703</ele>
        <time>2013-02-19T11:26:28.000Z</time>
      </trkpt>
      <trkpt lat="43.56018" lon="5.49934">
        <ele>430.79998779297</ele>
        <time>2013-02-19T11:26:37.000Z</time>
      </trkpt>
      <trkpt lat="43.56032" lon="5.49929">
        <ele>430.60000610352</ele>
        <time>2013-02-19T11:26:41.000Z</time>
      </trkpt>
      <trkpt lat="43.56077" lon="5.49926">
        <ele>430</ele>
        <time>2013-02-19T11:26:51.000Z</time>
      </trkpt>
      <trkpt lat="43.56102" lon="5.49915">
        <ele>429.60000610352</ele>
        <time>2013-02-19T11:26:56.000Z</time>
      </trkpt>
      <trkpt lat="43.56114" lon="5.49904">
        <ele>429.20001220703</ele>
        <time>2013-02-19T11:26:59.000Z</time>
      </trkpt>
      <trkpt lat="43.56144" lon="5.4987">
        <ele>428.39999389648</ele>
        <time>2013-02-19T11:27:07.000Z</time>
      </trkpt>
      <trkpt lat="43.56148" lon="5.49867">
        <ele>428.39999389648</ele>
        <time>2013-02-19T11:27:08.000Z</time>
      </trkpt>
      <trkpt lat="43.56153" lon="5.49864">
        <ele>428.39999389648</ele>
        <time>2013-02-19T11:27:09.000Z</time>
      </trkpt>
      <trkpt lat="43.56158" lon="5.49862">
        <ele>428.20001220703</ele>
        <time>2013-02-19T11:27:10.000Z</time>
      </trkpt>
      <trkpt lat="43.56163" lon="5.49859">
        <ele>428.20001220703</ele>
        <time>2013-02-19T11:27:11.000Z</time>
      </trkpt>
      <trkpt lat="43.56172" lon="5.49853">
        <ele>428.20001220703</ele>
        <time>2013-02-19T11:27:13.000Z</time>
      </trkpt>
      <trkpt lat="43.56177" lon="5.4985">
        <ele>428.20001220703</ele>
        <time>2013-02-19T11:27:14.000Z</time>
      </trkpt>
      <trkpt lat="43.56199" lon="5.49834">
        <ele>428.60000610352</ele>
        <time>2013-02-19T11:27:19.000Z</time>
      </trkpt>
      <trkpt lat="43.56227" lon="5.49802">
        <ele>428.39999389648</ele>
        <time>2013-02-19T11:27:27.000Z</time>
      </trkpt>
      <trkpt lat="43.5623" lon="5.49797">
        <ele>428.39999389648</ele>
        <time>2013-02-19T11:27:28.000Z</time>
      </trkpt>
      <trkpt lat="43.56232" lon="5.49792">
        <ele>428.39999389648</ele>
        <time>2013-02-19T11:27:29.000Z</time>
      </trkpt>
      <trkpt lat="43.56233" lon="5.49787">
        <ele>428.39999389648</ele>
        <time>2013-02-19T11:27:30.000Z</time>
      </trkpt>
      <trkpt lat="43.56235" lon="5.49781">
        <ele>428.39999389648</ele>
        <time>2013-02-19T11:27:31.000Z</time>
      </trkpt>
      <trkpt lat="43.56249" lon="5.49746">
        <ele>429.60000610352</ele>
        <time>2013-02-19T11:27:40.000Z</time>
      </trkpt>
      <trkpt lat="43.56268" lon="5.49702">
        <ele>428.79998779297</ele>
        <time>2013-02-19T11:27:51.000Z</time>
      </trkpt>
      <trkpt lat="43.56272" lon="5.49692">
        <ele>428.60000610352</ele>
        <time>2013-02-19T11:27:53.000Z</time>
      </trkpt>
      <trkpt lat="43.56289" lon="5.4962">
        <ele>426.20001220703</ele>
        <time>2013-02-19T11:28:04.000Z</time>
      </trkpt>
      <trkpt lat="43.56292" lon="5.49614">
        <ele>426.39999389648</ele>
        <time>2013-02-19T11:28:05.000Z</time>
      </trkpt>
      <trkpt lat="43.56297" lon="5.4961">
        <ele>426.79998779297</ele>
        <time>2013-02-19T11:28:06.000Z</time>
      </trkpt>
      <trkpt lat="43.56302" lon="5.49606">
        <ele>427.20001220703</ele>
        <time>2013-02-19T11:28:07.000Z</time>
      </trkpt>
      <trkpt lat="43.56308" lon="5.49605">
        <ele>428</ele>
        <time>2013-02-19T11:28:08.000Z</time>
      </trkpt>
      <trkpt lat="43.56314" lon="5.49605">
        <ele>428.60000610352</ele>
        <time>2013-02-19T11:28:09.000Z</time>
      </trkpt>
      <trkpt lat="43.56319" lon="5.49605">
        <ele>429.20001220703</ele>
        <time>2013-02-19T11:28:10.000Z</time>
      </trkpt>
      <trkpt lat="43.56377" lon="5.49592">
        <ele>430.20001220703</ele>
        <time>2013-02-19T11:28:21.000Z</time>
      </trkpt>
      <trkpt lat="43.56437" lon="5.49572">
        <ele>430.20001220703</ele>
        <time>2013-02-19T11:28:33.000Z</time>
      </trkpt>
      <trkpt lat="43.56459" lon="5.49565">
        <ele>430</ele>
        <time>2013-02-19T11:28:38.000Z</time>
      </trkpt>
      <trkpt lat="43.56492" lon="5.49554">
        <ele>429.79998779297</ele>
        <time>2013-02-19T11:28:46.000Z</time>
      </trkpt>
      <trkpt lat="43.56497" lon="5.49555">
        <ele>429.60000610352</ele>
        <time>2013-02-19T11:28:47.000Z</time>
      </trkpt>
      <trkpt lat="43.56501" lon="5.49557">
        <ele>429.39999389648</ele>
        <time>2013-02-19T11:28:48.000Z</time>
      </trkpt>
      <trkpt lat="43.56506" lon="5.49559">
        <ele>428.79998779297</ele>
        <time>2013-02-19T11:28:49.000Z</time>
      </trkpt>
      <trkpt lat="43.5651" lon="5.49562">
        <ele>428.39999389648</ele>
        <time>2013-02-19T11:28:50.000Z</time>
      </trkpt>
      <trkpt lat="43.56515" lon="5.49565">
        <ele>427.79998779297</ele>
        <time>2013-02-19T11:28:51.000Z</time>
      </trkpt>
      <trkpt lat="43.56536" lon="5.49575">
        <ele>426.20001220703</ele>
        <time>2013-02-19T11:28:55.000Z</time>
      </trkpt>
      <trkpt lat="43.56542" lon="5.49577">
        <ele>425.79998779297</ele>
        <time>2013-02-19T11:28:56.000Z</time>
      </trkpt>
      <trkpt lat="43.56548" lon="5.49579">
        <ele>425.60000610352</ele>
        <time>2013-02-19T11:28:57.000Z</time>
      </trkpt>
      <trkpt lat="43.56553" lon="5.4958">
        <ele>425.20001220703</ele>
        <time>2013-02-19T11:28:58.000Z</time>
      </trkpt>
      <trkpt lat="43.56558" lon="5.49583">
        <ele>425</ele>
        <time>2013-02-19T11:28:59.000Z</time>
      </trkpt>
      <trkpt lat="43.56561" lon="5.49585">
        <ele>424.79998779297</ele>
        <time>2013-02-19T11:29:00.000Z</time>
      </trkpt>
      <trkpt lat="43.56562" lon="5.49588">
        <ele>424.60000610352</ele>
        <time>2013-02-19T11:29:01.000Z</time>
      </trkpt>
      <trkpt lat="43.56563" lon="5.49589">
        <ele>424.60000610352</ele>
        <time>2013-02-19T11:29:02.000Z</time>
      </trkpt>
      <trkpt lat="43.56564" lon="5.4959">
        <ele>424.39999389648</ele>
        <time>2013-02-19T11:29:03.000Z</time>
      </trkpt>
      <trkpt lat="43.56565" lon="5.49591">
        <ele>424.39999389648</ele>
        <time>2013-02-19T11:29:19.000Z</time>
      </trkpt>
      <trkpt lat="43.56567" lon="5.49591">
        <ele>424.20001220703</ele>
        <time>2013-02-19T11:29:22.000Z</time>
      </trkpt>
      <trkpt lat="43.56573" lon="5.49593">
        <ele>423.79998779297</ele>
        <time>2013-02-19T11:29:30.000Z</time>
      </trkpt>
      <trkpt lat="43.56573" lon="5.49593">
        <ele>423.79998779297</ele>
        <time>2013-02-19T11:29:36.000Z</time>
      </trkpt>
      <trkpt lat="43.56573" lon="5.49593">
        <ele>423.79998779297</ele>
        <time>2013-02-19T11:29:37.000Z</time>
      </trkpt>
      <trkpt lat="43.56573" lon="5.49593">
        <ele>423.79998779297</ele>
        <time>2013-02-19T11:29:38.000Z</time>
      </trkpt>
      <trkpt lat="43.56576" lon="5.49593">
        <ele>423.79998779297</ele>
        <time>2013-02-19T11:29:48.000Z</time>
      </trkpt>
      <trkpt lat="43.56585" lon="5.49595">
        <ele>423.20001220703</ele>
        <time>2013-02-19T11:29:53.000Z</time>
      </trkpt>
      <trkpt lat="43.56588" lon="5.49596">
        <ele>423.20001220703</ele>
        <time>2013-02-19T11:29:54.000Z</time>
      </trkpt>
      <trkpt lat="43.56591" lon="5.49597">
        <ele>423</ele>
        <time>2013-02-19T11:29:55.000Z</time>
      </trkpt>
      <trkpt lat="43.5663" lon="5.49613">
        <ele>421.60000610352</ele>
        <time>2013-02-19T11:30:07.000Z</time>
      </trkpt>
      <trkpt lat="43.56664" lon="5.49628">
        <ele>421</ele>
        <time>2013-02-19T11:30:16.000Z</time>
      </trkpt>
      <trkpt lat="43.56672" lon="5.49633">
        <ele>420.39999389648</ele>
        <time>2013-02-19T11:30:18.000Z</time>
      </trkpt>
      <trkpt lat="43.56687" lon="5.49641">
        <ele>419.20001220703</ele>
        <time>2013-02-19T11:30:21.000Z</time>
      </trkpt>
      <trkpt lat="43.56692" lon="5.49645">
        <ele>418.79998779297</ele>
        <time>2013-02-19T11:30:22.000Z</time>
      </trkpt>
      <trkpt lat="43.56702" lon="5.49652">
        <ele>418.20001220703</ele>
        <time>2013-02-19T11:30:24.000Z</time>
      </trkpt>
      <trkpt lat="43.56712" lon="5.4966">
        <ele>417.39999389648</ele>
        <time>2013-02-19T11:30:26.000Z</time>
      </trkpt>
      <trkpt lat="43.56716" lon="5.49664">
        <ele>417.20001220703</ele>
        <time>2013-02-19T11:30:27.000Z</time>
      </trkpt>
      <trkpt lat="43.5672" lon="5.49669">
        <ele>417</ele>
        <time>2013-02-19T11:30:28.000Z</time>
      </trkpt>
      <trkpt lat="43.56722" lon="5.49675">
        <ele>416.79998779297</ele>
        <time>2013-02-19T11:30:29.000Z</time>
      </trkpt>
      <trkpt lat="43.56724" lon="5.49681">
        <ele>416.60000610352</ele>
        <time>2013-02-19T11:30:30.000Z</time>
      </trkpt>
      <trkpt lat="43.56725" lon="5.49688">
        <ele>416.39999389648</ele>
        <time>2013-02-19T11:30:31.000Z</time>
      </trkpt>
      <trkpt lat="43.56725" lon="5.49695">
        <ele>416.39999389648</ele>
        <time>2013-02-19T11:30:32.000Z</time>
      </trkpt>
      <trkpt lat="43.56725" lon="5.49701">
        <ele>416.20001220703</ele>
        <time>2013-02-19T11:30:33.000Z</time>
      </trkpt>
      <trkpt lat="43.56725" lon="5.49708">
        <ele>416.20001220703</ele>
        <time>2013-02-19T11:30:34.000Z</time>
      </trkpt>
      <trkpt lat="43.56725" lon="5.49715">
        <ele>416</ele>
        <time>2013-02-19T11:30:35.000Z</time>
      </trkpt>
      <trkpt lat="43.56725" lon="5.49722">
        <ele>416</ele>
        <time>2013-02-19T11:30:36.000Z</time>
      </trkpt>
      <trkpt lat="43.56724" lon="5.49738">
        <ele>415.79998779297</ele>
        <time>2013-02-19T11:30:38.000Z</time>
      </trkpt>
      <trkpt lat="43.56724" lon="5.49745">
        <ele>415.60000610352</ele>
        <time>2013-02-19T11:30:39.000Z</time>
      </trkpt>
      <trkpt lat="43.56726" lon="5.49751">
        <ele>415.60000610352</ele>
        <time>2013-02-19T11:30:40.000Z</time>
      </trkpt>
      <trkpt lat="43.56729" lon="5.49757">
        <ele>415</ele>
        <time>2013-02-19T11:30:41.000Z</time>
      </trkpt>
      <trkpt lat="43.56733" lon="5.49764">
        <ele>414.60000610352</ele>
        <time>2013-02-19T11:30:42.000Z</time>
      </trkpt>
      <trkpt lat="43.56754" lon="5.49795">
        <ele>411.79998779297</ele>
        <time>2013-02-19T11:30:46.000Z</time>
      </trkpt>
      <trkpt lat="43.56759" lon="5.49802">
        <ele>410.79998779297</ele>
        <time>2013-02-19T11:30:47.000Z</time>
      </trkpt>
      <trkpt lat="43.56762" lon="5.49809">
        <ele>410</ele>
        <time>2013-02-19T11:30:48.000Z</time>
      </trkpt>
      <trkpt lat="43.56764" lon="5.49817">
        <ele>409.20001220703</ele>
        <time>2013-02-19T11:30:49.000Z</time>
      </trkpt>
      <trkpt lat="43.56767" lon="5.49832">
        <ele>408</ele>
        <time>2013-02-19T11:30:51.000Z</time>
      </trkpt>
      <trkpt lat="43.56768" lon="5.4984">
        <ele>407.20001220703</ele>
        <time>2013-02-19T11:30:52.000Z</time>
      </trkpt>
      <trkpt lat="43.5677" lon="5.49845">
        <ele>406.60000610352</ele>
        <time>2013-02-19T11:30:53.000Z</time>
      </trkpt>
      <trkpt lat="43.56779" lon="5.49872">
        <ele>403.79998779297</ele>
        <time>2013-02-19T11:30:58.000Z</time>
      </trkpt>
      <trkpt lat="43.56785" lon="5.49882">
        <ele>402.79998779297</ele>
        <time>2013-02-19T11:31:00.000Z</time>
      </trkpt>
      <trkpt lat="43.5679" lon="5.49888">
        <ele>402.20001220703</ele>
        <time>2013-02-19T11:31:01.000Z</time>
      </trkpt>
      <trkpt lat="43.56794" lon="5.49893">
        <ele>401.60000610352</ele>
        <time>2013-02-19T11:31:02.000Z</time>
      </trkpt>
      <trkpt lat="43.56798" lon="5.49897">
        <ele>401.39999389648</ele>
        <time>2013-02-19T11:31:03.000Z</time>
      </trkpt>
      <trkpt lat="43.56801" lon="5.499">
        <ele>401.20001220703</ele>
        <time>2013-02-19T11:31:04.000Z</time>
      </trkpt>
      <trkpt lat="43.56803" lon="5.49902">
        <ele>401</ele>
        <time>2013-02-19T11:31:05.000Z</time>
      </trkpt>
      <trkpt lat="43.56805" lon="5.49904">
        <ele>400.79998779297</ele>
        <time>2013-02-19T11:31:06.000Z</time>
      </trkpt>
      <trkpt lat="43.56806" lon="5.49907">
        <ele>400.60000610352</ele>
        <time>2013-02-19T11:31:07.000Z</time>
      </trkpt>
      <trkpt lat="43.56807" lon="5.4991">
        <ele>400.39999389648</ele>
        <time>2013-02-19T11:31:08.000Z</time>
      </trkpt>
      <trkpt lat="43.5681" lon="5.49911">
        <ele>400.20001220703</ele>
        <time>2013-02-19T11:31:09.000Z</time>
      </trkpt>
      <trkpt lat="43.56812" lon="5.49912">
        <ele>400.20001220703</ele>
        <time>2013-02-19T11:31:10.000Z</time>
      </trkpt>
      <trkpt lat="43.56815" lon="5.49911">
        <ele>400.20001220703</ele>
        <time>2013-02-19T11:31:11.000Z</time>
      </trkpt>
      <trkpt lat="43.56834" lon="5.49922">
        <ele>399.79998779297</ele>
        <time>2013-02-19T11:31:17.000Z</time>
      </trkpt>
      <trkpt lat="43.56857" lon="5.49938">
        <ele>397.79998779297</ele>
        <time>2013-02-19T11:31:23.000Z</time>
      </trkpt>
      <trkpt lat="43.56862" lon="5.4994">
        <ele>397.60000610352</ele>
        <time>2013-02-19T11:31:24.000Z</time>
      </trkpt>
      <trkpt lat="43.56866" lon="5.49942">
        <ele>397.39999389648</ele>
        <time>2013-02-19T11:31:25.000Z</time>
      </trkpt>
      <trkpt lat="43.5687" lon="5.49944">
        <ele>397</ele>
        <time>2013-02-19T11:31:26.000Z</time>
      </trkpt>
      <trkpt lat="43.56875" lon="5.49946">
        <ele>396.79998779297</ele>
        <time>2013-02-19T11:31:27.000Z</time>
      </trkpt>
      <trkpt lat="43.56901" lon="5.49964">
        <ele>395.20001220703</ele>
        <time>2013-02-19T11:31:35.000Z</time>
      </trkpt>
      <trkpt lat="43.56914" lon="5.49986">
        <ele>394.79998779297</ele>
        <time>2013-02-19T11:31:41.000Z</time>
      </trkpt>
      <trkpt lat="43.56917" lon="5.4999">
        <ele>394.79998779297</ele>
        <time>2013-02-19T11:31:42.000Z</time>
      </trkpt>
      <trkpt lat="43.56921" lon="5.49993">
        <ele>394.39999389648</ele>
        <time>2013-02-19T11:31:43.000Z</time>
      </trkpt>
      <trkpt lat="43.56926" lon="5.49995">
        <ele>393.79998779297</ele>
        <time>2013-02-19T11:31:44.000Z</time>
      </trkpt>
      <trkpt lat="43.56932" lon="5.49997">
        <ele>393.39999389648</ele>
        <time>2013-02-19T11:31:45.000Z</time>
      </trkpt>
      <trkpt lat="43.56937" lon="5.49998">
        <ele>393</ele>
        <time>2013-02-19T11:31:46.000Z</time>
      </trkpt>
      <trkpt lat="43.56946" lon="5.49996">
        <ele>392</ele>
        <time>2013-02-19T11:31:48.000Z</time>
      </trkpt>
      <trkpt lat="43.56956" lon="5.49995">
        <ele>391</ele>
        <time>2013-02-19T11:31:50.000Z</time>
      </trkpt>
      <trkpt lat="43.56961" lon="5.49996">
        <ele>390.60000610352</ele>
        <time>2013-02-19T11:31:51.000Z</time>
      </trkpt>
      <trkpt lat="43.56965" lon="5.49996">
        <ele>390.20001220703</ele>
        <time>2013-02-19T11:31:52.000Z</time>
      </trkpt>
      <trkpt lat="43.5697" lon="5.49996">
        <ele>389.60000610352</ele>
        <time>2013-02-19T11:31:53.000Z</time>
      </trkpt>
      <trkpt lat="43.56976" lon="5.49997">
        <ele>389.20001220703</ele>
        <time>2013-02-19T11:31:54.000Z</time>
      </trkpt>
      <trkpt lat="43.56981" lon="5.49999">
        <ele>388.79998779297</ele>
        <time>2013-02-19T11:31:55.000Z</time>
      </trkpt>
      <trkpt lat="43.56985" lon="5.50001">
        <ele>388.20001220703</ele>
        <time>2013-02-19T11:31:56.000Z</time>
      </trkpt>
      <trkpt lat="43.56989" lon="5.50005">
        <ele>387.79998779297</ele>
        <time>2013-02-19T11:31:57.000Z</time>
      </trkpt>
      <trkpt lat="43.56991" lon="5.50009">
        <ele>387.39999389648</ele>
        <time>2013-02-19T11:31:58.000Z</time>
      </trkpt>
      <trkpt lat="43.56993" lon="5.50014">
        <ele>387</ele>
        <time>2013-02-19T11:31:59.000Z</time>
      </trkpt>
      <trkpt lat="43.56995" lon="5.5002">
        <ele>386.60000610352</ele>
        <time>2013-02-19T11:32:00.000Z</time>
      </trkpt>
      <trkpt lat="43.56996" lon="5.50026">
        <ele>386.20001220703</ele>
        <time>2013-02-19T11:32:01.000Z</time>
      </trkpt>
      <trkpt lat="43.56996" lon="5.50032">
        <ele>386</ele>
        <time>2013-02-19T11:32:02.000Z</time>
      </trkpt>
      <trkpt lat="43.56996" lon="5.50038">
        <ele>385.79998779297</ele>
        <time>2013-02-19T11:32:03.000Z</time>
      </trkpt>
      <trkpt lat="43.56997" lon="5.50044">
        <ele>385.60000610352</ele>
        <time>2013-02-19T11:32:04.000Z</time>
      </trkpt>
      <trkpt lat="43.56998" lon="5.50061">
        <ele>384.79998779297</ele>
        <time>2013-02-19T11:32:07.000Z</time>
      </trkpt>
      <trkpt lat="43.56998" lon="5.50066">
        <ele>384.60000610352</ele>
        <time>2013-02-19T11:32:08.000Z</time>
      </trkpt>
      <trkpt lat="43.56998" lon="5.50071">
        <ele>384.39999389648</ele>
        <time>2013-02-19T11:32:09.000Z</time>
      </trkpt>
      <trkpt lat="43.56998" lon="5.50076">
        <ele>384.20001220703</ele>
        <time>2013-02-19T11:32:10.000Z</time>
      </trkpt>
      <trkpt lat="43.56999" lon="5.50079">
        <ele>384</ele>
        <time>2013-02-19T11:32:11.000Z</time>
      </trkpt>
      <trkpt lat="43.57001" lon="5.50082">
        <ele>383.79998779297</ele>
        <time>2013-02-19T11:32:12.000Z</time>
      </trkpt>
      <trkpt lat="43.57003" lon="5.50084">
        <ele>383.60000610352</ele>
        <time>2013-02-19T11:32:13.000Z</time>
      </trkpt>
      <trkpt lat="43.57006" lon="5.50083">
        <ele>383.39999389648</ele>
        <time>2013-02-19T11:32:14.000Z</time>
      </trkpt>
      <trkpt lat="43.57009" lon="5.50081">
        <ele>383.20001220703</ele>
        <time>2013-02-19T11:32:15.000Z</time>
      </trkpt>
      <trkpt lat="43.57011" lon="5.50078">
        <ele>383</ele>
        <time>2013-02-19T11:32:16.000Z</time>
      </trkpt>
      <trkpt lat="43.57013" lon="5.50074">
        <ele>383</ele>
        <time>2013-02-19T11:32:17.000Z</time>
      </trkpt>
      <trkpt lat="43.57015" lon="5.5007">
        <ele>382.79998779297</ele>
        <time>2013-02-19T11:32:18.000Z</time>
      </trkpt>
      <trkpt lat="43.57017" lon="5.50065">
        <ele>382.79998779297</ele>
        <time>2013-02-19T11:32:19.000Z</time>
      </trkpt>
      <trkpt lat="43.57027" lon="5.50051">
        <ele>382</ele>
        <time>2013-02-19T11:32:23.000Z</time>
      </trkpt>
      <trkpt lat="43.57038" lon="5.50044">
        <ele>380.79998779297</ele>
        <time>2013-02-19T11:32:27.000Z</time>
      </trkpt>
      <trkpt lat="43.57041" lon="5.50042">
        <ele>380.39999389648</ele>
        <time>2013-02-19T11:32:28.000Z</time>
      </trkpt>
      <trkpt lat="43.57049" lon="5.50041">
        <ele>379.60000610352</ele>
        <time>2013-02-19T11:32:30.000Z</time>
      </trkpt>
      <trkpt lat="43.57053" lon="5.50042">
        <ele>379</ele>
        <time>2013-02-19T11:32:31.000Z</time>
      </trkpt>
      <trkpt lat="43.57057" lon="5.50044">
        <ele>378.60000610352</ele>
        <time>2013-02-19T11:32:32.000Z</time>
      </trkpt>
      <trkpt lat="43.57065" lon="5.50047">
        <ele>377.60000610352</ele>
        <time>2013-02-19T11:32:34.000Z</time>
      </trkpt>
      <trkpt lat="43.5707" lon="5.50048">
        <ele>377</ele>
        <time>2013-02-19T11:32:35.000Z</time>
      </trkpt>
      <trkpt lat="43.57074" lon="5.50049">
        <ele>376.60000610352</ele>
        <time>2013-02-19T11:32:36.000Z</time>
      </trkpt>
      <trkpt lat="43.57078" lon="5.50048">
        <ele>376</ele>
        <time>2013-02-19T11:32:37.000Z</time>
      </trkpt>
      <trkpt lat="43.57083" lon="5.50046">
        <ele>375.60000610352</ele>
        <time>2013-02-19T11:32:38.000Z</time>
      </trkpt>
      <trkpt lat="43.57087" lon="5.50044">
        <ele>375.39999389648</ele>
        <time>2013-02-19T11:32:39.000Z</time>
      </trkpt>
      <trkpt lat="43.5709" lon="5.50041">
        <ele>375.20001220703</ele>
        <time>2013-02-19T11:32:40.000Z</time>
      </trkpt>
      <trkpt lat="43.57093" lon="5.50037">
        <ele>375.20001220703</ele>
        <time>2013-02-19T11:32:41.000Z</time>
      </trkpt>
      <trkpt lat="43.57096" lon="5.50034">
        <ele>375</ele>
        <time>2013-02-19T11:32:42.000Z</time>
      </trkpt>
      <trkpt lat="43.57099" lon="5.50031">
        <ele>375</ele>
        <time>2013-02-19T11:32:43.000Z</time>
      </trkpt>
      <trkpt lat="43.57117" lon="5.50015">
        <ele>375.39999389648</ele>
        <time>2013-02-19T11:32:48.000Z</time>
      </trkpt>
      <trkpt lat="43.5712" lon="5.50012">
        <ele>375.60000610352</ele>
        <time>2013-02-19T11:32:49.000Z</time>
      </trkpt>
      <trkpt lat="43.57122" lon="5.50009">
        <ele>375.79998779297</ele>
        <time>2013-02-19T11:32:50.000Z</time>
      </trkpt>
      <trkpt lat="43.57124" lon="5.50007">
        <ele>376</ele>
        <time>2013-02-19T11:32:51.000Z</time>
      </trkpt>
      <trkpt lat="43.57126" lon="5.50006">
        <ele>376.20001220703</ele>
        <time>2013-02-19T11:32:52.000Z</time>
      </trkpt>
      <trkpt lat="43.57126" lon="5.50005">
        <ele>376.20001220703</ele>
        <time>2013-02-19T11:32:58.000Z</time>
      </trkpt>
      <trkpt lat="43.57126" lon="5.50007">
        <ele>376</ele>
        <time>2013-02-19T11:33:31.000Z</time>
      </trkpt>
      <trkpt lat="43.57123" lon="5.5001">
        <ele>375.79998779297</ele>
        <time>2013-02-19T11:33:51.000Z</time>
      </trkpt>
      <trkpt lat="43.57123" lon="5.50009">
        <ele>375.79998779297</ele>
        <time>2013-02-19T11:34:04.000Z</time>
      </trkpt>
      <trkpt lat="43.57123" lon="5.5001">
        <ele>375.79998779297</ele>
        <time>2013-02-19T11:34:21.000Z</time>
      </trkpt>
      <trkpt lat="43.57124" lon="5.5001">
        <ele>375.79998779297</ele>
        <time>2013-02-19T11:34:40.000Z</time>
      </trkpt>
      <trkpt lat="43.57123" lon="5.50011">
        <ele>375.79998779297</ele>
        <time>2013-02-19T11:34:54.000Z</time>
      </trkpt>
      <trkpt lat="43.5712" lon="5.50011">
        <ele>375.60000610352</ele>
        <time>2013-02-19T11:35:12.000Z</time>
      </trkpt>
      <trkpt lat="43.5712" lon="5.50012">
        <ele>375.60000610352</ele>
        <time>2013-02-19T11:35:34.000Z</time>
      </trkpt>
      <trkpt lat="43.5712" lon="5.50012">
        <ele>375.60000610352</ele>
        <time>2013-02-19T11:35:56.000Z</time>
      </trkpt>
      <trkpt lat="43.57122" lon="5.50011">
        <ele>375.79998779297</ele>
        <time>2013-02-19T11:36:16.000Z</time>
      </trkpt>
      <trkpt lat="43.57121" lon="5.50013">
        <ele>375.60000610352</ele>
        <time>2013-02-19T11:36:35.000Z</time>
      </trkpt>
      <trkpt lat="43.57124" lon="5.50015">
        <ele>375.60000610352</ele>
        <time>2013-02-19T11:36:51.000Z</time>
      </trkpt>
      <trkpt lat="43.57125" lon="5.50012">
        <ele>375.79998779297</ele>
        <time>2013-02-19T11:37:19.000Z</time>
      </trkpt>
      <trkpt lat="43.57123" lon="5.50013">
        <ele>375.60000610352</ele>
        <time>2013-02-19T11:37:46.000Z</time>
      </trkpt>
      <trkpt lat="43.57122" lon="5.50012">
        <ele>375.60000610352</ele>
        <time>2013-02-19T11:38:05.000Z</time>
      </trkpt>
      <trkpt lat="43.57123" lon="5.5001">
        <ele>375.79998779297</ele>
        <time>2013-02-19T11:38:34.000Z</time>
      </trkpt>
      <trkpt lat="43.57125" lon="5.50013">
        <ele>375.60000610352</ele>
        <time>2013-02-19T11:39:01.000Z</time>
      </trkpt>
      <trkpt lat="43.57124" lon="5.50012">
        <ele>375.79998779297</ele>
        <time>2013-02-19T11:39:24.000Z</time>
      </trkpt>
      <trkpt lat="43.57124" lon="5.50009">
        <ele>376</ele>
        <time>2013-02-19T11:39:55.000Z</time>
      </trkpt>
      <trkpt lat="43.57121" lon="5.50007">
        <ele>376</ele>
        <time>2013-02-19T11:40:27.000Z</time>
      </trkpt>
      <trkpt lat="43.57123" lon="5.50012">
        <ele>375.79998779297</ele>
        <time>2013-02-19T11:40:45.000Z</time>
      </trkpt>
      <trkpt lat="43.57121" lon="5.50014">
        <ele>375.60000610352</ele>
        <time>2013-02-19T11:41:07.000Z</time>
      </trkpt>
      <trkpt lat="43.57122" lon="5.50013">
        <ele>375.60000610352</ele>
        <time>2013-02-19T11:41:28.000Z</time>
      </trkpt>
      <trkpt lat="43.57122" lon="5.5001">
        <ele>375.79998779297</ele>
        <time>2013-02-19T11:41:54.000Z</time>
      </trkpt>
      <trkpt lat="43.57123" lon="5.5001">
        <ele>375.79998779297</ele>
        <time>2013-02-19T11:42:26.000Z</time>
      </trkpt>
      <trkpt lat="43.57123" lon="5.50012">
        <ele>375.79998779297</ele>
        <time>2013-02-19T11:42:52.000Z</time>
      </trkpt>
      <trkpt lat="43.57123" lon="5.50015">
        <ele>375.60000610352</ele>
        <time>2013-02-19T11:43:18.000Z</time>
      </trkpt>
      <trkpt lat="43.5712" lon="5.50012">
        <ele>375.60000610352</ele>
        <time>2013-02-19T11:43:50.000Z</time>
      </trkpt>
      <trkpt lat="43.57123" lon="5.5001">
        <ele>375.79998779297</ele>
        <time>2013-02-19T11:44:06.000Z</time>
      </trkpt>
      <trkpt lat="43.57122" lon="5.50012">
        <ele>375.79998779297</ele>
        <time>2013-02-19T11:44:30.000Z</time>
      </trkpt>
      <trkpt lat="43.57124" lon="5.50008">
        <ele>376</ele>
        <time>2013-02-19T11:44:55.000Z</time>
      </trkpt>
      <trkpt lat="43.57124" lon="5.50008">
        <ele>376</ele>
        <time>2013-02-19T11:45:15.000Z</time>
      </trkpt>
      <trkpt lat="43.57125" lon="5.50008">
        <ele>376</ele>
        <time>2013-02-19T11:45:36.000Z</time>
      </trkpt>
      <trkpt lat="43.57124" lon="5.50014">
        <ele>375.60000610352</ele>
        <time>2013-02-19T11:45:49.000Z</time>
      </trkpt>
      <trkpt lat="43.57125" lon="5.50015">
        <ele>375.60000610352</ele>
        <time>2013-02-19T11:45:50.000Z</time>
      </trkpt>
      <trkpt lat="43.57129" lon="5.50021">
        <ele>375.20001220703</ele>
        <time>2013-02-19T11:45:58.000Z</time>
      </trkpt>
      <trkpt lat="43.57144" lon="5.50049">
        <ele>373</ele>
        <time>2013-02-19T11:46:06.000Z</time>
      </trkpt>
      <trkpt lat="43.57176" lon="5.50095">
        <ele>367.60000610352</ele>
        <time>2013-02-19T11:46:18.000Z</time>
      </trkpt>
      <trkpt lat="43.57206" lon="5.50133">
        <ele>367.20001220703</ele>
        <time>2013-02-19T11:46:29.000Z</time>
      </trkpt>
      <trkpt lat="43.57233" lon="5.50168">
        <ele>368</ele>
        <time>2013-02-19T11:46:39.000Z</time>
      </trkpt>
      <trkpt lat="43.57264" lon="5.50199">
        <ele>368.39999389648</ele>
        <time>2013-02-19T11:46:49.000Z</time>
      </trkpt>
      <trkpt lat="43.57283" lon="5.50225">
        <ele>367.79998779297</ele>
        <time>2013-02-19T11:46:55.000Z</time>
      </trkpt>
      <trkpt lat="43.57286" lon="5.5023">
        <ele>367.60000610352</ele>
        <time>2013-02-19T11:46:56.000Z</time>
      </trkpt>
      <trkpt lat="43.57336" lon="5.50292">
        <ele>364.20001220703</ele>
        <time>2013-02-19T11:47:09.000Z</time>
      </trkpt>
      <trkpt lat="43.57352" lon="5.5031">
        <ele>363.79998779297</ele>
        <time>2013-02-19T11:47:13.000Z</time>
      </trkpt>
      <trkpt lat="43.57355" lon="5.50314">
        <ele>363.60000610352</ele>
        <time>2013-02-19T11:47:14.000Z</time>
      </trkpt>
      <trkpt lat="43.57389" lon="5.5035">
        <ele>362.79998779297</ele>
        <time>2013-02-19T11:47:23.000Z</time>
      </trkpt>
      <trkpt lat="43.57393" lon="5.50352">
        <ele>362.79998779297</ele>
        <time>2013-02-19T11:47:24.000Z</time>
      </trkpt>
      <trkpt lat="43.57445" lon="5.50376">
        <ele>362.79998779297</ele>
        <time>2013-02-19T11:47:36.000Z</time>
      </trkpt>
      <trkpt lat="43.5746" lon="5.5039">
        <ele>363.60000610352</ele>
        <time>2013-02-19T11:47:40.000Z</time>
      </trkpt>
      <trkpt lat="43.57482" lon="5.50411">
        <ele>364.60000610352</ele>
        <time>2013-02-19T11:47:47.000Z</time>
      </trkpt>
      <trkpt lat="43.57486" lon="5.50411">
        <ele>364.60000610352</ele>
        <time>2013-02-19T11:47:48.000Z</time>
      </trkpt>
      <trkpt lat="43.57489" lon="5.50409">
        <ele>364.60000610352</ele>
        <time>2013-02-19T11:47:49.000Z</time>
      </trkpt>
      <trkpt lat="43.57492" lon="5.50405">
        <ele>364.39999389648</ele>
        <time>2013-02-19T11:47:50.000Z</time>
      </trkpt>
      <trkpt lat="43.57494" lon="5.504">
        <ele>364.20001220703</ele>
        <time>2013-02-19T11:47:51.000Z</time>
      </trkpt>
      <trkpt lat="43.57496" lon="5.50394">
        <ele>364</ele>
        <time>2013-02-19T11:47:52.000Z</time>
      </trkpt>
      <trkpt lat="43.57529" lon="5.50309">
        <ele>360.60000610352</ele>
        <time>2013-02-19T11:48:06.000Z</time>
      </trkpt>
      <trkpt lat="43.57543" lon="5.50283">
        <ele>359.60000610352</ele>
        <time>2013-02-19T11:48:10.000Z</time>
      </trkpt>
      <trkpt lat="43.57548" lon="5.50277">
        <ele>359.39999389648</ele>
        <time>2013-02-19T11:48:11.000Z</time>
      </trkpt>
      <trkpt lat="43.57554" lon="5.50272">
        <ele>359.20001220703</ele>
        <time>2013-02-19T11:48:12.000Z</time>
      </trkpt>
      <trkpt lat="43.57572" lon="5.50256">
        <ele>358.39999389648</ele>
        <time>2013-02-19T11:48:15.000Z</time>
      </trkpt>
      <trkpt lat="43.57591" lon="5.5024">
        <ele>357.39999389648</ele>
        <time>2013-02-19T11:48:18.000Z</time>
      </trkpt>
      <trkpt lat="43.57656" lon="5.50178">
        <ele>353.60000610352</ele>
        <time>2013-02-19T11:48:30.000Z</time>
      </trkpt>
      <trkpt lat="43.57712" lon="5.5012">
        <ele>353.20001220703</ele>
        <time>2013-02-19T11:48:42.000Z</time>
      </trkpt>
      <trkpt lat="43.57765" lon="5.50071">
        <ele>353</ele>
        <time>2013-02-19T11:48:54.000Z</time>
      </trkpt>
      <trkpt lat="43.57825" lon="5.50013">
        <ele>352.20001220703</ele>
        <time>2013-02-19T11:49:07.000Z</time>
      </trkpt>
      <trkpt lat="43.57838" lon="5.49999">
        <ele>351.79998779297</ele>
        <time>2013-02-19T11:49:10.000Z</time>
      </trkpt>
      <trkpt lat="43.57842" lon="5.49992">
        <ele>351.60000610352</ele>
        <time>2013-02-19T11:49:11.000Z</time>
      </trkpt>
      <trkpt lat="43.57844" lon="5.49985">
        <ele>351.39999389648</ele>
        <time>2013-02-19T11:49:12.000Z</time>
      </trkpt>
      <trkpt lat="43.57846" lon="5.49977">
        <ele>351.20001220703</ele>
        <time>2013-02-19T11:49:13.000Z</time>
      </trkpt>
      <trkpt lat="43.57846" lon="5.49969">
        <ele>351</ele>
        <time>2013-02-19T11:49:14.000Z</time>
      </trkpt>
      <trkpt lat="43.57846" lon="5.49961">
        <ele>351</ele>
        <time>2013-02-19T11:49:15.000Z</time>
      </trkpt>
      <trkpt lat="43.57845" lon="5.49953">
        <ele>350.79998779297</ele>
        <time>2013-02-19T11:49:16.000Z</time>
      </trkpt>
      <trkpt lat="43.57846" lon="5.49921">
        <ele>350.39999389648</ele>
        <time>2013-02-19T11:49:20.000Z</time>
      </trkpt>
      <trkpt lat="43.57847" lon="5.49912">
        <ele>350.20001220703</ele>
        <time>2013-02-19T11:49:21.000Z</time>
      </trkpt>
      <trkpt lat="43.57869" lon="5.49858">
        <ele>349</ele>
        <time>2013-02-19T11:49:29.000Z</time>
      </trkpt>
      <trkpt lat="43.57911" lon="5.49804">
        <ele>348.39999389648</ele>
        <time>2013-02-19T11:49:41.000Z</time>
      </trkpt>
      <trkpt lat="43.57921" lon="5.49791">
        <ele>348.39999389648</ele>
        <time>2013-02-19T11:49:44.000Z</time>
      </trkpt>
      <trkpt lat="43.57937" lon="5.49764">
        <ele>348.20001220703</ele>
        <time>2013-02-19T11:49:49.000Z</time>
      </trkpt>
      <trkpt lat="43.57942" lon="5.49752">
        <ele>348.20001220703</ele>
        <time>2013-02-19T11:49:51.000Z</time>
      </trkpt>
      <trkpt lat="43.57945" lon="5.49747">
        <ele>348.20001220703</ele>
        <time>2013-02-19T11:49:52.000Z</time>
      </trkpt>
      <trkpt lat="43.57947" lon="5.49742">
        <ele>348.39999389648</ele>
        <time>2013-02-19T11:49:53.000Z</time>
      </trkpt>
      <trkpt lat="43.57981" lon="5.49685">
        <ele>348.79998779297</ele>
        <time>2013-02-19T11:50:04.000Z</time>
      </trkpt>
      <trkpt lat="43.57992" lon="5.49671">
        <ele>348.79998779297</ele>
        <time>2013-02-19T11:50:07.000Z</time>
      </trkpt>
      <trkpt lat="43.58006" lon="5.49652">
        <ele>348.79998779297</ele>
        <time>2013-02-19T11:50:11.000Z</time>
      </trkpt>
      <trkpt lat="43.58063" lon="5.49584">
        <ele>346.60000610352</ele>
        <time>2013-02-19T11:50:24.000Z</time>
      </trkpt>
      <trkpt lat="43.58139" lon="5.49494">
        <ele>343.39999389648</ele>
        <time>2013-02-19T11:50:41.000Z</time>
      </trkpt>
      <trkpt lat="43.58201" lon="5.49423">
        <ele>343.39999389648</ele>
        <time>2013-02-19T11:50:55.000Z</time>
      </trkpt>
      <trkpt lat="43.58238" lon="5.49388">
        <ele>343.20001220703</ele>
        <time>2013-02-19T11:51:02.000Z</time>
      </trkpt>
      <trkpt lat="43.583" lon="5.49328">
        <ele>343.20001220703</ele>
        <time>2013-02-19T11:51:14.000Z</time>
      </trkpt>
      <trkpt lat="43.58364" lon="5.4927">
        <ele>341</ele>
        <time>2013-02-19T11:51:26.000Z</time>
      </trkpt>
      <trkpt lat="43.58404" lon="5.4923">
        <ele>341.60000610352</ele>
        <time>2013-02-19T11:51:34.000Z</time>
      </trkpt>
      <trkpt lat="43.58469" lon="5.49151">
        <ele>342.20001220703</ele>
        <time>2013-02-19T11:51:48.000Z</time>
      </trkpt>
      <trkpt lat="43.58534" lon="5.49065">
        <ele>341.20001220703</ele>
        <time>2013-02-19T11:52:01.000Z</time>
      </trkpt>
      <trkpt lat="43.5861" lon="5.48952">
        <ele>339</ele>
        <time>2013-02-19T11:52:16.000Z</time>
      </trkpt>
      <trkpt lat="43.58631" lon="5.48923">
        <ele>338.60000610352</ele>
        <time>2013-02-19T11:52:20.000Z</time>
      </trkpt>
      <trkpt lat="43.58638" lon="5.48918">
        <ele>338.60000610352</ele>
        <time>2013-02-19T11:52:21.000Z</time>
      </trkpt>
      <trkpt lat="43.58645" lon="5.48916">
        <ele>338.60000610352</ele>
        <time>2013-02-19T11:52:22.000Z</time>
      </trkpt>
      <trkpt lat="43.58652" lon="5.48915">
        <ele>338.79998779297</ele>
        <time>2013-02-19T11:52:23.000Z</time>
      </trkpt>
      <trkpt lat="43.58659" lon="5.48915">
        <ele>338.79998779297</ele>
        <time>2013-02-19T11:52:24.000Z</time>
      </trkpt>
      <trkpt lat="43.58666" lon="5.48914">
        <ele>338.79998779297</ele>
        <time>2013-02-19T11:52:25.000Z</time>
      </trkpt>
      <trkpt lat="43.58674" lon="5.48912">
        <ele>339.20001220703</ele>
        <time>2013-02-19T11:52:26.000Z</time>
      </trkpt>
      <trkpt lat="43.5868" lon="5.48908">
        <ele>339.60000610352</ele>
        <time>2013-02-19T11:52:27.000Z</time>
      </trkpt>
      <trkpt lat="43.58687" lon="5.48903">
        <ele>339.79998779297</ele>
        <time>2013-02-19T11:52:28.000Z</time>
      </trkpt>
      <trkpt lat="43.58693" lon="5.48898">
        <ele>340</ele>
        <time>2013-02-19T11:52:29.000Z</time>
      </trkpt>
      <trkpt lat="43.58698" lon="5.48892">
        <ele>340.39999389648</ele>
        <time>2013-02-19T11:52:30.000Z</time>
      </trkpt>
      <trkpt lat="43.5877" lon="5.48837">
        <ele>342.39999389648</ele>
        <time>2013-02-19T11:52:42.000Z</time>
      </trkpt>
      <trkpt lat="43.58859" lon="5.48783">
        <ele>343.60000610352</ele>
        <time>2013-02-19T11:52:56.000Z</time>
      </trkpt>
      <trkpt lat="43.5892" lon="5.48766">
        <ele>346.60000610352</ele>
        <time>2013-02-19T11:53:05.000Z</time>
      </trkpt>
      <trkpt lat="43.58973" lon="5.48745">
        <ele>348</ele>
        <time>2013-02-19T11:53:14.000Z</time>
      </trkpt>
      <trkpt lat="43.58984" lon="5.48738">
        <ele>348.20001220703</ele>
        <time>2013-02-19T11:53:16.000Z</time>
      </trkpt>
      <trkpt lat="43.58989" lon="5.48733">
        <ele>348</ele>
        <time>2013-02-19T11:53:17.000Z</time>
      </trkpt>
      <trkpt lat="43.59067" lon="5.48654">
        <ele>344.39999389648</ele>
        <time>2013-02-19T11:53:31.000Z</time>
      </trkpt>
      <trkpt lat="43.59121" lon="5.48573">
        <ele>345</ele>
        <time>2013-02-19T11:53:42.000Z</time>
      </trkpt>
      <trkpt lat="43.59155" lon="5.48512">
        <ele>345.60000610352</ele>
        <time>2013-02-19T11:53:49.000Z</time>
      </trkpt>
      <trkpt lat="43.59161" lon="5.48505">
        <ele>345.79998779297</ele>
        <time>2013-02-19T11:53:50.000Z</time>
      </trkpt>
      <trkpt lat="43.59167" lon="5.48499">
        <ele>345.79998779297</ele>
        <time>2013-02-19T11:53:51.000Z</time>
      </trkpt>
      <trkpt lat="43.59174" lon="5.48493">
        <ele>345.79998779297</ele>
        <time>2013-02-19T11:53:52.000Z</time>
      </trkpt>
      <trkpt lat="43.5918" lon="5.48488">
        <ele>345.60000610352</ele>
        <time>2013-02-19T11:53:53.000Z</time>
      </trkpt>
      <trkpt lat="43.59192" lon="5.48479">
        <ele>345.60000610352</ele>
        <time>2013-02-19T11:53:55.000Z</time>
      </trkpt>
      <trkpt lat="43.59242" lon="5.48447">
        <ele>345.39999389648</ele>
        <time>2013-02-19T11:54:04.000Z</time>
      </trkpt>
      <trkpt lat="43.59248" lon="5.48443">
        <ele>345.39999389648</ele>
        <time>2013-02-19T11:54:05.000Z</time>
      </trkpt>
      <trkpt lat="43.59258" lon="5.48435">
        <ele>345.20001220703</ele>
        <time>2013-02-19T11:54:07.000Z</time>
      </trkpt>
      <trkpt lat="43.59317" lon="5.48376">
        <ele>344.20001220703</ele>
        <time>2013-02-19T11:54:20.000Z</time>
      </trkpt>
      <trkpt lat="43.59374" lon="5.48294">
        <ele>345.20001220703</ele>
        <time>2013-02-19T11:54:33.000Z</time>
      </trkpt>
      <trkpt lat="43.59395" lon="5.48253">
        <ele>346</ele>
        <time>2013-02-19T11:54:38.000Z</time>
      </trkpt>
      <trkpt lat="43.59401" lon="5.48247">
        <ele>346.39999389648</ele>
        <time>2013-02-19T11:54:39.000Z</time>
      </trkpt>
      <trkpt lat="43.59417" lon="5.48232">
        <ele>347.39999389648</ele>
        <time>2013-02-19T11:54:42.000Z</time>
      </trkpt>
      <trkpt lat="43.59424" lon="5.48228">
        <ele>347.79998779297</ele>
        <time>2013-02-19T11:54:43.000Z</time>
      </trkpt>
      <trkpt lat="43.5943" lon="5.48228">
        <ele>348</ele>
        <time>2013-02-19T11:54:44.000Z</time>
      </trkpt>
      <trkpt lat="43.59436" lon="5.48231">
        <ele>348.20001220703</ele>
        <time>2013-02-19T11:54:45.000Z</time>
      </trkpt>
      <trkpt lat="43.59441" lon="5.48234">
        <ele>348.39999389648</ele>
        <time>2013-02-19T11:54:46.000Z</time>
      </trkpt>
      <trkpt lat="43.595" lon="5.48278">
        <ele>350.60000610352</ele>
        <time>2013-02-19T11:54:56.000Z</time>
      </trkpt>
      <trkpt lat="43.5956" lon="5.48343">
        <ele>354.79998779297</ele>
        <time>2013-02-19T11:55:06.000Z</time>
      </trkpt>
      <trkpt lat="43.59611" lon="5.48395">
        <ele>356.39999389648</ele>
        <time>2013-02-19T11:55:14.000Z</time>
      </trkpt>
      <trkpt lat="43.59688" lon="5.48454">
        <ele>358.39999389648</ele>
        <time>2013-02-19T11:55:25.000Z</time>
      </trkpt>
      <trkpt lat="43.59748" lon="5.48482">
        <ele>358.79998779297</ele>
        <time>2013-02-19T11:55:34.000Z</time>
      </trkpt>
      <trkpt lat="43.59787" lon="5.48496">
        <ele>358.60000610352</ele>
        <time>2013-02-19T11:55:42.000Z</time>
      </trkpt>
      <trkpt lat="43.59789" lon="5.485">
        <ele>358.39999389648</ele>
        <time>2013-02-19T11:55:43.000Z</time>
      </trkpt>
      <trkpt lat="43.59791" lon="5.48506">
        <ele>358.20001220703</ele>
        <time>2013-02-19T11:55:44.000Z</time>
      </trkpt>
      <trkpt lat="43.59791" lon="5.48512">
        <ele>358.20001220703</ele>
        <time>2013-02-19T11:55:45.000Z</time>
      </trkpt>
      <trkpt lat="43.5979" lon="5.48518">
        <ele>358</ele>
        <time>2013-02-19T11:55:46.000Z</time>
      </trkpt>
      <trkpt lat="43.59789" lon="5.48524">
        <ele>357.79998779297</ele>
        <time>2013-02-19T11:55:47.000Z</time>
      </trkpt>
      <trkpt lat="43.59788" lon="5.48531">
        <ele>357.60000610352</ele>
        <time>2013-02-19T11:55:48.000Z</time>
      </trkpt>
      <trkpt lat="43.59776" lon="5.4861">
        <ele>356.20001220703</ele>
        <time>2013-02-19T11:56:00.000Z</time>
      </trkpt>
      <trkpt lat="43.59777" lon="5.48616">
        <ele>356.20001220703</ele>
        <time>2013-02-19T11:56:01.000Z</time>
      </trkpt>
      <trkpt lat="43.59777" lon="5.48622">
        <ele>356.20001220703</ele>
        <time>2013-02-19T11:56:02.000Z</time>
      </trkpt>
      <trkpt lat="43.59777" lon="5.48627">
        <ele>356.20001220703</ele>
        <time>2013-02-19T11:56:03.000Z</time>
      </trkpt>
      <trkpt lat="43.59776" lon="5.48632">
        <ele>356.20001220703</ele>
        <time>2013-02-19T11:56:04.000Z</time>
      </trkpt>
      <trkpt lat="43.59769" lon="5.48669">
        <ele>356.20001220703</ele>
        <time>2013-02-19T11:56:14.000Z</time>
      </trkpt>
      <trkpt lat="43.59768" lon="5.48671">
        <ele>356.39999389648</ele>
        <time>2013-02-19T11:56:15.000Z</time>
      </trkpt>
      <trkpt lat="43.59766" lon="5.48681">
        <ele>356.79998779297</ele>
        <time>2013-02-19T11:56:20.000Z</time>
      </trkpt>
      <trkpt lat="43.59763" lon="5.48685">
        <ele>357</ele>
        <time>2013-02-19T11:56:30.000Z</time>
      </trkpt>
      <trkpt lat="43.59762" lon="5.48685">
        <ele>357</ele>
        <time>2013-02-19T11:56:46.000Z</time>
      </trkpt>
      <trkpt lat="43.59765" lon="5.48685">
        <ele>357</ele>
        <time>2013-02-19T11:57:05.000Z</time>
      </trkpt>
      <trkpt lat="43.59763" lon="5.4869">
        <ele>357.39999389648</ele>
        <time>2013-02-19T11:57:20.000Z</time>
      </trkpt>
      <trkpt lat="43.59763" lon="5.48689">
        <ele>357.20001220703</ele>
        <time>2013-02-19T11:57:29.000Z</time>
      </trkpt>
      <trkpt lat="43.59763" lon="5.48689">
        <ele>357.20001220703</ele>
        <time>2013-02-19T11:57:47.000Z</time>
      </trkpt>
    </trkseg>
  </trk>
</gpx>